# Wetter Temperatur Luftdruck Luftfeuchtigkeit Sichtweite Windgeschwindigkeit Windrichtung Zeit
1 Haze 22 1020 73 5000 5.32 343.337 20:56 17.10.2019
2 Haze 22 1020 73 5000 5.32 343.337 20:38 17.10.2019
3 Haze 22 1020 73 5000 5.32 343.337 20:19 17.10.2019
4 Haze 22 1020 73 5000 1.5 320 19:56 17.10.2019
5 Haze 22 1020 73 5000 1.5 320 19:37 17.10.2019
6 Haze 22 1020 73 5000 1.5 320 19:18 17.10.2019
7 Haze 23 1019 64 5000 3.6 340 18:42 17.10.2019
8 Haze 23 1019 64 5000 3.6 340 18:21 17.10.2019
9 Haze 26 1019 42 5000 3.6 270 17:58 17.10.2019
10 Haze 26 1019 42 5000 3.6 270 17:40 17.10.2019
11 Haze 26 1019 42 5000 3.6 270 17:22 17.10.2019
12 Haze 28 1019 34 5000 3.6 260 16:55 17.10.2019
13 Haze 28 1019 34 5000 3.6 260 16:37 17.10.2019
14 Haze 28 1019 34 5000 3.6 260 16:18 17.10.2019
15 Haze 30 1019 32 5000 4.6 260 15:55 17.10.2019
16 Haze 30 1019 32 5000 4.6 260 15:37 17.10.2019
17 Haze 30 1019 32 5000 4.6 260 15:18 17.10.2019
18 Haze 30 1019 35 5000 6.2 280 14:42 17.10.2019
19 Haze 30 1019 35 5000 6.2 280 14:23 17.10.2019
20 Haze 30 1019 32 5000 3.6 80 13:54 17.10.2019
21 Haze 30 1019 32 5000 3.6 80 13:36 17.10.2019
22 Haze 30 1019 32 5000 3.6 80 13:18 17.10.2019
23 Haze 28 1020 34 5000 1.5 180 12:41 17.10.2019
24 Haze 28 1020 34 5000 1.5 180 12:20 17.10.2019
25 Haze 27 1020 39 5000 3.1 170 11:58 17.10.2019
26 Haze 27 1020 39 5000 3.1 170 11:40 17.10.2019
27 Haze 27 1020 39 5000 3.1 170 11:19 17.10.2019
28 Smoke 26 1020 44 4000 1.5 50 10:55 17.10.2019
29 Smoke 26 1020 44 4000 1.5 50 10:36 17.10.2019
30 Smoke 26 1020 44 4000 1.5 50 10:18 17.10.2019
31 Smoke 26 1020 44 4000 1.5 50 10:18 17.10.2019
32 Smoke 24 1020 50 4000 0.5 350 09:42 17.10.2019
33 Smoke 24 1020 50 4000 0.5 350 09:22 17.10.2019
34 Smoke 21 1020 56 3000 0.913 320 08:59 17.10.2019
35 Smoke 21 1020 56 3000 0.913 320 08:41 17.10.2019
36 Smoke 21 1020 56 3000 0.913 320 08:21 17.10.2019
37 Haze 18 1020 68 3000 0.913 320 07:56 17.10.2019
38 Haze 18 1020 68 3000 0.913 320 07:37 17.10.2019
39 Haze 18 1020 68 3000 0.913 320 07:18 17.10.2019
40 -273 0 0 0 0 0 07:18 17.10.2019
41 Haze 17 1019 72 3000 0.913 320 06:40 17.10.2019
42 Haze 17 1019 72 3000 1.72 204 06:21 17.10.2019
43 Haze 18 1019 77 5000 1.72 204 05:54 17.10.2019
44 Haze 18 1019 77 5000 1.72 204 05:32 17.10.2019
45 Haze 18 1019 72 5000 2.1 320 04:55 17.10.2019
46 Haze 18 1019 68 5000 1.72 204 03:55 17.10.2019
47 Haze 19 1019 68 5000 4.464 71 02:50 17.10.2019
48 Haze 19 1019 77 5000 1 320 01:39 17.10.2019
49 Haze 20 1019 64 5000 1.5 330 00:40 17.10.2019
50 Haze 22 1018 77 5000 5.1 60 00:19 17.10.2019
51 Haze 21 1019 69 5000 5.1 160 23:42 16.10.2019
52 Haze 21 1019 69 5000 5.1 160 23:21 16.10.2019
53 Rain 21 1020 53 5000 3.1 220 22:56 16.10.2019
54 Rain 21 1020 53 5000 3.1 220 22:38 16.10.2019
55 Rain 21 1020 53 5000 3.1 220 22:19 16.10.2019
56 Rain 21 1020 53 5000 3.1 220 22:19 16.10.2019
57 Clouds 21 1020 49 6000 5.1 200 21:58 16.10.2019
58 Clouds 21 1020 49 6000 5.1 200 21:38 16.10.2019
59 Rain 21 1019 49 5000 2.1 100 21:20 16.10.2019
60 Thunderstorm 21 1017 60 5000 4.1 70 20:58 16.10.2019
61 Thunderstorm 21 1017 60 5000 4.1 70 20:40 16.10.2019
62 Clouds 21 1018 49 6000 2.1 100 20:21 16.10.2019
63 Rain 22 1017 64 5000 3.6 350 19:59 16.10.2019
64 Rain 22 1017 64 5000 3.6 350 19:39 16.10.2019
65 Rain 22 1017 64 5000 3.6 350 19:39 16.10.2019
66 Rain 22 1017 64 5000 3.6 350 19:21 16.10.2019
67 -273 0 0 0 0 0 18:56 16.10.2019
68 Clouds 23 1017 44 6000 4.726 19 18:56 16.10.2019
69 Clouds 23 1017 44 6000 4.726 19 18:37 16.10.2019
70 Clouds 23 1017 44 6000 3.756 233 18:18 16.10.2019
71 Rain 24 1017 39 5000 2.1 120 17:54 16.10.2019
72 Rain 24 1017 39 5000 2.1 120 17:36 16.10.2019
73 Rain 24 1017 39 5000 2.1 120 17:18 16.10.2019
74 Rain 25 1017 56 4000 5.1 30 16:43 16.10.2019
75 Rain 24 1017 34 5000 3.1 120 16:22 16.10.2019
76 Haze 29 1017 30 5000 3.1 120 15:59 16.10.2019
77 Haze 29 1017 30 5000 3.1 120 15:39 16.10.2019
78 Haze 29 1017 30 5000 3.1 120 15:39 16.10.2019
79 Haze 27 1018 36 5000 4.6 180 15:19 16.10.2019
80 Haze 27 1018 36 5000 4.6 180 14:58 16.10.2019
81 Haze 27 1018 36 5000 4.6 180 14:39 16.10.2019
82 Haze 27 1018 36 5000 4.6 180 14:20 16.10.2019
83 Rain 26 1019 30 6000 3.6 120 13:57 16.10.2019
84 Rain 26 1019 30 6000 3.6 120 13:39 16.10.2019
85 Rain 26 1019 30 6000 3.6 120 13:21 16.10.2019
86 Clouds 27 1019 37 6000 5.7 110 12:42 16.10.2019
87 Clouds 27 1019 37 6000 5.7 110 12:42 16.10.2019
88 Clouds 27 1019 37 6000 5.7 110 12:20 16.10.2019
89 Clouds 26 1019 39 6000 6.2 110 11:55 16.10.2019
90 Clouds 26 1019 39 6000 6.2 110 11:37 16.10.2019
91 Haze 25 1019 44 4000 5.1 100 11:18 16.10.2019
92 Clouds 25 1020 47 6000 2.6 140 10:36 16.10.2019
93 Clouds 25 1020 47 6000 2.6 140 10:18 16.10.2019
94 Rain 22 1020 60 5000 4.1 120 09:40 16.10.2019
95 Rain 22 1020 60 5000 4.1 120 09:40 16.10.2019
96 Rain 22 1020 60 5000 4.1 120 09:22 16.10.2019
97 Rain 21 1020 60 3000 5.1 100 08:57 16.10.2019
98 Haze 20 1020 60 5000 4.6 130 08:39 16.10.2019
99 Haze 20 1020 60 5000 4.6 130 08:39 16.10.2019
100 Haze 20 1020 60 5000 4.6 130 08:20 16.10.2019
101 Rain 21 1019 60 4000 5.1 120 07:43 16.10.2019
102 Thunderstorm 21 1019 60 3000 4.1 120 07:24 16.10.2019
103 Haze 21 1018 49 4000 3.1 90 06:51 16.10.2019
104 Haze 21 1018 49 4000 3.1 90 06:30 16.10.2019
105 Rain 22 1018 56 3000 5.1 50 05:22 16.10.2019
106 Haze 22 1020 49 5000 2.1 300 02:53 16.10.2019
107 Haze 21 1018 56 5000 1.78 168 01:39 16.10.2019
108 Haze 21 1018 56 5000 1.78 168 01:18 16.10.2019
109 Haze 22 1018 60 5000 1.78 168 00:45 16.10.2019
110 Haze 23 1019 64 5000 1.841 147 23:59 15.10.2019
111 Haze 23 1019 64 5000 1.841 147 23:39 15.10.2019
112 Haze 23 1019 64 5000 1.841 147 23:21 15.10.2019
113 Haze 23 1019 64 5000 1.841 147 23:21 15.10.2019
114 Haze 23 1019 64 5000 1.841 147 22:55 15.10.2019
115 Haze 23 1019 60 5000 1.841 147 22:37 15.10.2019
116 Haze 23 1019 60 5000 1.841 147 22:19 15.10.2019
117 Haze 23 1019 60 5000 1.841 147 21:55 15.10.2019
118 Haze 24 1019 56 5000 3.453 149 21:37 15.10.2019
119 Haze 24 1019 56 5000 9.161 155 21:19 15.10.2019
120 Haze 24 1019 56 5000 9.161 155 20:57 15.10.2019
121 Haze 25 1018 41 5000 3.1 50 20:39 15.10.2019
122 Haze 25 1018 41 5000 3.1 50 20:20 15.10.2019
123 Haze 26 1018 41 5000 3.1 50 19:57 15.10.2019
124 Haze 26 1018 36 5000 1 170 19:39 15.10.2019
125 Haze 26 1018 36 5000 1 170 19:19 15.10.2019
126 Haze 26 1018 36 5000 1 170 19:19 15.10.2019
127 Haze 27 1018 26 5000 1.5 160 18:47 15.10.2019
128 Haze 27 1018 26 5000 1.5 160 18:28 15.10.2019
129 Haze 28 1018 34 5000 3.1 250 17:58 15.10.2019
130 Haze 28 1018 34 5000 3.1 250 17:39 15.10.2019
131 Haze 28 1018 34 5000 3.1 250 17:20 15.10.2019
132 Haze 28 1018 34 4000 5.1 230 16:55 15.10.2019
133 Haze 29 1018 30 4000 4.6 250 16:37 15.10.2019
134 Haze 29 1018 30 4000 4.6 250 16:19 15.10.2019
135 Dust 30 1018 25 4000 8.7 230 15:41 15.10.2019
136 Dust 30 1018 25 4000 8.7 230 15:41 15.10.2019
137 Dust 30 1018 25 4000 8.7 230 15:20 15.10.2019
138 Rain 31 1018 27 3000 9.3 220 14:58 15.10.2019
139 Dust 32 1017 22 2500 8.2 200 14:38 15.10.2019
140 Dust 32 1017 22 2500 8.2 200 14:20 15.10.2019
141 Haze 32 1018 21 5000 1.5 130 13:55 15.10.2019
142 Haze 32 1018 20 5000 2.6 160 13:37 15.10.2019
143 Haze 32 1018 20 5000 2.6 160 13:18 15.10.2019
144 Haze 32 1019 25 5000 2.6 130 12:41 15.10.2019
145 Haze 32 1019 25 5000 2.6 130 12:21 15.10.2019
146 Haze 30 1020 30 5000 5.1 110 11:56 15.10.2019
147 Haze 30 1020 30 5000 5.1 110 11:37 15.10.2019
148 Haze 30 1020 30 5000 5.1 110 11:19 15.10.2019
149 Dust 29 1020 26 2500 9.3 100 10:44 15.10.2019
150 Dust 29 1020 26 2500 9.3 100 10:44 15.10.2019
151 Haze 29 1020 26 2500 9.3 100 10:21 15.10.2019
152 Haze 27 1021 36 5000 2.6 90 09:58 15.10.2019
153 Haze 27 1021 36 5000 2.6 90 09:38 15.10.2019
154 Haze 27 1021 36 5000 2.6 90 09:19 15.10.2019
155 -273 0 0 0 0 0 08:55 15.10.2019
156 Haze 25 1021 44 4000 2.6 90 08:36 15.10.2019
157 Haze 25 1021 44 4000 2.6 90 08:36 15.10.2019
158 Haze 25 1021 44 4000 2.6 90 08:18 15.10.2019
159 Haze 23 1021 64 4000 6.28 110.673 07:41 15.10.2019
160 Haze 23 1021 64 4000 6.28 110.673 07:21 15.10.2019
161 Thunderstorm 21 1021 68 4000 4.1 280 06:47 15.10.2019
162 Thunderstorm 21 1021 68 4000 4.1 280 06:29 15.10.2019
163 Thunderstorm 22 1021 64 3000 4.1 280 05:48 15.10.2019
164 Thunderstorm 22 1021 64 3000 4.1 280 05:29 15.10.2019
165 Thunderstorm 22 1020 60 4000 2.1 100 04:39 15.10.2019
166 Thunderstorm 22 1020 60 4000 2.1 100 03:57 15.10.2019
167 Thunderstorm 22 1020 64 4000 1 100 03:27 15.10.2019
168 Thunderstorm 23 1020 60 4000 2.1 60 01:51 15.10.2019
169 Thunderstorm 23 1020 60 4000 2.1 60 01:24 15.10.2019
170 Thunderstorm 24 1022 49 4000 5.1 240 00:52 15.10.2019
171 -273 0 0 0 0 0 00:24 15.10.2019
172 Thunderstorm 26 1020 41 4000 5.1 100 23:55 14.10.2019
173 Thunderstorm 26 1021 34 4000 2.1 130 23:36 14.10.2019
174 Thunderstorm 26 1021 34 4000 2.1 130 23:18 14.10.2019
175 Dust 27 1020 28 4000 4.1 100 22:39 14.10.2019
176 Dust 27 1020 28 4000 4.1 100 22:19 14.10.2019
177 Haze 27 1019 32 4000 7.7 90 21:57 14.10.2019
178 Haze 27 1019 28 5000 4.1 100 21:39 14.10.2019
179 Haze 27 1019 28 5000 4.1 100 21:20 14.10.2019
180 Haze 28 1019 25 5000 3.1 110 20:57 14.10.2019
181 Haze 28 1019 25 5000 3.1 110 20:38 14.10.2019
182 Haze 28 1019 25 5000 3.1 110 20:19 14.10.2019
183 Haze 29 1019 26 5000 2.1 100 19:44 14.10.2019
184 Haze 29 1019 26 5000 2.1 100 19:25 14.10.2019
185 Haze 29 1018 27 5000 1.5 90 18:59 14.10.2019
186 Haze 29 1018 27 5000 1.5 90 18:40 14.10.2019
187 Haze 29 1018 27 5000 1.5 90 18:21 14.10.2019
188 Haze 32 1018 25 5000 1.5 90 17:59 14.10.2019
189 Haze 32 1018 25 5000 1.5 90 17:41 14.10.2019
190 Haze 32 1018 25 5000 1.5 90 17:22 14.10.2019
191 Haze 34 1018 20 6000 2.6 120 16:45 14.10.2019
192 Haze 34 1018 20 6000 2.6 120 16:22 14.10.2019
193 Haze 34 1018 15 6000 2.1 100 15:59 14.10.2019
194 Haze 34 1018 15 6000 2.1 100 15:40 14.10.2019
195 Haze 34 1018 15 6000 2.1 100 15:21 14.10.2019
196 Haze 34 1019 15 6000 2.1 350 14:44 14.10.2019
197 Haze 34 1019 15 6000 2.1 350 14:25 14.10.2019
198 Haze 34 1019 17 6000 1.5 130 13:57 14.10.2019
199 Haze 34 1019 17 6000 1.5 130 13:39 14.10.2019
200 Haze 34 1019 16 6000 1.5 130 13:20 14.10.2019
201 Haze 33 1020 19 6000 4.1 130 12:41 14.10.2019
202 Haze 33 1020 19 6000 4.1 130 12:20 14.10.2019
203 Haze 32 1021 22 5000 3.1 90 11:55 14.10.2019
204 Haze 32 1021 22 5000 3.1 90 11:36 14.10.2019
205 Haze 32 1021 22 5000 3.1 90 11:18 14.10.2019
206 Haze 30 1021 26 5000 3.1 50 10:43 14.10.2019
207 Haze 30 1021 26 5000 3.1 50 10:43 14.10.2019
208 Haze 28 1021 26 5000 3.1 50 10:21 14.10.2019
209 Haze 28 1021 30 4000 2.1 50 09:59 14.10.2019
210 Haze 28 1021 30 4000 2.1 50 09:59 14.10.2019
211 Haze 28 1021 30 4000 2.1 50 09:38 14.10.2019
212 Haze 28 1021 30 4000 2.1 50 09:20 14.10.2019
213 Haze 25 1020 41 3000 4.61 115.621 08:48 14.10.2019
214 Haze 25 1020 41 3000 4.61 115.621 08:23 14.10.2019
215 Smoke 21 1020 52 4000 4.61 115.621 07:44 14.10.2019
216 Smoke 21 1020 52 4000 4.61 115.621 07:22 14.10.2019
217 Haze 18 1019 42 4000 1 50 06:56 14.10.2019
218 Haze 19 1019 43 5000 3.6 240 06:28 14.10.2019
219 Haze 21 1019 40 5000 3.6 240 05:53 14.10.2019
220 Haze 22 1018 36 6000 3.6 240 04:53 14.10.2019
221 Clouds 22 1018 29 7000 3.6 170 03:49 14.10.2019
222 Clouds 22 1018 29 7000 3.6 170 03:22 14.10.2019
223 Clouds 24 1019 27 6000 3.6 160 01:56 14.10.2019
224 Clouds 23 1019 27 6000 3.6 160 01:18 14.10.2019
225 Clouds 23 1019 27 6000 4.6 130 00:41 14.10.2019
226 Rain 23 1019 27 6000 4.6 130 00:18 14.10.2019
227 Rain 25 1018 31 6000 4.07 125.068 23:40 13.10.2019
228 Rain 25 1018 31 6000 4.07 125.068 23:19 13.10.2019
229 Rain 24 1018 31 6000 4.07 125.068 22:56 13.10.2019
230 Rain 24 1018 31 6000 4.07 125.068 22:38 13.10.2019
231 Rain 24 1018 31 6000 4.07 125.068 22:19 13.10.2019
232 Haze 25 1018 34 5000 4.07 125.068 21:56 13.10.2019
233 Haze 25 1018 34 5000 4.07 125.068 21:36 13.10.2019
234 Haze 25 1018 34 5000 4.07 125.068 21:36 13.10.2019
235 Haze 25 1018 34 5000 2.75 72.309 21:18 13.10.2019
236 Haze 25 1018 34 5000 2.75 72.309 21:18 13.10.2019
237 Haze 25 1017 30 5000 2.75 72.309 20:55 13.10.2019
238 Haze 25 1017 30 5000 5.25 53.846 20:37 13.10.2019
239 Haze 25 1017 30 5000 5.25 53.846 20:18 13.10.2019
240 Haze 27 1017 30 5000 5.25 53.846 19:54 13.10.2019
241 Haze 27 1017 30 5000 5.25 53.846 19:36 13.10.2019
242 Haze 27 1017 30 5000 5.25 53.846 19:18 13.10.2019
243 Haze 29 1016 28 5000 5.25 53.846 18:41 13.10.2019
244 Haze 29 1016 28 5000 1.74 108.945 18:21 13.10.2019
245 Haze 32 1016 23 5000 1.5 80 17:59 13.10.2019
246 Haze 32 1016 23 5000 1.5 80 17:41 13.10.2019
247 Haze 32 1016 23 5000 1.5 80 17:41 13.10.2019
248 Haze 32 1016 23 5000 1.5 80 17:23 13.10.2019
249 Haze 33 1016 19 5000 1.5 80 16:44 13.10.2019
250 Haze 33 1016 19 5000 1.5 80 16:20 13.10.2019
251 Haze 33 1016 19 5000 1.5 80 16:20 13.10.2019
252 Haze 33 1016 17 5000 2.6 80 15:58 13.10.2019
253 Haze 33 1016 17 5000 2.6 80 15:58 13.10.2019
254 Haze 33 1016 17 5000 2.6 80 15:39 13.10.2019
255 Haze 33 1016 17 5000 2.6 80 15:21 13.10.2019
256 Haze 33 1016 16 5000 2.6 130 14:58 13.10.2019
257 Haze 33 1016 16 5000 2.6 130 14:40 13.10.2019
258 Haze 33 1016 16 5000 2.6 130 14:21 13.10.2019
259 Haze 33 1017 16 4500 4.1 80 13:58 13.10.2019
260 Haze 33 1017 16 4500 4.1 80 13:38 13.10.2019
261 Haze 33 1017 16 4500 4.1 80 13:20 13.10.2019
262 Haze 33 1017 18 5000 3.1 80 12:56 13.10.2019
263 Haze 33 1017 18 5000 3.1 80 12:38 13.10.2019
264 Haze 33 1017 18 5000 3.1 80 12:18 13.10.2019
265 Haze 30 1018 20 5000 4.1 100 11:55 13.10.2019
266 Haze 30 1018 20 5000 4.1 100 11:55 13.10.2019
267 Haze 30 1018 20 5000 4.1 100 11:37 13.10.2019
268 Haze 30 1018 20 5000 4.1 100 11:18 13.10.2019
269 Haze 27 1018 20 6000 2.6 60 10:41 13.10.2019
270 Haze 27 1018 20 6000 2.6 60 10:23 13.10.2019
271 Haze 25 1018 28 5000 2.6 90 09:56 13.10.2019
272 Haze 25 1018 28 5000 2.6 90 09:37 13.10.2019
273 Haze 25 1018 28 5000 2.6 90 09:19 13.10.2019
274 Smoke 21 1018 49 4000 0.35 148.424 08:43 13.10.2019
275 Smoke 21 1018 49 4000 0.35 148.424 08:21 13.10.2019
276 Haze 19 1017 60 2500 0.35 148.424 07:46 13.10.2019
277 Haze 19 1017 60 2500 0.35 148.424 07:23 13.10.2019
278 Haze 16 1017 72 3000 0.35 148.424 06:46 13.10.2019
279 Haze 16 1017 64 5000 2.75 305.741 05:50 13.10.2019
280 Haze 17 1017 64 5000 1 140 04:52 13.10.2019
281 Haze 17 1017 64 5000 1 140 04:32 13.10.2019
282 Haze 18 1017 68 5000 0.5 180 02:47 13.10.2019
283 Haze 18 1017 68 5000 0.5 180 02:18 13.10.2019
284 Haze 17 1017 77 5000 3.83 306.774 01:31 13.10.2019
285 Haze 17 1017 77 5000 3.83 306.774 01:31 13.10.2019
286 Haze 18 1017 72 5000 3.35 306.479 00:50 13.10.2019
287 Haze 19 1017 72 5000 3.7 308.616 00:22 13.10.2019
288 Haze 19 1017 68 5000 1.5 300 23:58 12.10.2019
289 Haze 19 1017 68 5000 1.5 300 23:39 12.10.2019
290 Haze 19 1017 68 5000 1.5 300 23:21 12.10.2019
291 Clear 20 1017 73 6000 1 300 22:58 12.10.2019
292 Clear 20 1017 73 6000 1 300 22:39 12.10.2019
293 Clear 20 1017 73 6000 1 300 22:20 12.10.2019
294 Clear 21 1017 68 6000 1 250 21:55 12.10.2019
295 Clear 21 1017 68 6000 1 250 21:37 12.10.2019
296 Clear 21 1017 68 6000 1 250 21:19 12.10.2019
297 Clear 21 1017 68 6000 2.1 250 20:43 12.10.2019
298 Clear 21 1017 68 6000 2.1 250 20:25 12.10.2019
299 Clear 24 1017 64 6000 3.1 290 19:40 12.10.2019
300 Clear 24 1017 64 6000 3.1 290 19:22 12.10.2019
301 Clear 24 1017 64 6000 3.1 290 19:22 12.10.2019
302 Clear 24 1017 64 6000 4.6 320 18:59 12.10.2019
303 Clear 24 1017 64 6000 4.6 320 18:41 12.10.2019
304 Clear 24 1017 64 6000 4.6 320 18:23 12.10.2019
305 Haze 26 1016 50 6000 5.1 290 17:45 12.10.2019
306 Haze 26 1016 50 6000 5.1 290 17:20 12.10.2019
307 Haze 28 1016 39 6000 5.1 320 16:56 12.10.2019
308 Haze 28 1016 39 6000 5.1 320 16:38 12.10.2019
309 Haze 28 1016 39 6000 5.1 320 16:19 12.10.2019
310 Haze 29 1016 34 5000 6.2 310 15:44 12.10.2019
311 Haze 29 1016 34 5000 6.2 310 15:25 12.10.2019
312 Haze 29 1016 34 5000 6.2 310 15:25 12.10.2019
313 Haze 30 1016 32 6000 4.6 320 14:59 12.10.2019
314 Haze 30 1016 32 6000 4.6 320 14:38 12.10.2019
315 Haze 30 1016 32 6000 4.6 320 14:19 12.10.2019
316 Haze 29 1016 34 6000 4.1 320 13:45 12.10.2019
317 Haze 29 1016 34 6000 4.1 320 13:27 12.10.2019
318 Haze 29 1017 34 6000 3.1 360 12:55 12.10.2019
319 Haze 29 1017 34 6000 3.1 360 12:36 12.10.2019
320 Haze 29 1017 34 6000 3.1 360 12:18 12.10.2019
321 Haze 28 1017 39 6000 3.1 350 11:40 12.10.2019
322 Haze 28 1017 39 6000 3.1 350 11:22 12.10.2019
323 Haze 26 1017 47 6000 2.6 30 10:56 12.10.2019
324 Haze 26 1017 47 6000 2.6 30 10:37 12.10.2019
325 Haze 24 1017 47 6000 2.6 30 10:19 12.10.2019
326 -273 0 0 0 0 0 09:56 12.10.2019
327 Haze 23 1017 64 5000 2.1 340 09:37 12.10.2019
328 Haze 23 1017 64 5000 2.1 340 09:19 12.10.2019
329 Haze 19 1017 64 5000 2.6 350 08:43 12.10.2019
330 Haze 19 1017 64 5000 2.6 350 08:23 12.10.2019
331 Haze 17 1017 77 5000 2.1 280 07:49 12.10.2019
332 Haze 17 1017 77 5000 2.1 280 07:30 12.10.2019
333 Haze 15 1017 82 5000 4.83 313.188 05:54 12.10.2019
334 Haze 15 1017 82 5000 4.83 313.188 05:26 12.10.2019
335 Haze 16 1017 82 5000 4.83 313.188 04:31 12.10.2019
336 Haze 16 1017 72 5000 2.1 260 03:53 12.10.2019
337 Haze 17 1017 72 5000 1.5 240 02:37 12.10.2019
338 Haze 18 1017 68 5000 2.6 240 01:32 12.10.2019
339 Haze 19 1016 64 5000 4.6 250 00:55 12.10.2019
340 Haze 19 1016 64 5000 4.6 250 00:37 12.10.2019
341 Haze 20 1017 60 5000 3.6 250 23:55 11.10.2019
342 Haze 20 1017 60 5000 3.6 250 23:36 11.10.2019
343 Haze 20 1017 60 5000 3.6 250 23:18 11.10.2019
344 Haze 22 1017 64 5000 3.1 240 22:37 11.10.2019
345 Haze 22 1017 64 5000 3.1 240 22:19 11.10.2019
346 Haze 23 1016 64 5000 2.6 240 21:42 11.10.2019
347 Haze 23 1016 64 5000 2.6 240 21:21 11.10.2019
348 Haze 23 1016 64 5000 2.6 240 21:21 11.10.2019
349 Haze 23 1016 57 5000 2.1 280 20:57 11.10.2019
350 Haze 23 1016 57 5000 2.1 280 20:38 11.10.2019
351 Haze 23 1016 57 5000 2.1 280 20:20 11.10.2019
352 Clouds 24 1016 60 6000 3.1 330 19:55 11.10.2019
353 Clouds 24 1016 60 6000 3.1 330 19:37 11.10.2019
354 Clouds 24 1016 60 6000 3.1 330 19:18 11.10.2019
355 Clouds 24 1016 60 6000 3.1 330 19:18 11.10.2019
356 Clouds 24 1016 60 6000 3.1 330 19:18 11.10.2019
357 Clouds 24 1016 60 6000 3.1 330 19:18 11.10.2019
358 Clouds 24 1016 60 6000 3.1 330 19:18 11.10.2019
359 Haze 26 1015 57 5000 5.1 310 18:56 11.10.2019
360 Haze 26 1015 57 5000 5.1 310 18:37 11.10.2019
361 Haze 26 1015 57 5000 5.1 310 18:18 11.10.2019
362 Haze 28 1015 32 4000 5.7 320 17:55 11.10.2019
363 Haze 28 1015 32 4000 5.7 320 17:36 11.10.2019
364 Haze 28 1015 32 4000 5.7 320 17:18 11.10.2019
365 Haze 30 1016 20 5000 4.6 340 16:40 11.10.2019
366 Haze 30 1016 20 5000 4.6 340 16:20 11.10.2019
367 Haze 32 1016 29 5000 3.6 250 15:59 11.10.2019
368 Haze 32 1016 29 5000 3.6 250 15:59 11.10.2019
369 Haze 32 1016 29 5000 3.6 250 15:38 11.10.2019
370 Haze 32 1016 29 5000 3.6 250 15:19 11.10.2019
371 Haze 32 1016 19 5000 2.1 320 14:47 11.10.2019
372 Haze 32 1016 19 5000 2.1 320 14:29 11.10.2019
373 Haze 32 1016 16 5000 1.5 40 13:57 11.10.2019
374 Haze 32 1016 16 5000 1.5 40 13:38 11.10.2019
375 Haze 32 1016 16 5000 1.5 40 13:19 11.10.2019
376 Haze 31 1017 20 5000 3.1 240 12:56 11.10.2019
377 Haze 31 1017 20 5000 3.1 240 12:38 11.10.2019
378 Haze 31 1017 20 5000 3.1 240 12:18 11.10.2019
379 Haze 30 1018 19 5000 3.1 32 11:41 11.10.2019
380 Haze 30 1018 19 5000 3.1 32 11:22 11.10.2019
381 Haze 30 1018 16 5000 3.55 301.766 10:58 11.10.2019
382 Haze 30 1018 16 5000 3.55 301.766 10:58 11.10.2019
383 Haze 30 1018 16 5000 3.55 301.766 10:40 11.10.2019
384 Haze 30 1018 16 5000 3.55 301.766 10:22 11.10.2019
385 Haze 26 1018 15 5000 1.5 30 09:56 11.10.2019
386 Haze 26 1018 15 5000 1.5 30 09:37 11.10.2019
387 Haze 26 1018 15 5000 1.5 30 09:19 11.10.2019
388 Haze 24 1018 31 5000 2.1 240 08:55 11.10.2019
389 Haze 24 1018 31 5000 2.1 240 08:37 11.10.2019
390 Haze 24 1018 31 5000 2.1 240 08:19 11.10.2019
391 Haze 20 1017 64 5000 4.84 307.637 07:44 11.10.2019
392 Haze 20 1017 64 5000 4.84 307.637 07:25 11.10.2019
393 Haze 18 1017 60 5000 4.84 307.637 06:49 11.10.2019
394 Haze 18 1017 60 5000 4.11 308.721 06:24 11.10.2019
395 Haze 18 1017 56 5000 4.11 308.721 05:41 11.10.2019
396 Haze 19 1018 52 5000 1.5 230 04:59 11.10.2019
397 Haze 19 1018 52 5000 1.5 230 04:25 11.10.2019
398 Haze 21 1017 53 5000 3.1 240 02:40 11.10.2019
399 Haze 22 1017 53 5000 3.1 240 00:51 11.10.2019
400 Haze 22 1017 53 5000 3.1 240 00:29 11.10.2019
401 Haze 22 1018 47 5000 3.1 250 23:46 10.10.2019
402 Haze 22 1018 47 5000 3.1 250 23:23 10.10.2019
403 Haze 22 1018 47 5000 1.5 340 22:58 10.10.2019
404 Haze 22 1018 47 5000 1.5 340 22:39 10.10.2019
405 Haze 22 1018 47 5000 1.5 340 22:21 10.10.2019
406 Haze 23 1018 47 5000 5.67 321.784 21:58 10.10.2019
407 Haze 23 1018 47 5000 5.67 321.784 21:40 10.10.2019
408 Haze 25 1018 47 5000 3.9 325.401 21:21 10.10.2019
409 Haze 25 1018 47 5000 1 140 20:57 10.10.2019
410 Haze 25 1018 47 5000 1 140 20:38 10.10.2019
411 Haze 25 1018 47 5000 1 140 20:18 10.10.2019
412 Haze 26 1017 41 6000 2.6 330 19:54 10.10.2019
413 Haze 26 1017 41 6000 2.6 330 19:36 10.10.2019
414 Haze 26 1017 41 6000 2.6 330 19:18 10.10.2019
415 Haze 27 1017 36 5000 1.5 300 18:41 10.10.2019
416 Haze 27 1017 36 5000 1.5 300 18:20 10.10.2019
417 Haze 30 1017 23 5000 3.1 250 17:55 10.10.2019
418 Haze 30 1017 23 5000 3.1 250 17:37 10.10.2019
419 Haze 30 1017 23 5000 3.1 250 17:18 10.10.2019
420 Haze 32 1017 25 5000 3.6 250 16:47 10.10.2019
421 Haze 32 1017 25 5000 3.6 250 16:26 10.10.2019
422 Haze 33 1017 22 5000 4.1 250 15:58 10.10.2019
423 Haze 33 1017 22 5000 4.1 250 15:38 10.10.2019
424 Haze 33 1017 22 5000 4.1 250 15:20 10.10.2019
425 Haze 34 1017 20 5000 1 290 14:55 10.10.2019
426 Haze 34 1017 20 5000 1 290 14:36 10.10.2019
427 Haze 34 1017 20 5000 1 290 14:18 10.10.2019
428 Haze 34 1018 17 5000 1.5 50 13:46 10.10.2019
429 Haze 34 1018 17 5000 1.5 50 13:27 10.10.2019
430 Haze 32 1019 20 5000 2.1 80 12:59 10.10.2019
431 Haze 32 1019 20 5000 2.1 80 12:40 10.10.2019
432 Haze 32 1019 20 5000 2.1 80 12:20 10.10.2019
433 Haze 31 1019 28 5000 2.1 70 11:58 10.10.2019
434 Haze 31 1019 28 5000 2.1 70 11:38 10.10.2019
435 Haze 31 1019 28 5000 2.1 70 11:19 10.10.2019
436 Haze 29 1020 20 5000 1.28 296.045 10:45 10.10.2019
437 Haze 29 1020 20 5000 1.28 296.045 10:26 10.10.2019
438 Smoke 26 1019 27 5000 1.28 296.045 09:58 10.10.2019
439 Smoke 26 1019 27 5000 1.28 296.045 09:39 10.10.2019
440 Smoke 26 1019 27 5000 2.87 307.586 09:21 10.10.2019
441 Smoke 22 1019 40 5000 1 90 08:57 10.10.2019
442 Smoke 22 1019 40 5000 1 90 08:38 10.10.2019
443 -273 0 0 0 0 0 08:19 10.10.2019
444 Haze 19 1020 45 2500 3.42 321.28 07:45 10.10.2019
445 Haze 19 1020 45 2500 3.42 321.28 07:22 10.10.2019
446 Haze 17 1019 52 2500 2.1 60 06:48 10.10.2019
447 Haze 17 1019 52 2500 2.1 60 06:29 10.10.2019
448 Haze 18 1019 46 5000 1.5 230 05:28 10.10.2019
449 Haze 17 1019 37 5000 1.5 210 04:48 10.10.2019
450 Haze 17 1019 37 5000 1.5 210 04:26 10.10.2019
451 Haze 19 1020 37 5000 1 240 01:46 10.10.2019
452 Haze 19 1020 37 5000 1 240 01:26 10.10.2019
453 Clear 20 1020 37 6000 4.2 319.002 00:59 10.10.2019
454 Clear 20 1020 37 6000 4.42 312.626 00:23 10.10.2019
455 Haze 21 1020 33 6000 4.42 312.626 23:40 09.10.2019
456 Haze 21 1020 33 6000 4.42 312.626 23:22 09.10.2019
457 Haze 22 1020 31 6000 2.1 180 22:59 09.10.2019
458 Haze 22 1020 31 6000 2.1 180 22:40 09.10.2019
459 Haze 22 1020 31 6000 2.1 180 22:22 09.10.2019
460 Haze 23 1020 31 6000 4.42 312.626 21:41 09.10.2019
461 Haze 23 1020 31 6000 5.28 325.519 21:21 09.10.2019
462 Haze 24 1020 36 6000 4.64 328.291 20:56 09.10.2019
463 Haze 24 1020 36 6000 4.64 328.291 20:38 09.10.2019
464 Haze 24 1020 36 6000 4.64 328.291 20:38 09.10.2019
465 Haze 24 1020 36 6000 4.64 328.291 20:19 09.10.2019
466 Haze 23 1020 64 6000 2.1 320 19:58 09.10.2019
467 Haze 23 1020 64 6000 2.1 320 19:40 09.10.2019
468 Haze 23 1020 64 6000 2.1 320 19:22 09.10.2019
469 Haze 23 1020 64 6000 2.1 320 19:22 09.10.2019
470 Clear 24 1016 35 0 4.64 328.291 18:38 09.10.2019
471 Haze 29 1019 18 5000 3.6 310 18:20 09.10.2019
472 Haze 29 1019 18 5000 3.6 310 17:58 09.10.2019
473 Haze 29 1019 18 5000 3.6 310 17:58 09.10.2019
474 Haze 29 1019 18 5000 3.6 310 17:39 09.10.2019
475 Haze 29 1019 18 5000 3.6 310 17:21 09.10.2019
476 Haze 32 1018 19 5000 3.1 350 16:56 09.10.2019
477 Haze 32 1018 19 5000 3.1 350 16:56 09.10.2019
478 Haze 32 1018 19 5000 3.1 350 16:56 09.10.2019
479 Haze 32 1018 19 5000 3.1 350 16:37 09.10.2019
480 Haze 32 1018 19 5000 3.1 350 16:19 09.10.2019
481 Haze 33 1019 21 5000 4.1 350 15:55 09.10.2019
482 Haze 33 1019 21 5000 4.1 350 15:37 09.10.2019
483 Haze 33 1019 21 5000 4.1 350 15:18 09.10.2019
484 -273 0 0 0 0 0 14:45 09.10.2019
485 Haze 33 1019 18 5000 2.1 20 14:19 09.10.2019
486 Haze 33 1019 15 5000 4.1 10 13:59 09.10.2019
487 Haze 33 1019 15 5000 4.1 10 13:38 09.10.2019
488 Haze 33 1019 15 5000 4.1 10 13:18 09.10.2019
489 Haze 33 1020 18 5000 3.18 292.635 12:44 09.10.2019
490 Haze 33 1020 18 5000 3.18 300.374 12:23 09.10.2019
491 Haze 31 1020 20 5000 3.18 300.374 11:58 09.10.2019
492 Haze 31 1020 20 5000 3.18 300.374 11:40 09.10.2019
493 Haze 31 1020 20 5000 3.18 300.374 11:20 09.10.2019
494 Haze 30 1021 23 5000 3.18 300.374 10:59 09.10.2019
495 Haze 30 1021 23 5000 3.18 300.374 10:40 09.10.2019
496 Haze 30 1021 23 5000 3.18 300.374 10:19 09.10.2019
497 Haze 30 1021 23 5000 3.18 300.374 10:19 09.10.2019
498 Smoke 27 1021 36 5000 3.18 300.374 09:43 09.10.2019
499 Smoke 27 1021 36 5000 3.53 305.741 09:21 09.10.2019
500 Smoke 23 1021 38 5000 3.53 305.741 08:58 09.10.2019
501 Smoke 23 1021 38 5000 3.18 309.198 08:39 09.10.2019
502 Smoke 23 1021 38 5000 3.18 309.198 08:19 09.10.2019
503 Smoke 23 1021 38 5000 3.18 309.198 08:19 09.10.2019
504 Smoke 19 1020 56 3500 3.18 309.198 07:47 09.10.2019
505 Smoke 19 1020 56 3500 3.18 309.198 07:25 09.10.2019
506 Smoke 18 1020 55 3500 1.5 360 06:58 09.10.2019
507 Smoke 18 1020 55 3500 1.5 360 06:35 09.10.2019
508 Haze 18 1020 59 5000 3.86 328.369 05:52 09.10.2019
509 Haze 19 1020 64 6000 2.6 300 04:56 09.10.2019
510 Haze 18 1020 64 6000 2.6 300 03:48 09.10.2019
511 Haze 19 1020 64 6000 2.6 300 02:27 09.10.2019
512 Haze 20 1020 64 6000 2.6 300 01:39 09.10.2019
513 Haze 20 1020 64 6000 2.6 300 01:18 09.10.2019
514 Haze 21 1020 60 6000 2.6 300 00:41 09.10.2019
515 Haze 21 1020 60 6000 2.6 300 00:23 09.10.2019
516 Haze 21 1020 64 6000 2.86 319.301 23:58 08.10.2019
517 Haze 21 1020 64 6000 2.86 319.301 23:38 08.10.2019
518 Haze 21 1020 64 6000 2.86 319.301 23:18 08.10.2019
519 Haze 21 1020 64 6000 2.86 319.301 23:18 08.10.2019
520 Haze 22 1020 60 5000 1.5 320 22:55 08.10.2019
521 Haze 22 1020 60 5000 1.5 320 22:36 08.10.2019
522 Haze 22 1020 60 5000 1.5 320 22:18 08.10.2019
523 Haze 23 1020 56 5000 1 320 21:55 08.10.2019
524 Haze 23 1020 56 5000 1 320 21:36 08.10.2019
525 Haze 23 1020 56 5000 1 320 21:18 08.10.2019
526 Haze 24 1019 53 5000 3.1 320 20:55 08.10.2019
527 -273 0 0 0 0 0 20:55 08.10.2019
528 Haze 24 1019 53 5000 3.1 320 20:36 08.10.2019
529 Haze 24 1019 53 5000 3.1 320 20:18 08.10.2019
530 Haze 25 1019 41 5000 2.6 330 19:54 08.10.2019
531 Haze 25 1019 41 5000 2.6 330 19:36 08.10.2019
532 Haze 25 1019 41 5000 2.6 330 19:18 08.10.2019
533 Haze 27 1018 41 5000 2.1 320 18:41 08.10.2019
534 Haze 27 1018 41 5000 2.1 320 18:23 08.10.2019
535 Haze 30 1017 30 5000 5.1 330 17:57 08.10.2019
536 Haze 30 1017 30 5000 5.1 330 17:57 08.10.2019
537 Haze 30 1017 30 5000 5.1 330 17:39 08.10.2019
538 Haze 30 1017 30 5000 5.1 330 17:19 08.10.2019
539 Clouds 31 1017 18 6000 4.6 270 16:56 08.10.2019
540 Clouds 31 1017 18 6000 4.6 270 16:37 08.10.2019
541 Clouds 31 1017 18 6000 4.6 270 16:18 08.10.2019
542 Clouds 32 1017 18 6000 4.6 250 15:38 08.10.2019
543 Clouds 32 1017 18 6000 4.6 250 15:20 08.10.2019
544 Haze 32 1017 22 6000 4.6 250 14:56 08.10.2019
545 Haze 32 1017 22 6000 4.6 250 14:37 08.10.2019
546 Haze 32 1017 22 6000 4.6 250 14:19 08.10.2019
547 -273 0 0 0 0 0 13:55 08.10.2019
548 Haze 33 1017 21 6000 3.1 230 13:37 08.10.2019
549 Haze 33 1017 21 6000 3.1 230 13:18 08.10.2019
550 Haze 33 1017 21 6000 3.1 230 13:18 08.10.2019
551 Haze 31 1017 30 5000 1.5 250 12:41 08.10.2019
552 Haze 31 1017 30 5000 1.5 250 12:20 08.10.2019
553 Haze 30 1018 28 5000 2.1 150 11:58 08.10.2019
554 Haze 30 1018 28 5000 2.1 150 11:39 08.10.2019
555 Haze 30 1018 28 5000 2.1 150 11:21 08.10.2019
556 Haze 30 1018 28 5000 2.1 150 11:21 08.10.2019
557 -273 0 0 0 0 0 10:54 08.10.2019
558 Haze 28 1018 30 5000 1.5 90 10:54 08.10.2019
559 Haze 28 1018 30 5000 1.5 90 10:36 08.10.2019
560 Haze 28 1018 30 5000 1.5 90 10:18 08.10.2019
561 Smoke 26 1018 34 5000 2.88 152.572 09:40 08.10.2019
562 Smoke 26 1018 34 5000 0.29 227.416 09:22 08.10.2019
563 Smoke 24 1018 43 4000 0.29 227.416 08:45 08.10.2019
564 Smoke 24 1018 43 4000 0.35 301.885 08:25 08.10.2019
565 Smoke 19 1017 60 4000 0.35 301.885 07:58 08.10.2019
566 Smoke 19 1017 60 4000 0.35 301.885 07:40 08.10.2019
567 Smoke 19 1017 60 4000 0.35 301.885 07:19 08.10.2019
568 Haze 18 1016 59 5000 0.35 301.885 06:46 08.10.2019
569 Haze 18 1016 59 5000 1.96 312.868 06:23 08.10.2019
570 Haze 18 1016 63 5000 1.96 312.868 05:43 08.10.2019
571 Haze 18 1016 63 5000 1.96 312.868 05:43 08.10.2019
572 Haze 18 1016 63 5000 1.96 312.868 05:21 08.10.2019
573 Clear 20 1016 63 6000 1.96 312.868 03:32 08.10.2019
574 Clear 20 1016 59 6000 2.18 303.748 02:44 08.10.2019
575 Clear 20 1016 59 6000 2.18 303.748 02:25 08.10.2019
576 Clear 19 1016 56 6000 2.18 303.748 01:42 08.10.2019
577 Clear 19 1016 56 6000 1.86 315.807 00:57 08.10.2019
578 Clear 19 1016 56 6000 1.86 315.807 00:57 08.10.2019
579 Clear 19 1016 56 6000 1.86 315.807 00:36 08.10.2019
580 Clear 19 1016 56 6000 2.21 304.488 00:18 08.10.2019
581 Clear 20 1016 60 6000 2.21 304.488 23:38 07.10.2019
582 Clear 20 1016 60 6000 2.21 304.488 23:19 07.10.2019
583 Clear 20 1016 56 7000 2.21 304.488 22:55 07.10.2019
584 Clear 20 1016 56 7000 2.21 304.488 22:37 07.10.2019
585 Clear 20 1016 56 7000 2.21 304.488 22:19 07.10.2019
586 Haze 21 1016 73 5000 2.21 304.488 21:55 07.10.2019
587 Haze 21 1016 73 5000 2.21 304.488 21:37 07.10.2019
588 Haze 21 1016 73 5000 3.74 347.533 21:18 07.10.2019
589 Haze 22 1015 46 5000 4.08 341.955 20:56 07.10.2019
590 Haze 22 1015 46 5000 4.08 341.955 20:38 07.10.2019
591 Haze 22 1015 46 5000 4.08 341.955 20:19 07.10.2019
592 Haze 23 1015 44 5000 2.6 320 19:54 07.10.2019
593 Haze 23 1015 44 5000 2.6 320 19:36 07.10.2019
594 Haze 23 1015 44 5000 2.6 320 19:18 07.10.2019
595 Haze 26 1015 29 5000 2.6 290 18:42 07.10.2019
596 Haze 26 1015 29 5000 2.6 290 18:19 07.10.2019
597 Haze 28 1015 22 5000 2.1 280 17:59 07.10.2019
598 Haze 28 1015 22 5000 2.1 280 17:41 07.10.2019
599 Haze 28 1015 22 5000 2.1 280 17:19 07.10.2019
600 Haze 29 1014 21 6000 3.1 260 16:55 07.10.2019
601 Haze 29 1014 21 6000 3.1 260 16:55 07.10.2019
602 Haze 29 1014 21 6000 3.1 260 16:37 07.10.2019
603 Haze 29 1014 21 6000 3.1 260 16:18 07.10.2019
604 Haze 30 1015 18 7000 4.6 280 15:41 07.10.2019
605 Haze 30 1015 18 7000 4.6 280 15:41 07.10.2019
606 Haze 30 1015 18 7000 4.6 280 15:22 07.10.2019
607 Haze 30 1015 21 7000 3.6 250 14:42 07.10.2019
608 Haze 30 1015 21 7000 3.6 250 14:23 07.10.2019
609 Haze 29 1015 23 7000 2.6 250 13:59 07.10.2019
610 Haze 29 1015 23 7000 2.6 250 13:40 07.10.2019
611 Haze 29 1015 23 7000 2.6 250 13:18 07.10.2019
612 Haze 28 1015 21 6000 3.6 270 12:54 07.10.2019
613 Haze 28 1015 21 6000 3.6 270 12:36 07.10.2019
614 Haze 28 1015 21 6000 3.6 270 12:36 07.10.2019
615 Haze 28 1015 21 6000 3.6 270 12:18 07.10.2019
616 Haze 27 1015 36 6000 1.5 140 11:56 07.10.2019
617 Haze 27 1015 36 6000 1.5 140 11:36 07.10.2019
618 Haze 27 1015 36 6000 1.5 140 11:18 07.10.2019
619 Haze 24 1016 44 10000 1.5 120 10:40 07.10.2019
620 Haze 24 1016 44 10000 1.5 120 10:20 07.10.2019
621 Haze 22 1016 53 6000 2.57 269.176 09:42 07.10.2019
622 Haze 22 1016 53 6000 3.66 319.477 09:23 07.10.2019
623 Haze 20 1016 64 5000 2.6 280 08:55 07.10.2019
624 Haze 20 1016 64 5000 2.6 280 08:37 07.10.2019
625 Haze 20 1016 64 5000 2.6 280 08:18 07.10.2019
626 Mist 17 1015 88 4000 3.61 321.625 07:40 07.10.2019
627 Mist 17 1015 88 4000 3.61 321.625 07:20 07.10.2019
628 Mist 16 1014 88 5000 3.61 321.625 06:48 07.10.2019
629 Mist 16 1014 88 5000 3.61 321.625 06:27 07.10.2019
630 Mist 15 1014 88 5000 4.19 326.386 05:42 07.10.2019
631 Mist 15 1014 88 5000 4.19 326.386 05:21 07.10.2019
632 Mist 17 1014 93 4000 4.19 326.386 04:23 07.10.2019
633 Mist 17 1014 88 5000 4.19 326.386 03:44 07.10.2019
634 Mist 17 1014 88 5000 3.08 325.603 03:19 07.10.2019
635 Mist 16 1014 88 5000 3.08 325.603 02:20 07.10.2019
636 Mist 17 1014 82 5000 3.08 325.603 01:50 07.10.2019
637 Mist 17 1014 82 5000 3 321.889 01:21 07.10.2019
638 Haze 18 1014 82 5000 3 321.889 00:39 07.10.2019
639 Haze 19 1015 77 6000 3.1 280 00:20 07.10.2019
640 Haze 19 1014 82 5000 4.32 329.036 23:42 06.10.2019
641 Haze 19 1014 82 5000 4.32 329.036 23:22 06.10.2019
642 Clear 19 1015 72 6000 3.1 320 22:59 06.10.2019
643 Clear 19 1015 72 6000 3.1 320 22:41 06.10.2019
644 Clear 19 1015 72 6000 3.1 320 22:22 06.10.2019
645 Clear 20 1015 72 6000 3.1 320 21:58 06.10.2019
646 Clear 20 1015 72 6000 3.1 320 21:38 06.10.2019
647 Clear 20 1015 72 6000 3.1 320 21:19 06.10.2019
648 Haze 21 1014 73 5000 4.1 300 20:58 06.10.2019
649 Haze 21 1014 73 5000 4.1 300 20:40 06.10.2019
650 Haze 21 1014 73 5000 4.1 300 20:40 06.10.2019
651 Haze 21 1014 73 5000 4.1 300 20:21 06.10.2019
652 Haze 23 1014 68 5000 5.1 320 19:57 06.10.2019
653 Haze 23 1014 68 5000 5.1 320 19:37 06.10.2019
654 Haze 23 1014 68 5000 5.1 320 19:19 06.10.2019
655 Haze 24 1014 41 5000 6.7 320 18:57 06.10.2019
656 Haze 24 1014 41 5000 6.7 320 18:39 06.10.2019
657 Haze 24 1014 41 5000 6.7 320 18:19 06.10.2019
658 Haze 26 1014 34 5000 5.7 300 17:58 06.10.2019
659 Haze 26 1014 34 5000 5.7 300 17:39 06.10.2019
660 Haze 26 1014 34 5000 5.7 300 17:19 06.10.2019
661 Dust 28 1014 32 6000 7.2 280 16:42 06.10.2019
662 Dust 28 1014 32 6000 7.2 280 16:24 06.10.2019
663 Dust 30 1014 25 6000 7.7 270 15:58 06.10.2019
664 Dust 30 1014 25 6000 7.7 270 15:39 06.10.2019
665 Dust 30 1014 25 6000 7.7 270 15:18 06.10.2019
666 Dust 30 1014 25 6000 7.7 270 15:18 06.10.2019
667 Dust 30 1014 25 6000 6.7 300 14:43 06.10.2019
668 Dust 30 1014 25 6000 6.7 300 14:24 06.10.2019
669 Haze 30 1014 19 6000 7.2 280 13:58 06.10.2019
670 Haze 30 1014 19 6000 7.2 280 13:39 06.10.2019
671 Haze 30 1014 19 6000 7.2 280 13:39 06.10.2019
672 Haze 30 1014 19 6000 7.2 280 13:21 06.10.2019
673 Haze 30 1014 19 6000 7.2 280 13:20 06.10.2019
674 Haze 30 1014 23 5000 4.6 280 12:57 06.10.2019
675 Haze 30 1014 23 5000 4.6 280 12:39 06.10.2019
676 Haze 30 1014 23 5000 4.6 280 12:20 06.10.2019
677 Haze 30 1014 23 5000 4.6 280 12:20 06.10.2019
678 Haze 29 1015 23 5000 1.5 230 11:57 06.10.2019
679 Haze 29 1015 23 5000 1.5 230 11:38 06.10.2019
680 Haze 29 1015 23 5000 1.5 230 11:20 06.10.2019
681 Haze 26 1015 22 5000 1.5 230 10:44 06.10.2019
682 Haze 26 1015 22 5000 1.5 230 10:44 06.10.2019
683 Haze 26 1015 22 5000 1.5 230 10:26 06.10.2019
684 Haze 24 1015 23 5000 3.1 250 09:58 06.10.2019
685 Haze 24 1015 23 5000 3.1 250 09:39 06.10.2019
686 Haze 24 1015 23 5000 3.1 250 09:19 06.10.2019
687 Haze 22 1015 20 5000 3.6 250 08:43 06.10.2019
688 Haze 22 1015 20 5000 3.6 250 08:21 06.10.2019
689 Haze 18 1015 27 5000 2.1 260 07:56 06.10.2019
690 Haze 18 1015 27 5000 2.1 260 07:56 06.10.2019
691 Haze 18 1015 27 5000 2.1 260 07:33 06.10.2019
692 Haze 17 1014 18 5000 3.66 314.17 06:23 06.10.2019
693 Haze 17 1014 18 5000 3.66 314.17 05:35 06.10.2019
694 Clouds 17 1014 13 6000 3.66 314.17 04:26 06.10.2019
695 Clouds 19 1014 16 7000 3.1 270 02:46 06.10.2019
696 Clouds 19 1014 16 7000 3.1 270 02:27 06.10.2019
697 Clouds 19 1014 19 7000 2.6 230 01:46 06.10.2019
698 Clouds 19 1014 19 7000 2.6 230 01:27 06.10.2019
699 Clouds 20 1014 33 7000 2.6 220 00:57 06.10.2019
700 Clouds 20 1014 33 7000 2.6 220 00:57 06.10.2019
701 Clouds 20 1014 33 7000 2.6 220 00:28 06.10.2019
702 Haze 20 1014 56 7000 5.59 333.091 23:45 05.10.2019
703 Haze 20 1014 56 7000 5.59 333.091 23:23 05.10.2019
704 Haze 21 1014 49 7000 5.59 333.091 22:59 05.10.2019
705 Haze 21 1014 49 7000 5.59 333.091 22:40 05.10.2019
706 Haze 21 1014 49 7000 5.59 333.091 22:21 05.10.2019
707 Haze 22 1014 60 7000 5.59 333.091 21:59 05.10.2019
708 Haze 22 1014 60 7000 5.59 333.091 21:40 05.10.2019
709 Haze 22 1014 60 7000 4.68 301.413 21:21 05.10.2019
710 Rain 22 1014 49 6000 2.1 250 20:56 05.10.2019
711 Rain 22 1014 49 6000 2.1 250 20:38 05.10.2019
712 Rain 22 1014 49 6000 2.1 250 20:38 05.10.2019
713 Rain 22 1014 49 6000 2.1 250 20:19 05.10.2019
714 Rain 24 1014 38 5000 3.6 280 19:40 05.10.2019
715 Rain 24 1014 38 5000 3.6 280 19:22 05.10.2019
716 Haze 24 1013 29 6000 4.32 318.606 18:57 05.10.2019
717 Haze 24 1013 29 6000 4.32 318.606 18:39 05.10.2019
718 Haze 24 1013 29 6000 5.67 321.823 18:21 05.10.2019
719 Haze 26 1014 24 6000 4.1 330 17:56 05.10.2019
720 Haze 26 1014 24 6000 4.1 330 17:37 05.10.2019
721 Haze 26 1014 24 6000 4.1 330 17:19 05.10.2019
722 Haze 27 1013 22 5000 2.6 320 16:42 05.10.2019
723 Haze 27 1013 22 5000 2.6 320 16:22 05.10.2019
724 Haze 26 1013 24 2000 5.1 280 15:58 05.10.2019
725 Haze 26 1013 24 2000 5.1 280 15:40 05.10.2019
726 Haze 28 1013 29 5000 3.1 320 15:21 05.10.2019
727 Haze 28 1013 29 5000 3.1 320 15:21 05.10.2019
728 Thunderstorm 32 1013 19 5000 4.1 310 14:58 05.10.2019
729 Thunderstorm 32 1013 19 5000 4.1 310 14:58 05.10.2019
730 Thunderstorm 32 1013 19 5000 4.1 310 14:40 05.10.2019
731 Haze 32 1013 15 5000 4.1 260 14:20 05.10.2019
732 Haze 32 1014 10 5000 2.6 330 13:42 05.10.2019
733 Haze 32 1014 10 5000 2.6 330 13:22 05.10.2019
734 Haze 31 1015 15 5000 1 240 12:47 05.10.2019
735 Haze 31 1015 15 5000 1 240 12:21 05.10.2019
736 Haze 31 1015 15 5000 1 240 12:21 05.10.2019
737 Haze 30 1015 9 5000 5.1 250 11:59 05.10.2019
738 Haze 30 1015 9 5000 5.1 250 11:39 05.10.2019
739 Haze 30 1015 9 5000 5.1 250 11:19 05.10.2019
740 Smoke 27 1015 15 5000 3.1 240 10:45 05.10.2019
741 Smoke 27 1015 15 5000 3.1 240 10:26 05.10.2019
742 Smoke 25 1015 31 4000 1.5 350 09:59 05.10.2019
743 Smoke 25 1015 31 4000 1.5 350 09:39 05.10.2019
744 Smoke 24 1015 36 5000 1.5 350 09:20 05.10.2019
745 Smoke 21 1015 49 5000 2.6 350 08:40 05.10.2019
746 Smoke 21 1015 49 5000 2.6 350 08:21 05.10.2019
747 Smoke 21 1015 49 5000 2.6 350 08:21 05.10.2019
748 Smoke 18 1016 55 4000 1 0 07:58 05.10.2019
749 Smoke 18 1016 55 4000 1 0 07:37 05.10.2019
750 Smoke 18 1016 55 4000 1 0 07:19 05.10.2019
751 Haze 15 1015 63 4000 1 0 06:28 05.10.2019
752 Haze 15 1015 59 5000 2.96 318.967 05:59 05.10.2019
753 Haze 16 1015 52 5000 2.96 318.967 04:42 05.10.2019
754 Haze 16 1015 55 5000 1 180 03:29 05.10.2019
755 Clear 17 1015 49 6000 1.5 300 01:59 05.10.2019
756 Clear 17 1015 49 6000 1.5 300 01:24 05.10.2019
757 Clear 18 1016 43 6000 1.5 300 00:46 05.10.2019
758 Clear 18 1016 43 6000 1.5 300 00:27 05.10.2019
759 Clear 18 1016 40 6000 1 300 23:46 04.10.2019
760 Clear 18 1016 40 6000 1 300 23:28 04.10.2019
761 Clear 19 1016 40 6000 3.52 303.835 22:59 04.10.2019
762 Clear 19 1016 40 6000 3.52 303.835 22:41 04.10.2019
763 Clear 19 1016 40 6000 3.52 303.835 22:23 04.10.2019
764 Clear 21 1016 35 6000 1.5 300 21:58 04.10.2019
765 Clear 21 1016 35 6000 1.5 300 21:58 04.10.2019
766 Clear 21 1016 35 6000 1.5 300 21:39 04.10.2019
767 Clear 21 1016 35 6000 1.5 300 21:21 04.10.2019
768 Clear 21 1016 31 6000 4.74 338.778 20:57 04.10.2019
769 Clear 21 1016 31 6000 4.81 337.783 20:39 04.10.2019
770 Clear 21 1016 31 6000 4.81 337.783 20:21 04.10.2019
771 -273 0 0 0 0 0 19:55 04.10.2019
772 Clear 23 1016 31 6000 4.81 337.783 19:37 04.10.2019
773 Clear 23 1016 31 6000 4.81 337.783 19:18 04.10.2019
774 Clear 25 1016 24 6000 2.1 300 18:39 04.10.2019
775 Clear 25 1016 11 6000 2.1 300 18:20 04.10.2019
776 Clear 25 1016 11 6000 2.1 300 18:20 04.10.2019
777 Clear 28 1016 10 7000 3.1 260 17:58 04.10.2019
778 Clear 28 1016 10 7000 3.1 260 17:39 04.10.2019
779 Clear 28 1016 10 7000 3.1 260 17:20 04.10.2019
780 Clear 30 1016 9 7000 3.1 280 16:55 04.10.2019
781 Clear 30 1016 9 7000 3.1 280 16:37 04.10.2019
782 Clear 30 1016 9 7000 3.1 280 16:18 04.10.2019
783 Clear 30 1016 10 7000 2.1 220 15:55 04.10.2019
784 Clear 30 1016 10 7000 2.1 220 15:55 04.10.2019
785 Clear 30 1016 10 7000 2.1 220 15:37 04.10.2019
786 Clear 30 1016 10 7000 2.1 220 15:19 04.10.2019
787 Clear 31 1016 9 7000 2.61 290.684 14:54 04.10.2019
788 Clear 31 1016 9 7000 2.61 290.684 14:36 04.10.2019
789 Clear 31 1016 9 7000 2.61 290.684 14:18 04.10.2019
790 Clear 31 1017 17 7000 2.6 170 13:42 04.10.2019
791 Clear 31 1017 17 7000 2.6 170 13:19 04.10.2019
792 Clear 30 1017 20 7000 1.5 290 12:46 04.10.2019
793 Clear 30 1017 20 7000 1.5 290 12:28 04.10.2019
794 Clear 28 1018 24 7000 1.49 271.233 11:59 04.10.2019
795 Clear 28 1018 24 7000 1.49 271.233 11:40 04.10.2019
796 Clear 28 1018 24 7000 1.49 271.233 11:40 04.10.2019
797 Clear 28 1018 24 7000 1.49 271.233 11:20 04.10.2019
798 Haze 25 1018 33 5000 3.1 60 10:40 04.10.2019
799 Haze 25 1018 33 5000 3.1 60 10:21 04.10.2019
800 Haze 22 1018 40 5000 1.5 90 09:47 04.10.2019
801 Haze 22 1018 40 5000 1.5 90 09:28 04.10.2019
802 Haze 18 1018 55 5000 1 90 08:57 04.10.2019
803 Haze 18 1018 55 5000 1 90 08:38 04.10.2019
804 Haze 18 1018 55 5000 1 90 08:20 04.10.2019
805 Haze 16 1018 48 5000 2.12 302.695 07:45 04.10.2019
806 Haze 16 1018 48 5000 2.12 302.695 07:22 04.10.2019
807 Haze 13 1017 59 5000 1.5 240 06:44 04.10.2019
808 Haze 13 1017 59 5000 1.5 240 06:25 04.10.2019
809 Haze 15 1017 55 5000 1.5 240 05:52 04.10.2019
810 Haze 15 1017 55 5000 1.5 240 05:19 04.10.2019
811 Haze 15 1017 55 5000 2.6 240 03:50 04.10.2019
812 Haze 16 1017 63 5000 2.89 327.43 02:54 04.10.2019
813 Haze 16 1017 63 5000 2.89 327.43 02:18 04.10.2019
814 Clear 16 1017 59 6000 0.5 30 01:42 04.10.2019
815 Clear 16 1017 59 6000 0.5 30 01:23 04.10.2019
816 Clear 18 1018 63 6000 4.68 316.047 23:59 03.10.2019
817 Clear 18 1018 63 6000 4.68 316.047 23:37 03.10.2019
818 Clear 18 1018 63 6000 4.68 316.047 23:18 03.10.2019
819 Clear 18 1018 63 6000 4.68 316.047 23:18 03.10.2019
820 Clear 19 1018 60 6000 1.5 30 22:56 03.10.2019
821 Clear 19 1018 60 6000 1.5 30 22:38 03.10.2019
822 Clear 19 1018 60 6000 1.5 30 22:38 03.10.2019
823 Clear 19 1018 60 6000 1.5 30 22:20 03.10.2019
824 Clear 19 1018 68 6000 1 330 21:56 03.10.2019
825 Clear 19 1018 68 6000 1 330 21:37 03.10.2019
826 Clear 19 1018 68 6000 1 330 21:19 03.10.2019
827 Clear 20 1016 60 6000 1.5 350 20:56 03.10.2019
828 Clear 20 1016 60 6000 1.5 350 20:37 03.10.2019
829 Clear 20 1016 60 6000 1.5 350 20:19 03.10.2019
830 Clouds 23 1018 53 6000 4.6 320 19:55 03.10.2019
831 Clouds 23 1018 53 6000 4.6 320 19:55 03.10.2019
832 Clouds 23 1018 53 6000 4.6 320 19:36 03.10.2019
833 Clouds 23 1018 53 6000 4.6 320 19:18 03.10.2019
834 Clouds 24 1017 47 6000 3.1 280 18:40 03.10.2019
835 Clouds 24 1017 47 6000 3.1 280 18:19 03.10.2019
836 Haze 25 1017 36 6000 3.6 270 17:59 03.10.2019
837 Haze 25 1017 36 6000 3.6 270 17:41 03.10.2019
838 Haze 27 1017 34 6000 6.7 270 17:20 03.10.2019
839 -273 0 0 0 0 0 16:54 03.10.2019
840 -273 0 0 0 0 0 16:54 03.10.2019
841 Haze 27 1017 34 6000 6.7 270 16:36 03.10.2019
842 Haze 27 1017 34 6000 6.7 270 16:18 03.10.2019
843 Haze 27 1017 28 6000 5.7 280 15:42 03.10.2019
844 Haze 27 1017 28 6000 5.7 280 15:23 03.10.2019
845 Haze 28 1017 30 6000 4.6 250 14:56 03.10.2019
846 Haze 28 1017 30 6000 4.6 250 14:56 03.10.2019
847 Haze 28 1017 30 6000 4.6 250 14:36 03.10.2019
848 Haze 28 1017 30 6000 4.6 250 14:36 03.10.2019
849 Haze 28 1017 30 6000 4.6 250 14:18 03.10.2019
850 Haze 28 1016 24 6000 3.1 250 13:43 03.10.2019
851 Haze 28 1016 24 6000 3.1 250 13:22 03.10.2019
852 Haze 27 1017 28 7000 5.1 240 12:58 03.10.2019
853 Haze 27 1017 28 7000 5.1 240 12:39 03.10.2019
854 Haze 27 1017 28 7000 5.1 240 12:19 03.10.2019
855 Haze 27 1017 29 7000 5.1 320 11:57 03.10.2019
856 Haze 27 1017 29 7000 5.1 320 11:38 03.10.2019
857 Haze 27 1017 29 7000 5.1 320 11:20 03.10.2019
858 Haze 25 1017 41 6000 3.1 290 10:55 03.10.2019
859 Haze 25 1017 41 6000 3.1 290 10:37 03.10.2019
860 Haze 25 1017 41 6000 3.1 290 10:18 03.10.2019
861 Haze 22 1017 43 5000 4.1 250 09:55 03.10.2019
862 Haze 22 1017 43 5000 4.1 250 09:37 03.10.2019
863 Haze 20 1017 43 5000 4.1 250 09:18 03.10.2019
864 Haze 19 1017 60 5000 4.1 240 08:41 03.10.2019
865 Haze 19 1017 60 5000 4.1 240 08:23 03.10.2019
866 Haze 17 1017 63 5000 3.1 240 07:41 03.10.2019
867 Haze 17 1017 63 5000 3.1 240 07:20 03.10.2019
868 Haze 15 1016 72 5000 3.25 306.715 06:52 03.10.2019
869 Haze 15 1016 72 4000 3.25 306.715 06:26 03.10.2019
870 Haze 15 1016 72 5000 2.52 313.906 05:48 03.10.2019
871 Haze 15 1016 72 5000 2.52 313.906 05:25 03.10.2019
872 Haze 16 1016 82 5000 2.52 313.906 04:40 03.10.2019
873 Clear 17 1016 82 6000 2.52 313.906 03:36 03.10.2019
874 Clear 17 1016 82 6000 3.89 310.828 03:18 03.10.2019
875 Clear 17 1016 82 6000 3.89 310.828 03:18 03.10.2019
876 Clear 18 1016 82 6000 3.89 310.828 02:21 03.10.2019
877 Clear 19 1016 68 6000 3.89 310.828 01:37 03.10.2019
878 Clear 20 1016 68 6000 3.6 300 00:52 03.10.2019
879 Clear 20 1016 68 6000 3.6 300 00:31 03.10.2019
880 Clear 20 1016 49 6000 5.65 323.745 23:44 02.10.2019
881 Clear 20 1016 49 6000 5.65 323.745 23:24 02.10.2019
882 Clear 20 1016 73 6000 3.1 260 22:57 02.10.2019
883 Clear 20 1016 73 6000 3.1 260 22:38 02.10.2019
884 Clear 20 1016 73 6000 3.1 260 22:18 02.10.2019
885 Clear 21 1016 68 6000 3.6 250 21:55 02.10.2019
886 Clear 21 1016 68 6000 3.6 250 21:36 02.10.2019
887 Clear 21 1016 68 6000 3.6 250 21:18 02.10.2019
888 Clear 22 1016 40 6000 6.86 335.304 20:55 02.10.2019
889 Clear 22 1016 40 6000 6.86 335.304 20:37 02.10.2019
890 Clear 22 1016 40 6000 6.86 335.304 20:18 02.10.2019
891 Clear 23 1016 57 7000 2.6 290 19:43 02.10.2019
892 Clear 23 1016 57 7000 2.6 290 19:23 02.10.2019
893 Clear 25 1016 50 7000 4.1 260 18:58 02.10.2019
894 Clear 25 1016 50 7000 4.1 260 18:39 02.10.2019
895 Clear 25 1016 50 7000 4.1 260 18:21 02.10.2019
896 Haze 27 1015 36 7000 4.6 270 17:58 02.10.2019
897 Haze 27 1015 36 7000 4.6 270 17:38 02.10.2019
898 Haze 27 1015 36 7000 4.6 270 17:20 02.10.2019
899 Haze 28 1015 28 8000 3.6 280 16:57 02.10.2019
900 Haze 28 1015 28 8000 3.6 280 16:37 02.10.2019
901 Haze 29 1015 23 8000 5.1 260 16:18 02.10.2019
902 -273 0 0 0 0 0 15:55 02.10.2019
903 Haze 29 1015 23 8000 5.1 260 15:37 02.10.2019
904 Haze 29 1015 23 8000 5.1 260 15:18 02.10.2019
905 Haze 29 1015 21 8000 4.6 270 14:43 02.10.2019
906 Haze 29 1015 21 8000 4.6 270 14:23 02.10.2019
907 Haze 28 1015 30 5000 6.2 260 13:56 02.10.2019
908 Clear 29 1015 28 7000 4.1 270 13:37 02.10.2019
909 Clear 29 1015 28 7000 4.1 270 13:19 02.10.2019
910 Clear 29 1015 28 7000 4.1 270 13:19 02.10.2019
911 Haze 28 1015 32 6000 4.1 270 12:40 02.10.2019
912 Haze 28 1015 32 6000 4.1 270 12:22 02.10.2019
913 Haze 26 1016 44 6000 2.6 310 11:58 02.10.2019
914 Haze 26 1016 44 6000 2.6 310 11:40 02.10.2019
915 Haze 26 1016 44 6000 2.6 310 11:18 02.10.2019
916 Haze 25 1016 53 6000 5.1 250 10:38 02.10.2019
917 Haze 25 1016 53 6000 5.1 250 10:19 02.10.2019
918 Haze 23 1016 60 5000 3.1 240 09:40 02.10.2019
919 Haze 23 1016 60 5000 3.1 240 09:20 02.10.2019
920 Haze 20 1015 64 5000 2.1 60 08:56 02.10.2019
921 Haze 20 1015 64 5000 2.1 60 08:37 02.10.2019
922 Haze 20 1015 64 5000 2.1 60 08:19 02.10.2019
923 Haze 18 1014 82 4000 4.34 311.304 07:39 02.10.2019
924 Haze 18 1014 82 4000 4.34 311.304 07:21 02.10.2019
925 Haze 16 1014 82 4000 4.34 311.304 06:54 02.10.2019
926 Mist 16 1014 88 3000 4.39 309.288 05:56 02.10.2019
927 Mist 16 1014 88 5000 4.39 309.288 05:25 02.10.2019
928 Mist 16 1014 88 5000 4.39 309.288 05:25 02.10.2019
929 Mist 17 1014 88 5000 4.39 309.288 04:58 02.10.2019
930 Mist 17 1014 87 5000 4.39 309.288 03:53 02.10.2019
931 Mist 17 1014 88 5000 1.5 20 03:24 02.10.2019
932 Mist 18 1014 82 5000 2.1 20 02:26 02.10.2019
933 Haze 18 1014 82 5000 4.22 308.692 01:56 02.10.2019
934 Haze 19 1014 77 5000 1.5 260 00:52 02.10.2019
935 Haze 20 1014 77 5000 1.5 260 00:29 02.10.2019
936 Haze 20 1014 77 5000 1.5 260 23:55 01.10.2019
937 Haze 20 1013 73 5000 2.1 260 23:36 01.10.2019
938 Haze 20 1013 73 5000 2.1 260 23:18 01.10.2019
939 Clear 21 1013 68 6000 4.1 240 22:57 01.10.2019
940 Clear 21 1013 68 6000 4.1 240 22:37 01.10.2019
941 Clear 21 1013 68 6000 4.1 240 22:18 01.10.2019
942 Clear 21 1013 68 6000 4.1 240 22:18 01.10.2019
943 Clear 21 1013 68 6000 3.1 260 21:42 01.10.2019
944 Clear 21 1013 68 6000 3.1 260 21:22 01.10.2019
945 Clear 22 1013 68 6000 3.1 260 20:58 01.10.2019
946 Clear 22 1013 64 6000 2.6 280 20:39 01.10.2019
947 Clear 22 1013 64 6000 2.6 280 20:20 01.10.2019
948 Clear 23 1013 69 6000 3.1 280 19:58 01.10.2019
949 Clear 23 1013 69 6000 3.1 280 19:39 01.10.2019
950 Clear 23 1013 69 6000 3.1 280 19:21 01.10.2019
951 Haze 25 1012 64 5000 4.6 310 18:56 01.10.2019
952 Haze 25 1012 64 5000 4.6 310 18:38 01.10.2019
953 Haze 25 1012 64 5000 4.6 310 18:19 01.10.2019
954 Haze 28 1012 42 5000 4.1 320 17:43 01.10.2019
955 Haze 28 1012 42 5000 4.1 320 17:21 01.10.2019
956 Haze 29 1012 37 5000 4.1 340 16:59 01.10.2019
957 Haze 29 1012 37 5000 4.1 340 16:41 01.10.2019
958 Haze 29 1012 37 5000 4.1 340 16:22 01.10.2019
959 Haze 30 1012 35 5000 5.1 250 15:49 01.10.2019
960 Haze 30 1012 35 5000 5.1 250 15:25 01.10.2019
961 Haze 30 1012 37 4500 6.2 240 14:58 01.10.2019
962 Haze 30 1012 37 4500 6.2 240 14:40 01.10.2019
963 Haze 30 1012 37 4500 6.2 240 14:20 01.10.2019
964 Clear 30 1012 37 6000 6.2 260 13:56 01.10.2019
965 Clear 30 1012 42 6000 2.1 30 13:37 01.10.2019
966 Clear 30 1012 42 6000 2.1 30 13:18 01.10.2019
967 Haze 30 1012 37 6000 5.1 270 12:55 01.10.2019
968 Haze 29 1013 33 5000 1.5 350 12:37 01.10.2019
969 Haze 29 1013 33 5000 1.5 350 12:18 01.10.2019
970 Haze 28 1013 35 5000 4.1 250 11:56 01.10.2019
971 Haze 29 1013 34 5000 2.1 30 11:36 01.10.2019
972 Haze 29 1013 34 5000 2.1 30 11:18 01.10.2019
973 Haze 27 1014 42 5000 2.1 40 10:46 01.10.2019
974 Haze 27 1014 42 5000 2.1 40 10:28 01.10.2019
975 Haze 24 1014 41 5000 2.88 299.74 09:46 01.10.2019
976 Haze 24 1014 41 5000 2.88 299.74 09:26 01.10.2019
977 Haze 20 1014 68 5000 6.37 318.104 08:45 01.10.2019
978 Haze 20 1014 68 5000 6.37 318.104 08:27 01.10.2019
979 Smoke 18 1014 77 3000 6.37 318.104 07:58 01.10.2019
980 Smoke 18 1014 77 3000 6.37 318.104 07:40 01.10.2019
981 Smoke 18 1014 77 3000 6.37 318.104 07:20 01.10.2019
982 Mist 16 1013 93 3000 6.37 318.104 06:42 01.10.2019
983 Mist 16 1013 93 3000 4.57 321.794 06:18 01.10.2019
984 Haze 17 1013 88 5000 4.57 321.794 05:44 01.10.2019
985 Haze 17 1013 88 5000 4.57 321.794 05:44 01.10.2019
986 Haze 17 1013 82 7000 4.57 321.794 04:42 01.10.2019
987 Haze 18 1013 77 7000 4.57 321.794 03:49 01.10.2019
988 Mist 19 1013 68 7000 5.48 318.84 02:20 01.10.2019
989 Haze 20 1013 64 7000 5.48 318.84 01:57 01.10.2019
990 Clear 21 1013 56 6000 5.48 322.873 00:53 01.10.2019
991 Clear 21 1013 56 6000 5.48 322.873 00:26 01.10.2019
992 Clear 20 1013 60 6000 5.84 314.265 23:55 30.09.2019
993 Clear 20 1013 60 6000 5.84 314.265 23:37 30.09.2019
994 Clear 20 1013 60 6000 5.84 314.265 23:18 30.09.2019
995 Clear 21 1013 60 6000 5.84 314.265 22:42 30.09.2019
996 Clear 21 1013 60 6000 5.84 314.265 22:23 30.09.2019
997 Clear 22 1013 53 6000 5.84 314.265 21:56 30.09.2019
998 Clear 22 1013 53 6000 5.84 314.265 21:37 30.09.2019
999 Clear 22 1013 53 6000 5.54 339.46 21:19 30.09.2019
1000 Clear 23 1013 50 6000 5.54 339.46 20:55 30.09.2019
1001 -273 0 0 0 0 0 20:55 30.09.2019
1002 Clear 23 1013 50 6000 6.23 329.505 20:37 30.09.2019
1003 Clear 23 1013 50 6000 6.23 329.505 20:19 30.09.2019
1004 Haze 25 1013 50 5000 6.23 329.505 19:56 30.09.2019
1005 Haze 25 1013 50 5000 6.23 329.505 19:38 30.09.2019
1006 Haze 25 1013 50 5000 6.23 329.505 19:18 30.09.2019
1007 Haze 26 1013 50 5000 6.23 329.505 18:54 30.09.2019
1008 Haze 26 1013 39 5000 3.1 310 18:36 30.09.2019
1009 Haze 29 1013 39 5000 3.1 310 18:18 30.09.2019
1010 Haze 30 1013 23 5000 3.6 290 17:40 30.09.2019
1011 Haze 30 1013 23 5000 3.6 290 17:22 30.09.2019
1012 Haze 32 1013 31 5000 3.1 290 16:56 30.09.2019
1013 Haze 32 1013 31 5000 3.1 290 16:56 30.09.2019
1014 Haze 32 1013 31 5000 3.1 290 16:38 30.09.2019
1015 Haze 32 1013 31 5000 3.1 290 16:19 30.09.2019
1016 Haze 32 1013 31 5000 3.1 290 16:19 30.09.2019
1017 Haze 33 1013 27 5000 2.6 50 15:56 30.09.2019
1018 Haze 33 1013 27 5000 2.6 50 15:37 30.09.2019
1019 Haze 33 1013 27 5000 2.6 50 15:19 30.09.2019
1020 Haze 32 1013 22 5000 3.6 360 14:57 30.09.2019
1021 Haze 32 1013 22 5000 3.6 360 14:37 30.09.2019
1022 Haze 32 1013 22 5000 3.6 360 14:18 30.09.2019
1023 Haze 32 1014 25 5000 2.6 10 13:55 30.09.2019
1024 Haze 32 1014 25 5000 2.6 10 13:36 30.09.2019
1025 Haze 32 1014 25 5000 2.6 10 13:18 30.09.2019
1026 Haze 31 1014 28 5000 2.67 274.583 12:41 30.09.2019
1027 Haze 31 1014 28 5000 0.37 241.365 12:21 30.09.2019
1028 Haze 29 1015 37 5000 1.5 10 11:44 30.09.2019
1029 -273 0 0 0 0 0 11:24 30.09.2019
1030 Haze 25 1015 39 5000 0.37 241.365 10:59 30.09.2019
1031 Haze 25 1015 39 5000 0.37 241.365 10:40 30.09.2019
1032 Haze 25 1015 39 5000 0.37 241.365 10:19 30.09.2019
1033 Smoke 21 1015 60 4000 0.37 241.365 09:58 30.09.2019
1034 Smoke 21 1015 60 4000 0.37 241.365 09:58 30.09.2019
1035 Smoke 21 1015 60 4000 0.37 241.365 09:39 30.09.2019
1036 Smoke 21 1015 60 4000 3.03 316.54 09:20 30.09.2019
1037 Smoke 19 1015 93 4000 2.6 150 08:47 30.09.2019
1038 Smoke 17 1015 82 3500 3.56 319.432 08:28 30.09.2019
1039 Mist 15 1015 93 2500 1 360 07:46 30.09.2019
1040 Mist 15 1015 93 2500 1 360 07:28 30.09.2019
1041 Mist 15 1015 93 2500 1 360 06:56 30.09.2019
1042 Mist 15 1014 93 2500 2.1 340 06:34 30.09.2019
1043 Mist 15 1014 93 2500 2.1 340 06:34 30.09.2019
1044 Mist 15 1015 100 500 3.16 307.49 05:48 30.09.2019
1045 Haze 16 1014 88 5000 2.1 340 04:53 30.09.2019
1046 Haze 16 1015 93 5000 2.1 310 02:48 30.09.2019
1047 Haze 18 1015 82 5000 2.1 310 01:39 30.09.2019
1048 Haze 18 1015 82 5000 2.1 310 00:43 30.09.2019
1049 Haze 18 1015 82 5000 2.1 310 00:23 30.09.2019
1050 Haze 18 1015 82 5000 2.1 310 23:56 29.09.2019
1051 Haze 20 1015 73 5000 2.1 310 23:38 29.09.2019
1052 Haze 20 1015 73 5000 2.1 310 23:19 29.09.2019
1053 Haze 20 1015 73 5000 2.6 310 22:42 29.09.2019
1054 Haze 20 1015 73 5000 2.6 310 22:23 29.09.2019
1055 Haze 20 1015 73 5000 2.6 310 22:23 29.09.2019
1056 Haze 20 1015 77 5000 2.6 310 21:58 29.09.2019
1057 Haze 20 1015 77 5000 2.6 310 21:38 29.09.2019
1058 Haze 20 1015 77 5000 2.6 310 21:19 29.09.2019
1059 Haze 21 1014 73 5000 2.6 310 20:57 29.09.2019
1060 Haze 21 1014 73 5000 2.6 310 20:57 29.09.2019
1061 Haze 21 1014 73 5000 2.6 310 20:39 29.09.2019
1062 Haze 21 1014 73 5000 2.6 310 20:19 29.09.2019
1063 Haze 24 1014 69 5000 3.1 320 19:55 29.09.2019
1064 Haze 24 1014 69 5000 3.1 320 19:36 29.09.2019
1065 Haze 24 1014 69 5000 3.1 320 19:36 29.09.2019
1066 Haze 24 1014 69 5000 3.1 320 19:18 29.09.2019
1067 Haze 25 1014 50 5000 4.1 320 18:55 29.09.2019
1068 Haze 25 1014 50 5000 4.1 320 18:55 29.09.2019
1069 Haze 25 1014 50 5000 4.1 320 18:36 29.09.2019
1070 Haze 25 1014 50 5000 4.1 320 18:18 29.09.2019
1071 -273 0 0 0 0 0 17:54 29.09.2019
1072 Haze 27 1014 36 5000 3.6 300 17:54 29.09.2019
1073 Haze 27 1014 36 5000 3.6 300 17:54 29.09.2019
1074 Haze 27 1014 36 5000 3.6 300 17:36 29.09.2019
1075 Haze 27 1014 36 5000 3.6 300 17:18 29.09.2019
1076 Haze 28 1014 34 5000 3.6 320 16:41 29.09.2019
1077 Haze 28 1014 34 5000 3.6 320 16:20 29.09.2019
1078 Haze 29 1014 37 5000 3.1 300 15:59 29.09.2019
1079 Haze 29 1014 37 5000 3.1 300 15:39 29.09.2019
1080 Haze 29 1014 37 5000 3.1 300 15:19 29.09.2019
1081 Haze 30 1014 37 5000 3.1 300 14:59 29.09.2019
1082 Haze 30 1014 37 5000 3.1 300 14:38 29.09.2019
1083 Haze 30 1014 37 5000 3.1 300 14:20 29.09.2019
1084 Haze 30 1014 32 5000 3.6 360 13:57 29.09.2019
1085 Haze 30 1014 32 5000 3.6 360 13:38 29.09.2019
1086 Haze 30 1014 32 5000 3.6 360 13:18 29.09.2019
1087 Haze 30 1014 32 5000 3.6 360 13:18 29.09.2019
1088 Haze 28 1015 37 5000 1.5 330 12:57 29.09.2019
1089 Haze 28 1015 37 5000 1.5 330 12:38 29.09.2019
1090 Haze 28 1015 37 5000 1.5 330 12:20 29.09.2019
1091 Clear 27 1016 37 6000 2.6 340 11:55 29.09.2019
1092 Clear 27 1016 37 6000 2.6 340 11:36 29.09.2019
1093 Clear 27 1016 37 6000 2.6 340 11:18 29.09.2019
1094 Haze 25 1015 39 7000 2.6 330 10:55 29.09.2019
1095 Haze 25 1015 39 7000 2.6 330 10:36 29.09.2019
1096 Haze 25 1015 39 7000 2.6 330 10:18 29.09.2019
1097 Haze 23 1016 53 6000 4.08 308.877 09:42 29.09.2019
1098 Haze 23 1016 53 6000 4.76 314.787 09:20 29.09.2019
1099 Haze 20 1016 64 5000 4.76 314.787 08:55 29.09.2019
1100 Haze 20 1016 64 5000 4.67 317.35 08:37 29.09.2019
1101 Haze 20 1016 64 5000 4.67 317.35 08:18 29.09.2019
1102 Haze 18 1015 82 3000 4.67 317.35 07:41 29.09.2019
1103 Haze 18 1015 82 3000 4.67 317.35 07:22 29.09.2019
1104 Mist 16 1015 88 2500 4.67 317.35 06:41 29.09.2019
1105 Mist 15 1015 77 6000 4.29 325.991 04:54 29.09.2019
1106 Mist 15 1015 77 6000 4.29 325.991 04:24 29.09.2019
1107 Mist 16 1015 77 6000 2.1 250 03:47 29.09.2019
1108 Mist 17 1015 72 6000 3.1 260 02:28 29.09.2019
1109 Clear 18 1015 68 6000 3.1 250 01:51 29.09.2019
1110 Clear 18 1015 68 6000 3.1 250 01:29 29.09.2019
1111 Clear 19 1015 72 6000 2.1 240 00:41 29.09.2019
1112 Clear 19 1015 72 6000 2.1 240 00:19 29.09.2019
1113 Clear 19 1015 72 6000 2.1 240 00:19 29.09.2019
1114 Clear 20 1015 72 6000 1.5 40 23:40 28.09.2019
1115 Clear 19 1015 72 6000 1.5 40 23:21 28.09.2019
1116 Haze 19 1015 72 5000 5.67 320.657 22:56 28.09.2019
1117 Haze 19 1015 72 5000 5.67 320.657 22:37 28.09.2019
1118 Haze 19 1015 72 5000 5.67 320.657 22:19 28.09.2019
1119 Haze 21 1015 64 5000 5.67 320.657 21:54 28.09.2019
1120 Haze 21 1015 64 5000 5.67 320.657 21:36 28.09.2019
1121 Haze 21 1015 64 5000 6.42 339.94 21:18 28.09.2019
1122 Haze 22 1015 68 5000 2.1 340 20:54 28.09.2019
1123 Haze 22 1015 68 5000 2.1 340 20:36 28.09.2019
1124 Haze 22 1015 68 5000 2.1 340 20:36 28.09.2019
1125 Haze 22 1015 68 5000 2.1 340 20:18 28.09.2019
1126 Haze 22 1015 68 5000 2.1 340 20:18 28.09.2019
1127 Haze 24 1014 60 5000 5.1 330 19:42 28.09.2019
1128 Haze 24 1014 60 5000 5.1 330 19:42 28.09.2019
1129 Haze 24 1014 60 5000 5.1 330 19:22 28.09.2019
1130 Haze 24 1014 60 5000 5.1 330 18:59 28.09.2019
1131 Haze 25 1014 57 5000 2.6 330 18:41 28.09.2019
1132 Haze 25 1014 57 5000 2.6 330 18:21 28.09.2019
1133 Haze 26 1014 57 5000 2.6 330 17:57 28.09.2019
1134 Haze 27 1014 44 5000 5.1 320 17:39 28.09.2019
1135 Haze 27 1014 44 5000 5.1 320 17:21 28.09.2019
1136 Haze 28 1014 44 5000 5.1 320 16:49 28.09.2019
1137 Haze 28 1014 39 5000 5.1 330 16:29 28.09.2019
1138 Haze 29 1014 35 5000 5.1 310 15:59 28.09.2019
1139 Haze 29 1014 35 5000 5.1 310 15:39 28.09.2019
1140 Haze 29 1014 35 5000 5.1 310 15:39 28.09.2019
1141 Haze 29 1014 35 5000 5.1 310 15:21 28.09.2019
1142 Haze 30 1014 39 6000 6.2 280 14:54 28.09.2019
1143 Haze 30 1014 35 5000 7.7 320 14:36 28.09.2019
1144 Haze 30 1014 35 5000 7.7 320 14:18 28.09.2019
1145 Haze 30 1014 35 5000 7.7 320 14:18 28.09.2019
1146 Haze 30 1015 30 6000 4.6 250 13:43 28.09.2019
1147 Haze 30 1015 30 6000 4.6 250 13:20 28.09.2019
1148 Haze 29 1015 37 6000 4.6 260 12:55 28.09.2019
1149 Haze 29 1015 37 6000 4.6 260 12:36 28.09.2019
1150 Haze 29 1015 37 6000 4.6 260 12:18 28.09.2019
1151 Haze 29 1016 39 5000 4.6 260 11:40 28.09.2019
1152 Haze 29 1016 39 5000 4.6 260 11:20 28.09.2019
1153 Haze 28 1016 32 5000 3.1 250 10:56 28.09.2019
1154 Haze 28 1016 32 5000 3.1 250 10:38 28.09.2019
1155 Haze 28 1016 32 5000 3.1 250 10:18 28.09.2019
1156 Haze 26 1016 39 5000 6.2 316 09:41 28.09.2019
1157 Haze 26 1016 39 5000 6.08 307.496 09:19 28.09.2019
1158 Haze 26 1016 39 5000 6.08 307.496 08:48 28.09.2019
1159 Haze 22 1016 46 5000 6.03 310.468 08:29 28.09.2019
1160 Smoke 21 1016 46 3500 2.1 50 07:57 28.09.2019
1161 Smoke 21 1016 46 3500 2.1 50 07:38 28.09.2019
1162 Smoke 21 1016 46 3500 2.1 50 07:19 28.09.2019
1163 Smoke 18 1016 55 4000 6.03 310.468 06:41 28.09.2019
1164 Smoke 18 1016 55 4000 4.85 318.414 06:21 28.09.2019
1165 Haze 17 1016 52 5000 1.5 50 05:37 28.09.2019
1166 Haze 17 1016 52 5000 1.5 50 05:18 28.09.2019
1167 Haze 18 1016 52 5000 4.85 318.414 04:31 28.09.2019
1168 Clear 19 1015 49 6000 4.85 318.414 03:42 28.09.2019
1169 Clear 19 1015 49 6000 5.67 322.43 03:18 28.09.2019
1170 Clear 19 1016 49 6000 5.67 322.43 02:41 28.09.2019
1171 Clear 19 1016 49 6000 5.67 322.43 02:23 28.09.2019
1172 Haze 20 1016 49 5000 1 50 01:43 28.09.2019
1173 Haze 20 1016 49 5000 1 50 01:23 28.09.2019
1174 Haze 22 1016 82 7000 5.62 322.502 00:48 28.09.2019
1175 Haze 21 1015 50 5000 5.62 322.502 00:29 28.09.2019
1176 Haze 23 1016 44 5000 1.5 310 23:39 27.09.2019
1177 Haze 23 1016 44 5000 1.5 310 23:21 27.09.2019
1178 Haze 24 1015 39 5000 2.1 320 22:58 27.09.2019
1179 Haze 24 1015 39 5000 2.1 320 22:40 27.09.2019
1180 Haze 24 1015 39 5000 2.1 320 22:18 27.09.2019
1181 Haze 24 1015 41 5000 7.28 323.484 21:54 27.09.2019
1182 Haze 24 1015 41 5000 7.28 323.484 21:36 27.09.2019
1183 Haze 24 1015 41 5000 6.47 334.762 21:18 27.09.2019
1184 Haze 25 1015 34 5000 6.47 334.762 20:41 27.09.2019
1185 Haze 25 1015 34 5000 6.72 337.357 20:20 27.09.2019
1186 Haze 27 1014 32 5000 2.1 330 19:59 27.09.2019
1187 Haze 27 1014 32 5000 2.1 330 19:41 27.09.2019
1188 Haze 27 1014 32 5000 2.1 330 19:23 27.09.2019
1189 Haze 27 1014 32 5000 2.1 330 18:55 27.09.2019
1190 Haze 29 1015 30 5000 2.1 340 18:37 27.09.2019
1191 Haze 29 1015 30 5000 2.1 340 18:19 27.09.2019
1192 Haze 33 1014 25 5000 4.1 350 17:40 27.09.2019
1193 Haze 33 1014 25 5000 4.1 350 17:22 27.09.2019
1194 Haze 33 1014 25 5000 4.1 350 17:22 27.09.2019
1195 Haze 34 1014 18 5000 3.1 350 16:59 27.09.2019
1196 Haze 34 1014 18 5000 3.1 350 16:59 27.09.2019
1197 Haze 34 1014 18 5000 3.1 350 16:41 27.09.2019
1198 Haze 34 1014 18 5000 3.1 350 16:20 27.09.2019
1199 Haze 34 1014 18 5000 3.1 350 16:20 27.09.2019
1200 Haze 34 1014 19 5000 2.6 60 15:57 27.09.2019
1201 Haze 34 1014 19 5000 2.6 60 15:57 27.09.2019
1202 Haze 34 1014 19 5000 2.6 60 15:39 27.09.2019
1203 Haze 34 1014 19 5000 2.6 60 15:19 27.09.2019
1204 Haze 34 1014 19 5000 2.6 60 14:56 27.09.2019
1205 Clear 34 1015 18 7000 3.6 340 14:37 27.09.2019
1206 Clear 34 1015 18 7000 3.6 340 14:18 27.09.2019
1207 Clear 33 1015 19 7000 3.1 60 13:42 27.09.2019
1208 Clear 33 1015 19 7000 3.1 60 13:22 27.09.2019
1209 Clear 32 1016 22 6000 3.1 60 12:59 27.09.2019
1210 Clear 32 1016 22 6000 3.1 60 12:41 27.09.2019
1211 Clear 32 1016 22 6000 3.1 60 12:20 27.09.2019
1212 Clear 31 1016 25 6000 3.6 50 11:40 27.09.2019
1213 Clear 31 1016 25 6000 3.6 50 11:40 27.09.2019
1214 Clear 31 1016 25 6000 3.6 50 11:22 27.09.2019
1215 Haze 29 1016 32 5000 3.1 80 10:58 27.09.2019
1216 Haze 29 1016 32 5000 3.1 80 10:58 27.09.2019
1217 Haze 29 1016 32 5000 3.1 80 10:40 27.09.2019
1218 Haze 29 1016 32 5000 3.1 80 10:20 27.09.2019
1219 Haze 27 1017 36 5000 2.1 80 09:44 27.09.2019
1220 Haze 27 1017 36 5000 2.1 80 09:23 27.09.2019
1221 Haze 27 1017 36 5000 2.1 80 09:23 27.09.2019
1222 Haze 22 1017 44 5000 2.1 260 08:58 27.09.2019
1223 Haze 22 1017 44 5000 2.1 260 08:39 27.09.2019
1224 Haze 22 1017 44 5000 2.1 260 08:20 27.09.2019
1225 Haze 20 1016 53 5000 2.53 141.149 07:49 27.09.2019
1226 Haze 20 1016 53 5000 2.53 141.149 07:24 27.09.2019
1227 Haze 17 1016 59 5000 2.53 141.149 06:43 27.09.2019
1228 Haze 17 1016 59 5000 2.53 141.149 06:25 27.09.2019
1229 Haze 18 1016 60 5000 2.78 334.968 05:52 27.09.2019
1230 Haze 18 1016 60 5000 2.78 334.968 05:33 27.09.2019
1231 Haze 18 1016 56 5000 2.78 334.968 03:59 27.09.2019
1232 Haze 18 1016 56 5000 2.78 334.968 03:37 27.09.2019
1233 Clear 19 1016 68 6000 3.88 312.144 01:53 27.09.2019
1234 Clear 19 1016 68 6000 3.72 313.038 01:29 27.09.2019
1235 Clear 20 1016 68 6000 3.72 313.038 00:34 27.09.2019
1236 Clear 21 1016 68 6000 4.86 328.176 23:57 26.09.2019
1237 Clear 21 1016 68 6000 4.86 328.176 23:39 26.09.2019
1238 Clear 21 1016 68 6000 4.86 328.176 23:19 26.09.2019
1239 Haze 22 1016 64 6000 4.86 328.176 22:58 26.09.2019
1240 Haze 22 1016 64 6000 4.86 328.176 22:39 26.09.2019
1241 Haze 22 1016 64 6000 4.86 328.176 22:18 26.09.2019
1242 Haze 23 1016 57 5000 1 360 21:58 26.09.2019
1243 Haze 23 1016 57 5000 1 360 21:37 26.09.2019
1244 Haze 23 1016 57 5000 1 360 21:19 26.09.2019
1245 Haze 23 1016 57 5000 1 360 21:19 26.09.2019
1246 Haze 24 1016 27 5000 2.1 360 20:58 26.09.2019
1247 Haze 24 1016 27 5000 2.1 360 20:39 26.09.2019
1248 Haze 24 1016 27 5000 2.1 360 20:21 26.09.2019
1249 Haze 25 1016 57 5000 2.1 330 19:58 26.09.2019
1250 Haze 25 1016 57 5000 2.1 330 19:39 26.09.2019
1251 Haze 25 1016 57 5000 2.1 330 19:18 26.09.2019
1252 Haze 27 1015 44 5000 3.1 320 18:45 26.09.2019
1253 Haze 27 1015 44 5000 3.1 320 18:22 26.09.2019
1254 Haze 28 1015 42 5000 4.1 310 17:59 26.09.2019
1255 Haze 30 1015 30 5000 4.1 310 17:38 26.09.2019
1256 Haze 30 1015 30 5000 4.1 310 17:19 26.09.2019
1257 Haze 30 1015 30 5000 4.1 310 17:19 26.09.2019
1258 Haze 31 1015 25 5000 3.6 280 16:56 26.09.2019
1259 Haze 31 1015 25 5000 3.6 280 16:37 26.09.2019
1260 Haze 31 1015 25 5000 3.6 280 16:19 26.09.2019
1261 Haze 32 1015 24 5000 4.1 270 15:55 26.09.2019
1262 Haze 32 1015 24 5000 4.1 270 15:36 26.09.2019
1263 Haze 32 1015 24 5000 4.1 270 15:18 26.09.2019
1264 Haze 32 1015 25 5000 3.01 292.49 14:41 26.09.2019
1265 Haze 32 1015 25 5000 3.01 292.49 14:22 26.09.2019
1266 Haze 33 1015 22 5000 5.1 270 13:58 26.09.2019
1267 Haze 32 1015 21 5000 1.5 0 13:39 26.09.2019
1268 Haze 32 1015 21 5000 1.5 0 13:19 26.09.2019
1269 Haze 32 1015 21 5000 1.5 0 13:19 26.09.2019
1270 Haze 31 1016 20 5000 3.6 360 12:56 26.09.2019
1271 Haze 31 1016 20 5000 3.6 360 12:38 26.09.2019
1272 Haze 31 1016 20 5000 3.6 360 12:19 26.09.2019
1273 Haze 30 1016 22 5000 2.6 60 11:42 26.09.2019
1274 Haze 30 1016 22 5000 2.6 60 11:21 26.09.2019
1275 Haze 28 1017 21 4800 2.6 60 10:55 26.09.2019
1276 Haze 28 1017 21 4800 2.6 60 10:37 26.09.2019
1277 Haze 28 1017 21 4800 2.6 60 10:19 26.09.2019
1278 Haze 26 1017 22 5000 1.5 40 09:41 26.09.2019
1279 Haze 26 1017 22 5000 1.5 40 09:23 26.09.2019
1280 Smoke 23 1016 25 4000 3.47 307.872 08:54 26.09.2019
1281 Smoke 23 1016 25 4000 3.49 311.539 08:32 26.09.2019
1282 Smoke 21 1016 22 3000 3.49 311.539 07:59 26.09.2019
1283 Haze 20 1016 32 4000 3.49 311.539 07:41 26.09.2019
1284 Haze 20 1016 32 4000 3.49 311.539 07:20 26.09.2019
1285 Haze 17 1016 25 5000 3.49 311.539 06:43 26.09.2019
1286 Haze 17 1016 25 5000 3.5 312.812 06:24 26.09.2019
1287 Haze 16 1015 49 5000 3.5 312.812 05:44 26.09.2019
1288 Haze 16 1015 49 5000 3.5 312.812 05:21 26.09.2019
1289 Haze 18 1015 19 5000 1.5 260 02:47 26.09.2019
1290 Haze 18 1015 24 5000 2.1 260 01:53 26.09.2019
1291 Haze 18 1015 24 5000 2.1 260 01:28 26.09.2019
1292 Haze 19 1015 24 5000 2.1 260 00:55 26.09.2019
1293 Clear 18 1016 37 6000 4.74 320.064 00:37 26.09.2019
1294 Clear 19 1016 37 6000 5.38 325.971 23:47 25.09.2019
1295 Clear 19 1016 43 6000 5.38 325.971 23:28 25.09.2019
1296 Haze 21 1015 35 5000 1.5 260 22:58 25.09.2019
1297 Haze 21 1015 35 5000 1.5 260 22:40 25.09.2019
1298 Haze 21 1015 35 5000 1.5 260 22:20 25.09.2019
1299 Haze 21 1016 43 5000 2.1 260 21:57 25.09.2019
1300 Haze 21 1016 43 5000 2.1 260 21:38 25.09.2019
1301 Haze 21 1016 43 5000 2.1 260 21:19 25.09.2019
1302 Haze 22 1015 49 5000 5.18 324.12 20:57 25.09.2019
1303 Haze 22 1015 49 5000 6.56 334.455 20:39 25.09.2019
1304 Haze 22 1015 49 5000 6.56 334.455 20:20 25.09.2019
1305 Haze 23 1015 49 5000 4.1 320 19:54 25.09.2019
1306 Haze 23 1015 49 5000 4.1 320 19:36 25.09.2019
1307 Haze 23 1015 49 5000 4.1 320 19:18 25.09.2019
1308 Haze 23 1015 49 5000 4.1 320 18:54 25.09.2019
1309 Haze 25 1014 38 5000 4.1 320 18:36 25.09.2019
1310 Haze 25 1014 38 5000 4.1 320 18:18 25.09.2019
1311 Haze 28 1014 28 5000 7.2 310 17:38 25.09.2019
1312 Haze 28 1014 28 5000 7.2 310 17:19 25.09.2019
1313 Clear 29 1014 22 6000 5.1 330 16:46 25.09.2019
1314 Clear 29 1014 22 6000 5.1 330 16:27 25.09.2019
1315 Clear 30 1014 12 6000 6.2 300 15:59 25.09.2019
1316 Clear 30 1014 12 6000 6.2 300 15:41 25.09.2019
1317 Clear 30 1014 12 6000 6.2 300 15:23 25.09.2019
1318 Clear 31 1014 14 6000 4.1 300 14:57 25.09.2019
1319 Clear 31 1014 14 6000 4.1 300 14:39 25.09.2019
1320 Clear 31 1014 14 6000 4.1 300 14:21 25.09.2019
1321 Haze 31 1014 16 5000 5.1 330 13:41 25.09.2019
1322 Haze 31 1014 16 5000 5.1 330 13:23 25.09.2019
1323 Haze 31 1014 16 5000 5.1 330 12:59 25.09.2019
1324 Haze 31 1014 19 5000 6.7 340 12:39 25.09.2019
1325 Haze 31 1014 19 5000 6.7 340 12:21 25.09.2019
1326 Haze 30 1014 19 5000 6.7 340 11:55 25.09.2019
1327 Clear 31 1011 14 0 3.73 308.482 11:36 25.09.2019
1328 Smoke 28 1015 20 4000 3.73 308.482 11:18 25.09.2019
1329 Smoke 28 1015 20 4000 3.73 308.482 10:43 25.09.2019
1330 Smoke 28 1015 20 4000 3.73 308.482 10:24 25.09.2019
1331 Smoke 25 1015 25 4000 3.73 308.482 09:56 25.09.2019
1332 Smoke 25 1015 25 4000 3.73 308.482 09:37 25.09.2019
1333 Smoke 25 1015 25 4000 3.78 305.647 09:19 25.09.2019
1334 Smoke 21 1015 30 4000 0.5 40 08:44 25.09.2019
1335 Smoke 21 1015 30 4000 0.5 40 08:21 25.09.2019
1336 Smoke 18 1015 42 5000 1.5 50 07:57 25.09.2019
1337 Smoke 18 1015 42 5000 1.5 50 07:38 25.09.2019
1338 Smoke 18 1015 42 5000 1.5 50 07:20 25.09.2019
1339 Haze 15 1014 42 4000 3.76 304.589 06:43 25.09.2019
1340 Haze 15 1014 42 4000 5.17 328.553 06:22 25.09.2019
1341 Clear 15 1014 68 6000 5.17 328.553 05:31 25.09.2019
1342 Clear 17 1014 68 6000 5.17 328.553 04:55 25.09.2019
1343 Clear 17 1014 68 6000 4.44 309.601 02:19 25.09.2019
1344 Haze 18 1015 56 5000 4.28 308.469 00:46 25.09.2019
1345 Haze 18 1015 56 5000 4.28 308.469 00:26 25.09.2019
1346 Haze 19 1015 52 5000 5.08 313.964 23:59 24.09.2019
1347 Haze 19 1015 52 5000 5.08 313.964 23:40 24.09.2019
1348 Haze 19 1015 52 5000 5.08 313.964 23:21 24.09.2019
1349 Haze 20 1015 53 5000 5.08 313.964 22:39 24.09.2019
1350 Haze 20 1015 53 5000 5.08 313.964 22:21 24.09.2019
1351 Clear 21 1015 56 6000 5.32 306.978 21:58 24.09.2019
1352 Clear 21 1015 56 6000 5.32 306.978 21:58 24.09.2019
1353 Clear 21 1015 56 6000 5.32 306.978 21:58 24.09.2019
1354 Clear 21 1015 56 6000 5.32 306.978 21:38 24.09.2019
1355 Clear 21 1015 56 6000 6.18 340.342 21:19 24.09.2019
1356 Clear 22 1014 56 6000 6.18 340.342 20:59 24.09.2019
1357 Clear 22 1014 56 6000 6.18 340.342 20:41 24.09.2019
1358 Clear 22 1014 56 6000 6.18 340.342 20:22 24.09.2019
1359 Clear 23 1014 56 6000 6.18 340.342 19:59 24.09.2019
1360 Haze 23 1014 53 5000 2.1 310 19:41 24.09.2019
1361 Haze 23 1014 53 5000 2.1 310 19:19 24.09.2019
1362 Haze 23 1014 53 5000 2.1 310 18:55 24.09.2019
1363 Haze 23 1014 53 5000 2.1 310 18:55 24.09.2019
1364 Haze 27 1014 29 5000 3.6 300 18:37 24.09.2019
1365 Haze 27 1014 29 5000 3.6 300 18:19 24.09.2019
1366 Haze 28 1014 29 5000 3.6 300 17:55 24.09.2019
1367 Haze 29 1014 20 5000 3.6 300 17:37 24.09.2019
1368 Haze 29 1014 20 5000 3.6 300 17:18 24.09.2019
1369 Haze 30 1014 20 5000 4.1 230 16:41 24.09.2019
1370 Haze 30 1014 20 5000 4.1 230 16:20 24.09.2019
1371 Haze 31 1014 22 6000 4.6 280 15:57 24.09.2019
1372 Haze 31 1014 23 5000 2.1 230 15:38 24.09.2019
1373 Haze 31 1014 23 5000 2.1 230 15:19 24.09.2019
1374 Haze 32 1015 19 5000 2.6 70 14:38 24.09.2019
1375 Haze 32 1015 19 5000 2.6 70 14:18 24.09.2019
1376 Haze 30 1015 19 5000 3.27 303.428 13:45 24.09.2019
1377 Haze 30 1015 19 5000 3.28 303.438 13:21 24.09.2019
1378 Haze 30 1015 19 5000 3.28 303.438 12:56 24.09.2019
1379 Haze 30 1016 23 5000 3.28 303.438 12:36 24.09.2019
1380 Haze 28 1016 23 5000 0.59 258.101 12:18 24.09.2019
1381 Haze 28 1017 28 5000 1.5 50 11:41 24.09.2019
1382 Haze 28 1017 28 5000 1.5 50 11:21 24.09.2019
1383 Haze 28 1017 28 5000 1.5 50 11:21 24.09.2019
1384 Haze 28 1017 28 5000 1.5 50 10:55 24.09.2019
1385 Haze 26 1017 39 5000 0.59 258.101 10:36 24.09.2019
1386 Haze 26 1017 39 5000 0.59 258.101 10:18 24.09.2019
1387 Haze 24 1017 31 6000 0.59 258.101 09:43 24.09.2019
1388 Haze 22 1017 43 5000 2.73 309.684 09:21 24.09.2019
1389 Haze 19 1017 60 5000 2.73 309.684 08:57 24.09.2019
1390 Haze 19 1017 60 5000 2.77 312.833 08:38 24.09.2019
1391 Haze 19 1017 60 5000 2.77 312.833 08:19 24.09.2019
1392 Haze 19 1017 60 5000 2.77 312.833 08:19 24.09.2019
1393 Smoke 15 1017 82 5000 2.77 312.833 07:47 24.09.2019
1394 Smoke 15 1017 82 5000 2.77 312.833 07:25 24.09.2019
1395 Haze 12 1017 82 5000 2.77 312.833 06:56 24.09.2019
1396 Haze 12 1017 82 5000 2.77 312.833 06:32 24.09.2019
1397 Haze 12 1016 82 5000 1.5 40 05:51 24.09.2019
1398 Haze 12 1016 82 5000 1.5 40 05:20 24.09.2019
1399 Clear 15 1016 67 7000 3.89 311.488 03:44 24.09.2019
1400 Clear 16 1016 59 7000 4.98 328.545 02:57 24.09.2019
1401 Clear 17 1016 59 7000 4.98 328.545 02:38 24.09.2019
1402 Clear 16 1016 59 7000 5.08 328.474 01:22 24.09.2019
1403 Clear 17 1017 59 7000 5.08 328.474 00:37 24.09.2019
1404 Clear 17 1017 59 7000 4.6 311.069 00:18 24.09.2019
1405 Clear 17 1017 55 7000 4.6 311.069 23:40 23.09.2019
1406 Clear 17 1017 55 7000 4.6 311.069 23:21 23.09.2019
1407 Clear 18 1017 49 7000 2.1 270 22:40 23.09.2019
1408 Clear 18 1017 49 7000 2.1 270 22:21 23.09.2019
1409 Clear 19 1017 49 7000 2.1 270 21:58 23.09.2019
1410 Clear 19 1017 49 7000 2.1 260 21:40 23.09.2019
1411 Clear 19 1017 49 7000 2.1 260 21:20 23.09.2019
1412 Clear 20 1015 49 7000 3.6 320 20:56 23.09.2019
1413 Clear 20 1015 49 7000 3.6 320 20:37 23.09.2019
1414 Clear 20 1015 49 7000 3.6 320 20:18 23.09.2019
1415 Clear 22 1016 46 6000 2.6 220 19:39 23.09.2019
1416 Clear 22 1016 46 6000 2.6 220 19:21 23.09.2019
1417 Clear 24 1016 46 6000 2.6 220 18:58 23.09.2019
1418 Clear 25 1016 36 6000 2.6 220 18:39 23.09.2019
1419 Clear 25 1016 36 6000 2.6 220 18:18 23.09.2019
1420 Haze 27 1016 36 6000 2.6 220 17:56 23.09.2019
1421 Haze 27 1016 29 7000 4.1 310 17:38 23.09.2019
1422 Haze 27 1016 29 7000 4.1 310 17:19 23.09.2019
1423 Haze 27 1015 30 5000 6.2 290 16:54 23.09.2019
1424 Haze 28 1016 28 7000 6.2 310 16:36 23.09.2019
1425 Haze 28 1016 28 7000 6.2 310 16:36 23.09.2019
1426 Haze 28 1016 28 7000 6.2 310 16:18 23.09.2019
1427 Haze 30 1016 26 7000 7.2 330 15:55 23.09.2019
1428 Haze 30 1016 26 7000 7.2 330 15:37 23.09.2019
1429 Haze 30 1016 26 7000 7.2 330 15:18 23.09.2019
1430 Haze 30 1016 23 8000 5.7 330 14:40 23.09.2019
1431 Haze 30 1016 23 8000 5.7 330 14:20 23.09.2019
1432 Clear 30 1016 21 10000 6.7 330 13:58 23.09.2019
1433 Clear 30 1016 21 10000 6.7 330 13:38 23.09.2019
1434 Clear 30 1016 21 10000 6.7 330 13:18 23.09.2019
1435 Clear 30 1016 20 10000 3.6 340 12:43 23.09.2019
1436 Clear 30 1016 20 10000 3.6 340 12:23 23.09.2019
1437 Clear 29 1016 18 10000 2.1 350 11:58 23.09.2019
1438 Clear 29 1016 18 10000 2.1 350 11:39 23.09.2019
1439 Clear 29 1016 18 10000 2.1 350 11:20 23.09.2019
1440 Haze 28 1017 24 10000 2.6 330 10:49 23.09.2019
1441 Haze 28 1017 24 10000 2.6 330 10:22 23.09.2019
1442 Haze 25 1017 29 6000 2.6 330 09:58 23.09.2019
1443 Haze 25 1017 29 6000 2.6 330 09:37 23.09.2019
1444 Haze 25 1017 29 6000 2.6 330 09:19 23.09.2019
1445 Haze 22 1017 33 5000 2.1 350 08:45 23.09.2019
1446 Haze 22 1017 33 5000 2.1 350 08:26 23.09.2019
1447 Mist 19 1016 56 3500 1.5 240 07:56 23.09.2019
1448 Mist 19 1016 56 3500 1.5 240 07:28 23.09.2019
1449 Haze 15 1017 72 5000 5.24 314.536 06:31 23.09.2019
1450 Haze 16 1016 72 5000 3.98 311.594 05:48 23.09.2019
1451 Haze 16 1016 72 5000 3.98 311.594 05:21 23.09.2019
1452 Haze 18 1016 72 5000 3.98 311.594 04:54 23.09.2019
1453 Haze 18 1015 68 5000 4.47 320.529 02:37 23.09.2019
1454 Haze 19 1015 72 5000 1.5 330 00:46 23.09.2019
1455 Haze 19 1015 72 5000 1.5 330 00:22 23.09.2019
1456 Haze 20 1015 72 5000 1.5 330 23:52 22.09.2019
1457 Haze 21 1016 64 5000 1.5 330 23:32 22.09.2019
1458 Haze 21 1016 73 5000 1.5 320 22:58 22.09.2019
1459 Haze 21 1016 73 5000 1.5 320 22:40 22.09.2019
1460 Haze 21 1016 73 5000 1.5 320 22:22 22.09.2019
1461 Haze 22 1015 73 5000 1.5 320 21:43 22.09.2019
1462 Haze 22 1015 73 5000 1.5 320 21:43 22.09.2019
1463 Haze 22 1015 73 5000 1.5 320 21:22 22.09.2019
1464 Haze 23 1015 60 6000 3.1 340 20:58 22.09.2019
1465 Haze 24 1015 69 5000 1 300 20:40 22.09.2019
1466 Haze 24 1015 69 5000 1 300 20:40 22.09.2019
1467 Haze 24 1015 69 5000 1 300 20:22 22.09.2019
1468 Haze 25 1015 50 5000 4.1 320 19:42 22.09.2019
1469 Haze 25 1015 50 5000 4.1 320 19:24 22.09.2019
1470 Haze 26 1014 44 6000 4.1 300 18:59 22.09.2019
1471 Haze 27 1014 22 5000 4.1 310 18:40 22.09.2019
1472 Haze 27 1014 22 5000 4.1 310 18:20 22.09.2019
1473 Haze 27 1014 22 5000 4.1 310 17:59 22.09.2019
1474 Haze 27 1014 22 5000 4.1 310 17:59 22.09.2019
1475 Haze 28 1014 28 5000 4.1 310 17:41 22.09.2019
1476 Haze 28 1014 28 5000 4.1 310 17:20 22.09.2019
1477 Haze 29 1014 32 5000 3.6 320 16:45 22.09.2019
1478 Haze 29 1014 32 5000 3.6 320 16:26 22.09.2019
1479 Haze 30 1014 39 5000 4.1 350 15:57 22.09.2019
1480 Haze 30 1014 39 5000 4.1 350 15:38 22.09.2019
1481 Haze 30 1014 39 5000 4.1 350 15:19 22.09.2019
1482 Haze 31 1014 33 4000 3.1 320 14:43 22.09.2019
1483 Haze 31 1014 33 4000 3.1 320 14:25 22.09.2019
1484 Haze 30 1015 28 4000 1.5 0 13:59 22.09.2019
1485 Haze 30 1015 28 4000 1.5 0 13:40 22.09.2019
1486 Haze 30 1015 28 4000 1.5 0 13:21 22.09.2019
1487 Haze 29 1014 28 5000 2.1 120 12:55 22.09.2019
1488 Haze 29 1015 34 5000 2.1 0 12:36 22.09.2019
1489 Haze 27 1016 39 4500 2.1 130 12:18 22.09.2019
1490 Haze 27 1016 39 4500 2.1 130 11:41 22.09.2019
1491 Haze 27 1016 39 4500 2.1 130 11:23 22.09.2019
1492 Haze 27 1016 39 4500 2.1 130 11:23 22.09.2019
1493 Haze 27 1016 39 4500 2.1 130 10:55 22.09.2019
1494 Haze 26 1016 44 5000 1.5 40 10:37 22.09.2019
1495 Haze 26 1016 44 5000 1.5 40 10:18 22.09.2019
1496 Haze 23 1016 53 5000 1.5 0 09:41 22.09.2019
1497 Haze 23 1016 53 5000 1.5 0 09:20 22.09.2019
1498 Smoke 21 1015 56 3000 1.98 321.372 08:47 22.09.2019
1499 Smoke 18 1016 77 3500 2.41 321.485 08:26 22.09.2019
1500 -273 0 0 0 0 0 07:57 22.09.2019
1501 Haze 17 1016 82 3000 2.1 70 07:39 22.09.2019
1502 Haze 17 1016 82 3000 2.1 70 07:20 22.09.2019
1503 Mist 17 1016 77 4000 2.41 321.485 06:56 22.09.2019
1504 Mist 15 1015 88 4000 3.84 312.5 05:37 22.09.2019
1505 Mist 16 1015 88 6000 2.1 60 03:50 22.09.2019
1506 Clear 17 1015 77 6000 4.04 331.766 02:41 22.09.2019
1507 Clear 17 1015 77 6000 4.04 331.766 02:23 22.09.2019
1508 Clear 18 1014 63 6000 4.15 333.966 01:23 22.09.2019
1509 Clear 18 1014 59 6000 4.15 333.966 00:39 22.09.2019
1510 Clear 18 1014 59 6000 4.13 334.892 00:20 22.09.2019
1511 Clear 19 1014 56 6000 4.13 334.892 23:41 21.09.2019
1512 Clear 19 1014 56 6000 4.13 334.892 23:22 21.09.2019
1513 Clear 20 1015 64 6000 2.6 280 22:40 21.09.2019
1514 Clear 20 1015 64 6000 2.6 280 22:21 21.09.2019
1515 Clear 21 1015 52 6000 2.6 270 21:57 21.09.2019
1516 Clear 21 1015 52 6000 2.6 270 21:38 21.09.2019
1517 Clear 21 1015 52 6000 2.6 270 21:18 21.09.2019
1518 Clear 22 1014 60 6000 2.1 310 20:41 21.09.2019
1519 Clear 22 1014 60 6000 2.1 310 20:22 21.09.2019
1520 Clear 24 1014 53 6000 5.1 320 19:57 21.09.2019
1521 Clear 24 1014 53 6000 5.1 320 19:39 21.09.2019
1522 Clear 24 1014 53 6000 5.1 320 19:18 21.09.2019
1523 Clear 25 1014 50 6000 5.1 330 18:39 21.09.2019
1524 Clear 25 1014 50 6000 5.1 330 18:20 21.09.2019
1525 Clear 25 1014 50 6000 5.1 330 18:20 21.09.2019
1526 Clear 28 1014 42 6000 5.1 330 17:42 21.09.2019
1527 Clear 28 1014 42 6000 5.1 330 17:23 21.09.2019
1528 Clear 29 1013 37 6000 5.7 300 16:56 21.09.2019
1529 Clear 29 1013 37 6000 5.7 300 16:37 21.09.2019
1530 Clear 29 1013 37 6000 5.7 300 16:18 21.09.2019
1531 Haze 31 1013 33 5000 6.2 300 15:42 21.09.2019
1532 Haze 30 1013 33 5000 6.2 300 15:20 21.09.2019
1533 Haze 30 1013 33 5000 6.2 300 14:47 21.09.2019
1534 Haze 30 1014 54 7000 6.2 310 14:28 21.09.2019
1535 Haze 29 1013 35 5000 6.2 300 13:45 21.09.2019
1536 Haze 30 1014 26 10000 4.1 340 13:26 21.09.2019
1537 Haze 29 1015 37 10000 4.1 250 12:59 21.09.2019
1538 Haze 29 1015 37 10000 4.1 250 12:41 21.09.2019
1539 Haze 29 1015 37 10000 4.1 250 12:21 21.09.2019
1540 Haze 29 1015 37 10000 4.1 250 11:58 21.09.2019
1541 Haze 27 1015 34 10000 3.6 280 11:39 21.09.2019
1542 Haze 27 1015 34 10000 3.6 280 11:19 21.09.2019
1543 Haze 26 1015 47 6000 4.6 270 10:41 21.09.2019
1544 Haze 26 1015 47 6000 4.6 270 10:22 21.09.2019
1545 Haze 24 1015 44 6000 5.1 260 09:57 21.09.2019
1546 Haze 24 1015 44 6000 5.1 260 09:38 21.09.2019
1547 Haze 24 1015 44 6000 5.1 260 09:20 21.09.2019
1548 Haze 22 1015 53 6000 3.6 250 08:51 21.09.2019
1549 Haze 22 1015 53 6000 3.6 250 08:26 21.09.2019
1550 Haze 20 1015 56 5000 2.1 270 07:41 21.09.2019
1551 Haze 20 1015 56 5000 2.1 270 07:22 21.09.2019
1552 Haze 17 1015 77 5000 5.98 314.113 06:49 21.09.2019
1553 Haze 17 1015 77 5000 5.98 314.113 06:30 21.09.2019
1554 Haze 18 1014 88 6000 3.1 270 04:50 21.09.2019
1555 Haze 18 1015 72 5000 2.1 360 04:32 21.09.2019
1556 Clear 21 1014 49 6000 3.1 250 02:30 21.09.2019
1557 Haze 21 1014 46 5000 4.6 250 01:53 21.09.2019
1558 Haze 21 1014 46 5000 4.6 250 01:34 21.09.2019
1559 Haze 22 1015 40 5000 1.5 40 00:40 21.09.2019
1560 Haze 22 1015 40 5000 1.5 40 00:18 21.09.2019
1561 Haze 21 1015 56 5000 6.93 321.668 23:42 20.09.2019
1562 Haze 21 1015 56 5000 6.93 321.668 23:23 20.09.2019
1563 Haze 22 1015 56 5000 1.5 35 22:41 20.09.2019
1564 Haze 22 1015 56 5000 1.5 35 22:23 20.09.2019
1565 Haze 23 1015 53 5000 2.6 10 21:57 20.09.2019
1566 Haze 23 1015 53 5000 2.6 10 21:37 20.09.2019
1567 Haze 23 1015 53 5000 2.6 10 21:18 20.09.2019
1568 Haze 25 1015 50 5000 3.6 350 20:55 20.09.2019
1569 Haze 25 1015 50 5000 3.6 350 20:37 20.09.2019
1570 Haze 25 1015 50 5000 3.6 350 20:18 20.09.2019
1571 Haze 26 1015 47 5000 3.1 340 19:45 20.09.2019
1572 Haze 26 1015 47 5000 3.1 340 19:25 20.09.2019
1573 Haze 26 1015 47 5000 3.1 340 18:58 20.09.2019
1574 Haze 28 1014 44 5000 5.1 320 18:38 20.09.2019
1575 Haze 28 1014 44 5000 5.1 320 18:38 20.09.2019
1576 Haze 29 1014 44 5000 5.1 320 18:18 20.09.2019
1577 Haze 30 1014 40 5000 5.1 320 17:45 20.09.2019
1578 Haze 30 1014 40 5000 5.1 320 17:45 20.09.2019
1579 Haze 30 1014 40 5000 5.1 320 17:45 20.09.2019
1580 Haze 30 1014 40 5000 5.1 320 17:26 20.09.2019
1581 Haze 32 1014 38 5000 6.2 320 16:44 20.09.2019
1582 Haze 32 1014 38 5000 6.2 320 16:23 20.09.2019
1583 Haze 32 1014 38 5000 6.2 320 15:59 20.09.2019
1584 Haze 33 1014 31 5000 5.1 320 15:41 20.09.2019
1585 Haze 33 1014 31 5000 5.1 320 15:22 20.09.2019
1586 Haze 33 1014 31 5000 5.1 320 15:22 20.09.2019
1587 Haze 34 1014 31 5000 5.1 260 14:44 20.09.2019
1588 Haze 34 1014 31 5000 5.1 260 14:20 20.09.2019
1589 Clear 34 1014 26 7000 6.7 270 13:59 20.09.2019
1590 Clear 34 1014 26 7000 6.7 270 13:40 20.09.2019
1591 Haze 34 1014 26 7000 6.7 270 13:21 20.09.2019
1592 Haze 34 1015 24 5000 3.6 360 12:40 20.09.2019
1593 Haze 34 1015 24 5000 3.6 360 12:22 20.09.2019
1594 Haze 33 1015 24 5000 3.6 360 11:51 20.09.2019
1595 Haze 32 1015 26 5000 2.1 40 11:25 20.09.2019
1596 Haze 32 1015 26 5000 2.1 40 10:58 20.09.2019
1597 Haze 30 1016 31 5000 4.85 310.064 10:40 20.09.2019
1598 Haze 30 1016 31 5000 4.85 310.064 10:22 20.09.2019
1599 Haze 29 1016 33 5000 1.5 310 09:38 20.09.2019
1600 Haze 29 1016 33 5000 1.5 310 09:19 20.09.2019
1601 Haze 26 1015 47 4000 6.2 313.267 08:48 20.09.2019
1602 Haze 26 1015 47 4000 6.2 313.267 08:28 20.09.2019
1603 Haze 23 1015 60 5000 6.2 313.267 07:59 20.09.2019
1604 Haze 23 1015 60 5000 6.2 313.267 07:40 20.09.2019
1605 Haze 23 1015 60 5000 6.2 313.267 07:40 20.09.2019
1606 Haze 23 1015 60 5000 6.09 309.991 07:20 20.09.2019
1607 Haze 21 1015 60 5000 6.09 309.991 06:42 20.09.2019
1608 Haze 21 1015 60 5000 6.09 309.991 06:42 20.09.2019
1609 Haze 21 1015 60 5000 5.98 321.94 06:18 20.09.2019
1610 Haze 22 1015 60 5000 5.98 321.94 04:32 20.09.2019
1611 Haze 24 1014 57 5000 3.1 240 03:27 20.09.2019
1612 Haze 24 1015 57 5000 4.1 260 02:22 20.09.2019
1613 Haze 24 1015 50 5000 2.6 220 01:43 20.09.2019
1614 Haze 25 1016 44 5000 3.67 317.119 00:42 20.09.2019
1615 Haze 25 1016 44 5000 5.66 300.375 23:50 19.09.2019
1616 Haze 25 1016 44 5000 5.66 300.375 23:50 19.09.2019
1617 Haze 25 1016 44 5000 5.66 300.375 23:50 19.09.2019
1618 Haze 24 1016 56 5000 5.66 300.375 23:29 19.09.2019
1619 Haze 27 1016 42 5000 1 320 22:59 19.09.2019
1620 Haze 27 1016 42 5000 1 320 22:40 19.09.2019
1621 Haze 27 1016 42 5000 1 320 22:22 19.09.2019
1622 Haze 28 1016 42 5000 1 320 21:57 19.09.2019
1623 Haze 28 1016 42 5000 1 320 21:39 19.09.2019
1624 Haze 28 1016 42 5000 1 320 21:39 19.09.2019
1625 Haze 28 1016 42 5000 1 320 21:19 19.09.2019
1626 Haze 28 1016 51 6000 2.6 310 20:57 19.09.2019
1627 Haze 28 1016 51 6000 2.6 310 20:57 19.09.2019
1628 Haze 27 1016 61 5000 1 320 20:38 19.09.2019
1629 Haze 27 1016 61 5000 1 320 20:19 19.09.2019
1630 Haze 28 1015 51 6000 2.6 310 19:54 19.09.2019
1631 Haze 29 1016 51 5000 3.6 340 19:36 19.09.2019
1632 Haze 29 1016 51 5000 3.6 340 19:18 19.09.2019
1633 Haze 31 1015 40 5000 2.6 340 18:41 19.09.2019
1634 Haze 33 1015 40 5000 2.6 340 18:22 19.09.2019
1635 Haze 34 1015 31 5000 3.6 330 17:43 19.09.2019
1636 Haze 34 1015 31 5000 3.6 330 17:24 19.09.2019
1637 Dust 36 1015 25 4000 3.6 240 16:59 19.09.2019
1638 Dust 36 1015 25 4000 3.6 240 16:40 19.09.2019
1639 Dust 36 1015 25 4000 3.6 240 16:20 19.09.2019
1640 Dust 37 1015 18 4000 3.1 240 15:41 19.09.2019
1641 Dust 37 1015 18 4000 3.1 240 15:22 19.09.2019
1642 Dust 37 1015 21 4000 2.96 262.16 14:58 19.09.2019
1643 Dust 37 1015 21 4000 2.96 262.16 14:39 19.09.2019
1644 Dust 37 1015 21 4000 2.96 262.16 14:20 19.09.2019
1645 Dust 37 1015 20 5000 2.6 240 13:55 19.09.2019
1646 Dust 36 1016 19 4000 1.5 240 13:36 19.09.2019
1647 Dust 36 1016 19 4000 1.5 240 13:18 19.09.2019
1648 Dust 35 1016 24 3500 3.37 258.453 12:37 19.09.2019
1649 Dust 35 1016 24 3500 2.15 225.245 12:18 19.09.2019
1650 Dust 33 1017 26 5000 2.15 225.245 11:41 19.09.2019
1651 Dust 33 1017 26 5000 2.15 225.245 11:22 19.09.2019
1652 Dust 31 1017 27 4000 2.15 225.245 10:59 19.09.2019
1653 Dust 31 1017 27 4000 2.15 225.245 10:39 19.09.2019
1654 Dust 31 1017 27 4000 2.15 225.245 10:21 19.09.2019
1655 Dust 31 1017 27 4000 2.15 225.245 10:21 19.09.2019
1656 Dust 29 1017 33 4000 2.1 60 09:58 19.09.2019
1657 Dust 29 1017 33 4000 2.1 60 09:40 19.09.2019
1658 Dust 29 1017 33 4000 2.1 60 09:40 19.09.2019
1659 Dust 29 1017 33 4000 2.1 60 09:19 19.09.2019
1660 Smoke 25 1018 42 3000 2.1 22 08:51 19.09.2019
1661 Smoke 25 1018 42 3000 2.1 22 08:24 19.09.2019
1662 Haze 25 1017 47 3000 0.46 5.476 07:45 19.09.2019
1663 Haze 20 1017 47 3000 0.46 5.476 07:23 19.09.2019
1664 Haze 20 1017 49 3000 2.1 320 06:58 19.09.2019
1665 Haze 20 1017 49 3000 2.1 320 06:38 19.09.2019
1666 Haze 20 1017 49 3000 2.1 320 06:20 19.09.2019
1667 Haze 20 1017 49 3000 2.1 320 05:48 19.09.2019
1668 Haze 20 1016 50 5000 3.19 324.932 04:20 19.09.2019
1669 Clear 22 1016 47 6000 2.1 320 03:20 19.09.2019
1670 Haze 23 1016 41 5000 2.1 320 01:40 19.09.2019
1671 Haze 23 1016 41 5000 2.1 320 01:19 19.09.2019
1672 Haze 24 1016 41 5000 2.1 320 00:43 19.09.2019
1673 Haze 24 1016 41 5000 2.1 320 00:20 19.09.2019
1674 Haze 25 1016 39 5000 1 320 23:38 18.09.2019
1675 Haze 25 1016 39 5000 1 320 23:19 18.09.2019
1676 Haze 25 1017 39 5000 2.6 320 22:42 18.09.2019
1677 Haze 25 1017 39 5000 2.6 320 22:20 18.09.2019
1678 Haze 26 1016 39 5000 1 320 21:58 18.09.2019
1679 Haze 26 1016 39 5000 1 320 21:40 18.09.2019
1680 Haze 26 1016 39 5000 1 320 21:18 18.09.2019
1681 Haze 28 1016 32 5000 1.5 320 20:57 18.09.2019
1682 Haze 28 1016 32 5000 1.5 320 20:39 18.09.2019
1683 Haze 28 1016 32 5000 1.5 320 20:21 18.09.2019
1684 Haze 28 1016 32 5000 1.5 320 19:57 18.09.2019
1685 Haze 29 1016 25 5000 4.79 327.611 19:38 18.09.2019
1686 Haze 32 1016 25 5000 1.5 320 19:19 18.09.2019
1687 Haze 32 1016 25 5000 1.5 320 18:55 18.09.2019
1688 Haze 32 1016 25 5000 1.5 320 18:37 18.09.2019
1689 Haze 32 1016 25 5000 1.5 320 18:18 18.09.2019
1690 Haze 34 1015 20 5000 2.6 270 17:57 18.09.2019
1691 Haze 34 1015 20 5000 2.6 270 17:39 18.09.2019
1692 Haze 34 1015 20 5000 2.6 270 17:18 18.09.2019
1693 Haze 34 1015 20 5000 2.6 270 17:18 18.09.2019
1694 Haze 36 1015 18 5000 2.1 60 16:55 18.09.2019
1695 Haze 36 1015 18 5000 2.1 60 16:37 18.09.2019
1696 Haze 36 1015 18 5000 2.1 60 16:18 18.09.2019
1697 Haze 37 1014 23 5000 2.6 120 15:55 18.09.2019
1698 Haze 36 1015 17 5000 2.1 140 15:36 18.09.2019
1699 Haze 36 1015 17 5000 2.1 140 15:18 18.09.2019
1700 Haze 36 1016 17 5000 2.1 90 14:57 18.09.2019
1701 Haze 36 1016 17 5000 2.1 90 14:38 18.09.2019
1702 Haze 36 1016 17 5000 2.1 90 14:20 18.09.2019
1703 Haze 34 1016 20 5000 4.1 120 13:43 18.09.2019
1704 Haze 34 1016 20 5000 4.1 120 13:19 18.09.2019
1705 Haze 33 1016 20 5000 4.1 120 12:55 18.09.2019
1706 Dust 33 1017 21 4000 4.6 120 12:36 18.09.2019
1707 Dust 32 1017 24 4000 5.1 100 12:18 18.09.2019
1708 Dust 32 1017 24 4000 5.1 100 11:39 18.09.2019
1709 Dust 32 1017 24 4000 5.1 100 11:19 18.09.2019
1710 Haze 30 1018 25 5000 4.1 120 10:41 18.09.2019
1711 Haze 30 1018 25 5000 4.1 120 10:22 18.09.2019
1712 Haze 28 1018 28 4000 4.1 80 09:59 18.09.2019
1713 Haze 28 1018 28 4000 4.1 80 09:41 18.09.2019
1714 Haze 28 1018 28 4000 4.1 80 09:22 18.09.2019
1715 Haze 26 1018 33 5000 3.06 117.11 08:55 18.09.2019
1716 Haze 26 1018 33 5000 2.6 108.107 08:37 18.09.2019
1717 Haze 26 1018 33 5000 2.6 108.107 08:18 18.09.2019
1718 Haze 26 1018 33 5000 2.6 108.107 08:18 18.09.2019
1719 Smoke 21 1017 46 5000 2.6 108.107 07:43 18.09.2019
1720 Smoke 21 1017 46 5000 2.6 108.107 07:23 18.09.2019
1721 Haze 18 1017 48 4000 2.6 108.107 06:42 18.09.2019
1722 Haze 18 1017 48 4000 1.92 295.682 06:21 18.09.2019
1723 Haze 17 1017 48 5000 1.92 295.682 05:26 18.09.2019
1724 Haze 18 1016 52 5000 1 30 03:40 18.09.2019
1725 Haze 18 1016 52 5000 2.85 318.467 02:40 18.09.2019
1726 Clear 19 1016 52 6000 2.1 30 01:41 18.09.2019
1727 Clear 20 1016 55 6000 4.1 330 00:55 18.09.2019
1728 Clear 21 1016 49 6000 2.93 315.152 00:31 18.09.2019
1729 Clear 21 1016 52 6000 5.74 323.875 23:48 17.09.2019
1730 Clear 21 1016 52 6000 5.74 323.875 23:25 17.09.2019
1731 Clear 21 1016 52 6000 5.74 323.875 23:25 17.09.2019
1732 Clear 20 1016 52 6000 5.74 323.875 22:57 17.09.2019
1733 Clear 20 1017 49 6000 3.1 350 22:38 17.09.2019
1734 Haze 21 1017 49 6000 3.1 350 22:19 17.09.2019
1735 Haze 21 1017 49 6000 3.1 350 21:54 17.09.2019
1736 Haze 21 1017 46 5000 5.74 323.875 21:36 17.09.2019
1737 Haze 21 1017 46 5000 6.56 335.365 21:18 17.09.2019
1738 Haze 23 1017 46 5000 7.64 336.929 20:56 17.09.2019
1739 Haze 23 1017 46 5000 7.64 336.929 20:56 17.09.2019
1740 Haze 24 1016 33 5000 7.64 336.929 20:38 17.09.2019
1741 Haze 24 1016 33 5000 7.64 336.929 20:19 17.09.2019
1742 Haze 24 1016 33 5000 7.64 336.929 20:19 17.09.2019
1743 Haze 25 1016 36 6000 3.6 340 19:57 17.09.2019
1744 Haze 25 1016 29 5000 3.6 320 19:38 17.09.2019
1745 Haze 26 1016 36 6000 3.6 330 19:18 17.09.2019
1746 Haze 27 1016 29 5000 3.6 320 18:43 17.09.2019
1747 Haze 27 1016 29 5000 3.6 320 18:22 17.09.2019
1748 Haze 30 1015 26 5000 5.1 310 17:56 17.09.2019
1749 Haze 30 1015 26 5000 5.1 310 17:38 17.09.2019
1750 Haze 30 1015 26 5000 5.1 310 17:19 17.09.2019
1751 Clear 31 1015 23 6000 4.1 310 16:54 17.09.2019
1752 Clear 31 1015 23 6000 4.1 310 16:36 17.09.2019
1753 Clear 31 1015 23 6000 4.1 310 16:18 17.09.2019
1754 Clear 32 1016 23 6000 4.1 310 15:38 17.09.2019
1755 Clear 32 1016 23 6000 4.1 310 15:19 17.09.2019
1756 Clear 32 1016 27 6000 4.1 320 14:56 17.09.2019
1757 Clear 32 1016 27 6000 4.1 320 14:37 17.09.2019
1758 Clear 32 1016 27 6000 4.1 320 14:19 17.09.2019
1759 Clear 31 1016 23 6000 3.6 330 13:43 17.09.2019
1760 Clear 31 1016 23 6000 3.6 330 13:25 17.09.2019
1761 Clear 30 1016 23 6000 3.6 330 12:59 17.09.2019
1762 Clear 30 1016 23 6000 2.6 360 12:38 17.09.2019
1763 Clear 30 1016 23 6000 2.6 360 12:19 17.09.2019
1764 Clear 30 1016 23 6000 2.6 360 12:19 17.09.2019
1765 Clear 29 1017 24 6000 4.1 350 11:44 17.09.2019
1766 Clear 29 1017 24 6000 4.1 350 11:25 17.09.2019
1767 Haze 28 1017 28 5000 3.1 360 10:57 17.09.2019
1768 Haze 28 1017 28 5000 3.1 360 10:39 17.09.2019
1769 Haze 28 1017 28 5000 3.1 360 10:20 17.09.2019
1770 Haze 26 1017 44 5000 2.1 350 09:43 17.09.2019
1771 Haze 26 1017 44 5000 2.1 350 09:24 17.09.2019
1772 Haze 23 1017 60 5000 2.22 326.933 08:57 17.09.2019
1773 Haze 23 1017 60 5000 2.22 326.933 08:39 17.09.2019
1774 Haze 23 1017 60 5000 1.54 326.97 08:20 17.09.2019
1775 Haze 20 1017 60 5000 1.5 20 07:42 17.09.2019
1776 Haze 20 1017 60 5000 1.5 20 07:42 17.09.2019
1777 Haze 20 1017 60 5000 1.5 20 07:24 17.09.2019
1778 Haze 20 1017 60 5000 1.5 20 07:24 17.09.2019
1779 Haze 17 1017 60 5000 1.5 20 06:52 17.09.2019
1780 Haze 17 1016 59 5000 2.1 20 06:29 17.09.2019
1781 Haze 16 1016 59 5000 2.1 20 05:53 17.09.2019
1782 Mist 18 1015 56 7000 2.9 327.62 04:46 17.09.2019
1783 Clear 19 1015 52 7000 2.9 327.62 03:40 17.09.2019
1784 Clear 19 1016 64 7000 4.79 319.151 02:39 17.09.2019
1785 Clear 19 1016 72 7000 0.5 330 01:50 17.09.2019
1786 Clouds 20 1016 68 7000 1 330 00:46 17.09.2019
1787 Clear 20 1016 68 6000 0.5 330 23:41 16.09.2019
1788 Clear 20 1016 68 6000 0.5 330 23:20 16.09.2019
1789 Clear 21 1016 68 6000 0.5 330 22:59 16.09.2019
1790 Clear 21 1016 68 6000 4.1 320 22:40 16.09.2019
1791 Clear 21 1016 68 6000 4.1 320 22:22 16.09.2019
1792 Clear 22 1016 68 6000 3.1 310 21:57 16.09.2019
1793 Clear 23 1016 64 6000 2.1 320 21:38 16.09.2019
1794 Clear 23 1016 64 6000 2.1 320 21:20 16.09.2019
1795 Clear 24 1015 64 6000 2.6 310 20:42 16.09.2019
1796 Clear 24 1015 64 6000 2.6 310 20:23 16.09.2019
1797 Clear 24 1015 64 6000 2.6 310 19:58 16.09.2019
1798 Haze 25 1015 57 5000 4.6 310 19:40 16.09.2019
1799 Haze 25 1015 57 5000 4.6 310 19:20 16.09.2019
1800 Haze 25 1015 57 5000 4.6 310 18:57 16.09.2019
1801 Haze 26 1015 41 5000 3.6 330 18:39 16.09.2019
1802 Haze 26 1015 41 5000 3.6 330 18:20 16.09.2019
1803 Haze 28 1015 37 5000 3.6 330 17:43 16.09.2019
1804 Haze 28 1015 37 5000 3.6 330 17:24 16.09.2019
1805 Haze 29 1015 34 5000 2.1 280 16:58 16.09.2019
1806 Haze 29 1015 34 5000 2.1 280 16:39 16.09.2019
1807 Haze 29 1015 34 5000 2.1 280 16:20 16.09.2019
1808 Haze 30 1015 32 5000 4.6 250 15:56 16.09.2019
1809 Haze 30 1015 32 5000 4.6 250 15:37 16.09.2019
1810 Haze 30 1015 32 5000 4.6 250 15:19 16.09.2019
1811 Haze 29 1015 28 5000 2.1 230 14:56 16.09.2019
1812 Haze 29 1015 28 5000 2.1 230 14:37 16.09.2019
1813 Haze 29 1015 28 5000 2.1 230 14:19 16.09.2019
1814 Haze 29 1016 34 5000 4.1 250 13:40 16.09.2019
1815 Haze 29 1016 34 5000 4.1 250 13:22 16.09.2019
1816 Haze 29 1016 37 5000 3.1 210 12:54 16.09.2019
1817 Haze 29 1016 37 5000 3.1 210 12:54 16.09.2019
1818 Haze 29 1016 37 5000 3.1 210 12:36 16.09.2019
1819 Haze 27 1016 37 5000 3.1 210 12:18 16.09.2019
1820 Haze 27 1016 39 5000 5.1 310 11:44 16.09.2019
1821 Haze 27 1016 39 5000 5.1 310 11:21 16.09.2019
1822 Haze 24 1016 46 5000 3.6 240 10:40 16.09.2019
1823 Haze 24 1016 46 5000 3.6 240 10:21 16.09.2019
1824 Haze 23 1016 46 5000 3.1 260 09:59 16.09.2019
1825 Haze 23 1016 46 5000 3.1 260 09:41 16.09.2019
1826 Haze 23 1016 46 5000 3.1 260 09:20 16.09.2019
1827 Haze 20 1015 64 5000 3.6 260 08:52 16.09.2019
1828 Haze 20 1015 64 5000 3.6 260 08:31 16.09.2019
1829 Haze 18 1015 64 5000 3.6 260 07:59 16.09.2019
1830 Haze 18 1015 72 5000 2.1 260 07:40 16.09.2019
1831 Haze 18 1015 72 5000 2.1 260 07:20 16.09.2019
1832 Haze 18 1015 72 5000 2.1 260 06:49 16.09.2019
1833 Haze 16 1015 88 5000 2.1 260 06:31 16.09.2019
1834 Haze 17 1015 93 2000 1.47 306.558 05:58 16.09.2019
1835 Haze 17 1014 82 5000 3.6 260 05:39 16.09.2019
1836 Haze 17 1014 82 5000 3.6 260 05:18 16.09.2019
1837 Haze 18 1014 77 5000 3.1 270 03:35 16.09.2019
1838 Clouds 19 1014 77 6000 3.6 280 00:58 16.09.2019
1839 Clear 16 1012 87 0 1.78 305.14 00:37 16.09.2019
1840 Haze 20 1014 68 5000 4.19 315.242 00:19 16.09.2019
1841 Haze 20 1014 68 5000 4.19 315.242 23:39 15.09.2019
1842 Haze 20 1014 68 5000 4.19 315.242 23:20 15.09.2019
1843 Haze 20 1014 60 5000 4.19 315.242 22:39 15.09.2019
1844 Haze 20 1014 60 5000 4.19 315.242 22:20 15.09.2019
1845 Haze 21 1014 60 5000 4.19 315.242 21:57 15.09.2019
1846 Haze 21 1014 60 5000 3.6 270 21:39 15.09.2019
1847 Haze 21 1014 60 5000 3.6 270 21:20 15.09.2019
1848 Haze 21 1014 60 5000 3.6 270 21:20 15.09.2019
1849 Haze 22 1014 53 5000 4.6 280 20:55 15.09.2019
1850 Haze 22 1014 53 5000 4.6 280 20:37 15.09.2019
1851 Haze 22 1014 53 5000 4.6 280 20:19 15.09.2019
1852 Haze 22 1014 77 6000 5.1 260 19:42 15.09.2019
1853 Haze 22 1014 77 6000 5.1 260 19:22 15.09.2019
1854 Haze 24 1013 57 5000 5.1 260 18:42 15.09.2019
1855 Haze 24 1013 57 5000 5.1 260 18:24 15.09.2019
1856 Haze 25 1013 57 5000 5.1 260 17:56 15.09.2019
1857 Haze 25 1013 57 5000 5.1 260 17:56 15.09.2019
1858 Haze 26 1013 50 5000 6.2 250 17:37 15.09.2019
1859 Haze 26 1013 50 5000 6.2 250 17:19 15.09.2019
1860 Haze 26 1013 50 5000 6.2 250 17:19 15.09.2019
1861 Haze 27 1013 47 5000 5.1 280 16:43 15.09.2019
1862 Haze 27 1013 47 5000 5.1 280 16:25 15.09.2019
1863 Dust 28 1013 42 5000 8.2 260 15:58 15.09.2019
1864 Dust 28 1013 42 5000 8.2 260 15:40 15.09.2019
1865 Dust 28 1013 42 5000 8.2 260 15:20 15.09.2019
1866 Dust 28 1013 39 5000 8.2 240 14:58 15.09.2019
1867 Dust 28 1013 39 5000 8.2 240 14:39 15.09.2019
1868 Dust 28 1013 39 5000 8.2 240 14:20 15.09.2019
1869 Haze 28 1013 39 6000 9.3 250 13:46 15.09.2019
1870 Haze 28 1013 39 6000 9.3 250 13:46 15.09.2019
1871 Haze 28 1013 39 6000 9.3 250 13:24 15.09.2019
1872 Haze 27 1013 41 6000 7.2 270 12:56 15.09.2019
1873 Haze 27 1013 41 6000 7.2 270 12:38 15.09.2019
1874 Haze 27 1013 41 6000 7.2 270 12:18 15.09.2019
1875 Haze 27 1013 39 6000 7.7 260 11:42 15.09.2019
1876 Haze 27 1013 39 6000 7.7 260 11:22 15.09.2019
1877 Haze 25 1014 47 6000 4.1 240 10:58 15.09.2019
1878 Haze 25 1014 47 6000 4.1 240 10:39 15.09.2019
1879 Haze 25 1014 47 6000 4.1 240 10:20 15.09.2019
1880 Haze 24 1014 53 5000 4.1 310 09:40 15.09.2019
1881 Haze 24 1014 53 5000 4.1 310 09:20 15.09.2019
1882 Haze 24 1013 60 5000 5.1 300 08:53 15.09.2019
1883 Haze 24 1013 60 5000 5.1 300 08:30 15.09.2019
1884 Haze 20 1013 60 5000 5.1 300 07:57 15.09.2019
1885 Haze 19 1013 68 3000 3.88 299.688 07:39 15.09.2019
1886 Haze 18 1013 82 3000 3.88 299.688 06:43 15.09.2019
1887 Haze 18 1012 82 5000 3.89 317.821 04:59 15.09.2019
1888 Haze 17 1012 82 5000 2.6 320 03:18 15.09.2019
1889 Haze 18 1012 82 5000 3.1 350 01:58 15.09.2019
1890 Haze 18 1012 82 5000 3.1 350 01:36 15.09.2019
1891 Haze 19 1013 82 5000 2.6 340 00:56 15.09.2019
1892 Haze 19 1013 82 5000 2.6 340 00:36 15.09.2019
1893 Haze 19 1013 82 5000 2.6 340 00:18 15.09.2019
1894 Haze 20 1013 77 5000 2.1 330 23:55 14.09.2019
1895 Haze 20 1013 77 5000 2.1 330 23:37 14.09.2019
1896 Haze 20 1013 77 5000 2.1 330 23:18 14.09.2019
1897 -273 0 0 0 0 0 22:55 14.09.2019
1898 Haze 20 1013 77 5000 3.6 330 22:37 14.09.2019
1899 Haze 20 1013 77 5000 3.6 330 22:18 14.09.2019
1900 Haze 22 1013 73 5000 4.1 320 21:40 14.09.2019
1901 Haze 22 1013 73 5000 4.1 320 21:20 14.09.2019
1902 -273 0 0 0 0 0 20:57 14.09.2019
1903 Haze 23 1012 73 5000 4.6 320 20:38 14.09.2019
1904 Haze 23 1012 73 5000 4.6 320 20:20 14.09.2019
1905 Haze 24 1011 57 5000 7.7 260 19:46 14.09.2019
1906 Haze 24 1011 57 5000 7.7 260 19:22 14.09.2019
1907 Haze 25 1011 57 5000 5.1 260 18:57 14.09.2019
1908 Haze 25 1011 57 5000 5.1 260 18:38 14.09.2019
1909 Haze 25 1011 57 5000 5.1 260 18:19 14.09.2019
1910 Haze 27 1011 48 5000 5.1 270 17:44 14.09.2019
1911 Haze 27 1011 48 5000 5.1 270 17:24 14.09.2019
1912 Haze 28 1010 54 5000 6.2 290 16:54 14.09.2019
1913 Haze 28 1011 37 6000 4.1 300 16:36 14.09.2019
1914 Haze 28 1011 37 6000 4.1 300 16:18 14.09.2019
1915 Haze 29 1011 37 6000 4.1 300 15:41 14.09.2019
1916 Haze 29 1011 37 6000 4.1 300 15:22 14.09.2019
1917 Haze 29 1011 37 6000 4.1 300 15:22 14.09.2019
1918 Haze 30 1010 42 5000 5.1 290 14:54 14.09.2019
1919 Haze 30 1012 37 6000 6.7 220 14:36 14.09.2019
1920 Haze 30 1012 37 6000 6.7 220 14:18 14.09.2019
1921 Haze 30 1011 32 6000 4.6 240 13:44 14.09.2019
1922 Haze 30 1011 32 6000 4.6 240 13:20 14.09.2019
1923 Haze 29 1012 42 6000 2.6 320 12:45 14.09.2019
1924 Haze 29 1012 42 6000 2.6 320 12:23 14.09.2019
1925 Haze 28 1012 51 6000 4.1 240 11:41 14.09.2019
1926 Haze 28 1012 51 6000 4.1 240 11:20 14.09.2019
1927 Haze 27 1012 42 5000 2.6 30 10:40 14.09.2019
1928 Haze 27 1012 42 5000 2.6 30 10:22 14.09.2019
1929 Haze 25 1012 47 5000 3.1 40 09:58 14.09.2019
1930 Haze 25 1012 47 5000 3.1 40 09:40 14.09.2019
1931 Haze 25 1012 47 5000 3.1 40 09:21 14.09.2019
1932 Haze 25 1012 47 5000 3.1 40 09:21 14.09.2019
1933 Haze 22 1012 60 5000 3.6 40 08:56 14.09.2019
1934 Haze 22 1012 60 5000 3.6 40 08:38 14.09.2019
1935 Haze 22 1012 60 5000 3.6 40 08:19 14.09.2019
1936 Smoke 19 1012 73 4000 6.43 320.178 07:43 14.09.2019
1937 Smoke 19 1012 73 4000 6.43 320.178 07:21 14.09.2019
1938 Smoke 17 1012 77 4000 6.43 320.178 06:35 14.09.2019
1939 Haze 18 1012 82 5000 1.5 330 05:53 14.09.2019
1940 Haze 18 1012 82 5000 4.64 323.74 04:34 14.09.2019
1941 Haze 19 1012 73 5000 4.22 296.705 03:25 14.09.2019
1942 Haze 19 1012 73 5000 4.22 296.705 02:48 14.09.2019
1943 Haze 19 1012 77 5000 4.22 296.705 01:45 14.09.2019
1944 Haze 19 1012 77 5000 4.15 299.001 01:19 14.09.2019
1945 Haze 21 1012 73 5000 1 320 00:40 14.09.2019
1946 Haze 20 1012 73 5000 1 320 00:22 14.09.2019
1947 Haze 20 1012 73 5000 1 320 00:22 14.09.2019
1948 Haze 20 1012 73 5000 1 320 23:56 13.09.2019
1949 Clear 21 1012 73 6000 6.43 330.471 23:37 13.09.2019
1950 Clear 21 1012 73 6000 6.43 330.471 23:18 13.09.2019
1951 Clear 21 1013 73 6000 6.43 330.471 22:55 13.09.2019
1952 Clear 21 1013 73 6000 6.43 330.471 22:37 13.09.2019
1953 Clear 21 1013 73 6000 6.43 330.471 22:37 13.09.2019
1954 Clear 21 1013 73 6000 6.43 330.471 22:19 13.09.2019
1955 Clear 23 1013 69 6000 6.43 330.471 21:40 13.09.2019
1956 Clear 23 1013 69 6000 5.45 330.539 21:19 13.09.2019
1957 Clear 23 1013 69 6000 5.45 330.539 21:19 13.09.2019
1958 Clear 23 1012 69 6000 5.45 330.539 20:58 13.09.2019
1959 Clear 23 1012 69 6000 5.86 331.008 20:38 13.09.2019
1960 Clear 23 1012 69 6000 5.86 331.008 20:20 13.09.2019
1961 Haze 25 1012 61 5000 3.1 320 19:55 13.09.2019
1962 Haze 25 1012 61 5000 3.1 320 19:37 13.09.2019
1963 Haze 25 1012 61 5000 3.1 320 19:18 13.09.2019
1964 Haze 25 1012 61 5000 3.1 320 19:18 13.09.2019
1965 Haze 25 1012 61 5000 3.1 320 18:54 13.09.2019
1966 Haze 28 1012 51 5000 5.1 320 18:36 13.09.2019
1967 Haze 28 1012 51 5000 5.1 320 18:18 13.09.2019
1968 Clouds 30 1012 27 6000 4.1 320 17:37 13.09.2019
1969 Clouds 30 1012 27 6000 4.1 320 17:37 13.09.2019
1970 Clouds 30 1012 27 6000 4.1 320 17:18 13.09.2019
1971 Clouds 30 1012 27 6000 4.1 350 16:41 13.09.2019
1972 Clouds 30 1012 27 6000 4.1 350 16:20 13.09.2019
1973 Clouds 30 1012 27 6000 4.1 350 16:20 13.09.2019
1974 Clouds 31 1012 31 6000 3.1 310 15:46 13.09.2019
1975 Clouds 31 1012 31 6000 3.1 310 15:27 13.09.2019
1976 Clouds 31 1013 27 6000 3.1 320 14:58 13.09.2019
1977 Clouds 31 1013 27 6000 3.1 320 14:39 13.09.2019
1978 Clouds 31 1013 27 6000 3.1 320 14:19 13.09.2019
1979 Clouds 31 1013 27 6000 3.1 320 14:19 13.09.2019
1980 Clear 30 1012 35 8000 5.1 270 13:46 13.09.2019
1981 Clouds 30 1013 28 7000 1.5 350 13:24 13.09.2019
1982 Clear 30 1012 33 8000 3.44 287.127 12:58 13.09.2019
1983 Clear 30 1013 30 6000 2.1 320 12:39 13.09.2019
1984 Clear 30 1013 30 6000 2.1 320 12:21 13.09.2019
1985 Clouds 29 1014 39 6000 2.1 350 11:55 13.09.2019
1986 Clouds 29 1014 39 6000 2.1 350 11:19 13.09.2019
1987 Haze 26 1014 50 5000 3.6 330 10:39 13.09.2019
1988 Haze 26 1014 50 5000 3.6 330 10:19 13.09.2019
1989 Haze 24 1014 53 5000 4.1 340 09:45 13.09.2019
1990 Haze 24 1014 53 5000 4.1 340 09:24 13.09.2019
1991 Haze 22 1014 68 5000 5.1 350 08:59 13.09.2019
1992 Haze 22 1014 68 5000 5.1 350 08:40 13.09.2019
1993 Haze 22 1014 68 5000 5.1 350 08:20 13.09.2019
1994 Haze 20 1015 77 5000 2.1 320 07:46 13.09.2019
1995 Haze 20 1015 77 5000 2.1 320 07:27 13.09.2019
1996 Haze 18 1015 82 5000 4.1 320 06:48 13.09.2019
1997 Haze 18 1014 82 5000 3.1 330 05:49 13.09.2019
1998 Clear 18 1014 72 6000 0.5 310 04:57 13.09.2019
1999 Clear 18 1014 72 6000 4.1 300 03:40 13.09.2019
2000 Clear 18 1014 72 6000 4.1 360 02:20 13.09.2019
2001 Clear 20 1014 64 6000 1.5 320 01:59 13.09.2019
2002 Clear 19 1014 64 6000 1.5 320 01:34 13.09.2019
2003 Clear 20 1015 64 6000 4.6 300 00:47 13.09.2019
2004 Clear 20 1015 64 6000 4.6 300 00:21 13.09.2019
2005 Haze 20 1015 64 5000 3.1 320 23:39 12.09.2019
2006 Haze 20 1015 64 5000 3.1 320 23:20 12.09.2019
2007 Haze 21 1015 73 5000 4.1 320 22:42 12.09.2019
2008 Haze 21 1015 73 5000 4.1 320 22:24 12.09.2019
2009 Haze 22 1015 68 5000 4.1 280 21:57 12.09.2019
2010 Haze 22 1015 68 5000 4.1 280 21:38 12.09.2019
2011 Haze 22 1015 68 5000 4.1 280 21:20 12.09.2019
2012 -273 0 0 0 0 0 20:57 12.09.2019
2013 -273 0 0 0 0 0 20:56 12.09.2019
2014 Haze 23 1015 69 5000 2.6 320 20:38 12.09.2019
2015 Haze 23 1015 69 5000 2.6 320 20:19 12.09.2019
2016 Haze 25 1015 64 5000 6.2 320 19:54 12.09.2019
2017 Haze 25 1015 64 5000 6.2 320 19:36 12.09.2019
2018 Haze 25 1015 64 5000 6.2 320 19:36 12.09.2019
2019 Haze 25 1015 64 5000 6.2 320 19:18 12.09.2019
2020 Haze 26 1014 57 5000 6.2 310 18:37 12.09.2019
2021 Haze 26 1014 57 5000 6.2 310 18:19 12.09.2019
2022 Haze 26 1014 57 5000 6.2 310 17:56 12.09.2019
2023 Haze 28 1014 51 5000 6.7 330 17:38 12.09.2019
2024 Haze 28 1014 51 5000 6.7 330 17:19 12.09.2019
2025 Haze 29 1015 37 5000 6.2 310 16:42 12.09.2019
2026 Haze 29 1015 37 5000 6.2 310 16:22 12.09.2019
2027 Haze 30 1015 37 5000 6.2 300 15:45 12.09.2019
2028 Haze 30 1015 37 5000 6.2 300 15:27 12.09.2019
2029 Haze 30 1015 35 5000 6.2 310 14:58 12.09.2019
2030 Haze 30 1015 35 5000 6.2 310 14:40 12.09.2019
2031 Haze 30 1015 35 5000 6.2 310 14:40 12.09.2019
2032 Haze 30 1015 35 5000 6.2 310 14:21 12.09.2019
2033 Dust 29 1015 45 8000 5.7 330 13:39 12.09.2019
2034 Dust 29 1015 45 8000 5.7 330 13:21 12.09.2019
2035 Dust 29 1015 45 8000 5.7 330 12:49 12.09.2019
2036 Haze 29 1016 45 8000 6.2 350 12:20 12.09.2019
2037 Haze 27 1016 45 8000 6.2 350 12:00 12.09.2019
2038 Haze 27 1016 51 6000 3.6 340 11:41 12.09.2019
2039 Haze 27 1016 51 6000 3.6 340 11:21 12.09.2019
2040 Haze 26 1017 53 5000 2.1 260 10:57 12.09.2019
2041 Haze 26 1017 53 5000 2.1 260 10:39 12.09.2019
2042 Haze 26 1017 53 5000 2.1 260 10:20 12.09.2019
2043 Haze 24 1017 57 5000 4.1 340 09:43 12.09.2019
2044 Haze 24 1017 57 5000 4.1 340 09:20 12.09.2019
2045 Haze 21 1016 68 5000 1.5 360 08:45 12.09.2019
2046 Haze 21 1016 68 5000 1.5 360 08:25 12.09.2019
2047 Haze 19 1016 82 3000 2.1 350 07:56 12.09.2019
2048 Haze 19 1016 82 3000 2.1 350 07:38 12.09.2019
2049 Mist 19 1016 82 4000 5.06 314.536 07:18 12.09.2019
2050 Mist 17 1017 88 3000 2.6 340 06:46 12.09.2019
2051 Mist 17 1017 88 3000 2.6 340 06:19 12.09.2019
2052 Mist 17 1016 88 4000 1.5 40 05:47 12.09.2019
2053 Mist 17 1016 88 4000 1.5 40 05:27 12.09.2019
2054 Mist 17 1016 88 5000 2.1 80 04:31 12.09.2019
2055 Mist 17 1016 88 5000 2.1 80 04:31 12.09.2019
2056 Haze 20 1016 56 5000 3.1 260 01:47 12.09.2019
2057 Haze 20 1016 56 5000 3.1 260 01:28 12.09.2019
2058 Haze 21 1016 88 6000 2.1 280 00:51 12.09.2019
2059 Haze 20 1016 49 5000 3.1 260 00:31 12.09.2019
2060 Haze 21 1017 60 5000 4.1 310 23:57 11.09.2019
2061 Haze 21 1017 60 5000 4.1 310 23:37 11.09.2019
2062 Haze 21 1017 60 5000 4.1 310 23:19 11.09.2019
2063 Haze 22 1017 64 5000 2.6 310 22:55 11.09.2019
2064 Haze 22 1017 64 5000 2.6 310 22:37 11.09.2019
2065 Haze 22 1017 64 5000 2.6 310 22:18 11.09.2019
2066 Haze 23 1016 73 5000 3.1 310 21:42 11.09.2019
2067 Haze 23 1016 73 5000 3.1 310 21:24 11.09.2019
2068 Haze 24 1015 73 5000 4.6 320 20:57 11.09.2019
2069 Haze 24 1015 73 5000 4.6 320 20:38 11.09.2019
2070 Haze 24 1015 73 5000 4.6 320 20:19 11.09.2019
2071 Haze 25 1015 64 5000 4.1 310 19:58 11.09.2019
2072 Haze 25 1015 64 5000 4.1 310 19:39 11.09.2019
2073 Haze 25 1015 64 5000 4.1 310 19:39 11.09.2019
2074 Haze 25 1015 64 5000 4.1 310 19:21 11.09.2019
2075 Haze 25 1015 64 5000 4.1 310 18:56 11.09.2019
2076 Haze 27 1015 57 5000 5.1 320 18:38 11.09.2019
2077 Haze 27 1015 57 5000 5.1 320 18:19 11.09.2019
2078 Haze 27 1015 57 5000 5.1 320 18:19 11.09.2019
2079 -273 0 0 0 0 0 17:55 11.09.2019
2080 Haze 29 1015 42 5000 4.6 330 17:37 11.09.2019
2081 Haze 29 1015 42 5000 4.6 330 17:18 11.09.2019
2082 Haze 30 1015 30 5000 4.1 310 16:42 11.09.2019
2083 Haze 30 1015 30 5000 4.1 310 16:23 11.09.2019
2084 Haze 30 1015 30 5000 4.1 310 16:23 11.09.2019
2085 Haze 30 1015 22 5000 3.6 260 15:47 11.09.2019
2086 Haze 30 1015 22 5000 3.6 260 15:24 11.09.2019
2087 Haze 30 1015 33 5000 3.6 260 14:59 11.09.2019
2088 Haze 30 1015 33 5000 3.6 260 14:41 11.09.2019
2089 Haze 30 1015 33 5000 3.6 260 14:21 11.09.2019
2090 Haze 30 1016 45 5000 2.1 260 13:59 11.09.2019
2091 Haze 30 1016 45 5000 2.1 260 13:37 11.09.2019
2092 Haze 30 1016 45 5000 2.1 260 13:19 11.09.2019
2093 Haze 29 1016 48 5000 3.6 320 12:44 11.09.2019
2094 Haze 29 1016 48 5000 3.6 320 12:23 11.09.2019
2095 Haze 29 1016 48 5000 3.6 320 11:59 11.09.2019
2096 Haze 28 1016 45 5000 3.6 360 11:39 11.09.2019
2097 Haze 28 1016 45 5000 3.6 360 11:21 11.09.2019
2098 Haze 27 1016 54 5000 3.31 303.086 10:55 11.09.2019
2099 Haze 27 1016 54 5000 3.31 303.086 10:37 11.09.2019
2100 Haze 27 1016 54 5000 3.31 303.086 10:19 11.09.2019
2101 Haze 26 1016 57 4000 1.5 40 09:39 11.09.2019
2102 Haze 26 1016 57 4000 1.5 40 09:19 11.09.2019
2103 Haze 22 1015 73 4000 2.1 60 08:55 11.09.2019
2104 Haze 22 1015 73 4000 2.1 60 08:36 11.09.2019
2105 Haze 22 1015 73 4000 2.1 60 08:18 11.09.2019
2106 Haze 20 1015 77 4000 2.6 30 07:40 11.09.2019
2107 Haze 20 1015 77 4000 2.6 30 07:21 11.09.2019
2108 Haze 17 1014 77 4000 1.5 320 06:48 11.09.2019
2109 Haze 17 1014 77 4000 1.5 320 06:27 11.09.2019
2110 Haze 17 1014 64 5000 3.35 320 05:36 11.09.2019
2111 Haze 17 1014 64 5000 3.35 320 05:18 11.09.2019
2112 Clear 17 1014 68 6000 3.35 320 04:22 11.09.2019
2113 Clear 19 1013 64 6000 3.35 320 03:31 11.09.2019
2114 Clear 19 1013 64 6000 3.35 320 03:31 11.09.2019
2115 Haze 22 1013 56 5000 3.56 315.125 02:40 11.09.2019
2116 Haze 20 1013 60 5000 3.56 315.125 01:42 11.09.2019
2117 Haze 21 1013 68 5000 3.68 310.363 00:49 11.09.2019
2118 Haze 21 1013 68 5000 4.67 324.772 00:20 11.09.2019
2119 Haze 21 1013 68 5000 4.67 324.772 00:20 11.09.2019
2120 Haze 22 1013 60 5000 4.67 324.772 23:41 10.09.2019
2121 Haze 22 1013 60 5000 4.67 324.772 23:22 10.09.2019
2122 Haze 22 1013 60 5000 4.67 324.772 23:22 10.09.2019
2123 Clear 22 1013 56 6000 1.5 320 22:59 10.09.2019
2124 Clear 22 1013 56 6000 1.5 320 22:41 10.09.2019
2125 Clear 22 1013 56 6000 1.5 320 22:19 10.09.2019
2126 Clear 22 1013 56 6000 1.5 320 22:19 10.09.2019
2127 Clear 23 1013 64 6000 1.5 320 21:55 10.09.2019
2128 Clear 23 1013 64 6000 1.5 320 21:37 10.09.2019
2129 Clear 23 1013 64 6000 1.5 320 21:18 10.09.2019
2130 Haze 24 1013 60 6000 2.6 290 20:57 10.09.2019
2131 Haze 25 1013 64 5000 3.1 320 20:38 10.09.2019
2132 Haze 25 1013 64 5000 3.1 320 20:19 10.09.2019
2133 Haze 25 1013 64 5000 3.1 320 20:19 10.09.2019
2134 Haze 25 1012 53 6000 3.6 320 19:56 10.09.2019
2135 Haze 26 1013 61 5000 4.1 320 19:37 10.09.2019
2136 Haze 27 1013 61 5000 4.1 320 19:19 10.09.2019
2137 Haze 27 1013 61 5000 4.1 320 18:55 10.09.2019
2138 Haze 27 1012 44 5000 6.2 320 18:37 10.09.2019
2139 Haze 30 1012 32 5000 5.1 330 18:18 10.09.2019
2140 Haze 30 1012 32 5000 5.1 330 17:42 10.09.2019
2141 Haze 30 1012 32 5000 5.1 330 17:21 10.09.2019
2142 Haze 31 1012 30 5000 5.1 350 16:58 10.09.2019
2143 Haze 31 1012 30 5000 5.1 350 16:39 10.09.2019
2144 Haze 31 1012 30 5000 5.1 350 16:21 10.09.2019
2145 Haze 31 1012 30 5000 5.1 350 15:57 10.09.2019
2146 Haze 32 1012 33 5000 4.6 260 15:39 10.09.2019
2147 Haze 32 1012 33 5000 4.6 260 15:20 10.09.2019
2148 Clouds 31 1012 29 6000 4.1 350 14:41 10.09.2019
2149 Clouds 31 1012 29 6000 4.1 350 14:23 10.09.2019
2150 Clouds 31 1012 29 6000 4.1 350 13:56 10.09.2019
2151 Clouds 31 1012 27 6000 2.1 20 13:37 10.09.2019
2152 Clouds 31 1012 27 6000 2.1 20 13:19 10.09.2019
2153 Clouds 30 1013 33 6000 1.5 330 12:43 10.09.2019
2154 Clouds 30 1013 33 6000 1.5 330 12:24 10.09.2019
2155 Clear 29 1013 42 6000 3.1 340 11:56 10.09.2019
2156 Clear 29 1013 42 6000 3.1 340 11:38 10.09.2019
2157 Clear 29 1013 42 6000 3.1 340 11:20 10.09.2019
2158 Haze 27 1014 50 5000 3.1 20 10:39 10.09.2019
2159 Haze 25 1014 50 5000 3.1 20 10:19 10.09.2019
2160 Haze 25 1014 50 5000 3.1 20 10:19 10.09.2019
2161 Haze 25 1014 50 5000 3.1 20 09:56 10.09.2019
2162 Haze 24 1014 64 5000 2.1 23 09:37 10.09.2019
2163 Haze 23 1014 57 6000 3.33 323.721 09:18 10.09.2019
2164 Haze 21 1014 73 5000 2.1 340 08:43 10.09.2019
2165 Haze 21 1014 73 5000 2.1 340 08:24 10.09.2019
2166 Haze 19 1013 73 4000 3.84 321.573 07:45 10.09.2019
2167 Haze 19 1013 73 4000 3.84 321.573 07:26 10.09.2019
2168 Haze 19 1013 73 4000 3.84 321.573 07:26 10.09.2019
2169 Mist 18 1013 77 5000 3.84 321.573 06:53 10.09.2019
2170 Mist 16 1013 88 4000 3.84 321.573 06:35 10.09.2019
2171 Haze 17 1012 60 5000 1.5 360 05:27 10.09.2019
2172 Clear 19 1012 52 7000 0.5 360 03:57 10.09.2019
2173 Clear 19 1012 52 7000 0.5 360 02:23 10.09.2019
2174 Clear 19 1012 52 7000 0.5 360 02:23 10.09.2019
2175 Clear 19 1012 52 7000 0.5 360 02:23 10.09.2019
2176 Clear 20 1012 49 7000 1 360 01:58 10.09.2019
2177 Clear 20 1012 49 7000 1 360 01:58 10.09.2019
2178 Clear 20 1012 49 7000 1 360 01:58 10.09.2019
2179 Clear 20 1012 49 7000 1 360 01:40 10.09.2019
2180 Clear 21 1012 49 7000 1 360 01:20 10.09.2019
2181 Clear 21 1012 53 7000 1 310 00:25 10.09.2019
2182 Clear 22 1012 53 7000 1.5 310 23:48 09.09.2019
2183 Clear 22 1012 53 7000 1.5 310 23:20 09.09.2019
2184 Clear 22 1012 53 7000 1.5 310 22:57 09.09.2019
2185 Clear 23 1012 50 7000 1.5 300 22:39 09.09.2019
2186 Clear 23 1012 50 7000 1.5 300 22:20 09.09.2019
2187 Clear 24 1012 50 7000 1.5 300 21:58 09.09.2019
2188 Clear 23 1012 57 7000 1 250 21:39 09.09.2019
2189 Clear 23 1012 57 7000 1 250 21:20 09.09.2019
2190 Clear 24 1012 57 7000 1 250 20:57 09.09.2019
2191 Haze 24 1012 64 5000 1.5 280 20:37 09.09.2019
2192 Haze 25 1012 64 5000 1.5 280 20:19 09.09.2019
2193 Haze 25 1012 64 5000 1.5 280 19:58 09.09.2019
2194 Haze 26 1012 61 5000 2.6 300 19:39 09.09.2019
2195 Haze 26 1012 61 5000 2.6 300 19:19 09.09.2019
2196 Haze 26 1012 61 5000 2.6 300 18:58 09.09.2019
2197 Haze 27 1012 57 5000 6.2 300 18:40 09.09.2019
2198 Haze 27 1012 57 5000 6.2 300 18:21 09.09.2019
2199 Haze 27 1012 57 5000 6.2 300 17:58 09.09.2019
2200 Haze 29 1012 48 5000 5.1 300 17:40 09.09.2019
2201 Haze 29 1012 48 5000 5.1 300 17:21 09.09.2019
2202 -273 0 0 0 0 0 16:56 09.09.2019
2203 Haze 30 1011 39 5000 5.1 300 16:38 09.09.2019
2204 Haze 30 1011 39 5000 5.1 300 16:38 09.09.2019
2205 Haze 31 1012 35 5000 4.6 310 16:19 09.09.2019
2206 Haze 31 1012 35 5000 4.6 310 15:56 09.09.2019
2207 -273 0 0 0 0 0 15:56 09.09.2019
2208 Haze 31 1012 35 5000 4.6 310 15:37 09.09.2019
2209 Haze 32 1012 38 5000 3.1 340 15:18 09.09.2019
2210 Haze 32 1012 38 5000 3.1 340 14:55 09.09.2019
2211 Haze 32 1012 38 5000 3.1 340 14:37 09.09.2019
2212 Clouds 31 1011 33 6000 3.1 290 14:19 09.09.2019
2213 Clouds 29 1012 45 6000 3.1 320 13:44 09.09.2019
2214 Clouds 29 1012 45 6000 3.1 320 13:21 09.09.2019
2215 Clouds 29 1012 45 6000 3.1 320 12:58 09.09.2019
2216 Clouds 28 1012 42 6000 2.6 350 12:38 09.09.2019
2217 Clouds 28 1012 42 6000 2.6 350 12:20 09.09.2019
2218 Clouds 27 1013 48 6000 2.6 360 11:47 09.09.2019
2219 Clouds 27 1013 48 6000 2.6 360 11:47 09.09.2019
2220 Clouds 27 1013 48 6000 2.6 360 11:23 09.09.2019
2221 Haze 26 1013 54 6000 4.1 290 10:59 09.09.2019
2222 Haze 26 1013 54 5000 1.5 360 10:41 09.09.2019
2223 Haze 26 1013 54 5000 1.5 360 10:21 09.09.2019
2224 Haze 26 1013 54 5000 1.5 360 09:57 09.09.2019
2225 Haze 24 1013 61 5000 3.1 350 09:38 09.09.2019
2226 Haze 22 1013 69 5000 2.6 340 09:19 09.09.2019
2227 Haze 22 1013 69 5000 2.6 340 09:19 09.09.2019
2228 Haze 22 1013 69 5000 2.6 340 08:39 09.09.2019
2229 Haze 22 1013 69 5000 2.6 340 08:20 09.09.2019
2230 Mist 20 1013 83 4000 3.1 320 07:48 09.09.2019
2231 Mist 20 1013 83 4000 3.1 320 07:23 09.09.2019
2232 Mist 20 1013 83 4000 3.1 320 06:58 09.09.2019
2233 Mist 18 1013 82 4500 3.1 320 06:40 09.09.2019
2234 Mist 19 1013 83 5000 3.1 320 05:34 09.09.2019
2235 Mist 19 1013 82 5000 5.12 323.618 02:59 09.09.2019
2236 Mist 19 1013 83 5000 3.1 320 02:39 09.09.2019
2237 Haze 20 1013 83 5000 3.6 330 00:54 09.09.2019
2238 Haze 20 1013 83 5000 3.6 330 00:23 09.09.2019
2239 Haze 20 1013 83 5000 3.6 330 23:46 08.09.2019
2240 Haze 20 1013 83 5000 3.6 330 23:26 08.09.2019
2241 Haze 22 1013 78 5000 2.6 340 22:57 08.09.2019
2242 Haze 22 1013 78 5000 2.6 340 22:38 08.09.2019
2243 Haze 22 1013 78 5000 2.6 340 22:20 08.09.2019
2244 Haze 22 1013 78 5000 2.6 340 21:55 08.09.2019
2245 Haze 22 1013 83 5000 3.6 330 21:36 08.09.2019
2246 Haze 23 1013 83 5000 3.6 330 21:18 08.09.2019
2247 Haze 23 1013 73 5000 4.6 330 20:40 08.09.2019
2248 Haze 23 1013 73 5000 4.6 330 20:22 08.09.2019
2249 Haze 25 1013 69 4000 4.1 310 19:59 08.09.2019
2250 Haze 25 1013 69 4000 4.1 310 19:39 08.09.2019
2251 Haze 25 1013 69 4000 4.1 310 19:21 08.09.2019
2252 Haze 25 1013 69 4000 4.1 310 18:58 08.09.2019
2253 Haze 26 1012 61 5000 6.2 290 18:39 08.09.2019
2254 Haze 27 1012 57 6000 7.2 280 18:19 08.09.2019
2255 Haze 27 1012 57 6000 7.2 280 18:19 08.09.2019
2256 Haze 27 1012 57 6000 7.2 280 17:57 08.09.2019
2257 Haze 27 1012 48 5000 5.7 280 17:37 08.09.2019
2258 Haze 28 1012 54 6000 7.2 280 17:18 08.09.2019
2259 Haze 28 1012 48 5000 4.6 310 16:45 08.09.2019
2260 Haze 28 1012 48 5000 4.6 310 16:23 08.09.2019
2261 Haze 28 1012 48 5000 4.6 310 15:59 08.09.2019
2262 Haze 28 1012 42 5000 4.6 280 15:41 08.09.2019
2263 Haze 28 1012 42 5000 4.6 280 15:21 08.09.2019
2264 Haze 28 1012 42 5000 4.6 280 14:58 08.09.2019
2265 Haze 29 1012 45 5000 5.1 270 14:39 08.09.2019
2266 Haze 29 1012 45 5000 5.1 270 14:20 08.09.2019
2267 Haze 29 1012 45 5000 5.1 270 13:57 08.09.2019
2268 Haze 29 1012 45 5000 6.2 320 13:38 08.09.2019
2269 Haze 27 1012 45 5000 6.2 320 13:19 08.09.2019
2270 Haze 27 1013 47 5000 6.2 300 12:43 08.09.2019
2271 Haze 27 1013 47 5000 6.2 300 12:24 08.09.2019
2272 Haze 27 1013 47 5000 6.2 300 12:24 08.09.2019
2273 Haze 26 1013 47 5000 6.2 300 11:59 08.09.2019
2274 Haze 26 1013 54 5000 7.2 320 11:40 08.09.2019
2275 Haze 26 1013 54 5000 7.2 320 11:20 08.09.2019
2276 Haze 25 1013 60 5000 4.6 300 10:59 08.09.2019
2277 Haze 25 1013 60 5000 4.6 300 10:40 08.09.2019
2278 Haze 25 1013 60 5000 4.6 300 10:22 08.09.2019
2279 Haze 24 1013 64 5000 5.1 250 09:40 08.09.2019
2280 Haze 24 1013 64 5000 5.1 250 09:21 08.09.2019
2281 Haze 24 1013 64 5000 5.1 250 08:57 08.09.2019
2282 Haze 22 1013 64 4000 4.6 330 08:39 08.09.2019
2283 Haze 21 1012 73 5000 2.6 260 08:18 08.09.2019
2284 Haze 20 1013 77 3000 4.1 260 07:40 08.09.2019
2285 Haze 20 1013 77 3000 4.1 260 07:21 08.09.2019
2286 Haze 20 1013 77 3000 4.1 260 06:54 08.09.2019
2287 Haze 19 1013 77 3000 3.1 300 06:34 08.09.2019
2288 Haze 19 1013 77 3000 3.6 270 05:39 08.09.2019
2289 Haze 19 1013 77 5000 5.1 300 04:27 08.09.2019
2290 Haze 19 1013 77 5000 6.2 270 03:19 08.09.2019
2291 Haze 19 1013 77 5000 6.2 270 03:19 08.09.2019
2292 Haze 19 1013 77 5000 5.7 280 02:29 08.09.2019
2293 Haze 19 1013 82 5000 2.6 300 01:53 08.09.2019
2294 Haze 19 1013 82 5000 2.6 300 01:25 08.09.2019
2295 Haze 19 1013 82 5000 2.6 300 00:46 08.09.2019
2296 Haze 19 1013 82 5000 2.6 300 00:28 08.09.2019
2297 Haze 20 1013 77 5000 6.2 250 23:39 07.09.2019
2298 Haze 20 1013 77 5000 6.2 250 23:21 07.09.2019
2299 Haze 21 1014 72 6000 2.6 290 22:59 07.09.2019
2300 Haze 21 1014 68 5000 4.6 300 22:40 07.09.2019
2301 Haze 21 1014 68 5000 4.6 300 22:22 07.09.2019
2302 Haze 21 1014 68 6000 3.6 300 21:54 07.09.2019
2303 Haze 21 1014 73 5000 4.6 270 21:36 07.09.2019
2304 Haze 22 1014 64 5000 5.1 310 21:18 07.09.2019
2305 Haze 22 1014 64 5000 5.1 310 20:39 07.09.2019
2306 Haze 22 1014 64 5000 5.1 310 20:20 07.09.2019
2307 Clear 23 1014 60 6000 5.1 290 19:56 07.09.2019
2308 Haze 24 1013 60 6000 5.1 320 19:38 07.09.2019
2309 Haze 24 1013 60 6000 5.1 320 19:19 07.09.2019
2310 Haze 24 1013 60 6000 5.1 320 18:58 07.09.2019
2311 Haze 24 1013 60 6000 5.1 320 18:58 07.09.2019
2312 Dust 25 1013 36 6000 9.3 320 18:38 07.09.2019
2313 Dust 25 1013 36 6000 9.3 320 18:20 07.09.2019
2314 Dust 25 1013 36 6000 9.3 320 18:20 07.09.2019
2315 Dust 25 1013 36 6000 9.3 320 18:20 07.09.2019
2316 Dust 25 1013 36 6000 9.3 320 17:58 07.09.2019
2317 Dust 27 1013 47 6000 7.7 320 17:38 07.09.2019
2318 Dust 28 1013 42 6000 6.7 280 17:18 07.09.2019
2319 Dust 28 1013 42 6000 6.7 280 16:54 07.09.2019
2320 Dust 28 1013 42 6000 6.7 280 16:36 07.09.2019
2321 Dust 28 1013 42 6000 6.7 280 16:18 07.09.2019
2322 Dust 28 1013 42 6000 6.7 280 15:43 07.09.2019
2323 Dust 28 1013 42 6000 6.7 280 15:24 07.09.2019
2324 Dust 30 1013 35 6000 7.7 280 14:56 07.09.2019
2325 Dust 30 1013 35 6000 7.7 280 14:36 07.09.2019
2326 Dust 30 1013 35 6000 7.7 280 14:18 07.09.2019
2327 Dust 29 1013 39 5000 8.7 270 13:44 07.09.2019
2328 Dust 29 1013 39 5000 8.7 270 13:25 07.09.2019
2329 Dust 28 1014 42 5000 8.2 260 12:55 07.09.2019
2330 Dust 28 1014 42 5000 8.2 260 12:37 07.09.2019
2331 Haze 27 1013 45 5000 6.2 270 12:19 07.09.2019
2332 Clouds 27 1014 42 6000 7.2 290 11:41 07.09.2019
2333 Clouds 27 1014 42 6000 7.2 290 11:41 07.09.2019
2334 Haze 26 1014 42 6000 7.2 290 11:22 07.09.2019
2335 Haze 25 1014 53 6000 5.1 300 10:42 07.09.2019
2336 Haze 25 1014 53 6000 5.1 300 10:42 07.09.2019
2337 Haze 25 1014 53 6000 5.1 300 10:23 07.09.2019
2338 Haze 24 1014 60 5000 5.1 320 09:59 07.09.2019
2339 Haze 24 1014 60 5000 5.1 320 09:41 07.09.2019
2340 Haze 24 1014 60 5000 5.1 320 09:22 07.09.2019
2341 Haze 23 1014 69 5000 5.1 290 08:55 07.09.2019
2342 Haze 22 1014 64 4000 4.1 310 08:36 07.09.2019
2343 Haze 19 1014 64 4000 4.1 310 08:18 07.09.2019
2344 Haze 19 1014 73 4000 3.1 320 07:43 07.09.2019
2345 Haze 19 1014 73 4000 3.1 320 07:22 07.09.2019
2346 Haze 18 1014 77 4000 1.5 320 06:42 07.09.2019
2347 Haze 17 1014 77 4000 4.86 311.472 05:40 07.09.2019
2348 Haze 18 1013 82 5000 4.86 311.472 04:26 07.09.2019
2349 Clouds 18 1013 77 6000 4.86 311.472 03:41 07.09.2019
2350 Clear 19 1013 60 6000 0.5 320 02:22 07.09.2019
2351 Clear 20 1014 49 6000 1 300 01:33 07.09.2019
2352 Clear 20 1014 49 6000 1 300 00:55 07.09.2019
2353 Haze 20 1014 56 5000 2.6 270 00:36 07.09.2019
2354 Haze 20 1014 82 7000 2.6 260 00:18 07.09.2019
2355 Haze 20 1015 73 5000 1.5 360 23:38 06.09.2019
2356 Haze 20 1015 73 5000 1.5 360 23:38 06.09.2019
2357 Haze 21 1015 73 5000 1.5 360 23:20 06.09.2019
2358 Haze 21 1015 73 5000 1.5 360 22:57 06.09.2019
2359 Haze 22 1014 68 5000 5.1 350 22:37 06.09.2019
2360 Haze 22 1014 68 5000 3.6 350 22:18 06.09.2019
2361 Haze 22 1014 68 5000 3.6 350 21:56 06.09.2019
2362 Haze 22 1014 68 5000 3.6 350 21:37 06.09.2019
2363 Haze 23 1014 68 7000 3.1 280 21:19 06.09.2019
2364 Haze 23 1014 68 7000 3.1 280 20:54 06.09.2019
2365 Haze 24 1014 57 5000 3.1 330 20:36 06.09.2019
2366 Haze 26 1014 50 5000 4.1 300 20:18 06.09.2019
2367 Haze 26 1014 50 5000 4.1 300 19:42 06.09.2019
2368 Haze 26 1014 50 5000 4.1 300 19:24 06.09.2019
2369 Haze 27 1014 50 5000 4.1 300 18:58 06.09.2019
2370 Haze 27 1014 44 5000 4.1 300 18:39 06.09.2019
2371 Haze 28 1014 51 5000 5.1 320 18:21 06.09.2019
2372 Haze 28 1014 51 5000 5.1 320 17:56 06.09.2019
2373 Haze 28 1014 51 5000 5.1 320 17:37 06.09.2019
2374 Haze 28 1014 51 5000 5.1 320 17:18 06.09.2019
2375 Haze 29 1013 42 5000 4.6 320 16:38 06.09.2019
2376 Haze 30 1013 42 5000 4.6 320 16:18 06.09.2019
2377 Haze 30 1013 37 5000 6.7 260 15:41 06.09.2019
2378 Haze 30 1013 37 5000 6.7 260 15:23 06.09.2019
2379 Haze 31 1014 37 5000 6.2 270 14:48 06.09.2019
2380 Clear 31 1014 33 7000 3.6 270 14:20 06.09.2019
2381 -273 0 0 0 0 0 13:55 06.09.2019
2382 Clear 31 1014 33 7000 3.6 270 13:37 06.09.2019
2383 Haze 30 1014 33 7000 3.6 270 13:18 06.09.2019
2384 Haze 30 1014 37 7000 2.6 320 12:38 06.09.2019
2385 Haze 29 1014 27 5000 5.1 290 12:18 06.09.2019
2386 Haze 29 1014 35 7000 5.1 250 11:43 06.09.2019
2387 Haze 29 1014 35 7000 5.1 250 11:24 06.09.2019
2388 Haze 28 1014 30 5000 2.6 270 10:59 06.09.2019
2389 Haze 27 1015 39 6000 1 275 10:40 06.09.2019
2390 Haze 27 1015 39 6000 1 275 10:21 06.09.2019
2391 Haze 26 1015 39 6000 1 275 09:57 06.09.2019
2392 Haze 25 1014 50 6000 4.1 280 09:36 06.09.2019
2393 Haze 20 1014 100 6000 2.6 350 09:18 06.09.2019
2394 Haze 20 1014 100 6000 2.6 350 08:42 06.09.2019
2395 Haze 20 1014 100 6000 2.6 350 08:42 06.09.2019
2396 Haze 20 1014 100 6000 2.6 350 08:24 06.09.2019
2397 Haze 20 1013 77 5000 3.1 330 07:48 06.09.2019
2398 Haze 20 1013 77 5000 3.1 330 07:27 06.09.2019
2399 Mist 19 1014 72 5000 4.52 303.476 06:58 06.09.2019
2400 Mist 17 1014 88 5000 2.1 350 06:26 06.09.2019
2401 Clear 17 1013 82 6000 2.1 340 05:43 06.09.2019
2402 Clear 18 1013 72 6000 2.6 350 04:49 06.09.2019
2403 Clear 18 1013 72 6000 2.1 290 03:53 06.09.2019
2404 Clear 19 1013 72 6000 1.5 270 02:23 06.09.2019
2405 Clear 20 1013 73 6000 3.1 260 00:48 06.09.2019
2406 Clear 20 1013 73 6000 3.1 260 23:57 05.09.2019
2407 Clear 20 1013 73 6000 3.1 260 23:57 05.09.2019
2408 Clear 20 1013 73 6000 6.46 326.841 23:39 05.09.2019
2409 Clear 21 1013 68 6000 6.46 326.841 23:19 05.09.2019
2410 Clear 22 1013 68 6000 6.46 326.841 22:44 05.09.2019
2411 Haze 22 1013 68 6000 6.46 326.841 22:25 05.09.2019
2412 Haze 22 1013 73 6000 6.46 326.841 21:57 05.09.2019
2413 Haze 22 1013 73 6000 6.46 326.841 21:38 05.09.2019
2414 Haze 24 1013 60 5000 4.6 320 21:19 05.09.2019
2415 Haze 24 1013 60 5000 4.6 320 20:57 05.09.2019
2416 Haze 24 1013 60 5000 4.6 320 20:38 05.09.2019
2417 Haze 24 1013 60 5000 4.6 320 20:38 05.09.2019
2418 Haze 24 1013 60 5000 4.6 320 20:19 05.09.2019
2419 Haze 24 1013 60 5000 4.6 320 19:56 05.09.2019
2420 Haze 25 1012 64 5000 4.1 320 19:37 05.09.2019
2421 Haze 25 1012 64 5000 4.1 320 19:18 05.09.2019
2422 Haze 26 1012 54 5000 5.7 280 18:41 05.09.2019
2423 Haze 26 1012 54 5000 5.7 280 18:22 05.09.2019
2424 Haze 26 1012 54 5000 5.7 280 17:57 05.09.2019
2425 Haze 27 1012 51 5000 5.7 280 17:39 05.09.2019
2426 Haze 27 1012 51 5000 5.7 280 17:20 05.09.2019
2427 Haze 29 1011 37 5000 5.1 270 16:42 05.09.2019
2428 Haze 29 1011 37 5000 5.1 270 16:22 05.09.2019
2429 Haze 29 1011 39 5000 6.7 280 15:59 05.09.2019
2430 Haze 29 1011 39 5000 6.7 280 15:39 05.09.2019
2431 Haze 29 1011 39 5000 6.2 290 15:19 05.09.2019
2432 Haze 29 1011 39 5000 6.2 290 14:56 05.09.2019
2433 Haze 30 1011 42 5000 5.7 270 14:38 05.09.2019
2434 Haze 29 1011 37 5000 2.6 270 14:18 05.09.2019
2435 Haze 29 1011 39 6000 5.1 250 13:43 05.09.2019
2436 Haze 29 1011 39 6000 5.1 250 13:20 05.09.2019
2437 Haze 28 1012 42 6000 7.2 290 12:44 05.09.2019
2438 Haze 28 1012 42 6000 7.2 290 12:26 05.09.2019
2439 Haze 26 1011 45 5000 2.6 270 11:57 05.09.2019
2440 Haze 27 1012 57 7000 4.1 320 11:39 05.09.2019
2441 Haze 26 1011 51 5000 4.1 290 11:18 05.09.2019
2442 Haze 25 1012 53 5000 4.1 360 10:41 05.09.2019
2443 Haze 25 1012 53 5000 4.1 360 10:22 05.09.2019
2444 Haze 24 1012 53 5000 4.1 360 09:58 05.09.2019
2445 Haze 23 1012 57 5000 3.6 300 09:38 05.09.2019
2446 Haze 23 1012 57 5000 3.6 300 09:18 05.09.2019
2447 Haze 22 1012 68 5000 5.1 260 08:45 05.09.2019
2448 Haze 22 1012 68 5000 5.1 260 08:26 05.09.2019
2449 Haze 19 1012 73 4000 3.6 320 07:46 05.09.2019
2450 Haze 19 1012 73 4000 3.6 320 07:27 05.09.2019
2451 Haze 19 1012 73 4000 3.6 320 06:54 05.09.2019
2452 Haze 18 1011 77 4000 3.6 320 06:31 05.09.2019
2453 Haze 18 1011 77 5000 2.6 320 05:50 05.09.2019
2454 Haze 18 1011 77 5000 2.6 320 05:30 05.09.2019
2455 Clear 19 1011 72 6000 3.1 340 04:50 05.09.2019
2456 Clear 19 1011 72 6000 3.1 340 04:25 05.09.2019
2457 Haze 19 1011 77 5000 1.5 280 03:38 05.09.2019
2458 Haze 19 1011 77 5000 1.5 280 02:51 05.09.2019
2459 Haze 19 1011 77 5000 3.1 330 02:27 05.09.2019
2460 Clear 20 1011 73 6000 4.6 250 01:37 05.09.2019
2461 Clear 21 1011 73 6000 3.6 270 00:46 05.09.2019
2462 Clear 21 1011 73 6000 3.6 270 00:21 05.09.2019
2463 Clear 21 1011 73 6000 3.6 270 23:56 04.09.2019
2464 Clear 21 1011 73 6000 4.6 300 23:37 04.09.2019
2465 Clear 22 1011 73 6000 4.6 300 23:18 04.09.2019
2466 Clear 22 1011 69 6000 4.6 270 22:46 04.09.2019
2467 Clear 23 1011 78 6000 4.1 280 22:19 04.09.2019
2468 Clear 23 1011 64 6000 2.6 270 21:40 04.09.2019
2469 Clear 23 1011 64 6000 2.6 270 21:20 04.09.2019
2470 Clear 24 1011 73 6000 5.1 280 20:58 04.09.2019
2471 Clear 24 1011 64 6000 3.6 300 20:40 04.09.2019
2472 Clear 24 1011 64 6000 3.6 300 20:19 04.09.2019
2473 Clear 24 1011 64 6000 3.6 300 19:57 04.09.2019
2474 Haze 25 1010 61 5000 5.1 320 19:39 04.09.2019
2475 Haze 25 1010 61 5000 5.1 320 19:19 04.09.2019
2476 Haze 27 1010 57 5000 6.7 320 18:39 04.09.2019
2477 Haze 27 1010 57 5000 6.7 320 18:20 04.09.2019
2478 Haze 27 1010 57 5000 6.7 320 17:56 04.09.2019
2479 Haze 28 1010 42 5000 5.1 280 17:37 04.09.2019
2480 Clear 29 1010 33 6000 6.2 280 17:19 04.09.2019
2481 Clear 29 1010 33 6000 6.2 280 16:48 04.09.2019
2482 Clear 29 1010 33 6000 6.2 280 16:28 04.09.2019
2483 Clear 30 1010 33 6000 5.7 300 15:59 04.09.2019
2484 Clear 30 1010 33 6000 5.7 300 15:39 04.09.2019
2485 Clear 30 1010 33 6000 5.7 300 15:39 04.09.2019
2486 Clear 30 1010 33 6000 5.7 300 15:21 04.09.2019
2487 Clear 30 1010 33 6000 5.7 300 14:58 04.09.2019
2488 Clear 30 1010 35 6000 5.1 300 14:37 04.09.2019
2489 Clear 29 1010 35 6000 5.1 300 14:19 04.09.2019
2490 Clear 29 1010 35 6000 5.1 300 13:57 04.09.2019
2491 Haze 29 1011 33 5000 3.1 290 13:37 04.09.2019
2492 Haze 29 1011 33 5000 3.1 290 13:19 04.09.2019
2493 Clear 28 1011 37 6000 4.1 280 12:41 04.09.2019
2494 Clear 28 1011 37 6000 4.1 280 12:23 04.09.2019
2495 Clear 28 1011 37 6000 4.1 280 11:56 04.09.2019
2496 Haze 26 1011 47 6000 3.6 220 11:37 04.09.2019
2497 Haze 26 1011 47 6000 3.6 220 11:37 04.09.2019
2498 Haze 26 1011 47 6000 3.6 220 11:19 04.09.2019
2499 Haze 24 1012 53 6000 3.1 300 10:44 04.09.2019
2500 Haze 24 1012 53 6000 3.1 300 10:25 04.09.2019
2501 Haze 24 1012 57 5000 5.1 300 09:58 04.09.2019
2502 Haze 23 1012 57 5000 4.6 300 09:40 04.09.2019
2503 Haze 21 1012 73 5000 3.1 280 09:19 04.09.2019
2504 Haze 21 1012 73 5000 3.1 280 08:41 04.09.2019
2505 Haze 21 1012 73 5000 3.1 280 08:41 04.09.2019
2506 Haze 21 1012 73 5000 3.1 280 08:23 04.09.2019
2507 Haze 20 1012 73 4000 3.6 290 07:56 04.09.2019
2508 Haze 19 1012 77 5000 2.1 340 07:34 04.09.2019
2509 Mist 17 1012 82 4000 3.1 320 06:49 04.09.2019
2510 Mist 17 1012 82 4000 3.1 320 06:26 04.09.2019
2511 Mist 18 1011 88 6000 2.6 290 04:54 04.09.2019
2512 Mist 18 1011 88 5000 2.6 330 04:21 04.09.2019
2513 Mist 19 1011 88 5000 2.6 330 02:36 04.09.2019
2514 Mist 19 1011 88 5000 2.6 330 02:36 04.09.2019
2515 Clear 20 1012 83 6000 3.1 330 00:56 04.09.2019
2516 Clear 20 1012 83 6000 3.1 330 00:38 04.09.2019
2517 Clear 21 1012 82 6000 4.1 280 00:18 04.09.2019
2518 Clear 21 1012 78 6000 3.1 330 23:47 03.09.2019
2519 Clear 21 1012 78 6000 3.1 330 23:23 03.09.2019
2520 Clear 22 1012 73 6000 3.1 320 22:40 03.09.2019
2521 Clear 22 1012 73 6000 3.1 320 22:22 03.09.2019
2522 Clear 22 1012 73 6000 3.1 320 21:57 03.09.2019
2523 Clear 23 1012 73 6000 3.1 340 21:38 03.09.2019
2524 Clear 23 1012 73 6000 3.1 340 21:20 03.09.2019
2525 Clear 23 1012 73 6000 3.1 340 20:55 03.09.2019
2526 Clear 25 1012 65 6000 3.1 310 20:36 03.09.2019
2527 Clear 26 1012 65 6000 3.1 310 20:18 03.09.2019
2528 Clear 26 1012 61 6000 5.1 320 19:43 03.09.2019
2529 Clear 26 1012 61 6000 5.1 320 19:20 03.09.2019
2530 Clear 26 1012 61 6000 5.1 320 18:59 03.09.2019
2531 Clear 29 1012 42 6000 4.6 310 18:40 03.09.2019
2532 Clear 29 1012 42 6000 4.6 310 18:20 03.09.2019
2533 Clear 29 1012 42 6000 4.6 310 17:56 03.09.2019
2534 Clear 30 1012 27 6000 5.1 290 17:38 03.09.2019
2535 Clear 30 1012 27 6000 5.1 290 17:18 03.09.2019
2536 Clear 31 1011 23 6000 6.2 270 16:43 03.09.2019
2537 Clear 31 1011 23 6000 6.2 270 16:22 03.09.2019
2538 Clear 32 1006 28 0 7.82 313.16 15:57 03.09.2019
2539 Clear 32 1006 28 0 7.82 313.16 15:37 03.09.2019
2540 Clear 32 1012 25 6000 5.1 260 15:19 03.09.2019
2541 Clear 32 1012 25 6000 5.1 260 14:56 03.09.2019
2542 Clear 32 1012 25 6000 5.1 260 14:37 03.09.2019
2543 Clear 31 1012 21 6000 4.1 290 14:18 03.09.2019
2544 Clear 31 1012 21 6000 4.1 290 13:55 03.09.2019
2545 Clear 32 1012 35 6000 4.6 250 13:37 03.09.2019
2546 Clear 32 1012 35 6000 4.6 250 13:18 03.09.2019
2547 Haze 31 1013 40 6000 3.1 310 12:47 03.09.2019
2548 Haze 31 1013 40 6000 3.1 310 12:29 03.09.2019
2549 Haze 29 1013 35 6000 2.6 310 11:44 03.09.2019
2550 Haze 29 1013 35 6000 2.6 310 11:25 03.09.2019
2551 Haze 28 1014 39 5000 2.1 340 10:59 03.09.2019
2552 -273 0 0 0 0 0 10:40 03.09.2019
2553 Haze 28 1014 39 5000 2.1 340 10:22 03.09.2019
2554 Haze 28 1014 39 5000 2.1 340 09:53 03.09.2019
2555 Haze 26 1014 44 5000 2.6 0 09:33 03.09.2019
2556 Haze 23 1013 53 5000 2.6 340 08:58 03.09.2019
2557 Haze 23 1013 53 5000 2.6 340 08:39 03.09.2019
2558 Haze 23 1013 53 5000 2.6 340 08:20 03.09.2019
2559 Haze 20 1013 73 5000 4.87 314.775 07:43 03.09.2019
2560 Haze 20 1013 73 5000 4.87 314.775 07:24 03.09.2019
2561 Haze 18 1013 73 5000 4.87 314.775 06:55 03.09.2019
2562 Haze 17 1013 60 5000 2.1 40 06:37 03.09.2019
2563 Clear 20 1012 46 6000 4.05 323.628 03:44 03.09.2019
2564 Clear 20 1012 46 6000 3.13 309.885 02:59 03.09.2019
2565 Clear 20 1012 49 6000 3.6 310 02:38 03.09.2019
2566 Clear 21 1012 49 6000 2.1 320 02:20 03.09.2019
2567 Clear 21 1012 49 6000 2.1 320 01:43 03.09.2019
2568 Clear 21 1012 49 6000 2.1 320 01:25 03.09.2019
2569 Clear 21 1012 49 6000 2.1 320 01:25 03.09.2019
2570 Clear 21 1012 46 6000 3.38 314.377 00:31 03.09.2019
2571 Clear 22 1012 46 6000 5.01 326.948 23:58 02.09.2019
2572 Clear 22 1013 46 6000 3.6 330 23:37 02.09.2019
2573 Clear 22 1013 46 6000 3.6 330 23:37 02.09.2019
2574 Clear 22 1013 46 6000 3.6 330 23:19 02.09.2019
2575 Clear 22 1013 46 6000 3.6 330 22:55 02.09.2019
2576 Clear 23 1013 49 6000 3.6 330 22:37 02.09.2019
2577 Clear 24 1013 49 6000 3.6 330 22:18 02.09.2019
2578 Clear 24 1013 49 6000 3.6 330 21:55 02.09.2019
2579 Clear 24 1013 47 6000 2.1 310 21:37 02.09.2019
2580 Clear 25 1013 47 6000 2.1 310 21:18 02.09.2019
2581 Clear 25 1012 50 6000 3.1 320 20:42 02.09.2019
2582 Clear 25 1012 50 6000 3.1 320 20:42 02.09.2019
2583 Clear 25 1012 50 6000 3.1 320 20:23 02.09.2019
2584 Clear 27 1012 50 6000 3.1 320 19:59 02.09.2019
2585 Haze 27 1012 44 5000 2.6 320 19:41 02.09.2019
2586 Haze 27 1012 44 5000 2.6 320 19:22 02.09.2019
2587 Haze 27 1012 44 5000 2.6 320 18:57 02.09.2019
2588 Haze 29 1012 39 5000 5.7 320 18:37 02.09.2019
2589 Haze 29 1012 39 5000 5.7 320 18:19 02.09.2019
2590 Haze 29 1012 39 5000 5.7 320 17:55 02.09.2019
2591 Haze 32 1012 37 5000 6.2 310 17:37 02.09.2019
2592 Haze 33 1012 29 5000 4.1 320 17:18 02.09.2019
2593 Haze 33 1012 29 5000 4.1 320 16:41 02.09.2019
2594 Haze 33 1012 29 5000 4.1 320 16:21 02.09.2019
2595 Haze 33 1012 29 5000 4.1 320 15:54 02.09.2019
2596 Haze 34 1011 21 5000 4.6 330 15:36 02.09.2019
2597 Haze 34 1012 20 5000 3.6 330 15:18 02.09.2019
2598 Haze 34 1012 20 5000 3.6 330 14:55 02.09.2019
2599 Haze 34 1012 20 5000 3.6 330 14:36 02.09.2019
2600 Clear 33 1011 16 6000 5.7 260 14:18 02.09.2019
2601 Clear 33 1012 22 6000 2.6 330 13:41 02.09.2019
2602 Clear 33 1012 22 6000 2.6 330 13:23 02.09.2019
2603 Clear 33 1012 22 7000 3.1 340 12:45 02.09.2019
2604 Clear 33 1012 22 7000 3.1 340 12:27 02.09.2019
2605 Clear 32 1012 22 6000 3.6 340 11:59 02.09.2019
2606 Clear 32 1013 22 7000 4.1 360 11:40 02.09.2019
2607 Clear 32 1013 22 7000 4.1 360 11:40 02.09.2019
2608 Clear 32 1013 22 7000 4.1 360 11:22 02.09.2019
2609 Clear 31 1012 21 6000 4.67 311.531 10:58 02.09.2019
2610 Clear 31 1013 22 7000 3.1 350 10:39 02.09.2019
2611 Clear 31 1013 22 7000 3.1 350 10:21 02.09.2019
2612 Clear 30 1013 23 6000 3.1 310 09:58 02.09.2019
2613 Clear 30 1013 23 7000 5.1 330 09:38 02.09.2019
2614 Clear 30 1013 23 7000 5.1 330 09:19 02.09.2019
2615 Clear 30 1013 23 7000 5.1 330 09:19 02.09.2019
2616 Haze 27 1013 26 5000 4.1 350 08:39 02.09.2019
2617 Haze 27 1013 26 5000 4.1 350 08:21 02.09.2019
2618 Haze 24 1013 36 5000 2.6 330 07:54 02.09.2019
2619 Haze 24 1013 36 5000 2.6 330 07:36 02.09.2019
2620 Haze 24 1013 36 5000 2.6 330 07:18 02.09.2019
2621 Haze 21 1012 46 5000 1.5 350 06:39 02.09.2019
2622 Haze 21 1012 53 5000 3.8 337.571 05:53 02.09.2019
2623 Haze 21 1012 53 5000 3.8 337.571 05:22 02.09.2019
2624 Clear 23 1012 53 6000 3.8 337.571 04:48 02.09.2019
2625 Clear 23 1012 53 6000 1.5 350 01:59 02.09.2019
2626 Clear 23 1012 53 6000 1.5 350 01:29 02.09.2019
2627 Clear 24 1012 47 6000 1.5 350 00:39 02.09.2019
2628 Clear 24 1012 47 6000 1.5 350 00:19 02.09.2019
2629 Clear 24 1011 50 6000 2.1 330 23:39 01.09.2019
2630 Clear 25 1011 50 6000 2.1 330 23:19 01.09.2019
2631 Clear 25 1011 50 6000 2.1 330 22:56 01.09.2019
2632 Clear 25 1011 50 6000 2.1 330 22:56 01.09.2019
2633 Clear 25 1011 47 6000 2.1 330 22:38 01.09.2019
2634 Clear 26 1011 47 6000 2.1 330 22:18 01.09.2019
2635 Haze 26 1011 44 5000 2.6 320 21:42 01.09.2019
2636 Haze 26 1011 44 5000 2.6 320 21:23 01.09.2019
2637 Haze 26 1011 44 5000 2.6 320 20:58 01.09.2019
2638 Haze 27 1011 42 5000 2.6 310 20:39 01.09.2019
2639 Haze 27 1011 42 5000 2.6 310 20:19 01.09.2019
2640 Haze 27 1011 42 5000 2.6 310 19:59 01.09.2019
2641 Haze 29 1009 51 5000 4.1 320 19:40 01.09.2019
2642 Haze 29 1009 51 5000 4.1 320 19:21 01.09.2019
2643 Haze 31 1009 42 5000 3.6 320 18:48 01.09.2019
2644 Haze 31 1009 42 5000 3.6 320 18:30 01.09.2019
2645 Haze 32 1009 42 5000 3.6 320 17:59 01.09.2019
2646 Haze 33 1009 31 5000 3.1 330 17:39 01.09.2019
2647 Haze 33 1009 31 5000 3.1 330 17:21 01.09.2019
2648 Haze 33 1009 31 5000 3.1 330 16:56 01.09.2019
2649 Haze 34 1009 20 5000 3.6 270 16:37 01.09.2019
2650 Haze 34 1009 20 5000 3.6 270 16:18 01.09.2019
2651 Haze 35 1009 23 5000 4.6 250 15:42 01.09.2019
2652 Haze 35 1009 23 5000 4.6 250 15:23 01.09.2019
2653 Haze 35 1010 26 5000 2.1 350 14:44 01.09.2019
2654 Haze 35 1010 26 5000 2.1 350 14:26 01.09.2019
2655 Haze 35 1010 26 5000 2.1 350 13:59 01.09.2019
2656 Clear 35 1010 18 6000 4.1 360 13:41 01.09.2019
2657 Clear 35 1010 18 6000 4.1 360 13:23 01.09.2019
2658 Clear 34 1011 15 6000 1.5 360 12:45 01.09.2019
2659 Clear 34 1011 15 6000 1.5 360 12:26 01.09.2019
2660 Clear 34 1011 15 6000 1.5 360 11:58 01.09.2019
2661 Haze 33 1011 17 6000 2.6 320 11:38 01.09.2019
2662 Haze 30 1011 20 6000 1.5 20 11:19 01.09.2019
2663 Haze 30 1011 20 6000 1.5 20 10:45 01.09.2019
2664 Haze 30 1011 20 6000 1.5 20 10:23 01.09.2019
2665 Haze 28 1011 20 6000 3.1 10 09:56 01.09.2019
2666 Haze 28 1011 20 6000 3.1 10 09:38 01.09.2019
2667 Haze 26 1011 24 5000 3.1 350 09:19 01.09.2019
2668 Haze 26 1011 24 5000 3.1 350 08:42 01.09.2019
2669 Haze 26 1011 24 5000 3.1 350 08:21 01.09.2019
2670 Haze 26 1011 29 5000 2.1 340 07:46 01.09.2019
2671 Haze 21 1011 29 5000 2.1 340 07:22 01.09.2019
2672 Haze 21 1011 33 5000 2.1 340 06:39 01.09.2019
2673 Haze 21 1011 33 5000 2.1 340 05:59 01.09.2019
2674 Haze 21 1011 33 5000 2.1 340 05:59 01.09.2019
2675 Haze 21 1010 36 5000 3.99 332.049 05:27 01.09.2019
2676 Clear 21 1010 40 6000 3.99 332.049 04:19 01.09.2019
2677 Clear 21 1010 49 6000 1 330 03:37 01.09.2019
2678 Clear 21 1011 56 6000 3.75 317.896 02:40 01.09.2019
2679 Clear 21 1011 56 6000 3.75 317.896 02:22 01.09.2019
2680 Clear 22 1011 50 6000 3.75 317.896 01:40 01.09.2019
2681 Clear 24 1010 60 6000 3.61 318.345 01:21 01.09.2019
2682 Clear 23 1011 47 6000 3.61 318.345 00:42 01.09.2019
2683 Clear 24 1011 47 6000 5.4 320.345 00:21 01.09.2019
2684 Clear 24 1011 50 6000 1.5 330 23:47 31.08.2019
2685 Clear 24 1011 50 6000 1.5 330 23:21 31.08.2019
2686 Clear 24 1011 50 6000 1.5 330 23:21 31.08.2019
2687 Clear 25 1011 44 6000 1 320 22:56 31.08.2019
2688 Clear 25 1011 44 6000 1 320 22:38 31.08.2019
2689 Clear 25 1011 44 6000 1 320 22:20 31.08.2019
2690 Clear 25 1011 44 6000 1 320 21:54 31.08.2019
2691 Clear 25 1011 50 6000 2.1 320 21:36 31.08.2019
2692 Clear 25 1011 50 6000 2.1 320 21:18 31.08.2019
2693 Clear 27 1011 54 6000 2.1 320 20:42 31.08.2019
2694 Clear 28 1011 54 6000 2.1 320 20:23 31.08.2019
2695 Clear 29 1010 48 7000 3.1 340 19:43 31.08.2019
2696 Clear 29 1010 48 7000 3.1 340 19:23 31.08.2019
2697 Clear 29 1010 48 7000 3.1 340 18:58 31.08.2019
2698 Clear 30 1010 42 6000 5.7 330 18:39 31.08.2019
2699 Clear 30 1010 42 6000 5.7 330 18:19 31.08.2019
2700 Clear 30 1010 42 6000 5.7 330 17:55 31.08.2019
2701 Haze 32 1010 25 5000 6.2 330 17:37 31.08.2019
2702 Haze 32 1010 25 5000 6.2 330 17:37 31.08.2019
2703 Clear 33 1009 27 6000 5.1 280 17:18 31.08.2019
2704 -273 0 0 0 0 0 16:55 31.08.2019
2705 Clear 33 1010 27 6000 6.2 330 16:37 31.08.2019
2706 Haze 35 1009 26 5000 4.1 280 16:18 31.08.2019
2707 Haze 35 1009 26 5000 4.1 280 15:41 31.08.2019
2708 Haze 34 1011 26 7000 5.1 320 15:19 31.08.2019
2709 Haze 34 1011 26 7000 5.1 320 14:55 31.08.2019
2710 Haze 34 1011 26 7000 5.1 320 14:36 31.08.2019
2711 Haze 34 1011 26 7000 5.1 320 14:18 31.08.2019
2712 Haze 34 1011 27 5000 2.1 250 13:40 31.08.2019
2713 Haze 33 1011 24 5000 2.6 320 13:21 31.08.2019
2714 Haze 33 1011 24 5000 2.6 320 12:58 31.08.2019
2715 Haze 33 1012 25 5000 3.22 282.033 12:38 31.08.2019
2716 Haze 33 1012 25 5000 1.13 311.258 12:19 31.08.2019
2717 Haze 33 1012 25 5000 1.13 311.258 12:19 31.08.2019
2718 Haze 32 1012 27 5000 4.6 350 11:48 31.08.2019
2719 Haze 32 1012 27 5000 4.6 350 11:29 31.08.2019
2720 Haze 30 1012 33 5000 2.1 90 10:59 31.08.2019
2721 Haze 30 1012 33 5000 2.1 90 10:41 31.08.2019
2722 Haze 27 1012 42 5000 1.13 311.258 10:19 31.08.2019
2723 Haze 27 1012 42 5000 1.13 311.258 09:55 31.08.2019
2724 Haze 27 1012 42 5000 0.87 320.491 09:37 31.08.2019
2725 Haze 24 1012 42 5000 4.37 325.452 09:19 31.08.2019
2726 Haze 24 1013 50 4000 1.5 50 08:42 31.08.2019
2727 Haze 24 1013 50 4000 1.5 50 08:22 31.08.2019
2728 Haze 21 1012 64 4000 4.37 325.452 07:40 31.08.2019
2729 Haze 20 1012 64 4000 1.5 40 07:21 31.08.2019
2730 Haze 20 1012 64 5000 1.5 40 06:28 31.08.2019
2731 Haze 20 1012 53 5000 2.1 290 05:58 31.08.2019
2732 Haze 20 1012 53 5000 2.1 290 05:31 31.08.2019
2733 Haze 20 1011 38 5000 2.1 350 04:32 31.08.2019
2734 Haze 20 1012 56 5000 2.6 330 03:44 31.08.2019
2735 Haze 21 1012 53 5000 1 310 02:36 31.08.2019
2736 Haze 21 1012 46 5000 3.1 310 01:53 31.08.2019
2737 Haze 21 1012 46 5000 3.1 310 01:33 31.08.2019
2738 Haze 21 1012 49 5000 2.1 350 00:50 31.08.2019
2739 Haze 21 1012 49 5000 2.1 350 00:30 31.08.2019
2740 Haze 22 1012 49 5000 2.1 350 23:57 30.08.2019
2741 Haze 22 1012 60 5000 1.5 350 23:38 30.08.2019
2742 Haze 24 1013 60 5000 2.6 330 23:18 30.08.2019
2743 Haze 24 1013 60 5000 2.6 330 22:42 30.08.2019
2744 Haze 24 1013 60 5000 2.6 330 22:22 30.08.2019
2745 Haze 24 1013 60 5000 2.6 330 21:58 30.08.2019
2746 Haze 24 1013 57 5000 2.6 330 21:38 30.08.2019
2747 Haze 25 1013 57 5000 2.6 330 21:19 30.08.2019
2748 Haze 25 1013 57 5000 2.6 330 21:19 30.08.2019
2749 Haze 25 1013 57 5000 2.6 330 20:58 30.08.2019
2750 Haze 26 1013 53 5000 3.1 320 20:39 30.08.2019
2751 Haze 26 1013 53 5000 3.1 320 20:20 30.08.2019
2752 Haze 26 1013 53 5000 3.1 320 19:57 30.08.2019
2753 Haze 26 1013 53 5000 3.1 320 19:57 30.08.2019
2754 Haze 26 1013 53 5000 3.1 320 19:57 30.08.2019
2755 Haze 27 1012 41 5000 5.1 310 19:39 30.08.2019
2756 Haze 28 1012 45 7000 5.1 300 19:19 30.08.2019
2757 Haze 29 1012 45 5000 6.2 300 18:54 30.08.2019
2758 Haze 29 1012 45 5000 6.2 300 18:36 30.08.2019
2759 Haze 29 1012 45 5000 6.2 300 18:18 30.08.2019
2760 Haze 29 1012 45 5000 6.2 300 17:55 30.08.2019
2761 Clear 31 1011 37 6000 6.7 310 17:37 30.08.2019
2762 Clear 32 1011 40 6000 5.7 310 17:18 30.08.2019
2763 Clear 32 1011 40 6000 5.7 310 16:43 30.08.2019
2764 Clear 32 1011 40 6000 5.7 310 16:22 30.08.2019
2765 Clear 33 1012 33 6000 7.2 280 15:43 30.08.2019
2766 Clear 33 1012 33 6000 7.2 280 15:24 30.08.2019
2767 -273 0 0 0 0 0 14:55 30.08.2019
2768 Haze 32 1012 27 5000 6.2 310 14:55 30.08.2019
2769 Haze 32 1012 27 5000 6.2 310 14:36 30.08.2019
2770 Clear 32 1012 35 6000 5.1 300 14:18 30.08.2019
2771 Clear 32 1012 35 6000 5.1 300 13:41 30.08.2019
2772 Clear 32 1012 35 6000 5.1 300 13:22 30.08.2019
2773 Clear 37 1006 17 0 6.23 308.776 12:55 30.08.2019
2774 Clear 37 1006 17 0 6.23 308.776 12:55 30.08.2019
2775 Clear 37 1006 17 0 6.23 308.776 12:36 30.08.2019
2776 Clear 35 1008 20 0 6.93 320.55 12:18 30.08.2019
2777 Clear 35 1008 20 0 6.93 320.55 11:41 30.08.2019
2778 Clear 28 1013 35 6000 5.1 320 11:23 30.08.2019
2779 Clear 28 1013 35 6000 5.1 320 10:39 30.08.2019
2780 Clear 28 1013 35 6000 5.1 320 10:21 30.08.2019
2781 Clear 28 1013 35 6000 5.1 320 09:58 30.08.2019
2782 Clear 27 1013 51 6000 5.1 290 09:39 30.08.2019
2783 Haze 25 1013 50 5000 6.9 312.787 09:19 30.08.2019
2784 Haze 25 1013 50 5000 6.9 312.787 09:19 30.08.2019
2785 Haze 25 1013 50 5000 6.9 312.787 08:44 30.08.2019
2786 Haze 25 1013 50 5000 6.9 312.787 08:25 30.08.2019
2787 Haze 25 1013 50 5000 6.9 312.787 07:59 30.08.2019
2788 Haze 22 1013 68 5000 6.9 312.787 07:39 30.08.2019
2789 Haze 20 1013 68 5000 6.9 312.787 07:21 30.08.2019
2790 Haze 20 1012 77 5000 2.6 310 06:45 30.08.2019
2791 Haze 20 1012 77 5000 2.6 310 06:26 30.08.2019
2792 Haze 20 1012 77 5000 2.6 310 05:43 30.08.2019
2793 Haze 21 1012 73 5000 2.6 360 03:59 30.08.2019
2794 Clear 22 1012 60 6000 2.1 360 03:38 30.08.2019
2795 Clear 22 1012 56 6000 5.1 310 02:55 30.08.2019
2796 Clear 22 1012 56 6000 5.1 310 02:26 30.08.2019
2797 Clear 22 1012 69 6000 4.1 300 01:28 30.08.2019
2798 Haze 22 1012 73 5000 5.7 290 00:38 30.08.2019
2799 Haze 23 1013 69 5000 5.1 310 00:18 30.08.2019
2800 Haze 23 1013 69 5000 5.1 310 23:40 29.08.2019
2801 Haze 24 1013 69 5000 5.1 310 23:20 29.08.2019
2802 Haze 24 1013 64 5000 5.1 310 22:44 29.08.2019
2803 Haze 24 1013 64 5000 5.1 310 22:25 29.08.2019
2804 Haze 25 1013 61 5000 3.1 320 21:57 29.08.2019
2805 Haze 25 1013 61 5000 3.1 320 21:38 29.08.2019
2806 Haze 25 1013 61 5000 3.1 320 21:20 29.08.2019
2807 Haze 26 1013 61 5000 3.1 320 20:54 29.08.2019
2808 Haze 26 1013 61 5000 3.1 330 20:36 29.08.2019
2809 Haze 26 1013 61 5000 3.1 330 20:18 29.08.2019
2810 Haze 27 1013 61 5000 3.1 330 19:46 29.08.2019
2811 Haze 27 1012 61 5000 3.1 330 19:25 29.08.2019
2812 Haze 29 1011 54 5000 6.7 300 18:45 29.08.2019
2813 Haze 29 1011 54 5000 6.7 300 18:21 29.08.2019
2814 Haze 32 1011 40 5000 3.1 330 17:58 29.08.2019
2815 Haze 32 1011 40 5000 3.1 330 17:39 29.08.2019
2816 Haze 32 1011 40 5000 3.1 330 17:20 29.08.2019
2817 Haze 33 1012 38 5000 5.1 320 16:59 29.08.2019
2818 Haze 33 1012 38 5000 5.1 320 16:41 29.08.2019
2819 Haze 34 1012 38 5000 5.1 320 16:22 29.08.2019
2820 Haze 34 1012 38 5000 5.1 320 16:22 29.08.2019
2821 Haze 34 1012 36 5000 6.2 320 15:40 29.08.2019
2822 Haze 34 1012 36 5000 6.2 320 15:21 29.08.2019
2823 Haze 34 1012 36 5000 5.1 320 14:58 29.08.2019
2824 Haze 34 1012 36 5000 5.1 320 14:39 29.08.2019
2825 -273 0 0 0 0 0 14:20 29.08.2019
2826 Haze 34 1011 34 5000 5.1 270 13:56 29.08.2019
2827 Haze 34 1012 28 5000 3.1 360 13:37 29.08.2019
2828 Haze 34 1012 28 5000 3.1 360 13:18 29.08.2019
2829 Haze 34 1012 28 5000 3.1 360 12:56 29.08.2019
2830 Haze 33 1012 23 5000 4.1 340 12:37 29.08.2019
2831 Haze 33 1012 23 5000 4.1 340 12:19 29.08.2019
2832 Haze 32 1013 27 5000 3.6 360 11:42 29.08.2019
2833 Haze 32 1013 27 5000 3.6 360 11:21 29.08.2019
2834 Haze 30 1013 27 5000 3.6 360 10:57 29.08.2019
2835 Haze 29 1013 35 5000 2.1 30 10:38 29.08.2019
2836 Haze 28 1013 45 5000 2.6 270 10:20 29.08.2019
2837 Haze 27 1013 45 4000 2.1 50 09:41 29.08.2019
2838 Haze 26 1013 57 5000 3.1 270 09:19 29.08.2019
2839 Haze 25 1014 54 4000 2.1 50 08:49 29.08.2019
2840 Haze 25 1014 54 4000 2.1 50 08:31 29.08.2019
2841 Haze 23 1014 54 4000 2.1 50 07:59 29.08.2019
2842 Haze 23 1014 50 3000 1.5 50 07:41 29.08.2019
2843 Haze 23 1014 50 3000 1.5 50 07:23 29.08.2019
2844 Haze 20 1013 68 3000 1.5 50 06:40 29.08.2019
2845 Mist 19 1013 83 4000 2.6 50 05:52 29.08.2019
2846 Mist 19 1013 83 4000 2.6 50 05:33 29.08.2019
2847 Haze 21 1013 56 5000 2.1 360 04:49 29.08.2019
2848 Haze 21 1013 56 5000 2.1 360 04:28 29.08.2019
2849 Haze 22 1013 53 5000 2.1 320 02:21 29.08.2019
2850 Haze 23 1013 57 5000 3.1 320 01:41 29.08.2019
2851 Haze 23 1013 60 5000 4.1 250 00:52 29.08.2019
2852 Haze 23 1013 60 5000 4.1 250 00:25 29.08.2019
2853 Haze 24 1013 61 5000 3.1 320 23:59 28.08.2019
2854 Haze 24 1013 61 5000 3.1 320 23:41 28.08.2019
2855 Haze 24 1013 61 5000 3.1 320 23:22 28.08.2019
2856 Haze 24 1013 61 5000 3.1 320 22:57 28.08.2019
2857 Haze 24 1013 57 5000 6.23 317.711 22:38 28.08.2019
2858 Haze 25 1013 69 8000 4.6 280 22:18 28.08.2019
2859 Haze 25 1013 69 8000 4.6 280 21:57 28.08.2019
2860 Haze 25 1013 65 5000 2.1 330 21:38 28.08.2019
2861 Haze 25 1013 65 5000 2.1 330 21:19 28.08.2019
2862 Haze 26 1013 61 5000 3.1 330 20:41 28.08.2019
2863 Haze 26 1013 61 5000 3.1 330 20:22 28.08.2019
2864 Haze 26 1013 61 5000 3.1 330 19:55 28.08.2019
2865 Haze 28 1012 57 5000 5.1 320 19:37 28.08.2019
2866 Haze 28 1012 57 5000 5.1 320 19:18 28.08.2019
2867 Haze 30 1012 51 5000 5.1 320 18:42 28.08.2019
2868 Haze 30 1012 51 5000 5.1 320 18:21 28.08.2019
2869 Haze 30 1012 51 5000 5.1 320 17:55 28.08.2019
2870 Haze 32 1012 48 5000 5.1 310 17:37 28.08.2019
2871 Haze 32 1012 48 5000 5.1 310 17:37 28.08.2019
2872 Haze 32 1012 48 5000 5.1 310 17:19 28.08.2019
2873 Haze 34 1012 38 5000 5.1 320 16:42 28.08.2019
2874 Haze 34 1012 38 5000 5.1 320 16:18 28.08.2019
2875 Haze 34 1012 38 5000 5.1 320 15:57 28.08.2019
2876 Haze 34 1012 38 5000 5.7 320 15:36 28.08.2019
2877 Haze 34 1011 32 6000 4.6 300 15:18 28.08.2019
2878 Haze 34 1011 32 6000 4.6 300 14:55 28.08.2019
2879 Clouds 34 1011 34 6000 4.6 310 14:37 28.08.2019
2880 Haze 33 1012 36 5000 6.2 330 14:18 28.08.2019
2881 Haze 33 1012 36 5000 6.2 330 13:56 28.08.2019
2882 Haze 33 1012 36 5000 6.2 330 13:36 28.08.2019
2883 Haze 33 1011 36 6000 5.1 290 13:18 28.08.2019
2884 Haze 32 1012 33 5000 4.1 330 12:40 28.08.2019
2885 Haze 30 1013 35 5000 2.1 320 12:21 28.08.2019
2886 Haze 30 1013 35 5000 2.1 320 11:41 28.08.2019
2887 Haze 30 1013 35 5000 2.1 320 11:22 28.08.2019
2888 Haze 30 1013 35 5000 2.1 320 10:59 28.08.2019
2889 Haze 29 1013 33 5000 4.6 360 10:41 28.08.2019
2890 Haze 29 1013 33 5000 4.6 360 10:20 28.08.2019
2891 Haze 29 1013 45 6000 4.1 280 09:56 28.08.2019
2892 Haze 28 1013 35 5000 3.1 330 09:37 28.08.2019
2893 Haze 27 1013 45 6000 5.1 290 09:18 28.08.2019
2894 Haze 25 1013 39 5000 3.1 330 08:38 28.08.2019
2895 Haze 24 1013 64 5000 2.6 260 08:20 28.08.2019
2896 Haze 22 1013 57 5000 2.6 250 07:39 28.08.2019
2897 Haze 21 1012 64 4500 3.6 240 07:20 28.08.2019
2898 Haze 21 1012 64 4500 3.6 240 06:51 28.08.2019
2899 Haze 21 1012 64 4500 3.6 240 06:31 28.08.2019
2900 Haze 21 1012 68 5000 3.6 320 05:29 28.08.2019
2901 Clouds 23 1013 33 6000 3.1 340 02:24 28.08.2019
2902 Clouds 23 1013 50 6000 2.6 260 01:31 28.08.2019
2903 Clouds 24 1013 54 6000 3.1 240 00:55 28.08.2019
2904 Clouds 24 1013 54 6000 3.1 240 00:35 28.08.2019
2905 Clear 24 1013 54 6000 3.1 240 23:58 27.08.2019
2906 Clear 25 1013 57 6000 2.6 250 23:38 27.08.2019
2907 Clear 25 1013 57 6000 2.6 250 23:20 27.08.2019
2908 Clear 26 1013 57 6000 3.1 240 22:42 27.08.2019
2909 Clear 26 1013 57 6000 3.1 240 22:23 27.08.2019
2910 Clear 27 1012 48 6000 1.5 330 21:57 27.08.2019
2911 Clear 27 1012 48 6000 1.5 330 21:39 27.08.2019
2912 Clear 27 1012 48 6000 1.5 330 21:20 27.08.2019
2913 Clear 27 1012 48 6000 1.5 330 20:59 27.08.2019
2914 Clear 28 1012 45 6000 2.6 330 20:40 27.08.2019
2915 Clear 28 1012 45 6000 2.6 330 20:19 27.08.2019
2916 Clear 28 1012 45 6000 2.6 330 19:55 27.08.2019
2917 Haze 30 1012 48 5000 1.5 320 19:37 27.08.2019
2918 Haze 30 1012 48 5000 1.5 320 19:18 27.08.2019
2919 Haze 32 1012 42 5000 3.6 320 18:41 27.08.2019
2920 Haze 34 1012 24 5000 3.1 310 18:19 27.08.2019
2921 Haze 34 1012 24 5000 3.1 310 17:56 27.08.2019
2922 Haze 34 1012 24 5000 3.1 310 17:38 27.08.2019
2923 Haze 35 1011 26 7000 5.1 300 17:18 27.08.2019
2924 Haze 35 1012 21 5000 3.6 310 16:46 27.08.2019
2925 Haze 35 1012 21 5000 3.6 310 16:26 27.08.2019
2926 Haze 36 1012 20 5000 4.1 310 15:57 27.08.2019
2927 Haze 36 1012 20 5000 4.1 310 15:39 27.08.2019
2928 Haze 36 1013 18 5000 3.1 40 15:20 27.08.2019
2929 Haze 36 1013 18 5000 3.1 40 14:43 27.08.2019
2930 Haze 36 1013 18 5000 3.1 40 14:24 27.08.2019
2931 Haze 36 1013 15 5000 1.5 350 13:59 27.08.2019
2932 Haze 36 1013 15 5000 1.5 350 13:41 27.08.2019
2933 Haze 36 1013 15 5000 1.5 350 13:20 27.08.2019
2934 Haze 35 1014 16 5000 5.1 30 12:42 27.08.2019
2935 Haze 35 1014 16 5000 5.1 30 12:21 27.08.2019
2936 Haze 35 1014 16 5000 5.1 30 11:57 27.08.2019
2937 Haze 34 1014 15 5000 3.1 350 11:37 27.08.2019
2938 Haze 34 1013 16 7000 4.1 220 11:19 27.08.2019
2939 Haze 33 1014 14 4000 2.1 60 10:41 27.08.2019
2940 Haze 29 1014 15 5000 1 10 10:20 27.08.2019
2941 Haze 29 1014 15 5000 1 10 09:56 27.08.2019
2942 Haze 29 1014 15 5000 1 10 09:37 27.08.2019
2943 Haze 29 1014 15 5000 1 10 09:19 27.08.2019
2944 Haze 27 1014 20 5000 1 320 08:45 27.08.2019
2945 Haze 27 1014 20 5000 1 320 08:24 27.08.2019
2946 Haze 24 1014 25 5000 2.1 340 07:55 27.08.2019
2947 Haze 24 1014 25 5000 2.1 340 07:37 27.08.2019
2948 Haze 21 1014 25 5000 2.1 340 07:18 27.08.2019
2949 Haze 21 1014 35 5000 1.5 350 06:45 27.08.2019
2950 Haze 20 1014 35 5000 1.5 350 06:19 27.08.2019
2951 Haze 20 1013 38 5000 4 307.818 05:28 27.08.2019
2952 Clouds 22 1013 41 6000 1 350 03:44 27.08.2019
2953 Clouds 22 1013 41 6000 1 350 03:21 27.08.2019
2954 Haze 23 1013 36 5000 2.6 340 01:48 27.08.2019
2955 Haze 23 1013 36 5000 2.6 340 01:26 27.08.2019
2956 Haze 24 1014 57 5000 1.5 40 00:49 27.08.2019
2957 Haze 24 1014 57 5000 1.5 40 00:28 27.08.2019
2958 Haze 25 1014 54 5000 1 30 23:44 26.08.2019
2959 Haze 25 1014 54 5000 1 30 23:26 26.08.2019
2960 Haze 25 1014 54 5000 1 30 22:59 26.08.2019
2961 Haze 25 1014 54 5000 1.5 10 22:37 26.08.2019
2962 Haze 26 1014 54 5000 1.5 10 22:19 26.08.2019
2963 Clear 27 1014 48 6000 1.5 310 21:40 26.08.2019
2964 Clear 27 1014 48 6000 1.5 310 21:22 26.08.2019
2965 Clear 27 1014 54 6000 2.1 310 20:59 26.08.2019
2966 Clear 27 1014 54 6000 2.1 310 20:41 26.08.2019
2967 Clear 27 1014 54 6000 2.1 310 20:21 26.08.2019
2968 Haze 29 1013 48 5000 1.5 330 19:59 26.08.2019
2969 Haze 29 1013 48 5000 1.5 330 19:41 26.08.2019
2970 Haze 29 1013 48 5000 1.5 330 19:19 26.08.2019
2971 -273 0 0 0 0 0 18:55 26.08.2019
2972 Clear 31 1013 42 6000 3.6 330 18:37 26.08.2019
2973 Clear 31 1013 42 6000 3.6 330 18:18 26.08.2019
2974 Clear 33 1013 24 6000 4.1 320 17:43 26.08.2019
2975 Clear 33 1013 24 6000 4.1 320 17:19 26.08.2019
2976 Haze 34 1013 23 5000 3.1 250 16:57 26.08.2019
2977 Haze 34 1013 23 5000 3.1 250 16:38 26.08.2019
2978 Haze 35 1013 23 5000 3.1 250 16:18 26.08.2019
2979 Haze 35 1013 20 5000 4.6 270 15:44 26.08.2019
2980 Haze 35 1013 20 5000 4.6 270 15:22 26.08.2019
2981 Clear 35 1013 17 6000 2.6 260 14:58 26.08.2019
2982 Clear 35 1013 17 6000 2.6 260 14:39 26.08.2019
2983 Clear 35 1013 17 6000 2.6 260 14:21 26.08.2019
2984 Haze 35 1014 20 6000 4.1 220 13:43 26.08.2019
2985 Haze 35 1014 20 6000 4.1 220 13:23 26.08.2019
2986 Haze 35 1014 23 6000 3.1 350 12:57 26.08.2019
2987 Haze 35 1014 23 6000 3.1 350 12:39 26.08.2019
2988 Haze 35 1014 23 6000 3.1 350 12:20 26.08.2019
2989 Haze 34 1014 19 6000 4.6 350 11:38 26.08.2019
2990 Haze 34 1014 19 6000 4.6 350 11:20 26.08.2019
2991 Haze 31 1015 20 5000 3.6 309.801 10:58 26.08.2019
2992 Haze 31 1015 20 5000 3.6 309.801 10:39 26.08.2019
2993 Haze 31 1015 20 5000 3.6 309.801 10:19 26.08.2019
2994 Haze 28 1015 28 5000 3.6 309.801 09:42 26.08.2019
2995 Haze 28 1015 28 5000 3.85 317.329 09:24 26.08.2019
2996 Haze 25 1014 34 5000 3.85 317.329 08:58 26.08.2019
2997 Haze 25 1014 34 5000 3.85 317.329 08:39 26.08.2019
2998 Haze 25 1014 34 5000 3.85 317.329 08:21 26.08.2019
2999 Smoke 24 1014 36 4000 3.85 317.329 07:45 26.08.2019
3000 -273 0 0 0 0 0 07:25 26.08.2019
3001 Smoke 19 1013 46 4000 3.85 317.329 06:58 26.08.2019
3002 Smoke 19 1013 46 4000 3.85 317.329 06:39 26.08.2019
3003 Smoke 19 1013 46 4000 2.88 308.097 06:18 26.08.2019
3004 Haze 18 1013 49 6000 2.88 308.097 05:33 26.08.2019
3005 Clear 20 1013 43 7000 2.88 308.097 04:22 26.08.2019
3006 Clear 21 1013 38 10000 3.1 330 02:40 26.08.2019
3007 Haze 21 1013 38 5000 1.5 330 01:23 26.08.2019
3008 Clear 22 1013 38 6000 1 50 00:45 26.08.2019
3009 Clear 22 1013 38 6000 1 50 00:27 26.08.2019
3010 Clear 22 1013 44 6000 1.5 80 23:46 25.08.2019
3011 Clear 22 1013 44 6000 1.5 80 23:21 25.08.2019
3012 Clear 24 1014 44 6000 2.1 320 22:59 25.08.2019
3013 Clear 24 1014 44 6000 2.1 320 22:40 25.08.2019
3014 Clear 24 1014 44 6000 2.1 320 22:21 25.08.2019
3015 Clear 25 1014 47 6000 4.1 310 21:59 25.08.2019
3016 Clear 25 1014 47 6000 4.1 310 21:41 25.08.2019
3017 Clear 25 1014 47 6000 4.1 310 21:41 25.08.2019
3018 Clear 25 1014 47 6000 4.1 310 21:19 25.08.2019
3019 Clear 27 1013 54 6000 5.1 300 20:57 25.08.2019
3020 Clear 27 1013 54 6000 5.1 300 20:39 25.08.2019
3021 Clear 27 1013 54 6000 5.1 300 20:19 25.08.2019
3022 Clear 28 1013 54 7000 5.1 300 19:55 25.08.2019
3023 Clear 29 1013 51 6000 5.7 310 19:36 25.08.2019
3024 Clear 29 1013 51 6000 5.7 310 19:18 25.08.2019
3025 Haze 30 1013 48 5000 5.7 310 18:55 25.08.2019
3026 Haze 30 1013 48 5000 5.7 310 18:55 25.08.2019
3027 Haze 30 1013 48 5000 5.7 310 18:37 25.08.2019
3028 Haze 30 1013 48 5000 5.7 310 18:18 25.08.2019
3029 Haze 33 1013 43 6000 5.7 310 17:40 25.08.2019
3030 Haze 33 1013 43 6000 5.7 310 17:21 25.08.2019
3031 Haze 34 1012 28 6000 5.1 280 16:43 25.08.2019
3032 Haze 34 1012 28 6000 5.1 280 16:23 25.08.2019
3033 Clouds 35 1013 28 6000 5.1 270 15:58 25.08.2019
3034 Clouds 35 1013 28 6000 5.1 270 15:39 25.08.2019
3035 Clouds 35 1013 28 6000 5.1 270 15:21 25.08.2019
3036 Clear 34 1013 21 7000 6.7 280 14:41 25.08.2019
3037 Clouds 34 1013 24 6000 5.1 250 14:23 25.08.2019
3038 Clear 34 1013 23 6000 4.1 240 13:46 25.08.2019
3039 Clear 34 1013 23 6000 4.1 240 13:22 25.08.2019
3040 Clear 33 1014 27 6000 3.1 240 12:59 25.08.2019
3041 Clear 33 1014 27 6000 3.1 240 12:40 25.08.2019
3042 Clear 33 1014 27 6000 3.1 240 12:22 25.08.2019
3043 Clear 32 1014 31 6000 3.1 320 11:57 25.08.2019
3044 Clear 32 1014 31 6000 3.1 320 11:37 25.08.2019
3045 Clear 32 1014 31 6000 3.1 320 11:19 25.08.2019
3046 Clear 31 1014 31 6000 3.1 340 10:55 25.08.2019
3047 Clear 31 1014 31 6000 3.1 340 10:37 25.08.2019
3048 Clear 31 1014 31 6000 3.1 340 10:18 25.08.2019
3049 Haze 29 1014 28 5000 3.6 320 09:42 25.08.2019
3050 Haze 29 1014 28 5000 3.6 320 09:23 25.08.2019
3051 Haze 26 1014 37 5000 2.1 320 08:47 25.08.2019
3052 Haze 26 1014 37 5000 2.1 320 08:28 25.08.2019
3053 Haze 23 1014 47 5000 2.1 320 07:49 25.08.2019
3054 Haze 22 1014 53 4000 2.1 350 07:30 25.08.2019
3055 Haze 20 1013 56 4000 2.1 350 06:37 25.08.2019
3056 Haze 20 1013 60 5000 1 360 05:27 25.08.2019
3057 Clear 21 1013 53 6000 3.41 311.001 03:43 25.08.2019
3058 Clear 21 1013 53 6000 3.41 311.001 03:43 25.08.2019
3059 Clear 22 1013 56 6000 1 360 02:42 25.08.2019
3060 Clear 23 1013 53 6000 1 360 01:53 25.08.2019
3061 Clear 23 1013 53 6000 1 360 00:45 25.08.2019
3062 Clear 23 1013 53 6000 1 360 00:23 25.08.2019
3063 Clear 24 1014 54 6000 1.5 310 23:57 24.08.2019
3064 Clear 24 1014 54 6000 1.5 310 23:57 24.08.2019
3065 Clear 24 1014 54 6000 1.5 310 23:39 24.08.2019
3066 Clear 24 1014 54 6000 1.5 310 23:21 24.08.2019
3067 Clear 25 1013 54 6000 3.1 310 22:42 24.08.2019
3068 Clear 25 1013 54 6000 3.1 310 22:19 24.08.2019
3069 Clear 25 1014 61 6000 3.1 320 21:59 24.08.2019
3070 Clear 25 1014 61 6000 3.1 320 21:39 24.08.2019
3071 Clear 25 1014 61 6000 3.1 320 21:21 24.08.2019
3072 Clear 27 1013 65 6000 2.6 330 20:58 24.08.2019
3073 Clear 27 1013 65 6000 2.6 330 20:58 24.08.2019
3074 Clear 27 1013 65 6000 2.6 330 20:39 24.08.2019
3075 Clear 27 1013 65 6000 2.6 330 20:19 24.08.2019
3076 Clear 28 1013 54 6000 4.1 330 19:58 24.08.2019
3077 Clear 28 1013 54 6000 4.1 330 19:39 24.08.2019
3078 Clear 28 1013 54 6000 4.1 330 19:21 24.08.2019
3079 Haze 29 1012 51 6000 5.1 300 18:46 24.08.2019
3080 Haze 30 1012 48 4000 6.2 320 18:25 24.08.2019
3081 Haze 31 1012 48 4000 6.2 320 17:57 24.08.2019
3082 Haze 32 1012 45 4000 7.2 320 17:39 24.08.2019
3083 Haze 32 1012 45 4000 7.2 320 17:21 24.08.2019
3084 Haze 34 1012 36 4000 5.1 310 16:40 24.08.2019
3085 Haze 34 1012 36 4000 5.1 310 16:19 24.08.2019
3086 Haze 35 1012 36 5000 7.2 310 15:44 24.08.2019
3087 Haze 35 1012 36 5000 7.2 310 15:26 24.08.2019
3088 Haze 35 1012 36 5000 7.2 310 14:59 24.08.2019
3089 Haze 35 1012 36 5000 7.2 310 14:40 24.08.2019
3090 Haze 35 1012 36 5000 7.2 310 14:19 24.08.2019
3091 Haze 33 1012 32 5000 5.1 310 13:55 24.08.2019
3092 Haze 33 1012 32 5000 5.1 310 13:36 24.08.2019
3093 Haze 33 1012 32 5000 5.1 310 13:18 24.08.2019
3094 Clear 33 1012 23 6000 5.1 310 12:41 24.08.2019
3095 Clear 33 1012 23 6000 5.1 310 12:22 24.08.2019
3096 Clear 32 1012 31 6000 4.1 320 11:54 24.08.2019
3097 Clear 32 1012 31 6000 4.1 320 11:36 24.08.2019
3098 Clear 32 1012 31 6000 4.1 320 11:18 24.08.2019
3099 Clear 30 1012 40 6000 2.6 320 10:40 24.08.2019
3100 Clear 30 1012 40 6000 2.6 320 10:21 24.08.2019
3101 Clear 29 1013 48 6000 5.86 306.627 09:43 24.08.2019
3102 Clear 29 1013 48 6000 6.52 317.149 09:19 24.08.2019
3103 Haze 25 1012 57 5000 2.1 250 08:43 24.08.2019
3104 Haze 25 1012 57 5000 2.1 250 08:25 24.08.2019
3105 Haze 23 1013 60 5000 2.6 250 07:53 24.08.2019
3106 Haze 23 1013 60 5000 2.6 250 07:31 24.08.2019
3107 Haze 21 1012 64 5000 4.1 250 06:58 24.08.2019
3108 Haze 21 1012 64 5000 4.1 250 06:23 24.08.2019
3109 Haze 22 1011 60 5000 3.1 310 05:40 24.08.2019
3110 Clear 22 1011 64 6000 2.1 310 03:51 24.08.2019
3111 Clear 23 1011 83 6000 2.6 270 03:32 24.08.2019
3112 Clear 23 1011 60 6000 5.07 314.241 02:24 24.08.2019
3113 Clear 24 1011 57 6000 1.5 30 01:30 24.08.2019
3114 Clear 24 1011 50 6000 2.1 320 00:49 24.08.2019
3115 Clear 24 1011 50 6000 2.1 320 00:24 24.08.2019
3116 Clear 25 1011 47 6000 5.53 304.176 23:49 23.08.2019
3117 Clear 25 1011 47 6000 5.53 304.176 23:24 23.08.2019
3118 Clear 26 1011 39 6000 1.5 350 22:59 23.08.2019
3119 Clear 26 1011 39 6000 1.5 350 22:41 23.08.2019
3120 Clear 26 1011 39 6000 1.5 350 22:20 23.08.2019
3121 Clear 27 1011 37 6000 1.5 350 21:38 23.08.2019
3122 Clear 27 1011 37 6000 1.5 350 21:20 23.08.2019
3123 Haze 28 1011 35 5000 8.46 345.049 20:55 23.08.2019
3124 Haze 28 1011 35 5000 8.46 345.049 20:37 23.08.2019
3125 Haze 28 1011 35 5000 8.46 345.049 20:18 23.08.2019
3126 Clear 32 1010 2 6000 2.1 320 19:42 23.08.2019
3127 Clear 32 1010 2 6000 2.1 320 19:18 23.08.2019
3128 Clear 34 1010 35 6000 2.6 320 18:44 23.08.2019
3129 Clear 34 1010 35 6000 2.6 320 18:44 23.08.2019
3130 Clear 34 1010 35 6000 2.6 320 18:26 23.08.2019
3131 Clear 36 1011 26 6000 4.6 340 17:54 23.08.2019
3132 Clear 36 1011 26 6000 4.6 340 17:36 23.08.2019
3133 Clear 36 1011 26 6000 4.6 340 17:18 23.08.2019
3134 Clear 37 1010 21 6000 4.6 330 16:44 23.08.2019
3135 Clear 37 1010 21 6000 4.6 330 16:25 23.08.2019
3136 Clear 37 1011 24 6000 4.1 330 15:55 23.08.2019
3137 Clear 37 1011 24 6000 4.1 330 15:36 23.08.2019
3138 Clear 37 1011 24 6000 4.1 330 15:18 23.08.2019
3139 Clear 37 1011 20 6000 4.6 330 14:41 23.08.2019
3140 Clear 37 1011 20 6000 4.6 330 14:21 23.08.2019
3141 Haze 35 1011 23 5000 5.1 330 13:57 23.08.2019
3142 Haze 35 1011 23 5000 5.1 330 13:39 23.08.2019
3143 Haze 35 1011 23 5000 5.1 330 13:20 23.08.2019
3144 Haze 34 1012 23 5000 3.13 301.005 12:57 23.08.2019
3145 Haze 34 1012 23 5000 3.13 301.005 12:38 23.08.2019
3146 Haze 34 1012 23 5000 1.51 344.237 12:20 23.08.2019
3147 Haze 33 1012 24 5000 1.51 344.237 11:55 23.08.2019
3148 Haze 33 1012 24 5000 1.51 344.237 11:55 23.08.2019
3149 Haze 33 1012 24 5000 1.51 344.237 11:36 23.08.2019
3150 Haze 33 1012 24 5000 1.51 344.237 11:18 23.08.2019
3151 Haze 32 1012 22 5000 2.1 30 10:42 23.08.2019
3152 Haze 32 1012 22 5000 2.1 30 10:21 23.08.2019
3153 Haze 30 1012 30 5000 1.5 60 09:57 23.08.2019
3154 Haze 30 1012 30 5000 1.5 60 09:38 23.08.2019
3155 Haze 30 1012 30 5000 1.5 60 09:18 23.08.2019
3156 Smoke 26 1012 34 4000 1.5 60 08:41 23.08.2019
3157 Smoke 26 1012 34 4000 1.5 60 08:19 23.08.2019
3158 Haze 24 1012 31 4000 5.69 324.68 07:43 23.08.2019
3159 Haze 24 1012 31 4000 5.69 324.68 07:24 23.08.2019
3160 Haze 24 1012 31 4000 5.69 324.68 07:24 23.08.2019
3161 Haze 19 1012 46 5000 5.69 324.68 06:57 23.08.2019
3162 Haze 19 1012 46 5000 5.69 324.68 06:38 23.08.2019
3163 Haze 19 1012 46 5000 3.92 302.721 06:20 23.08.2019
3164 Haze 20 1012 43 6000 3.92 302.721 05:34 23.08.2019
3165 Clear 20 1012 43 6000 3.92 302.721 04:52 23.08.2019
3166 Clear 21 1012 43 6000 2.84 339.756 03:21 23.08.2019
3167 Clear 22 1012 38 6000 2.84 339.756 02:23 23.08.2019
3168 Clear 23 1012 41 6000 2.84 339.756 01:40 23.08.2019
3169 Clear 23 1012 47 6000 2.72 335.039 00:45 23.08.2019
3170 Clear 23 1012 47 6000 7.46 324.874 00:21 23.08.2019
3171 Clear 24 1012 41 6000 2.1 320 23:50 22.08.2019
3172 Clear 24 1012 41 6000 2.1 320 23:32 22.08.2019
3173 Clear 24 1013 44 6000 2.1 320 22:58 22.08.2019
3174 Clear 24 1013 44 6000 2.1 320 22:40 22.08.2019
3175 Clear 24 1013 44 6000 2.1 320 22:21 22.08.2019
3176 Clear 26 1012 47 6000 2.1 320 21:57 22.08.2019
3177 Clear 26 1012 47 6000 2.1 320 21:39 22.08.2019
3178 Clear 26 1012 47 6000 2.1 320 21:19 22.08.2019
3179 Clear 27 1012 50 6000 2.6 340 20:57 22.08.2019
3180 Clear 27 1012 50 6000 2.6 340 20:38 22.08.2019
3181 Clear 27 1012 50 6000 2.6 340 20:18 22.08.2019
3182 Clear 27 1012 50 6000 2.6 340 20:18 22.08.2019
3183 Clear 28 1012 50 6000 2.6 340 19:56 22.08.2019
3184 Clear 29 1012 39 6000 3.6 320 19:37 22.08.2019
3185 Clear 29 1012 39 6000 3.6 320 19:19 22.08.2019
3186 Clear 31 1012 35 6000 3.6 310 18:56 22.08.2019
3187 Clear 31 1012 35 6000 3.6 310 18:37 22.08.2019
3188 Clear 31 1012 35 6000 3.6 310 18:18 22.08.2019
3189 Clear 34 1012 26 6000 4.1 320 17:42 22.08.2019
3190 Clear 34 1012 19 6000 4.1 320 17:23 22.08.2019
3191 Clear 34 1012 19 6000 4.1 320 16:58 22.08.2019
3192 Clear 34 1012 19 6000 4.1 320 16:40 22.08.2019
3193 Clear 34 1012 19 6000 4.1 320 16:21 22.08.2019
3194 Clear 34 1012 19 6000 4.1 320 16:21 22.08.2019
3195 Clear 35 1013 20 6000 4.1 320 15:59 22.08.2019
3196 Clear 35 1013 20 6000 4.1 320 15:39 22.08.2019
3197 Clear 35 1013 20 6000 4.1 320 15:39 22.08.2019
3198 Clear 35 1013 20 6000 4.1 320 15:20 22.08.2019
3199 Clear 35 1013 20 6000 4.1 320 15:20 22.08.2019
3200 Clear 34 1012 17 7000 5.1 250 14:56 22.08.2019
3201 Clear 35 1013 24 6000 3.1 340 14:38 22.08.2019
3202 Clear 35 1013 24 6000 3.1 340 14:18 22.08.2019
3203 Clear 35 1013 24 6000 3.1 340 14:18 22.08.2019
3204 Clear 35 1013 17 7000 3.1 340 13:55 22.08.2019
3205 Clear 35 1013 17 7000 3.1 340 13:36 22.08.2019
3206 Clear 35 1013 17 7000 3.1 340 13:18 22.08.2019
3207 Clear 33 1013 22 8000 2.1 60 12:40 22.08.2019
3208 Clear 33 1013 22 8000 2.1 60 12:21 22.08.2019
3209 Clear 31 1014 27 8000 1 50 11:55 22.08.2019
3210 Clear 31 1014 27 8000 1 50 11:36 22.08.2019
3211 Clear 31 1014 27 8000 1 50 11:18 22.08.2019
3212 Clear 29 1014 30 7000 2.6 40 10:57 22.08.2019
3213 Clear 29 1014 30 7000 2.6 40 10:36 22.08.2019
3214 Clear 29 1014 30 7000 2.6 40 10:18 22.08.2019
3215 Clear 26 1014 34 7000 1.5 30 09:40 22.08.2019
3216 Clear 26 1014 34 7000 1.5 30 09:21 22.08.2019
3217 Clear 26 1014 34 7000 1.5 30 08:59 22.08.2019
3218 Haze 23 1014 41 5000 2.77 340.571 08:40 22.08.2019
3219 Haze 23 1014 41 5000 2.77 340.571 08:21 22.08.2019
3220 Haze 21 1014 43 5000 2.77 340.571 07:43 22.08.2019
3221 Haze 21 1014 43 5000 2.77 340.571 07:24 22.08.2019
3222 Haze 18 1014 40 5000 2.77 340.571 06:59 22.08.2019
3223 Haze 21 1014 40 5000 2.77 340.571 06:41 22.08.2019
3224 Haze 21 1014 40 5000 3.84 323.494 06:19 22.08.2019
3225 Clear 18 1011 68 0 3.84 323.494 04:42 22.08.2019
3226 Clear 19 1011 62 0 4.35 316.138 03:20 22.08.2019
3227 Clear 19 1014 63 8000 1.5 340 02:35 22.08.2019
3228 Haze 20 1014 63 8000 1.5 340 01:30 22.08.2019
3229 Haze 20 1014 49 5000 4.15 318.644 00:50 22.08.2019
3230 Haze 21 1014 60 8000 1.5 340 00:30 22.08.2019
3231 Haze 21 1015 49 5000 1.5 330 23:59 21.08.2019
3232 Haze 21 1015 49 5000 1.5 330 23:39 21.08.2019
3233 Haze 21 1015 49 5000 1.5 330 23:21 21.08.2019
3234 Haze 22 1015 53 5000 4.53 330.76 22:57 21.08.2019
3235 Haze 22 1015 53 5000 4.53 330.76 22:39 21.08.2019
3236 Haze 22 1015 53 5000 4.53 330.76 22:20 21.08.2019
3237 Haze 23 1015 49 5000 1.5 330 21:55 21.08.2019
3238 Haze 23 1015 49 5000 1.5 330 21:37 21.08.2019
3239 Haze 23 1015 49 5000 1.5 330 21:37 21.08.2019
3240 Haze 23 1015 49 5000 1.5 330 21:18 21.08.2019
3241 Haze 24 1015 44 5000 4.1 320 20:44 21.08.2019
3242 Haze 24 1015 44 5000 4.1 320 20:25 21.08.2019
3243 Haze 27 1014 47 5000 3.6 330 20:00 21.08.2019
3244 Haze 27 1014 47 5000 3.6 330 19:41 21.08.2019
3245 Haze 27 1014 47 5000 3.6 330 19:23 21.08.2019
3246 Haze 28 1014 47 5000 3.6 330 18:56 21.08.2019
3247 Haze 28 1014 47 5000 3.6 330 18:56 21.08.2019
3248 Haze 28 1014 42 5000 5.1 330 18:38 21.08.2019
3249 Haze 28 1014 42 5000 5.1 330 18:20 21.08.2019
3250 Haze 31 1014 39 5000 5.7 320 17:44 21.08.2019
3251 Haze 31 1014 39 5000 5.7 320 17:22 21.08.2019
3252 Haze 31 1014 33 5000 4.1 340 16:57 21.08.2019
3253 Haze 31 1014 33 5000 4.1 340 16:39 21.08.2019
3254 Haze 31 1014 33 5000 4.1 340 16:18 21.08.2019
3255 Haze 32 1014 35 5000 5.1 330 15:56 21.08.2019
3256 Haze 32 1014 35 5000 5.1 330 15:38 21.08.2019
3257 Haze 32 1014 35 5000 5.1 330 15:18 21.08.2019
3258 Haze 31 1015 37 5000 5.7 320 14:55 21.08.2019
3259 Haze 31 1015 37 5000 5.7 320 14:54 21.08.2019
3260 Haze 31 1015 37 5000 5.7 320 14:36 21.08.2019
3261 Haze 31 1015 37 5000 5.7 320 14:18 21.08.2019
3262 Clear 30 1015 39 6000 5.1 340 13:43 21.08.2019
3263 Clear 30 1015 39 6000 5.1 340 13:20 21.08.2019
3264 Clear 30 1015 35 6000 5.1 300 12:58 21.08.2019
3265 Clear 30 1015 35 6000 5.1 300 12:40 21.08.2019
3266 Clear 30 1015 35 6000 5.1 300 12:20 21.08.2019
3267 Clear 29 1016 37 6000 4.1 300 11:54 21.08.2019
3268 Clear 29 1016 37 6000 4.1 300 11:36 21.08.2019
3269 Clear 29 1016 37 6000 4.1 300 11:18 21.08.2019
3270 Haze 28 1016 42 5000 4.1 330 10:55 21.08.2019
3271 Haze 28 1016 42 5000 4.1 330 10:37 21.08.2019
3272 Haze 28 1016 42 5000 4.1 330 10:37 21.08.2019
3273 Haze 28 1016 42 5000 4.1 330 10:18 21.08.2019
3274 Haze 28 1016 42 5000 4.1 330 10:18 21.08.2019
3275 Haze 26 1016 50 5000 5.7 340 09:41 21.08.2019
3276 Haze 26 1016 50 5000 5.7 340 09:22 21.08.2019
3277 Haze 22 1015 64 5000 5.7 310 08:56 21.08.2019
3278 Haze 22 1015 64 5000 5.7 310 08:37 21.08.2019
3279 Haze 22 1015 64 5000 5.7 310 08:19 21.08.2019
3280 Haze 20 1015 73 5000 2.1 300 07:39 21.08.2019
3281 Haze 20 1015 73 5000 2.1 300 07:20 21.08.2019
3282 Haze 20 1015 73 5000 2.1 300 06:46 21.08.2019
3283 Haze 18 1015 82 4000 2.1 280 06:20 21.08.2019
3284 Haze 17 1015 77 5000 2.6 320 05:31 21.08.2019
3285 Haze 17 1015 77 5000 2.6 320 04:59 21.08.2019
3286 Clear 20 1014 68 6000 2.6 330 02:55 21.08.2019
3287 Clear 20 1014 68 6000 2.1 330 01:42 21.08.2019
3288 Haze 20 1015 73 5000 2.6 330 00:43 21.08.2019
3289 Haze 20 1015 73 5000 2.6 330 00:23 21.08.2019
3290 Haze 21 1015 64 5000 4.1 340 23:56 20.08.2019
3291 Haze 21 1015 64 5000 4.1 340 23:38 20.08.2019
3292 Haze 21 1015 64 5000 4.1 340 23:18 20.08.2019
3293 Haze 22 1015 78 5000 4.1 310 22:55 20.08.2019
3294 Haze 22 1015 78 5000 4.1 310 22:36 20.08.2019
3295 Haze 22 1015 78 5000 4.1 310 22:18 20.08.2019
3296 Haze 23 1015 69 5000 3.1 310 21:56 20.08.2019
3297 Haze 23 1015 69 5000 3.1 310 21:37 20.08.2019
3298 Haze 23 1015 69 5000 3.1 310 21:18 20.08.2019
3299 Haze 24 1015 60 5000 6.2 320 20:42 20.08.2019
3300 Haze 24 1015 60 5000 6.2 320 20:42 20.08.2019
3301 Haze 24 1015 60 5000 6.2 320 20:24 20.08.2019
3302 Clouds 26 1015 53 6000 6.2 300 19:54 20.08.2019
3303 Clouds 26 1015 53 6000 6.2 300 19:36 20.08.2019
3304 Clouds 26 1015 53 6000 6.2 300 19:18 20.08.2019
3305 Clouds 28 1014 47 6000 6.2 310 18:55 20.08.2019
3306 Clouds 28 1014 47 6000 6.2 310 18:55 20.08.2019
3307 Clear 28 1014 45 7000 6.2 290 18:36 20.08.2019
3308 Clear 29 1014 45 7000 6.2 290 18:18 20.08.2019
3309 Clear 29 1014 39 6000 6.2 290 17:39 20.08.2019
3310 Clear 29 1014 39 6000 6.2 290 17:20 20.08.2019
3311 Clouds 30 1014 37 6000 5.7 330 16:48 20.08.2019
3312 Clouds 30 1014 37 6000 5.7 330 16:28 20.08.2019
3313 Clouds 30 1014 37 6000 5.7 330 15:59 20.08.2019
3314 Clouds 31 1014 28 6000 3.6 260 15:41 20.08.2019
3315 Clouds 31 1014 25 6000 4.1 260 15:18 20.08.2019
3316 Clouds 31 1014 25 6000 4.1 260 14:56 20.08.2019
3317 Clouds 31 1014 25 6000 4.1 260 14:38 20.08.2019
3318 Clear 30 1014 22 7000 6.2 280 14:18 20.08.2019
3319 Clear 30 1014 22 7000 6.2 280 13:55 20.08.2019
3320 Clear 30 1014 22 6000 5.1 230 13:36 20.08.2019
3321 Clear 30 1014 22 6000 5.1 230 13:18 20.08.2019
3322 Haze 30 1014 28 5000 4.1 270 12:45 20.08.2019
3323 Haze 30 1014 28 5000 4.1 270 12:24 20.08.2019
3324 Haze 29 1014 28 5000 4.1 270 11:56 20.08.2019
3325 Haze 28 1014 32 5000 4.1 270 11:38 20.08.2019
3326 Haze 27 1015 39 5000 3.6 300 11:18 20.08.2019
3327 Haze 27 1015 39 5000 3.6 300 10:56 20.08.2019
3328 Haze 27 1015 39 5000 3.6 300 10:37 20.08.2019
3329 Haze 27 1015 39 5000 3.6 300 10:18 20.08.2019
3330 Haze 25 1015 41 5000 3.6 260 09:41 20.08.2019
3331 Haze 25 1015 41 5000 3.6 260 09:22 20.08.2019
3332 Haze 23 1014 53 5000 3.6 260 08:43 20.08.2019
3333 Haze 23 1014 53 5000 3.6 260 08:43 20.08.2019
3334 Haze 23 1014 53 5000 3.6 260 08:24 20.08.2019
3335 Haze 23 1014 53 5000 3.6 260 08:24 20.08.2019
3336 Haze 23 1014 53 5000 3.6 260 07:58 20.08.2019
3337 Haze 22 1014 56 4000 2.1 250 07:40 20.08.2019
3338 Haze 22 1014 56 4000 2.1 250 07:22 20.08.2019
3339 Haze 19 1014 56 4000 2.1 250 06:48 20.08.2019
3340 Haze 19 1014 56 4000 2.1 250 06:22 20.08.2019
3341 Clear 18 1014 64 6000 2.1 250 05:48 20.08.2019
3342 Clear 18 1014 64 6000 2.1 250 04:56 20.08.2019
3343 Clear 20 1013 53 6000 3.1 260 03:28 20.08.2019
3344 Clear 20 1013 53 6000 3.1 260 02:34 20.08.2019
3345 Clear 21 1014 53 6000 1 320 01:24 20.08.2019
3346 Clear 21 1014 68 6000 2.6 320 00:50 20.08.2019
3347 Clear 21 1014 68 6000 2.6 320 00:31 20.08.2019
3348 Clear 22 1014 68 6000 2.6 320 23:56 19.08.2019
3349 Clear 22 1014 68 6000 2.6 330 23:37 19.08.2019
3350 Clear 23 1014 68 6000 2.6 330 23:18 19.08.2019
3351 Clear 23 1014 69 6000 2.1 330 22:41 19.08.2019
3352 Clear 23 1014 69 6000 2.1 330 22:21 19.08.2019
3353 Clear 23 1014 69 6000 2.1 330 21:58 19.08.2019
3354 Clear 24 1013 60 6000 3.1 310 21:39 19.08.2019
3355 Clear 24 1013 60 6000 3.1 310 21:20 19.08.2019
3356 Clear 24 1013 60 6000 3.1 310 21:20 19.08.2019
3357 Clear 25 1013 60 6000 3.1 310 20:59 19.08.2019
3358 Clear 25 1013 64 6000 3.1 320 20:39 19.08.2019
3359 Clear 25 1013 64 6000 3.1 320 20:20 19.08.2019
3360 Clear 25 1013 64 6000 3.1 320 19:58 19.08.2019
3361 Clear 27 1013 61 6000 5.1 330 19:39 19.08.2019
3362 Clear 27 1013 61 6000 5.1 330 19:19 19.08.2019
3363 Clear 29 1012 35 6000 3.6 260 18:45 19.08.2019
3364 Clear 29 1012 35 6000 3.6 260 18:27 19.08.2019
3365 Clear 29 1012 35 6000 3.6 260 17:59 19.08.2019
3366 Clear 30 1012 33 6000 3.6 260 17:41 19.08.2019
3367 Clear 30 1012 33 6000 3.6 260 17:20 19.08.2019
3368 Clear 31 1012 22 6000 2.6 300 16:58 19.08.2019
3369 Clear 31 1012 22 6000 2.6 300 16:37 19.08.2019
3370 Clear 31 1012 22 6000 2.6 300 16:19 19.08.2019
3371 Clear 32 1012 22 6000 2.6 300 15:55 19.08.2019
3372 Clear 32 1012 22 6000 2.6 300 15:36 19.08.2019
3373 Clear 32 1012 22 6000 2.6 300 15:18 19.08.2019
3374 Clear 32 1012 16 6000 2.6 300 14:40 19.08.2019
3375 Clear 32 1012 16 6000 2.6 300 14:21 19.08.2019
3376 Clear 30 1013 20 6000 3.6 240 13:57 19.08.2019
3377 Clear 30 1013 20 6000 3.6 240 13:38 19.08.2019
3378 Clear 30 1013 20 6000 3.6 240 13:19 19.08.2019
3379 Haze 30 1013 26 7000 3.6 260 12:45 19.08.2019
3380 Haze 30 1013 26 7000 3.6 260 12:24 19.08.2019
3381 Haze 28 1012 28 7000 2.6 260 11:59 19.08.2019
3382 Haze 28 1012 28 7000 2.6 260 11:39 19.08.2019
3383 Haze 28 1012 28 7000 2.6 260 11:20 19.08.2019
3384 Haze 27 1013 32 7000 2.6 260 10:55 19.08.2019
3385 Haze 27 1013 32 7000 2.6 260 10:37 19.08.2019
3386 Haze 27 1013 32 7000 2.6 260 10:18 19.08.2019
3387 Haze 25 1013 44 6000 1.5 250 09:43 19.08.2019
3388 Haze 25 1013 44 6000 1.5 250 09:22 19.08.2019
3389 Haze 22 1013 64 5000 3.85 311.439 08:56 19.08.2019
3390 Haze 22 1013 64 5000 3.85 311.439 08:38 19.08.2019
3391 Haze 22 1013 64 5000 3.85 311.439 08:18 19.08.2019
3392 Haze 20 1013 64 5000 3.85 311.439 07:44 19.08.2019
3393 Haze 20 1012 68 3500 1.5 340 07:26 19.08.2019
3394 Haze 17 1012 77 3000 1.5 340 06:47 19.08.2019
3395 Haze 17 1012 77 3000 1.5 340 06:25 19.08.2019
3396 Clear 21 1011 64 6000 0.5 340 04:56 19.08.2019
3397 Clear 18 1011 64 6000 0.5 340 04:25 19.08.2019
3398 Clear 18 1011 88 6000 4.51 322.375 03:21 19.08.2019
3399 Clear 18 1011 82 6000 2.1 340 02:23 19.08.2019
3400 Haze 19 1011 77 5000 3.1 340 01:31 19.08.2019
3401 Haze 20 1011 73 5000 2.1 320 00:43 19.08.2019
3402 Haze 20 1011 73 5000 2.1 320 00:23 19.08.2019
3403 Haze 21 1011 68 5000 2.1 310 23:42 18.08.2019
3404 Haze 21 1011 68 5000 2.1 310 23:21 18.08.2019
3405 Haze 22 1011 68 5000 3.1 320 22:56 18.08.2019
3406 Haze 22 1011 68 5000 3.1 320 22:38 18.08.2019
3407 Haze 22 1011 68 5000 3.1 320 22:20 18.08.2019
3408 Clear 23 1011 64 6000 5.1 330 21:55 18.08.2019
3409 Clear 23 1011 64 6000 5.1 330 21:37 18.08.2019
3410 Clear 23 1011 64 6000 5.1 330 21:18 18.08.2019
3411 Clear 24 1011 60 6000 4.1 270 20:43 18.08.2019
3412 Clear 24 1011 60 6000 4.1 270 20:25 18.08.2019
3413 Haze 26 1011 57 5000 2.1 310 19:55 18.08.2019
3414 Haze 26 1011 57 5000 2.1 310 19:37 18.08.2019
3415 Haze 26 1011 57 5000 2.1 310 19:19 18.08.2019
3416 Haze 27 1011 54 5000 5.1 240 18:41 18.08.2019
3417 Haze 27 1011 54 5000 5.1 240 18:23 18.08.2019
3418 Haze 29 1011 45 5000 4.6 260 17:59 18.08.2019
3419 Haze 29 1011 45 5000 4.6 260 17:41 18.08.2019
3420 Haze 29 1011 45 5000 4.6 260 17:19 18.08.2019
3421 Haze 31 1011 40 5000 6.2 280 16:57 18.08.2019
3422 Haze 31 1011 40 5000 6.2 280 16:38 18.08.2019
3423 Haze 31 1011 40 5000 6.2 280 16:20 18.08.2019
3424 Haze 31 1010 37 5000 6.7 300 15:57 18.08.2019
3425 Haze 31 1010 37 5000 6.7 300 15:38 18.08.2019
3426 Haze 31 1010 37 5000 6.7 300 15:20 18.08.2019
3427 Clouds 30 1011 35 6000 5.1 300 14:56 18.08.2019
3428 Clouds 30 1011 35 6000 5.1 300 14:37 18.08.2019
3429 Clouds 30 1011 35 6000 5.1 300 14:18 18.08.2019
3430 Clouds 30 1011 37 6000 5.1 280 13:43 18.08.2019
3431 Clouds 30 1011 37 6000 5.1 280 13:24 18.08.2019
3432 Clear 29 1010 35 7000 6.2 300 12:59 18.08.2019
3433 Clouds 29 1011 37 6000 4.6 270 12:39 18.08.2019
3434 Clouds 29 1011 37 6000 4.6 270 12:21 18.08.2019
3435 Clouds 29 1011 37 6000 4.6 270 12:21 18.08.2019
3436 Clouds 28 1011 44 6000 4.1 260 11:44 18.08.2019
3437 Clouds 28 1011 44 6000 4.1 260 11:23 18.08.2019
3438 Haze 26 1011 44 5000 3.1 300 10:59 18.08.2019
3439 Haze 26 1011 44 5000 3.1 300 10:40 18.08.2019
3440 Haze 26 1011 44 5000 3.1 300 10:40 18.08.2019
3441 Haze 26 1011 44 5000 3.1 300 10:19 18.08.2019
3442 Haze 25 1011 53 5000 3.6 270 09:48 18.08.2019
3443 Haze 25 1011 53 5000 3.6 270 09:21 18.08.2019
3444 Haze 24 1011 61 6000 4.1 280 08:54 18.08.2019
3445 Haze 23 1011 69 5000 3.6 260 08:36 18.08.2019
3446 Haze 23 1011 69 5000 3.6 260 08:18 18.08.2019
3447 Haze 21 1011 78 5000 3.6 260 07:43 18.08.2019
3448 Haze 21 1011 78 5000 3.6 260 07:24 18.08.2019
3449 Mist 19 1011 82 4000 3.1 280 05:47 18.08.2019
3450 Haze 19 1011 82 5000 2.6 320 04:52 18.08.2019
3451 Haze 20 1011 82 5000 4.1 280 03:36 18.08.2019
3452 Clear 20 1011 68 6000 5.1 290 02:46 18.08.2019
3453 Clear 20 1011 68 6000 5.1 290 02:23 18.08.2019
3454 Clear 21 1011 53 6000 3.6 260 01:30 18.08.2019
3455 Clear 22 1011 77 7000 2.6 310 00:56 18.08.2019
3456 Clear 21 1011 53 6000 3.6 250 00:37 18.08.2019
3457 Clear 21 1011 53 6000 3.6 250 00:18 18.08.2019
3458 Clear 21 1011 53 6000 2.6 310 23:56 17.08.2019
3459 Clear 21 1011 53 6000 2.6 310 23:36 17.08.2019
3460 Clear 21 1011 53 6000 2.6 310 23:18 17.08.2019
3461 Clear 23 1011 56 6000 1.5 270 22:42 17.08.2019
3462 Clear 23 1011 56 6000 1.5 270 22:23 17.08.2019
3463 Clear 23 1011 69 6000 2.1 330 21:59 17.08.2019
3464 Clear 23 1011 69 6000 2.1 330 21:40 17.08.2019
3465 Clear 23 1011 69 6000 2.1 330 21:40 17.08.2019
3466 Clear 23 1011 69 6000 2.1 330 21:22 17.08.2019
3467 Clear 25 1011 64 6000 4.1 320 20:40 17.08.2019
3468 Clear 25 1011 64 6000 4.1 320 20:21 17.08.2019
3469 Clear 25 1011 64 6000 4.1 320 20:21 17.08.2019
3470 Clear 27 1011 54 6000 5.1 320 19:59 17.08.2019
3471 Clear 27 1011 54 6000 5.1 320 19:40 17.08.2019
3472 Clear 27 1011 54 6000 5.1 320 19:21 17.08.2019
3473 Haze 28 1011 42 5000 6.2 290 18:54 17.08.2019
3474 Haze 28 1011 42 5000 6.2 290 18:36 17.08.2019
3475 Haze 28 1011 42 5000 6.2 290 18:18 17.08.2019
3476 Haze 30 1011 39 5000 7.2 290 17:41 17.08.2019
3477 Haze 30 1011 39 5000 7.2 290 17:21 17.08.2019
3478 Haze 30 1011 39 5000 7.2 290 17:21 17.08.2019
3479 Clouds 32 1011 35 6000 7.2 290 16:55 17.08.2019
3480 Clouds 32 1011 35 6000 7.2 290 16:36 17.08.2019
3481 Clouds 32 1011 35 6000 7.2 290 16:18 17.08.2019
3482 Clouds 32 1012 33 6000 7.2 290 15:42 17.08.2019
3483 Clouds 32 1012 33 6000 7.2 290 15:21 17.08.2019
3484 Clouds 33 1012 33 6000 9.3 280 14:57 17.08.2019
3485 Clouds 33 1012 33 6000 9.3 280 14:38 17.08.2019
3486 Clouds 33 1012 33 6000 9.3 280 14:19 17.08.2019
3487 Haze 32 1012 33 5000 6.2 320 13:43 17.08.2019
3488 Haze 32 1012 33 5000 6.2 320 13:19 17.08.2019
3489 Clear 31 1012 35 6000 4.6 320 12:43 17.08.2019
3490 Clear 31 1012 35 6000 4.6 320 12:20 17.08.2019
3491 Clear 31 1012 33 6000 4.6 320 11:58 17.08.2019
3492 Clear 31 1012 33 6000 4.6 320 11:38 17.08.2019
3493 Clear 31 1012 33 6000 4.6 320 11:19 17.08.2019
3494 Clear 30 1012 37 6000 5.1 300 10:41 17.08.2019
3495 Clear 30 1012 37 6000 5.1 300 10:21 17.08.2019
3496 Haze 29 1012 26 5000 5.7 260 09:57 17.08.2019
3497 Haze 29 1012 26 5000 5.7 260 09:37 17.08.2019
3498 Haze 29 1012 26 5000 5.7 260 09:18 17.08.2019
3499 Haze 27 1012 36 5000 2.6 250 08:46 17.08.2019
3500 Haze 27 1012 36 5000 2.6 250 08:20 17.08.2019
3501 Haze 24 1012 36 5000 2.6 250 07:42 17.08.2019
3502 Haze 23 1013 41 5000 1.5 260 07:20 17.08.2019
3503 Haze 20 1012 53 5000 1.5 300 06:25 17.08.2019
3504 Haze 24 1012 27 5000 4.1 230 04:36 17.08.2019
3505 Haze 20 1012 27 5000 4.1 230 04:18 17.08.2019
3506 Haze 21 1012 27 5000 2.1 320 02:38 17.08.2019
3507 Haze 22 1012 27 5000 1.5 320 01:39 17.08.2019
3508 Haze 22 1012 27 5000 1.5 320 01:20 17.08.2019
3509 Haze 24 1012 25 5000 2.1 330 00:46 17.08.2019
3510 Haze 24 1012 25 5000 2.1 330 00:24 17.08.2019
3511 Haze 24 1012 31 5000 2.6 270 23:46 16.08.2019
3512 Haze 24 1012 31 5000 2.6 270 23:25 16.08.2019
3513 Haze 24 1012 31 5000 4.1 330 22:43 16.08.2019
3514 Haze 24 1012 31 5000 4.1 330 22:20 16.08.2019
3515 Haze 26 1012 31 5000 1.5 340 21:59 16.08.2019
3516 Haze 26 1012 31 5000 1.5 340 21:39 16.08.2019
3517 Haze 26 1012 31 5000 1.5 340 21:19 16.08.2019
3518 Haze 28 1012 24 5000 3.6 300 20:43 16.08.2019
3519 Haze 28 1012 24 5000 3.6 300 20:21 16.08.2019
3520 Haze 29 1012 34 6000 3.1 280 19:59 16.08.2019
3521 Haze 29 1012 26 5000 3.1 310 19:39 16.08.2019
3522 Haze 29 1012 26 5000 3.1 310 19:20 16.08.2019
3523 Dust 32 1012 22 5000 4.1 330 18:42 16.08.2019
3524 Dust 32 1012 22 5000 4.1 330 18:42 16.08.2019
3525 Dust 32 1012 22 5000 4.1 330 18:42 16.08.2019
3526 Dust 32 1012 22 5000 4.1 330 18:23 16.08.2019
3527 Dust 34 1012 18 5000 8.7 290 17:48 16.08.2019
3528 Dust 34 1012 18 5000 8.7 290 17:30 16.08.2019
3529 Dust 34 1012 18 5000 8.7 290 17:30 16.08.2019
3530 Dust 35 1012 17 5000 8.2 280 16:59 16.08.2019
3531 Dust 35 1012 17 5000 8.2 280 16:41 16.08.2019
3532 Dust 35 1012 17 5000 8.2 280 16:21 16.08.2019
3533 Dust 36 1012 13 5000 9.3 280 15:56 16.08.2019
3534 Dust 36 1012 13 5000 9.3 280 15:38 16.08.2019
3535 Dust 36 1012 13 5000 9.3 280 15:20 16.08.2019
3536 Clear 35 1012 19 6000 8.2 290 14:57 16.08.2019
3537 Clear 35 1012 19 6000 8.2 290 14:38 16.08.2019
3538 Clear 35 1012 19 6000 8.2 290 14:18 16.08.2019
3539 Haze 35 1013 13 5000 6.2 270 13:41 16.08.2019
3540 Haze 35 1013 13 5000 6.2 270 13:22 16.08.2019
3541 Haze 35 1013 13 5000 6.2 270 13:22 16.08.2019
3542 Clear 36 1012 12 6000 8.7 250 12:56 16.08.2019
3543 Clear 36 1012 12 6000 8.7 250 12:37 16.08.2019
3544 Haze 34 1012 12 6000 8.7 250 12:19 16.08.2019
3545 Haze 34 1013 16 5000 5.1 270 11:41 16.08.2019
3546 Haze 34 1013 16 5000 5.1 270 11:23 16.08.2019
3547 Clear 32 1013 19 6000 3.6 270 10:43 16.08.2019
3548 Clear 32 1013 19 6000 3.6 270 10:25 16.08.2019
3549 Clear 30 1013 23 6000 3.6 260 09:56 16.08.2019
3550 Clear 30 1013 23 6000 3.6 260 09:37 16.08.2019
3551 Clear 30 1013 23 6000 3.6 260 09:18 16.08.2019
3552 Haze 27 1013 25 5000 3.1 240 08:41 16.08.2019
3553 Haze 27 1013 25 5000 3.1 240 08:21 16.08.2019
3554 Haze 24 1013 34 5000 2.69 184.647 07:53 16.08.2019
3555 Haze 24 1013 34 5000 2.69 184.647 07:32 16.08.2019
3556 Haze 21 1013 40 5000 2.1 320 06:57 16.08.2019
3557 Haze 20 1013 40 5000 2.1 320 06:31 16.08.2019
3558 Clear 21 1013 40 6000 2.07 232.254 05:41 16.08.2019
3559 Clear 20 1013 40 6000 2.07 232.254 04:28 16.08.2019
3560 Clear 21 1013 38 6000 1.06 278.336 02:40 16.08.2019
3561 Clear 21 1014 40 6000 1.44 256.668 01:33 16.08.2019
3562 Clear 21 1014 46 6000 1.44 256.668 00:59 16.08.2019
3563 Clear 23 1014 46 6000 1.44 256.668 00:40 16.08.2019
3564 Clear 22 1014 46 6000 1.94 317.752 00:21 16.08.2019
3565 Clear 24 1014 44 6000 1.94 317.752 23:44 15.08.2019
3566 Clear 23 1014 44 6000 1.94 317.752 23:22 15.08.2019
3567 Clear 23 1014 44 6000 1.94 317.752 22:58 15.08.2019
3568 Clear 23 1015 41 6000 1.94 317.752 22:39 15.08.2019
3569 Clear 23 1015 41 6000 1.94 317.752 22:39 15.08.2019
3570 Clear 23 1015 41 6000 1.94 317.752 22:39 15.08.2019
3571 Clear 23 1015 41 6000 1.94 317.752 22:20 15.08.2019
3572 Clear 24 1014 38 6000 2.15 312.233 21:54 15.08.2019
3573 Clear 24 1014 38 6000 2.15 312.233 21:36 15.08.2019
3574 Clear 24 1014 38 6000 4.56 321.903 21:18 15.08.2019
3575 Clear 26 1014 39 6000 2.1 330 20:42 15.08.2019
3576 Clear 26 1014 39 6000 2.1 330 20:42 15.08.2019
3577 Clear 26 1014 39 6000 2.1 330 20:21 15.08.2019
3578 Clear 28 1014 36 6000 3.6 320 19:57 15.08.2019
3579 Clear 28 1014 36 6000 3.6 320 19:39 15.08.2019
3580 Clear 28 1014 36 6000 3.6 320 19:20 15.08.2019
3581 Clear 28 1013 32 6000 3.6 320 18:47 15.08.2019
3582 Dust 29 1013 32 6000 4.6 320 18:23 15.08.2019
3583 Haze 31 1013 30 5000 7.7 320 17:58 15.08.2019
3584 Haze 31 1013 30 5000 7.7 320 17:38 15.08.2019
3585 Haze 31 1013 30 5000 7.7 320 17:38 15.08.2019
3586 Haze 31 1013 30 5000 7.7 320 17:19 15.08.2019
3587 Haze 31 1013 33 5000 7.2 310 16:56 15.08.2019
3588 Haze 31 1013 33 5000 7.2 310 16:38 15.08.2019
3589 Haze 31 1013 33 5000 7.2 310 16:20 15.08.2019
3590 Haze 31 1013 33 5000 7.2 290 15:38 15.08.2019
3591 Haze 31 1013 33 5000 7.2 290 15:20 15.08.2019
3592 Dust 32 1013 31 5000 8.2 320 14:56 15.08.2019
3593 Dust 32 1013 31 5000 8.2 320 14:37 15.08.2019
3594 Dust 32 1013 31 5000 8.2 320 14:18 15.08.2019
3595 Dust 32 1012 29 5000 8.7 300 13:55 15.08.2019
3596 Dust 32 1012 29 5000 8.7 300 13:55 15.08.2019
3597 Dust 32 1012 29 5000 8.7 300 13:37 15.08.2019
3598 Dust 32 1012 29 5000 8.7 300 13:19 15.08.2019
3599 Dust 32 1012 29 5000 8.7 300 13:19 15.08.2019
3600 Dust 31 1013 22 5000 8.2 330 12:40 15.08.2019
3601 Dust 31 1013 22 5000 8.2 330 12:20 15.08.2019
3602 Clear 31 1013 17 6000 7.2 320 11:58 15.08.2019
3603 Clear 31 1013 17 6000 7.2 320 11:38 15.08.2019
3604 Clear 31 1013 17 6000 7.2 320 11:38 15.08.2019
3605 Clear 31 1013 17 6000 7.2 320 11:20 15.08.2019
3606 Clear 30 1013 25 6000 5.7 310 10:58 15.08.2019
3607 Clear 30 1013 25 6000 5.7 310 10:37 15.08.2019
3608 Clear 30 1013 25 6000 5.7 310 10:18 15.08.2019
3609 Haze 26 1013 42 5000 2.1 260 09:44 15.08.2019
3610 Haze 26 1013 42 5000 2.1 260 09:22 15.08.2019
3611 Haze 23 1012 53 5000 2.6 230 08:54 15.08.2019
3612 Haze 23 1012 53 5000 2.6 230 08:36 15.08.2019
3613 Haze 23 1012 53 5000 2.6 230 08:18 15.08.2019
3614 Haze 20 1013 73 4000 3.6 280 07:40 15.08.2019
3615 Haze 20 1013 73 4000 3.6 280 07:21 15.08.2019
3616 Haze 20 1013 68 5000 1 160 06:52 15.08.2019
3617 Haze 18 1013 73 4000 2.1 280 06:31 15.08.2019
3618 Clear 20 1012 77 6000 2.1 290 05:39 15.08.2019
3619 Clear 20 1012 77 6000 2.1 290 05:19 15.08.2019
3620 Clear 20 1012 45 6000 2.1 290 04:29 15.08.2019
3621 Clear 19 1012 40 6000 3.1 300 03:28 15.08.2019
3622 Clear 20 1012 37 6000 3.1 270 02:35 15.08.2019
3623 Clear 21 1012 33 6000 3.31 300.706 01:45 15.08.2019
3624 Clear 21 1012 33 6000 3.8 294.191 01:26 15.08.2019
3625 Clear 21 1012 37 6000 3.8 294.191 00:39 15.08.2019
3626 Clear 21 1012 37 6000 5.51 322.947 00:20 15.08.2019
3627 Clear 21 1012 38 6000 5.51 322.947 23:57 14.08.2019
3628 Clear 21 1012 38 6000 5.51 322.947 23:37 14.08.2019
3629 Clear 21 1012 38 6000 5.51 322.947 23:19 14.08.2019
3630 Clear 23 1012 29 6000 2.1 320 22:55 14.08.2019
3631 Clear 23 1012 29 6000 2.1 320 22:37 14.08.2019
3632 Clear 23 1012 29 6000 2.1 320 22:18 14.08.2019
3633 Clear 24 1012 31 6000 2.6 320 21:55 14.08.2019
3634 Clear 24 1012 31 6000 2.6 320 21:36 14.08.2019
3635 Clear 24 1012 31 6000 2.6 320 21:18 14.08.2019
3636 Clear 26 1012 36 6000 4.1 320 20:41 14.08.2019
3637 Clear 26 1012 36 6000 4.1 320 20:20 14.08.2019
3638 Clear 27 1012 31 10000 4.6 280 19:56 14.08.2019
3639 Clear 28 1012 28 6000 5.7 300 19:37 14.08.2019
3640 Clear 30 1012 23 6000 6.7 290 19:18 14.08.2019
3641 Clear 30 1012 23 6000 6.7 290 18:56 14.08.2019
3642 Clear 30 1012 23 6000 6.7 290 18:37 14.08.2019
3643 Clear 30 1012 23 6000 6.7 290 18:18 14.08.2019
3644 Clear 32 1011 25 6000 7.2 280 17:55 14.08.2019
3645 Clear 32 1011 25 6000 7.2 280 17:36 14.08.2019
3646 Clear 32 1011 25 6000 7.2 280 17:18 14.08.2019
3647 Clear 33 1011 22 6000 6.7 270 16:41 14.08.2019
3648 Clear 33 1011 22 6000 6.7 270 16:20 14.08.2019
3649 Haze 33 1011 22 5000 7.2 270 15:44 14.08.2019
3650 Haze 33 1011 22 5000 7.2 270 15:44 14.08.2019
3651 Haze 33 1011 22 5000 7.2 270 15:22 14.08.2019
3652 Haze 33 1011 22 5000 7.2 250 14:59 14.08.2019
3653 Haze 33 1011 22 5000 7.2 250 14:39 14.08.2019
3654 Haze 33 1011 22 5000 7.2 250 14:19 14.08.2019
3655 Clear 33 1011 24 6000 7.2 240 13:55 14.08.2019
3656 Clear 33 1011 24 6000 7.2 240 13:37 14.08.2019
3657 Clear 33 1011 24 6000 7.2 240 13:19 14.08.2019
3658 Clear 32 1011 22 6000 7.2 260 12:56 14.08.2019
3659 Clear 32 1011 22 6000 7.2 260 12:37 14.08.2019
3660 Clear 32 1011 22 6000 7.2 260 12:19 14.08.2019
3661 Clear 31 1011 23 6000 7.2 300 11:45 14.08.2019
3662 Clear 31 1011 23 6000 7.2 300 11:23 14.08.2019
3663 Clear 31 1012 22 6000 6.7 290 10:57 14.08.2019
3664 Clear 31 1012 22 6000 6.7 290 10:38 14.08.2019
3665 Clear 31 1012 22 6000 6.7 290 10:20 14.08.2019
3666 Haze 29 1012 20 6000 5.1 260 09:42 14.08.2019
3667 Haze 29 1012 20 6000 5.1 260 09:21 14.08.2019
3668 Haze 29 1012 20 6000 5.1 260 09:21 14.08.2019
3669 Haze 27 1011 28 6000 2.1 310 08:45 14.08.2019
3670 Haze 27 1011 28 6000 2.1 310 08:27 14.08.2019
3671 Clear 23 1011 27 6000 2.6 320 07:57 14.08.2019
3672 Clear 23 1011 27 6000 2.6 320 07:38 14.08.2019
3673 Clear 23 1011 27 6000 2.6 320 07:38 14.08.2019
3674 Clear 23 1011 27 6000 2.6 320 07:19 14.08.2019
3675 Haze 22 1011 25 4000 2.1 320 06:43 14.08.2019
3676 Haze 21 1010 25 5000 2.1 320 05:35 14.08.2019
3677 Clear 22 1010 25 6000 2.1 320 04:43 14.08.2019
3678 Clear 22 1011 26 6000 3.1 320 02:47 14.08.2019
3679 Clear 23 1011 26 6000 3.1 320 02:25 14.08.2019
3680 Clear 23 1010 24 6000 4.1 320 01:30 14.08.2019
3681 Clear 24 1011 21 6000 4.1 320 00:48 14.08.2019
3682 Clear 25 1011 21 6000 3.6 300 23:47 13.08.2019
3683 Clear 25 1011 21 6000 3.6 300 23:21 13.08.2019
3684 Clear 25 1011 26 10000 2.1 330 22:57 13.08.2019
3685 Clear 25 1011 26 10000 2.1 330 22:39 13.08.2019
3686 Clear 25 1011 26 10000 2.1 330 22:20 13.08.2019
3687 Clear 26 1011 32 10000 4.1 340 21:56 13.08.2019
3688 Clear 26 1011 32 10000 4.1 340 21:37 13.08.2019
3689 Clear 26 1011 32 10000 4.1 340 21:18 13.08.2019
3690 Clear 27 1010 28 6000 3.1 330 20:45 13.08.2019
3691 Clear 27 1010 28 6000 3.1 330 20:20 13.08.2019
3692 Clear 30 1010 23 7000 4.1 310 19:58 13.08.2019
3693 Clear 30 1010 23 7000 4.1 310 19:40 13.08.2019
3694 Clear 30 1010 23 7000 4.1 310 19:21 13.08.2019
3695 Clear 31 1010 22 7000 5.1 280 18:42 13.08.2019
3696 Clear 31 1010 22 7000 5.1 280 18:42 13.08.2019
3697 Clear 31 1010 22 7000 5.1 280 18:23 13.08.2019
3698 Clear 32 1010 19 7000 7.2 280 17:58 13.08.2019
3699 Clear 32 1010 19 7000 7.2 280 17:40 13.08.2019
3700 Clear 32 1010 19 7000 7.2 280 17:20 13.08.2019
3701 Clear 33 1010 19 7000 5.7 310 16:56 13.08.2019
3702 Clear 33 1010 19 7000 5.7 310 16:38 13.08.2019
3703 Clear 33 1010 19 7000 5.7 310 16:38 13.08.2019
3704 Clear 33 1010 19 7000 5.7 310 16:19 13.08.2019
3705 Clear 33 1010 19 7000 5.7 310 16:19 13.08.2019
3706 Clear 34 1010 18 6000 6.2 280 15:39 13.08.2019
3707 Clear 34 1010 18 6000 6.2 280 15:20 13.08.2019
3708 Clear 34 1010 15 6000 6.2 310 14:58 13.08.2019
3709 Clear 34 1010 15 6000 6.2 310 14:38 13.08.2019
3710 Clear 34 1010 15 6000 6.2 310 14:19 13.08.2019
3711 Clear 34 1010 15 6000 6.2 310 14:19 13.08.2019
3712 Clear 34 1010 16 7000 8.2 300 13:42 13.08.2019
3713 Clear 34 1010 16 7000 8.2 300 13:23 13.08.2019
3714 Clear 33 1010 14 7000 8.2 300 12:59 13.08.2019
3715 Clear 33 1010 14 7000 8.2 300 12:41 13.08.2019
3716 Clear 33 1010 14 7000 8.2 300 12:22 13.08.2019
3717 Clear 32 1010 15 6000 7.2 290 11:59 13.08.2019
3718 Clear 32 1010 11 7000 8.2 300 11:39 13.08.2019
3719 Clear 32 1010 11 7000 8.2 300 11:20 13.08.2019
3720 Clear 31 1010 14 7000 3.6 280 10:56 13.08.2019
3721 Clear 31 1010 14 7000 3.6 280 10:37 13.08.2019
3722 Clear 31 1010 14 7000 3.6 280 10:19 13.08.2019
3723 Clear 30 1010 15 7000 3.6 280 09:44 13.08.2019
3724 Clear 30 1010 15 7000 3.6 280 09:23 13.08.2019
3725 Clear 30 1010 15 7000 3.6 280 09:23 13.08.2019
3726 Clear 28 1010 17 7000 3.6 280 08:55 13.08.2019
3727 Clear 28 1010 17 7000 3.6 280 08:37 13.08.2019
3728 Clear 28 1010 17 7000 3.6 280 08:18 13.08.2019
3729 Haze 23 1010 22 5000 2.6 270 07:40 13.08.2019
3730 Haze 23 1010 22 5000 2.6 270 07:20 13.08.2019
3731 Haze 22 1010 22 5000 2.6 270 06:43 13.08.2019
3732 Haze 21 1009 25 5000 2.1 280 05:47 13.08.2019
3733 Clear 21 1009 25 8000 1.5 260 04:24 13.08.2019
3734 Clear 22 1010 25 8000 1 260 02:22 13.08.2019
3735 Clear 23 1010 24 8000 1.5 240 01:26 13.08.2019
3736 Clear 24 1010 24 8000 2.6 250 00:48 13.08.2019
3737 Clear 24 1010 24 8000 2.6 250 00:22 13.08.2019
3738 Clear 24 1010 24 8000 3.6 270 23:43 12.08.2019
3739 Clear 24 1010 24 8000 3.6 270 23:21 12.08.2019
3740 Clear 22 1009 52 8000 5.7 260 22:41 12.08.2019
3741 Clear 22 1009 52 8000 5.7 260 22:20 12.08.2019
3742 Clear 25 1010 30 8000 3.1 290 21:57 12.08.2019
3743 Clear 25 1010 30 8000 3.1 290 21:38 12.08.2019
3744 Clear 25 1010 30 8000 3.1 290 21:19 12.08.2019
3745 Clear 27 1009 36 8000 3.1 290 20:59 12.08.2019
3746 Clear 27 1009 36 8000 3.1 290 20:41 12.08.2019
3747 Clear 27 1009 36 8000 3.1 290 20:20 12.08.2019
3748 Clear 28 1009 32 8000 5.1 300 19:57 12.08.2019
3749 Clear 28 1009 32 8000 5.1 300 19:39 12.08.2019
3750 Clear 28 1009 32 8000 5.1 300 19:20 12.08.2019
3751 Haze 30 1009 30 5000 5.1 310 18:58 12.08.2019
3752 Haze 30 1009 30 5000 5.1 310 18:39 12.08.2019
3753 Haze 30 1009 30 5000 5.1 310 18:20 12.08.2019
3754 Dust 31 1009 29 5000 8.2 310 17:55 12.08.2019
3755 Dust 31 1009 29 5000 8.2 310 17:37 12.08.2019
3756 Dust 31 1009 29 5000 8.2 310 17:19 12.08.2019
3757 Dust 32 1009 27 5000 8.7 300 16:40 12.08.2019
3758 Dust 32 1009 27 5000 8.7 300 16:20 12.08.2019
3759 Dust 33 1009 26 5000 9.3 260 15:59 12.08.2019
3760 Dust 33 1009 26 5000 9.3 260 15:59 12.08.2019
3761 Dust 33 1009 26 5000 9.3 260 15:59 12.08.2019
3762 -273 0 0 0 0 0 15:41 12.08.2019
3763 Dust 33 1009 26 5000 9.3 260 15:41 12.08.2019
3764 Dust 33 1009 26 5000 9.3 260 15:22 12.08.2019
3765 Haze 33 1009 19 6000 7.2 300 14:58 12.08.2019
3766 Haze 33 1009 19 6000 7.2 300 14:39 12.08.2019
3767 Haze 33 1009 19 6000 7.2 300 14:39 12.08.2019
3768 -273 0 0 0 0 0 14:39 12.08.2019
3769 Haze 33 1009 19 6000 7.2 300 14:20 12.08.2019
3770 -273 0 0 0 0 0 13:55 12.08.2019
3771 Haze 33 1010 18 7000 6.2 320 13:55 12.08.2019
3772 Haze 33 1010 18 7000 6.2 320 13:55 12.08.2019
3773 Haze 33 1010 18 7000 6.2 320 13:37 12.08.2019
3774 Haze 33 1010 18 7000 6.2 320 13:19 12.08.2019
3775 Haze 32 1010 17 7000 5.1 340 12:43 12.08.2019
3776 Haze 32 1010 17 7000 5.1 340 12:19 12.08.2019
3777 Haze 32 1010 22 7000 5.1 280 11:44 12.08.2019
3778 Haze 32 1010 22 7000 5.1 280 11:26 12.08.2019
3779 Haze 32 1010 22 7000 5.1 280 11:26 12.08.2019
3780 Haze 30 1010 23 7000 5.1 280 10:58 12.08.2019
3781 Haze 30 1010 23 7000 5.1 280 10:40 12.08.2019
3782 Haze 30 1010 23 7000 5.1 280 10:21 12.08.2019
3783 Haze 29 1010 42 7000 4.1 270 09:54 12.08.2019
3784 Haze 29 1010 42 7000 4.1 270 09:36 12.08.2019
3785 Haze 29 1010 42 7000 4.1 270 09:36 12.08.2019
3786 Haze 29 1010 42 7000 4.1 270 09:18 12.08.2019
3787 Haze 29 1010 42 7000 4.1 270 09:18 12.08.2019
3788 Haze 26 1010 34 7000 3.6 240 08:40 12.08.2019
3789 Haze 26 1010 34 7000 3.6 240 08:22 12.08.2019
3790 Haze 26 1010 34 7000 3.6 240 08:22 12.08.2019
3791 Clear 26 1010 29 7000 3.6 240 07:56 12.08.2019
3792 Haze 24 1010 29 7000 3.6 240 07:35 12.08.2019
3793 Haze 24 1010 31 7000 3.6 240 06:54 12.08.2019
3794 Haze 24 1010 31 7000 3.6 240 06:18 12.08.2019
3795 Clear 22 1009 63 8000 2.1 260 04:26 12.08.2019
3796 Clear 21 1010 31 6000 3.1 240 02:43 12.08.2019
3797 Clear 22 1010 31 7000 3.6 240 01:45 12.08.2019
3798 Clear 22 1010 31 7000 3.6 240 01:18 12.08.2019
3799 Clear 23 1010 31 7000 5.1 250 00:54 12.08.2019
3800 Clear 23 1010 31 7000 5.1 250 00:36 12.08.2019
3801 Clear 23 1010 31 7000 5.1 250 00:18 12.08.2019
3802 Clear 23 1010 36 7000 2.1 310 23:39 11.08.2019
3803 Clear 23 1010 36 7000 2.1 310 23:19 11.08.2019
3804 Clear 24 1010 31 8000 3.6 270 22:56 11.08.2019
3805 Clear 24 1010 31 8000 3.6 270 22:37 11.08.2019
3806 Clear 24 1010 31 8000 3.6 270 22:18 11.08.2019
3807 Clear 25 1010 36 8000 3.6 240 21:56 11.08.2019
3808 Clear 25 1010 36 8000 3.6 240 21:38 11.08.2019
3809 Clear 25 1010 36 8000 3.6 240 21:19 11.08.2019
3810 Clear 26 1010 34 8000 7.2 270 20:44 11.08.2019
3811 Clear 26 1010 34 8000 7.2 270 20:23 11.08.2019
3812 Haze 27 1009 30 5000 7.2 270 19:57 11.08.2019
3813 Haze 27 1009 30 5000 7.2 270 19:39 11.08.2019
3814 Haze 27 1009 30 5000 7.2 270 19:18 11.08.2019
3815 Haze 33 1009 35 5000 7.2 270 18:41 11.08.2019
3816 Haze 33 1009 35 5000 7.2 270 18:20 11.08.2019
3817 Haze 33 1003 23 6000 5.1 190 17:57 11.08.2019
3818 Haze 30 1009 31 5000 7.2 270 17:39 11.08.2019
3819 Haze 30 1009 31 5000 7.2 270 17:20 11.08.2019
3820 Haze 32 1010 33 5000 6.2 320 16:55 11.08.2019
3821 Haze 32 1010 33 5000 6.2 320 16:37 11.08.2019
3822 Haze 32 1010 33 5000 6.2 320 16:18 11.08.2019
3823 Haze 32 1009 31 5000 7.2 260 15:43 11.08.2019
3824 Haze 32 1009 31 5000 7.2 260 15:43 11.08.2019
3825 Haze 32 1009 31 5000 7.2 260 15:24 11.08.2019
3826 Haze 32 1009 31 5000 7.2 260 14:57 11.08.2019
3827 Haze 32 1009 31 5000 7.2 260 14:38 11.08.2019
3828 Haze 32 1009 31 5000 7.2 260 14:19 11.08.2019
3829 Haze 31 1009 31 5000 7.2 280 13:44 11.08.2019
3830 Haze 31 1009 31 5000 7.2 280 13:24 11.08.2019
3831 Haze 30 1010 29 5000 6.2 260 12:48 11.08.2019
3832 Haze 30 1010 29 5000 6.2 260 12:23 11.08.2019
3833 Clear 29 1010 33 6000 7.2 260 11:57 11.08.2019
3834 Clear 29 1010 33 6000 7.2 260 11:38 11.08.2019
3835 Clear 29 1010 33 6000 7.2 260 11:20 11.08.2019
3836 Clear 29 1010 33 6000 7.2 260 10:55 11.08.2019
3837 Clear 28 1010 32 6000 4.6 260 10:36 11.08.2019
3838 Clear 28 1010 32 6000 4.6 260 10:18 11.08.2019
3839 Clear 28 1010 32 6000 4.6 260 10:18 11.08.2019
3840 Clear 27 1010 39 6000 3.1 290 09:40 11.08.2019
3841 Clear 27 1010 39 6000 3.1 290 09:22 11.08.2019
3842 Clear 25 1010 44 6000 3.6 280 08:48 11.08.2019
3843 Clear 25 1010 44 6000 3.6 280 08:29 11.08.2019
3844 Haze 22 1009 50 6000 5.1 270 07:56 11.08.2019
3845 Haze 22 1009 50 6000 5.1 270 07:27 11.08.2019
3846 Haze 19 1009 53 6000 3.6 260 06:45 11.08.2019
3847 Haze 19 1009 53 6000 3.6 260 06:21 11.08.2019
3848 Clear 20 1009 38 7000 4.1 250 04:38 11.08.2019
3849 Clear 20 1010 35 7000 4.6 250 02:50 11.08.2019
3850 Clear 20 1010 33 7000 4.1 250 01:53 11.08.2019
3851 Clear 20 1010 33 7000 4.1 250 01:28 11.08.2019
3852 Clear 20 1010 35 7000 2.6 320 00:55 11.08.2019
3853 Clear 20 1010 35 7000 2.6 320 00:34 11.08.2019
3854 Clear 21 1010 43 7000 4.97 320.246 23:49 10.08.2019
3855 Clear 21 1010 43 7000 4.97 320.246 23:29 10.08.2019
3856 Clear 22 1010 38 7000 2.6 320 22:54 10.08.2019
3857 Clear 22 1010 38 7000 2.6 320 22:36 10.08.2019
3858 Clear 22 1010 38 7000 2.6 320 22:18 10.08.2019
3859 Clear 24 1010 50 7000 2.1 300 21:40 10.08.2019
3860 Clear 25 1010 50 7000 2.1 300 21:21 10.08.2019
3861 Clear 25 1010 53 7000 5.1 270 20:57 10.08.2019
3862 Clear 25 1010 53 7000 5.1 270 20:39 10.08.2019
3863 Clear 25 1010 53 7000 5.1 270 20:19 10.08.2019
3864 Clear 26 1009 50 8000 6.7 310 19:44 10.08.2019
3865 Clear 26 1009 50 8000 6.7 310 19:25 10.08.2019
3866 Clear 29 1009 42 7000 6.7 310 18:46 10.08.2019
3867 Clear 29 1009 42 7000 6.7 310 18:26 10.08.2019
3868 Clear 30 1009 39 6000 8.7 270 17:57 10.08.2019
3869 Clear 30 1009 39 6000 8.7 270 17:39 10.08.2019
3870 Clear 30 1009 39 6000 8.7 270 17:21 10.08.2019
3871 Clear 30 1009 35 6000 7.7 300 16:43 10.08.2019
3872 Clear 30 1009 35 6000 7.7 300 16:25 10.08.2019
3873 Clear 30 1009 35 7000 7.2 320 15:49 10.08.2019
3874 Clear 31 1009 35 6000 7.7 280 15:22 10.08.2019
3875 Clear 31 1009 33 7000 8.2 290 14:44 10.08.2019
3876 Clear 31 1009 33 7000 8.2 290 14:21 10.08.2019
3877 Dust 30 1009 37 5000 7.7 260 13:41 10.08.2019
3878 Dust 30 1009 37 5000 7.7 260 13:20 10.08.2019
3879 Dust 29 1010 39 4800 9.3 260 12:57 10.08.2019
3880 Dust 29 1010 39 4800 9.3 260 12:39 10.08.2019
3881 Dust 29 1010 39 4800 9.3 260 12:20 10.08.2019
3882 Haze 28 1010 37 5000 7.2 290 11:42 10.08.2019
3883 Haze 28 1010 37 5000 7.2 290 11:23 10.08.2019
3884 Haze 27 1010 37 5000 7.2 290 10:58 10.08.2019
3885 Haze 27 1010 39 5000 7.2 280 10:38 10.08.2019
3886 Haze 27 1010 39 5000 7.2 280 10:19 10.08.2019
3887 Haze 25 1010 50 5000 6.7 250 09:43 10.08.2019
3888 Haze 25 1010 50 5000 6.7 250 09:24 10.08.2019
3889 Haze 23 1010 60 5000 6.2 250 08:56 10.08.2019
3890 Haze 23 1010 60 5000 6.2 250 08:38 10.08.2019
3891 Haze 23 1010 60 5000 6.2 250 08:18 10.08.2019
3892 Haze 20 1010 73 5000 4.1 260 07:46 10.08.2019
3893 Haze 20 1010 73 5000 4.1 260 07:24 10.08.2019
3894 Haze 18 1010 82 5000 4.1 260 06:47 10.08.2019
3895 Haze 18 1010 82 5000 4.1 260 06:18 10.08.2019
3896 Haze 18 1010 77 5000 5.1 240 05:21 10.08.2019
3897 Haze 19 1010 72 5000 6.2 250 04:18 10.08.2019
3898 Haze 20 1010 56 5000 4.1 270 02:51 10.08.2019
3899 Haze 20 1010 53 5000 3.6 290 01:57 10.08.2019
3900 Haze 20 1010 53 5000 3.6 290 01:37 10.08.2019
3901 Haze 20 1010 53 5000 3.6 290 01:19 10.08.2019
3902 Haze 20 1010 53 5000 4.1 320 00:43 10.08.2019
3903 Haze 20 1010 53 5000 4.1 320 00:20 10.08.2019
3904 Haze 21 1011 49 5000 4.1 270 23:41 09.08.2019
3905 Haze 21 1011 49 5000 4.1 270 23:22 09.08.2019
3906 Haze 22 1010 56 5000 3.1 300 22:56 09.08.2019
3907 Haze 22 1010 56 5000 3.1 300 22:38 09.08.2019
3908 Haze 22 1010 56 5000 3.1 300 22:19 09.08.2019
3909 Haze 23 1011 56 5000 2.1 320 21:41 09.08.2019
3910 Haze 23 1011 56 5000 2.1 320 21:22 09.08.2019
3911 Haze 24 1010 44 5000 5.1 280 20:58 09.08.2019
3912 Haze 24 1010 44 5000 5.1 280 20:40 09.08.2019
3913 Haze 24 1010 44 5000 5.1 280 20:20 09.08.2019
3914 Haze 26 1010 44 5000 4.1 270 19:56 09.08.2019
3915 Clear 26 1009 47 6000 5.1 280 19:38 09.08.2019
3916 Clear 26 1009 47 6000 5.1 280 19:38 09.08.2019
3917 Haze 27 1009 47 6000 5.1 280 19:18 09.08.2019
3918 Haze 27 1010 36 5000 6.2 300 18:40 09.08.2019
3919 Haze 29 1010 36 5000 6.2 300 18:22 09.08.2019
3920 Haze 30 1009 32 5000 6.2 270 17:56 09.08.2019
3921 Haze 30 1009 32 5000 6.2 270 17:38 09.08.2019
3922 Haze 30 1009 32 5000 6.2 270 17:19 09.08.2019
3923 Haze 31 1009 33 5000 7.7 270 16:40 09.08.2019
3924 Haze 31 1009 33 5000 7.7 270 16:21 09.08.2019
3925 Haze 31 1009 33 5000 6.7 280 15:56 09.08.2019
3926 -273 0 0 0 0 0 15:56 09.08.2019
3927 Haze 31 1009 33 5000 6.7 280 15:37 09.08.2019
3928 Haze 31 1009 33 5000 6.7 280 15:18 09.08.2019
3929 Haze 32 1010 29 5000 7.2 270 14:44 09.08.2019
3930 Haze 32 1010 29 5000 7.2 270 14:22 09.08.2019
3931 Dust 30 1010 25 5000 7.7 310 13:57 09.08.2019
3932 Dust 30 1010 25 5000 7.7 310 13:39 09.08.2019
3933 Dust 30 1010 25 5000 7.7 310 13:19 09.08.2019
3934 Clear 29 1010 25 6000 6.7 300 12:45 09.08.2019
3935 Clear 29 1010 25 6000 6.7 300 12:23 09.08.2019
3936 Clear 28 1010 28 6000 5.1 260 11:57 09.08.2019
3937 Clear 28 1010 28 6000 5.1 260 11:37 09.08.2019
3938 Clear 28 1010 28 6000 5.1 260 11:18 09.08.2019
3939 Clear 27 1010 34 6000 5.1 260 10:40 09.08.2019
3940 Clear 27 1010 34 6000 5.1 260 10:21 09.08.2019
3941 Clear 25 1011 44 7000 5.7 260 09:45 09.08.2019
3942 Clear 25 1011 44 7000 5.7 260 09:20 09.08.2019
3943 Clear 24 1011 50 7000 3.6 270 08:57 09.08.2019
3944 Clear 24 1011 50 7000 3.6 270 08:39 09.08.2019
3945 Clear 24 1011 50 7000 3.6 270 08:19 09.08.2019
3946 Haze 22 1011 49 5000 4.1 260 07:43 09.08.2019
3947 Haze 22 1011 49 5000 4.1 260 07:23 09.08.2019
3948 Haze 18 1011 49 5000 4.1 270 06:56 09.08.2019
3949 Haze 17 1011 49 5000 4.1 270 06:29 09.08.2019
3950 Haze 18 1011 49 5000 2.6 270 05:55 09.08.2019
3951 Clear 18 1011 46 6000 2.6 270 04:21 09.08.2019
3952 Clear 20 1011 53 6000 4.67 311.516 01:45 09.08.2019
3953 Clear 20 1011 68 7000 4.52 312.146 00:48 09.08.2019
3954 Clear 20 1011 68 7000 4.52 312.146 00:26 09.08.2019
3955 Clear 21 1011 64 7000 4.94 318.803 23:59 08.08.2019
3956 Clear 21 1011 64 7000 4.94 318.803 23:38 08.08.2019
3957 Clear 21 1011 64 7000 4.94 318.803 23:19 08.08.2019
3958 Haze 23 1011 60 5000 1.5 320 22:58 08.08.2019
3959 Haze 23 1011 60 5000 1.5 320 22:37 08.08.2019
3960 Haze 23 1011 60 5000 1.5 320 22:18 08.08.2019
3961 Haze 23 1011 60 5000 1.5 320 22:18 08.08.2019
3962 Haze 24 1011 60 5000 2.6 320 21:58 08.08.2019
3963 Haze 24 1011 60 5000 2.6 320 21:40 08.08.2019
3964 Haze 24 1011 60 5000 2.6 320 21:21 08.08.2019
3965 Haze 26 1011 57 5000 4.1 320 20:55 08.08.2019
3966 Haze 26 1011 57 5000 4.1 320 20:36 08.08.2019
3967 Haze 26 1011 57 5000 4.1 320 20:18 08.08.2019
3968 Haze 26 1011 57 5000 4.6 320 19:42 08.08.2019
3969 Haze 26 1011 57 5000 4.6 320 19:21 08.08.2019
3970 Haze 28 1011 45 5000 5.7 290 18:43 08.08.2019
3971 Haze 28 1011 45 5000 5.7 290 18:23 08.08.2019
3972 Haze 29 1010 45 6000 7.2 290 17:58 08.08.2019
3973 Haze 30 1010 40 5000 7.2 290 17:40 08.08.2019
3974 Haze 30 1010 40 5000 7.2 290 17:21 08.08.2019
3975 Haze 30 1010 37 5000 6.2 300 16:55 08.08.2019
3976 Haze 30 1010 37 5000 6.2 300 16:37 08.08.2019
3977 Haze 30 1010 37 5000 6.2 300 16:37 08.08.2019
3978 Haze 30 1010 37 5000 6.2 300 16:18 08.08.2019
3979 Haze 31 1011 37 5000 5.1 310 15:41 08.08.2019
3980 Haze 31 1011 37 5000 5.1 310 15:23 08.08.2019
3981 Haze 32 1010 35 5000 5.1 320 14:59 08.08.2019
3982 Haze 32 1010 35 5000 5.1 320 14:37 08.08.2019
3983 Haze 32 1010 35 5000 5.1 320 14:18 08.08.2019
3984 Clear 30 1011 33 6000 5.1 320 13:40 08.08.2019
3985 Clear 30 1011 33 6000 5.1 320 13:22 08.08.2019
3986 Clear 30 1011 37 6000 4.6 320 12:43 08.08.2019
3987 Clear 30 1011 37 6000 4.6 320 12:23 08.08.2019
3988 Clear 30 1011 37 6000 4.6 320 11:59 08.08.2019
3989 Clear 30 1011 35 7000 5.7 320 11:39 08.08.2019
3990 Clear 30 1011 35 7000 5.7 320 11:21 08.08.2019
3991 Clear 28 1012 34 6000 5.7 310 10:41 08.08.2019
3992 Clear 28 1012 34 6000 5.7 310 10:22 08.08.2019
3993 Clear 26 1012 39 6000 3.6 290 09:54 08.08.2019
3994 Clear 26 1012 39 6000 3.6 290 09:32 08.08.2019
3995 Clear 23 1012 47 6000 3.1 340 09:00 08.08.2019
3996 Clear 23 1012 47 6000 3.1 340 08:40 08.08.2019
3997 Clear 23 1012 47 6000 3.1 340 08:20 08.08.2019
3998 Haze 22 1011 56 5000 5.1 330 07:42 08.08.2019
3999 Haze 18 1011 56 5000 5.1 330 07:21 08.08.2019
4000 Haze 18 1011 77 4000 4.19 306.93 06:56 08.08.2019
4001 Haze 18 1011 77 4000 4.19 306.93 06:38 08.08.2019
4002 Mist 17 1011 82 4000 3.6 330 05:54 08.08.2019
4003 Mist 17 1011 82 4000 3.6 330 05:27 08.08.2019
4004 Clear 18 1012 82 6000 2.6 330 03:54 08.08.2019
4005 Clear 18 1012 82 6000 2.6 330 03:35 08.08.2019
4006 Haze 20 1011 64 5000 3.6 250 01:41 08.08.2019
4007 Haze 20 1012 64 5000 3.1 320 00:46 08.08.2019
4008 Haze 20 1012 64 5000 3.1 320 00:20 08.08.2019
4009 Haze 21 1012 73 5000 1.5 340 23:23 07.08.2019
4010 Haze 22 1012 64 5000 3.1 330 22:59 07.08.2019
4011 Haze 22 1012 64 5000 3.1 330 22:41 07.08.2019
4012 Haze 22 1012 64 5000 3.1 330 22:21 07.08.2019
4013 Haze 23 1012 64 5000 2.6 320 21:57 07.08.2019
4014 Haze 23 1012 64 5000 2.6 320 21:39 07.08.2019
4015 Haze 23 1012 64 5000 2.6 320 21:21 07.08.2019
4016 Haze 25 1012 64 5000 5.1 330 20:59 07.08.2019
4017 Haze 25 1012 64 5000 5.1 330 20:40 07.08.2019
4018 Haze 25 1012 64 5000 5.1 330 20:20 07.08.2019
4019 Haze 25 1012 64 5000 5.1 330 20:20 07.08.2019
4020 Haze 25 1011 61 10000 4.6 290 19:55 07.08.2019
4021 Haze 26 1011 61 5000 4.1 350 19:36 07.08.2019
4022 Haze 26 1011 61 5000 4.1 350 19:18 07.08.2019
4023 Haze 28 1012 54 4000 3.1 320 18:40 07.08.2019
4024 Haze 28 1012 54 4000 3.1 320 18:20 07.08.2019
4025 Haze 30 1011 48 4000 6.2 280 17:56 07.08.2019
4026 Haze 30 1011 48 4000 6.2 280 17:38 07.08.2019
4027 Haze 30 1011 48 4000 6.2 280 17:19 07.08.2019
4028 Dust 30 1010 42 4000 8.2 250 16:56 07.08.2019
4029 Dust 30 1010 42 4000 8.2 250 16:38 07.08.2019
4030 Dust 30 1010 42 4000 8.2 250 16:19 07.08.2019
4031 Haze 31 1010 40 5000 5.1 310 15:43 07.08.2019
4032 Haze 31 1010 40 5000 5.1 310 15:22 07.08.2019
4033 Haze 30 1011 42 5000 7.2 310 14:57 07.08.2019
4034 Haze 30 1011 42 5000 7.2 310 14:39 07.08.2019
4035 Haze 30 1011 42 5000 7.2 310 14:20 07.08.2019
4036 Haze 29 1011 39 5000 3.1 280 13:40 07.08.2019
4037 Haze 29 1011 39 5000 3.1 280 13:19 07.08.2019
4038 Dust 29 1012 45 5000 6.2 240 12:58 07.08.2019
4039 Dust 29 1012 45 5000 6.2 240 12:39 07.08.2019
4040 Dust 29 1012 45 5000 6.2 240 12:20 07.08.2019
4041 Haze 28 1012 51 5000 4.6 290 11:58 07.08.2019
4042 Haze 28 1012 51 5000 4.6 290 11:40 07.08.2019
4043 Haze 28 1012 51 5000 4.6 290 11:19 07.08.2019
4044 Haze 26 1012 54 5000 4.6 300 10:41 07.08.2019
4045 Haze 26 1012 54 6000 5.1 290 10:20 07.08.2019
4046 Haze 25 1012 54 5000 3.6 340 09:59 07.08.2019
4047 Haze 25 1012 54 5000 3.6 340 09:41 07.08.2019
4048 Haze 25 1012 54 5000 3.6 340 09:21 07.08.2019
4049 Haze 23 1012 60 5000 4.6 320 08:45 07.08.2019
4050 Haze 23 1012 60 5000 4.6 320 08:26 07.08.2019
4051 Haze 21 1011 68 5000 4.1 320 07:52 07.08.2019
4052 Haze 21 1011 68 5000 4.1 320 07:34 07.08.2019
4053 Haze 18 1011 72 4000 1.5 320 06:57 07.08.2019
4054 Haze 18 1011 72 4000 1.5 320 06:29 07.08.2019
4055 Haze 18 1011 82 3000 2.1 290 05:49 07.08.2019
4056 Clear 18 1011 64 6000 1 270 04:51 07.08.2019
4057 Clear 19 1011 56 6000 3.6 260 03:21 07.08.2019
4058 Clear 19 1011 52 6000 2.1 270 02:46 07.08.2019
4059 Clear 20 1011 49 6000 5.1 270 01:58 07.08.2019
4060 Clear 20 1011 49 6000 5.1 270 01:38 07.08.2019
4061 Clear 20 1011 49 6000 3.6 250 00:43 07.08.2019
4062 Clear 20 1011 49 6000 3.6 250 00:22 07.08.2019
4063 Clear 21 1011 40 6000 2.1 240 23:41 06.08.2019
4064 Clear 21 1011 40 6000 2.1 240 23:21 06.08.2019
4065 Clear 23 1011 36 6000 2.6 260 22:56 06.08.2019
4066 Clear 23 1011 36 6000 2.6 260 22:37 06.08.2019
4067 Clear 23 1011 36 6000 2.6 260 22:18 06.08.2019
4068 Clear 23 1011 38 6000 2.1 320 21:43 06.08.2019
4069 Clear 23 1011 38 6000 2.1 320 21:25 06.08.2019
4070 Clear 25 1011 47 6000 4.1 280 20:58 06.08.2019
4071 Clear 25 1011 47 6000 4.1 280 20:40 06.08.2019
4072 Clear 25 1011 47 6000 4.1 280 20:21 06.08.2019
4073 Clear 28 1010 45 7000 7.2 290 19:43 06.08.2019
4074 Haze 28 1010 45 7000 7.2 290 19:25 06.08.2019
4075 Haze 28 1010 45 5000 5.7 270 18:54 06.08.2019
4076 Clear 24 1007 52 0 7.17 328.366 18:36 06.08.2019
4077 Haze 30 1010 35 5000 5.1 280 18:18 06.08.2019
4078 Haze 30 1010 35 5000 5.1 280 17:54 06.08.2019
4079 Haze 30 1010 35 5000 5.1 280 17:36 06.08.2019
4080 Haze 30 1010 35 5000 5.1 280 17:18 06.08.2019
4081 Haze 31 1010 35 5000 6.2 280 16:41 06.08.2019
4082 Haze 31 1010 35 5000 6.2 280 16:21 06.08.2019
4083 Haze 32 1010 31 5000 5.1 260 15:57 06.08.2019
4084 Haze 32 1010 31 5000 5.1 260 15:38 06.08.2019
4085 Haze 32 1010 31 5000 5.1 260 15:19 06.08.2019
4086 Haze 31 1011 29 5000 6.7 280 14:44 06.08.2019
4087 Haze 31 1011 29 5000 6.7 280 14:25 06.08.2019
4088 Haze 31 1011 33 5000 4.6 320 13:58 06.08.2019
4089 Haze 31 1011 33 5000 4.6 320 13:39 06.08.2019
4090 Haze 31 1011 33 5000 4.6 320 13:20 06.08.2019
4091 Haze 29 1011 35 5000 4.6 260 12:57 06.08.2019
4092 Haze 29 1011 35 5000 4.6 260 12:39 06.08.2019
4093 Haze 29 1011 35 5000 4.6 260 12:21 06.08.2019
4094 Haze 28 1011 42 5000 4.6 250 11:42 06.08.2019
4095 Haze 28 1011 42 5000 4.6 250 11:19 06.08.2019
4096 Haze 27 1012 41 5000 4.6 240 10:55 06.08.2019
4097 Haze 27 1012 41 5000 4.6 240 10:37 06.08.2019
4098 Haze 27 1012 41 5000 4.6 240 10:19 06.08.2019
4099 Haze 25 1012 50 5000 2.6 270 09:39 06.08.2019
4100 Haze 25 1012 50 5000 2.6 270 09:20 06.08.2019
4101 Haze 24 1012 53 4500 2.6 240 08:47 06.08.2019
4102 Haze 24 1012 53 4500 2.6 240 08:26 06.08.2019
4103 Haze 22 1011 60 4000 3.1 320 07:40 06.08.2019
4104 Haze 22 1011 60 4000 3.1 320 07:22 06.08.2019
4105 Haze 19 1010 68 4000 2.1 320 06:43 06.08.2019
4106 Haze 19 1010 68 5000 1 320 05:55 06.08.2019
4107 Haze 20 1010 56 5000 1.5 320 04:32 06.08.2019
4108 Haze 22 1011 50 5000 2.1 300 01:59 06.08.2019
4109 Haze 22 1011 50 5000 2.1 300 01:24 06.08.2019
4110 Haze 23 1010 53 5000 2.6 300 00:37 06.08.2019
4111 Haze 23 1011 60 5000 2.1 330 23:47 05.08.2019
4112 Haze 23 1011 60 5000 2.1 330 23:19 05.08.2019
4113 Haze 25 1010 57 5000 2.1 350 22:42 05.08.2019
4114 Haze 25 1010 57 5000 2.1 350 22:23 05.08.2019
4115 Haze 25 1010 57 5000 2.1 350 21:56 05.08.2019
4116 Haze 26 1010 57 5000 2.6 350 21:37 05.08.2019
4117 Haze 26 1010 57 5000 2.6 350 21:19 05.08.2019
4118 Haze 27 1010 54 5000 2.1 330 20:55 05.08.2019
4119 Haze 27 1010 54 5000 2.1 330 20:37 05.08.2019
4120 Haze 27 1010 54 5000 2.1 330 20:18 05.08.2019
4121 Haze 28 1009 48 5000 5.1 300 19:43 05.08.2019
4122 Haze 28 1009 48 5000 5.1 300 19:24 05.08.2019
4123 Haze 30 1009 42 5000 6.7 300 18:57 05.08.2019
4124 Haze 30 1009 42 5000 6.7 300 18:39 05.08.2019
4125 Haze 30 1009 42 5000 6.7 300 18:19 05.08.2019
4126 Dust 32 1008 33 5000 7.7 290 17:45 05.08.2019
4127 Dust 32 1008 33 5000 7.7 290 17:26 05.08.2019
4128 Haze 32 1009 22 5000 6.2 280 16:46 05.08.2019
4129 Haze 32 1009 22 5000 6.2 280 16:26 05.08.2019
4130 Haze 33 1009 27 5000 6.2 320 15:56 05.08.2019
4131 Haze 33 1009 27 5000 6.2 320 15:38 05.08.2019
4132 Haze 33 1009 27 5000 6.2 320 15:19 05.08.2019
4133 Haze 34 1009 38 5000 4.6 280 14:39 05.08.2019
4134 Haze 34 1009 38 5000 4.6 280 14:19 05.08.2019
4135 Dust 33 1009 33 5000 5.1 260 13:44 05.08.2019
4136 Dust 33 1009 33 5000 5.1 260 13:22 05.08.2019
4137 Haze 32 1009 38 5000 5.1 240 12:49 05.08.2019
4138 Haze 32 1009 38 5000 5.1 240 12:20 05.08.2019
4139 Haze 31 1009 40 5000 4.6 260 11:54 05.08.2019
4140 Haze 31 1009 40 5000 4.6 260 11:36 05.08.2019
4141 Haze 31 1009 40 5000 4.6 260 11:18 05.08.2019
4142 Haze 30 1010 37 5000 4.1 280 10:43 05.08.2019
4143 Haze 30 1010 37 5000 4.1 280 10:22 05.08.2019
4144 Haze 28 1010 42 5000 3.6 270 09:43 05.08.2019
4145 Haze 28 1010 42 5000 3.6 270 09:25 05.08.2019
4146 Haze 26 1010 44 5000 5.1 240 08:59 05.08.2019
4147 Haze 26 1010 44 5000 5.1 240 08:41 05.08.2019
4148 Haze 26 1010 44 5000 5.1 240 08:20 05.08.2019
4149 Haze 24 1009 44 5000 3.1 240 07:45 05.08.2019
4150 Haze 24 1009 44 5000 3.1 240 07:26 05.08.2019
4151 Clear 22 1009 47 6000 3.6 240 06:35 05.08.2019
4152 Clear 21 1009 44 7000 4.1 240 05:52 05.08.2019
4153 Clear 21 1009 44 7000 4.1 240 05:20 05.08.2019
4154 Haze 22 1009 41 5000 5.1 260 04:28 05.08.2019
4155 Haze 21 1009 41 5000 4.1 260 03:38 05.08.2019
4156 Haze 22 1009 36 5000 4.1 250 02:37 05.08.2019
4157 Haze 23 1009 38 5000 2.6 320 01:35 05.08.2019
4158 Clear 24 1009 36 6000 2.6 340 00:43 05.08.2019
4159 Clear 24 1009 36 6000 2.6 340 00:24 05.08.2019
4160 Haze 24 1010 38 5000 1.5 310 23:59 04.08.2019
4161 Haze 24 1010 38 5000 1.5 310 23:40 04.08.2019
4162 Haze 24 1010 38 5000 1.5 310 23:20 04.08.2019
4163 Haze 24 1010 41 5000 4.6 320 22:56 04.08.2019
4164 Haze 24 1010 41 5000 4.6 320 22:37 04.08.2019
4165 Haze 24 1010 41 5000 4.6 320 22:19 04.08.2019
4166 Haze 25 1010 44 5000 4.1 310 21:43 04.08.2019
4167 Haze 25 1010 44 5000 4.1 310 21:20 04.08.2019
4168 Haze 27 1009 51 5000 5.1 290 20:55 04.08.2019
4169 Haze 27 1009 51 5000 5.1 290 20:37 04.08.2019
4170 Haze 27 1009 51 5000 5.1 290 20:18 04.08.2019
4171 Haze 28 1009 54 5000 3.6 280 19:42 04.08.2019
4172 Haze 28 1009 54 5000 3.6 280 19:24 04.08.2019
4173 Haze 30 1009 45 5000 6.7 300 18:42 04.08.2019
4174 Haze 30 1009 45 5000 6.7 300 18:21 04.08.2019
4175 Haze 30 1008 45 5000 7.2 300 17:58 04.08.2019
4176 Haze 31 1008 45 5000 7.2 300 17:40 04.08.2019
4177 Haze 32 1008 45 5000 7.2 300 17:20 04.08.2019
4178 Haze 32 1009 40 5000 6.7 310 16:42 04.08.2019
4179 Haze 32 1009 40 5000 6.7 310 16:24 04.08.2019
4180 Haze 34 1009 33 5000 7.2 280 15:45 04.08.2019
4181 Haze 34 1009 33 5000 7.2 280 15:45 04.08.2019
4182 Haze 34 1009 33 5000 7.2 280 15:23 04.08.2019
4183 Haze 33 1008 31 5000 6.2 270 14:57 04.08.2019
4184 Haze 33 1008 31 5000 6.2 270 14:39 04.08.2019
4185 Haze 33 1008 31 5000 6.2 270 14:20 04.08.2019
4186 Haze 32 1008 31 6000 9.3 290 13:43 04.08.2019
4187 Haze 33 1009 33 5000 6.7 270 13:23 04.08.2019
4188 Haze 31 1009 35 5000 6.2 240 12:46 04.08.2019
4189 Haze 31 1009 35 5000 6.2 240 12:27 04.08.2019
4190 Haze 30 1009 40 5000 5.1 280 11:57 04.08.2019
4191 Haze 30 1009 40 5000 5.1 280 11:37 04.08.2019
4192 Haze 30 1009 40 5000 5.1 280 11:19 04.08.2019
4193 Haze 30 1009 40 5000 5.1 280 11:19 04.08.2019
4194 Haze 28 1010 45 5000 4.6 240 10:41 04.08.2019
4195 Haze 28 1010 45 5000 4.6 240 10:21 04.08.2019
4196 Haze 27 1010 42 5000 4.1 240 09:45 04.08.2019
4197 Haze 27 1010 42 5000 4.1 240 09:23 04.08.2019
4198 Haze 25 1010 47 5000 3.6 240 08:48 04.08.2019
4199 Haze 25 1010 47 5000 3.6 240 08:27 04.08.2019
4200 Haze 23 1010 47 5000 3.6 250 07:52 04.08.2019
4201 Haze 23 1010 47 5000 3.6 250 07:20 04.08.2019
4202 Haze 21 1009 43 5000 3.6 250 06:28 04.08.2019
4203 Haze 21 1009 43 5000 3.1 250 04:43 04.08.2019
4204 Haze 22 1009 41 5000 4.1 230 02:47 04.08.2019
4205 Haze 21 1009 33 5000 1.5 250 01:44 04.08.2019
4206 Haze 21 1009 33 5000 1.5 250 01:25 04.08.2019
4207 Haze 22 1010 31 5000 2.1 270 00:41 04.08.2019
4208 Haze 22 1010 31 5000 2.1 270 00:21 04.08.2019
4209 Haze 23 1009 31 5000 3.6 280 23:41 03.08.2019
4210 Haze 23 1009 31 5000 3.6 280 23:19 03.08.2019
4211 Haze 23 1010 47 5000 3.6 270 22:55 03.08.2019
4212 Haze 23 1010 47 5000 3.6 270 22:37 03.08.2019
4213 Haze 23 1010 47 5000 3.6 270 22:18 03.08.2019
4214 Haze 24 1010 47 5000 3.1 280 21:38 03.08.2019
4215 Haze 24 1010 47 5000 3.1 280 21:19 03.08.2019
4216 Haze 24 1009 60 7000 5.1 280 20:43 03.08.2019
4217 Haze 25 1009 64 5000 4.6 270 20:23 03.08.2019
4218 Clear 27 1008 54 6000 6.7 270 19:43 03.08.2019
4219 Clear 27 1008 54 6000 6.7 270 19:25 03.08.2019
4220 Dust 29 1008 48 4500 8.7 270 18:56 03.08.2019
4221 Dust 29 1008 48 4500 8.7 270 18:28 03.08.2019
4222 Dust 30 1008 45 4000 7.7 290 17:51 03.08.2019
4223 Dust 30 1008 45 4000 7.7 290 17:23 03.08.2019
4224 Dust 30 1009 42 4000 7.7 290 16:58 03.08.2019
4225 Dust 30 1009 42 4000 7.7 290 16:38 03.08.2019
4226 Dust 30 1009 42 4000 7.7 290 16:19 03.08.2019
4227 Dust 30 1009 38 5000 8.2 270 15:45 03.08.2019
4228 Dust 30 1009 38 5000 8.2 270 15:25 03.08.2019
4229 Dust 30 1009 40 5000 7.7 260 14:46 03.08.2019
4230 Dust 30 1009 40 5000 7.7 260 14:23 03.08.2019
4231 Haze 30 1009 42 5000 7.2 270 13:57 03.08.2019
4232 Haze 30 1009 42 5000 7.2 270 13:36 03.08.2019
4233 Haze 30 1009 42 5000 7.2 270 13:18 03.08.2019
4234 Haze 29 1009 45 5000 3.6 320 12:41 03.08.2019
4235 Haze 29 1009 45 5000 3.6 320 12:23 03.08.2019
4236 Haze 27 1010 45 5000 3.6 310 11:52 03.08.2019
4237 Haze 27 1010 45 5000 3.6 310 11:34 03.08.2019
4238 Haze 25 1010 54 5000 7.2 300 10:46 03.08.2019
4239 Haze 25 1010 54 5000 7.2 300 10:24 03.08.2019
4240 Haze 25 1010 54 5000 7.2 300 10:24 03.08.2019
4241 Haze 24 1010 53 5000 3.6 330 09:45 03.08.2019
4242 Haze 24 1010 53 5000 3.6 330 09:24 03.08.2019
4243 Haze 23 1010 60 5000 4.1 300 08:56 03.08.2019
4244 Haze 23 1010 60 5000 4.1 300 08:24 03.08.2019
4245 Haze 21 1010 68 4000 1.5 330 07:38 03.08.2019
4246 Haze 19 1010 77 4000 2.1 280 06:47 03.08.2019
4247 Haze 18 1010 77 4000 1.5 330 05:59 03.08.2019
4248 Haze 20 1010 68 5000 3.6 300 02:50 03.08.2019
4249 Haze 21 1011 60 5000 2.6 330 01:56 03.08.2019
4250 Haze 22 1011 56 5000 4.1 270 00:58 03.08.2019
4251 Haze 22 1011 56 5000 4.1 270 00:31 03.08.2019
4252 Haze 22 1011 41 5000 4.1 270 23:42 02.08.2019
4253 Haze 22 1011 41 5000 4.1 270 23:20 02.08.2019
4254 Haze 22 1011 56 5000 2.1 300 22:57 02.08.2019
4255 Haze 22 1011 56 5000 2.1 300 22:39 02.08.2019
4256 Haze 22 1011 56 5000 2.1 300 22:21 02.08.2019
4257 Dust 23 1011 69 5000 3.1 310 21:55 02.08.2019
4258 Dust 23 1011 69 5000 3.1 310 21:37 02.08.2019
4259 Dust 23 1011 69 5000 3.1 310 21:18 02.08.2019
4260 Dust 24 1012 69 5000 6.2 330 20:42 02.08.2019
4261 Dust 24 1012 69 5000 6.2 330 20:22 02.08.2019
4262 Dust 26 1011 65 5000 4.6 310 19:50 02.08.2019
4263 Dust 26 1011 65 5000 4.6 310 19:30 02.08.2019
4264 Dust 29 1011 45 4000 5.1 300 18:50 02.08.2019
4265 Dust 29 1011 45 4000 5.1 300 18:32 02.08.2019
4266 Dust 30 1011 42 4000 8.7 310 17:56 02.08.2019
4267 Dust 30 1011 42 4000 8.7 310 17:38 02.08.2019
4268 Dust 30 1011 42 4000 8.7 310 17:19 02.08.2019
4269 Dust 31 1011 40 4000 8.2 280 16:39 02.08.2019
4270 Dust 31 1011 40 4000 8.2 280 16:20 02.08.2019
4271 Dust 31 1011 38 4000 6.2 300 15:56 02.08.2019
4272 Dust 31 1011 38 4000 6.2 300 15:36 02.08.2019
4273 Dust 31 1011 38 4000 6.2 300 15:18 02.08.2019
4274 Dust 32 1011 40 4000 5.1 310 14:41 02.08.2019
4275 Dust 32 1011 40 4000 5.1 310 14:18 02.08.2019
4276 Dust 30 1011 37 5000 9.3 300 13:45 02.08.2019
4277 Dust 30 1011 37 5000 9.3 300 13:20 02.08.2019
4278 Dust 28 1011 42 5000 7.7 300 12:43 02.08.2019
4279 Dust 28 1011 42 5000 7.7 300 12:20 02.08.2019
4280 Haze 27 1011 45 5000 6.2 300 11:41 02.08.2019
4281 Haze 27 1011 45 5000 6.2 300 11:41 02.08.2019
4282 Haze 27 1011 45 5000 6.2 300 11:22 02.08.2019
4283 Haze 26 1011 47 5000 5.1 270 10:48 02.08.2019
4284 Haze 26 1011 47 5000 5.1 270 10:24 02.08.2019
4285 Haze 24 1011 53 5000 6.2 270 09:58 02.08.2019
4286 Haze 24 1011 53 5000 6.2 270 09:40 02.08.2019
4287 Haze 24 1011 53 5000 6.2 270 09:22 02.08.2019
4288 Haze 23 1011 64 5000 6.2 270 08:41 02.08.2019
4289 Haze 23 1011 64 5000 6.2 270 08:20 02.08.2019
4290 Haze 21 1011 73 4000 5.1 270 07:45 02.08.2019
4291 Haze 21 1011 73 4000 5.1 270 07:26 02.08.2019
4292 Haze 20 1011 60 4000 6.2 280 06:37 02.08.2019
4293 Haze 19 1011 64 4000 4.1 280 05:47 02.08.2019
4294 Haze 20 1010 73 5000 3.1 240 03:42 02.08.2019
4295 Haze 20 1010 73 5000 3.1 240 03:23 02.08.2019
4296 Clear 22 1010 47 6000 3.1 250 01:41 02.08.2019
4297 Clear 24 1011 60 7000 3.6 280 00:34 02.08.2019
4298 Clear 24 1010 50 6000 4.1 250 23:46 01.08.2019
4299 Clear 24 1010 50 6000 4.1 250 23:27 01.08.2019
4300 Clear 24 1010 50 6000 4.1 250 23:27 01.08.2019
4301 Clear 24 1010 53 6000 4.6 250 22:46 01.08.2019
4302 Clear 24 1010 53 6000 4.6 250 22:25 01.08.2019
4303 Clear 25 1010 41 6000 4.6 260 21:59 01.08.2019
4304 Clear 25 1010 41 6000 4.6 260 21:41 01.08.2019
4305 Clear 25 1010 41 6000 4.6 260 21:23 01.08.2019
4306 Clear 26 1010 53 7000 5.1 270 20:47 01.08.2019
4307 Clear 26 1010 51 6000 3.1 260 20:23 01.08.2019
4308 Haze 28 1010 51 5000 5.1 270 19:59 01.08.2019
4309 Haze 28 1010 51 5000 5.1 270 19:38 01.08.2019
4310 Haze 28 1010 51 5000 5.1 270 19:18 01.08.2019
4311 Haze 31 1010 48 5000 5.7 320 18:43 01.08.2019
4312 Haze 31 1010 48 5000 5.7 320 18:24 01.08.2019
4313 Haze 32 1009 43 5000 7.2 310 17:51 01.08.2019
4314 Haze 32 1009 43 5000 7.2 310 17:32 01.08.2019
4315 Dust 33 1009 31 5000 9.3 260 16:45 01.08.2019
4316 Dust 33 1009 31 5000 9.3 260 16:23 01.08.2019
4317 Haze 34 1009 29 5000 6.2 270 15:59 01.08.2019
4318 Haze 34 1009 29 5000 6.2 270 15:41 01.08.2019
4319 Haze 34 1009 29 5000 6.2 270 15:19 01.08.2019
4320 Haze 34 1009 29 5000 6.2 270 15:19 01.08.2019
4321 Haze 35 1009 26 5000 7.2 250 14:42 01.08.2019
4322 Haze 35 1009 26 5000 7.2 250 14:19 01.08.2019
4323 Haze 35 1010 23 6000 5.7 280 13:58 01.08.2019
4324 Haze 35 1010 23 6000 5.7 280 13:39 01.08.2019
4325 Haze 35 1010 23 6000 5.7 280 13:20 01.08.2019
4326 Haze 34 1010 22 6000 4.1 250 12:46 01.08.2019
4327 Haze 34 1010 22 6000 4.1 250 12:27 01.08.2019
4328 Haze 33 1010 21 6000 4.1 220 11:44 01.08.2019
4329 Haze 33 1010 21 6000 4.1 220 11:25 01.08.2019
4330 Haze 33 1010 24 6000 3.1 240 10:57 01.08.2019
4331 Clear 32 1010 24 6000 3.1 240 10:39 01.08.2019
4332 Haze 31 1010 24 6000 3.1 240 10:21 01.08.2019
4333 Haze 30 1010 27 5000 3.6 250 09:45 01.08.2019
4334 Haze 30 1010 27 5000 3.6 250 09:23 01.08.2019
4335 Haze 28 1010 23 5000 4.1 260 08:48 01.08.2019
4336 Haze 28 1010 23 5000 4.1 260 08:21 01.08.2019
4337 Haze 26 1009 21 6000 5.1 250 07:52 01.08.2019
4338 Haze 26 1010 41 4000 4.1 270 07:29 01.08.2019
4339 Clear 23 1009 27 6000 4.1 320 06:50 01.08.2019
4340 Clear 23 1009 27 6000 4.1 320 06:31 01.08.2019
4341 Clear 21 1009 31 6000 2.1 320 05:31 01.08.2019
4342 Clear 24 1009 24 6000 4.21 318.533 02:36 01.08.2019
4343 Clear 25 1009 28 6000 4.31 318.502 01:25 01.08.2019
4344 Clear 27 1009 34 6000 4.31 318.502 00:27 01.08.2019
4345 Clear 27 1009 36 6000 6.48 318.46 23:59 31.07.2019
4346 Clear 27 1009 36 6000 6.48 318.46 23:40 31.07.2019
4347 Clear 27 1009 36 6000 6.48 318.46 23:19 31.07.2019
4348 Clear 27 1009 32 6000 6.48 318.46 22:44 31.07.2019
4349 Clear 27 1009 32 6000 6.48 318.46 22:25 31.07.2019
4350 Clear 29 1009 35 6000 6.48 318.46 21:41 31.07.2019
4351 Clear 29 1009 35 6000 7.85 335.178 21:23 31.07.2019
4352 Clear 30 1008 35 6000 4.1 350 20:51 31.07.2019
4353 Clear 30 1008 35 6000 4.1 350 20:25 31.07.2019
4354 Haze 32 1008 38 5000 3.6 340 19:58 31.07.2019
4355 Haze 32 1008 38 5000 3.6 340 19:37 31.07.2019
4356 Haze 32 1008 38 5000 3.6 340 19:19 31.07.2019
4357 Haze 34 1008 31 5000 4.1 340 18:40 31.07.2019
4358 Haze 34 1008 31 5000 4.1 340 18:40 31.07.2019
4359 Haze 34 1008 31 5000 4.1 340 18:22 31.07.2019
4360 Haze 36 1008 26 5000 4.6 330 17:45 31.07.2019
4361 Haze 36 1008 26 5000 4.6 330 17:20 31.07.2019
4362 Haze 37 1008 18 5000 5.1 340 16:56 31.07.2019
4363 Haze 37 1008 18 5000 5.1 340 16:37 31.07.2019
4364 Haze 37 1008 18 5000 5.1 340 16:18 31.07.2019
4365 Haze 38 1008 16 5000 2.1 340 15:42 31.07.2019
4366 Haze 38 1008 16 5000 2.1 340 15:23 31.07.2019
4367 Haze 38 1009 16 5000 4.1 310 14:42 31.07.2019
4368 Haze 38 1009 16 5000 4.1 310 14:21 31.07.2019
4369 Clear 38 1009 12 6000 3.1 8 13:57 31.07.2019
4370 Clear 38 1009 12 6000 3.1 8 13:37 31.07.2019
4371 Clear 38 1009 12 6000 3.1 8 13:19 31.07.2019
4372 Clear 37 1009 14 6000 1.5 310 12:44 31.07.2019
4373 Clear 37 1009 14 6000 1.5 310 12:26 31.07.2019
4374 Clear 36 1010 13 6000 4.6 350 11:54 31.07.2019
4375 Clear 36 1010 13 6000 4.6 350 11:36 31.07.2019
4376 Clear 36 1010 13 6000 4.6 350 11:18 31.07.2019
4377 Clear 35 1010 12 6000 2.6 350 10:40 31.07.2019
4378 Clear 35 1010 12 6000 2.6 350 10:20 31.07.2019
4379 Clear 33 1010 12 6000 3.6 350 09:43 31.07.2019
4380 Clear 33 1010 12 6000 3.6 350 09:24 31.07.2019
4381 Haze 29 1010 14 5000 3.1 350 08:44 31.07.2019
4382 Haze 29 1010 14 5000 3.1 350 08:26 31.07.2019
4383 Haze 26 1009 18 5000 1.5 240 07:56 31.07.2019
4384 Haze 26 1009 18 5000 1.5 240 07:56 31.07.2019
4385 Haze 26 1009 18 5000 1.5 240 07:34 31.07.2019
4386 Haze 24 1009 22 5000 3.1 230 06:18 31.07.2019
4387 Haze 21 1009 41 5000 2.1 40 04:42 31.07.2019
4388 Clear 23 1009 44 6000 1.5 40 00:58 31.07.2019
4389 Clear 24 1010 44 6000 3.46 321.317 23:57 30.07.2019
4390 Clear 24 1010 44 6000 3.46 321.317 23:39 30.07.2019
4391 Clear 24 1010 44 6000 3.46 321.317 23:18 30.07.2019
4392 Clear 25 1010 44 6000 3.46 321.317 22:42 30.07.2019
4393 Clear 25 1010 44 6000 3.46 321.317 22:23 30.07.2019
4394 Clear 26 1010 44 6000 2.1 350 21:38 30.07.2019
4395 Clear 26 1010 44 6000 2.1 350 21:20 30.07.2019
4396 Clear 26 1010 44 6000 2.1 350 21:20 30.07.2019
4397 Clear 28 1010 37 6000 2.1 320 20:59 30.07.2019
4398 Clear 28 1010 37 6000 2.1 320 20:41 30.07.2019
4399 Clear 28 1010 37 6000 2.1 320 20:23 30.07.2019
4400 Clear 31 1009 33 7000 4.1 340 19:56 30.07.2019
4401 Clear 31 1009 33 7000 4.1 340 19:36 30.07.2019
4402 Clear 33 1009 27 7000 4.6 310 18:49 30.07.2019
4403 Clear 33 1009 27 7000 4.6 310 18:27 30.07.2019
4404 Clear 35 1009 15 7000 3.6 270 17:59 30.07.2019
4405 Clear 35 1009 15 7000 3.6 270 17:41 30.07.2019
4406 Clear 35 1009 15 7000 3.6 270 17:19 30.07.2019
4407 Clear 35 1009 14 8000 5.1 300 16:46 30.07.2019
4408 Clear 35 1009 14 8000 5.1 300 16:20 30.07.2019
4409 Clear 35 1009 11 8000 5.1 230 15:55 30.07.2019
4410 Clear 35 1009 11 8000 5.1 230 15:36 30.07.2019
4411 Clear 35 1009 11 8000 5.1 230 15:18 30.07.2019
4412 Clear 36 1010 11 6000 3.1 220 14:41 30.07.2019
4413 Clear 36 1010 11 6000 3.1 220 14:19 30.07.2019
4414 Clear 35 1010 6 6000 4.6 240 13:44 30.07.2019
4415 Clear 35 1010 6 6000 4.6 240 13:25 30.07.2019
4416 Clear 34 1010 7 7000 5.1 250 12:57 30.07.2019
4417 Clear 35 1011 15 6000 2.6 240 12:38 30.07.2019
4418 Clear 35 1011 15 6000 2.6 240 12:19 30.07.2019
4419 Clear 33 1011 15 6000 2.1 310 11:39 30.07.2019
4420 Clear 33 1011 15 6000 2.1 310 11:20 30.07.2019
4421 Clear 33 1011 15 6000 2.1 310 11:20 30.07.2019
4422 Clear 32 1011 18 6000 2.1 290 10:46 30.07.2019
4423 Clear 32 1011 18 6000 2.1 290 10:26 30.07.2019
4424 Clear 29 1011 20 6000 4.1 340 09:49 30.07.2019
4425 Clear 29 1011 20 6000 4.1 340 09:31 30.07.2019
4426 Clear 26 1011 23 6000 3.1 310 08:53 30.07.2019
4427 Clear 26 1011 23 6000 3.1 310 08:31 30.07.2019
4428 Clear 24 1011 22 6000 1.5 320 07:47 30.07.2019
4429 Clear 24 1011 22 6000 1.5 320 07:29 30.07.2019
4430 Haze 20 1010 31 6000 1.5 320 06:48 30.07.2019
4431 Haze 20 1010 31 6000 1.5 320 06:21 30.07.2019
4432 Clear 18 1010 33 7000 1 320 05:33 30.07.2019
4433 Clear 20 1011 38 10000 2.1 320 02:31 30.07.2019
4434 Clear 21 1011 38 10000 2.1 320 01:20 30.07.2019
4435 Clear 21 1011 40 10000 2.1 320 00:21 30.07.2019
4436 Clear 22 1011 41 7000 2.1 320 23:46 29.07.2019
4437 Clear 22 1011 41 7000 2.1 320 23:27 29.07.2019
4438 Clear 23 1011 50 10000 1.5 320 22:58 29.07.2019
4439 Clear 23 1011 50 10000 1.5 320 22:39 29.07.2019
4440 Clear 23 1011 50 10000 1.5 320 22:20 29.07.2019
4441 Clear 24 1010 53 10000 3.1 330 21:59 29.07.2019
4442 Clear 24 1010 53 10000 3.1 330 21:40 29.07.2019
4443 Clear 24 1010 53 10000 3.1 330 21:22 29.07.2019
4444 Clear 26 1010 50 10000 2.6 330 20:55 29.07.2019
4445 Clear 26 1010 50 10000 2.6 330 20:36 29.07.2019
4446 Clear 26 1010 50 10000 2.6 330 20:18 29.07.2019
4447 Haze 28 1010 42 5000 4.1 320 19:41 29.07.2019
4448 Haze 28 1010 42 5000 4.1 320 19:21 29.07.2019
4449 Haze 30 1009 42 8000 6.2 270 18:43 29.07.2019
4450 Haze 30 1009 42 8000 6.2 270 18:23 29.07.2019
4451 Haze 31 1009 31 5000 4.6 280 17:57 29.07.2019
4452 Haze 31 1009 31 5000 4.6 280 17:39 29.07.2019
4453 Haze 31 1009 31 5000 4.6 280 17:20 29.07.2019
4454 Haze 33 1009 25 5000 4.6 320 16:43 29.07.2019
4455 Haze 33 1009 25 5000 4.6 320 16:23 29.07.2019
4456 Haze 33 1009 21 5000 5.1 320 15:53 29.07.2019
4457 Haze 33 1009 21 5000 5.1 320 15:35 29.07.2019
4458 Haze 33 1009 22 5000 4.1 320 14:57 29.07.2019
4459 Haze 33 1009 22 5000 4.1 320 14:38 29.07.2019
4460 Haze 33 1009 22 5000 4.1 320 14:20 29.07.2019
4461 Haze 33 1009 22 5000 4.1 320 14:20 29.07.2019
4462 Clear 33 1010 21 6000 4.1 320 13:43 29.07.2019
4463 Clear 33 1010 21 6000 4.1 320 13:23 29.07.2019
4464 Clear 32 1010 20 6000 3.6 320 12:43 29.07.2019
4465 Clear 32 1010 20 6000 3.6 320 12:25 29.07.2019
4466 Clear 31 1010 25 7000 2.1 320 11:45 29.07.2019
4467 Clear 31 1010 25 7000 2.1 320 11:24 29.07.2019
4468 Clear 29 1010 26 7000 4.1 320 10:59 29.07.2019
4469 Clear 29 1010 26 7000 4.1 320 10:40 29.07.2019
4470 Clear 29 1010 26 7000 4.1 320 10:21 29.07.2019
4471 Haze 26 1010 26 5000 2.6 10 09:41 29.07.2019
4472 Haze 26 1010 26 5000 2.6 10 09:21 29.07.2019
4473 Haze 24 1010 33 5000 3.1 240 08:43 29.07.2019
4474 Haze 24 1010 33 5000 3.1 240 08:24 29.07.2019
4475 Haze 21 1009 38 4000 3.1 250 07:46 29.07.2019
4476 Haze 21 1009 38 4000 3.1 250 07:26 29.07.2019
4477 Haze 18 1008 60 5000 4.1 260 05:57 29.07.2019
4478 Haze 18 1008 60 5000 4.1 260 05:31 29.07.2019
4479 Clear 20 1008 60 6000 3.6 320 02:49 29.07.2019
4480 Clear 20 1009 68 6000 2.1 290 01:48 29.07.2019
4481 Clear 20 1009 68 6000 2.1 290 01:27 29.07.2019
4482 Clear 21 1009 68 6000 3.1 290 00:56 29.07.2019
4483 Clear 21 1009 68 6000 3.1 290 00:23 29.07.2019
4484 Clear 21 1009 64 6000 3.1 320 23:41 28.07.2019
4485 Clear 21 1009 64 6000 3.1 320 23:22 28.07.2019
4486 Clear 21 1009 64 6000 3.1 320 23:22 28.07.2019
4487 Haze 23 1009 60 5000 2.1 320 22:43 28.07.2019
4488 Haze 23 1009 60 5000 2.1 320 22:25 28.07.2019
4489 Haze 24 1009 73 5000 2.1 330 21:51 28.07.2019
4490 Haze 24 1009 73 5000 2.1 330 21:20 28.07.2019
4491 Haze 25 1008 57 5000 5.1 320 20:49 28.07.2019
4492 Haze 25 1008 57 5000 5.1 320 20:31 28.07.2019
4493 Haze 27 1008 54 5000 4.1 330 19:58 28.07.2019
4494 Haze 27 1008 54 5000 4.1 330 19:40 28.07.2019
4495 Haze 27 1008 54 5000 4.1 330 19:20 28.07.2019
4496 Clear 24 1004 54 0 7.11 324.671 18:46 28.07.2019
4497 Haze 30 1007 40 5000 5.1 300 18:25 28.07.2019
4498 Haze 30 1007 40 5000 5.1 300 17:56 28.07.2019
4499 Haze 30 1007 40 5000 5.1 300 17:37 28.07.2019
4500 Haze 30 1007 40 5000 5.1 300 17:19 28.07.2019
4501 Haze 30 1007 40 5000 5.1 300 17:19 28.07.2019
4502 Clouds 32 1007 38 6000 5.1 260 16:41 28.07.2019
4503 Clouds 32 1007 38 6000 5.1 260 16:22 28.07.2019
4504 Dust 32 1007 33 6000 6.7 340 15:44 28.07.2019
4505 Dust 32 1007 33 6000 6.7 340 15:26 28.07.2019
4506 Clouds 30 1007 35 7000 2.6 340 14:40 28.07.2019
4507 Clouds 30 1007 35 7000 2.6 340 14:20 28.07.2019
4508 Haze 30 1008 33 5000 4.6 210 13:56 28.07.2019
4509 Haze 30 1008 33 5000 4.6 210 13:38 28.07.2019
4510 Haze 30 1008 33 5000 4.6 210 13:19 28.07.2019
4511 Haze 31 1008 33 5000 5.1 230 12:42 28.07.2019
4512 Haze 31 1008 33 5000 5.1 230 12:24 28.07.2019
4513 Haze 29 1008 35 5000 6.7 240 11:50 28.07.2019
4514 Haze 29 1008 35 5000 6.7 240 11:29 28.07.2019
4515 Haze 28 1009 37 6000 5.1 290 10:58 28.07.2019
4516 Haze 28 1008 37 5000 4.1 290 10:38 28.07.2019
4517 Haze 26 1008 37 5000 4.1 290 10:18 28.07.2019
4518 Haze 26 1008 36 5000 3.6 310 09:40 28.07.2019
4519 Haze 26 1008 36 5000 3.6 310 09:21 28.07.2019
4520 Haze 25 1008 34 5000 5.1 270 08:42 28.07.2019
4521 Haze 25 1008 34 5000 5.1 270 08:21 28.07.2019
4522 Haze 23 1008 38 5000 3.6 290 07:42 28.07.2019
4523 Haze 23 1008 38 5000 3.6 290 07:24 28.07.2019
4524 Haze 19 1007 40 5000 2.1 270 06:35 28.07.2019
4525 Haze 19 1007 46 5000 2.6 270 05:20 28.07.2019
4526 Haze 21 1007 46 5000 2.6 260 02:39 28.07.2019
4527 Clear 21 1007 46 6000 3.1 270 01:43 28.07.2019
4528 Clear 22 1007 49 6000 3.6 260 00:56 28.07.2019
4529 Clear 22 1007 49 6000 3.6 260 00:37 28.07.2019
4530 Clear 23 1007 47 6000 4.6 320 23:53 27.07.2019
4531 Clear 23 1007 47 6000 4.6 320 23:28 27.07.2019
4532 Clear 24 1007 44 6000 2.1 320 22:47 27.07.2019
4533 Clear 24 1007 44 6000 2.1 320 22:47 27.07.2019
4534 Clear 24 1007 44 6000 2.1 320 22:28 27.07.2019
4535 Clear 25 1007 53 6000 3.6 310 21:59 27.07.2019
4536 Clear 25 1007 53 6000 3.6 310 21:38 27.07.2019
4537 Clear 26 1007 53 6000 3.6 310 21:19 27.07.2019
4538 Clear 26 1007 53 6000 5.7 310 20:45 27.07.2019
4539 Clear 26 1007 53 6000 5.7 310 20:22 27.07.2019
4540 Haze 27 1007 50 5000 4.1 280 19:42 27.07.2019
4541 Haze 27 1007 50 5000 4.1 280 19:22 27.07.2019
4542 Haze 28 1007 44 5000 6.7 310 18:49 27.07.2019
4543 Haze 28 1007 44 5000 6.7 310 18:31 27.07.2019
4544 Haze 30 1007 37 5000 6.7 310 17:52 27.07.2019
4545 Haze 30 1007 37 5000 6.7 310 17:32 27.07.2019
4546 Haze 30 1007 37 5000 6.7 310 17:32 27.07.2019
4547 Dust 30 1007 40 5000 8.2 280 16:58 27.07.2019
4548 Dust 30 1007 40 5000 8.2 280 16:39 27.07.2019
4549 Dust 30 1007 40 5000 8.2 280 16:19 27.07.2019
4550 Dust 31 1007 35 5000 7.7 320 15:44 27.07.2019
4551 Dust 31 1007 35 5000 7.7 320 15:19 27.07.2019
4552 Haze 31 1007 35 5000 4.1 310 14:48 27.07.2019
4553 Haze 31 1007 35 5000 4.1 310 14:29 27.07.2019
4554 Haze 30 1007 35 5000 4.6 330 13:52 27.07.2019
4555 Haze 30 1007 35 5000 4.6 330 13:25 27.07.2019
4556 Haze 30 1007 40 5000 6.2 320 12:57 27.07.2019
4557 Haze 30 1007 40 5000 6.2 320 12:37 27.07.2019
4558 Haze 30 1007 40 5000 6.2 320 12:19 27.07.2019
4559 Haze 29 1008 39 5000 7.2 300 11:41 27.07.2019
4560 Haze 29 1008 39 5000 7.2 300 11:23 27.07.2019
4561 Haze 28 1008 37 5000 5.1 310 10:41 27.07.2019
4562 Haze 28 1008 37 5000 5.1 310 10:23 27.07.2019
4563 Haze 26 1008 44 5000 4.6 320 09:42 27.07.2019
4564 Haze 26 1008 44 5000 4.6 320 09:23 27.07.2019
4565 Haze 25 1008 50 5000 5.1 320 08:50 27.07.2019
4566 Haze 25 1008 50 5000 5.1 320 08:32 27.07.2019
4567 Haze 23 1008 57 5000 3.1 320 07:57 27.07.2019
4568 Haze 23 1008 60 7000 3.1 300 07:34 27.07.2019
4569 Haze 21 1008 60 5000 6.75 318.519 06:58 27.07.2019
4570 Haze 21 1008 60 5000 6.75 318.519 06:37 27.07.2019
4571 Haze 21 1008 60 5000 5.03 321.603 06:18 27.07.2019
4572 Haze 20 1008 68 5000 2.1 320 05:34 27.07.2019
4573 Haze 22 1008 60 5000 2.1 320 04:38 27.07.2019
4574 Clear 21 1008 53 6000 3.6 270 03:39 27.07.2019
4575 Clear 21 1008 41 6000 2.6 260 02:42 27.07.2019
4576 Clear 24 1008 38 6000 2.6 250 01:54 27.07.2019
4577 Clear 23 1008 38 6000 2.6 250 01:32 27.07.2019
4578 Clear 23 1009 50 6000 3.1 280 00:38 27.07.2019
4579 Clear 23 1009 50 6000 3.1 280 00:18 27.07.2019
4580 Clear 24 1009 50 6000 2.6 300 23:41 26.07.2019
4581 Clear 24 1009 50 6000 2.6 300 23:23 26.07.2019
4582 Clear 25 1009 47 6000 2.1 250 22:43 26.07.2019
4583 Clear 25 1009 47 6000 2.1 250 22:25 26.07.2019
4584 Haze 25 1009 47 5000 2.6 260 21:52 26.07.2019
4585 Haze 25 1009 47 5000 2.6 260 21:20 26.07.2019
4586 Haze 27 1009 54 5000 4.1 280 20:52 26.07.2019
4587 Haze 27 1009 54 5000 4.1 280 20:33 26.07.2019
4588 Haze 27 1009 54 5000 4.1 320 19:56 26.07.2019
4589 Haze 27 1009 54 5000 4.1 320 19:38 26.07.2019
4590 Haze 27 1009 54 5000 4.1 320 19:20 26.07.2019
4591 Haze 27 1009 54 5000 4.1 320 19:20 26.07.2019
4592 Haze 30 1009 48 5000 5.7 320 18:41 26.07.2019
4593 Haze 30 1009 48 5000 5.7 320 18:21 26.07.2019
4594 Haze 31 1009 33 5000 5.1 280 17:57 26.07.2019
4595 Haze 31 1009 33 5000 5.1 280 17:38 26.07.2019
4596 Haze 31 1009 33 5000 5.1 280 17:18 26.07.2019
4597 Haze 32 1009 33 5000 5.1 250 16:55 26.07.2019
4598 Haze 32 1009 33 5000 5.1 250 16:36 26.07.2019
4599 Haze 32 1009 33 5000 5.1 250 16:18 26.07.2019
4600 Haze 33 1009 24 5000 6.2 250 15:45 26.07.2019
4601 Haze 33 1009 24 5000 6.2 250 15:22 26.07.2019
4602 Haze 33 1009 24 5000 6.2 250 15:22 26.07.2019
4603 Clear 34 1010 26 6000 5.1 270 14:54 26.07.2019
4604 Clear 34 1010 26 6000 5.1 270 14:36 26.07.2019
4605 Clear 34 1010 26 6000 5.1 270 14:18 26.07.2019
4606 Clear 33 1010 31 6000 5.7 270 13:37 26.07.2019
4607 Clear 33 1010 31 6000 5.7 270 13:19 26.07.2019
4608 Clear 32 1011 38 6000 5.1 240 12:42 26.07.2019
4609 Clear 32 1011 38 6000 5.1 240 12:19 26.07.2019
4610 Clear 31 1011 25 6000 4.6 350 11:39 26.07.2019
4611 Haze 30 1011 25 6000 4.6 350 11:19 26.07.2019
4612 Haze 29 1011 27 6000 4.6 350 10:52 26.07.2019
4613 Haze 29 1011 27 6000 4.6 350 10:34 26.07.2019
4614 Haze 27 1011 32 6000 3.6 250 09:55 26.07.2019
4615 Haze 27 1011 32 6000 3.6 250 09:34 26.07.2019
4616 Haze 26 1012 27 6000 3.1 270 08:43 26.07.2019
4617 Haze 26 1012 27 6000 3.1 270 08:22 26.07.2019
4618 Haze 23 1012 25 5000 2.1 310 07:58 26.07.2019
4619 Haze 23 1012 25 5000 2.1 310 07:28 26.07.2019
4620 Haze 20 1011 33 5000 2.1 310 06:53 26.07.2019
4621 Haze 18 1011 46 5000 4.6 314.409 05:23 26.07.2019
4622 Haze 18 1011 49 5000 4.6 314.409 04:22 26.07.2019
4623 Haze 20 1011 49 5000 4.05 310.937 02:45 26.07.2019
4624 Haze 21 1011 49 5000 2.1 350 01:43 26.07.2019
4625 Clear 22 1011 50 6000 1.5 350 00:45 26.07.2019
4626 Clear 23 1012 50 6000 2.6 250 23:57 25.07.2019
4627 Clear 23 1012 50 6000 2.6 250 23:24 25.07.2019
4628 Clear 25 1012 53 6000 4.82 328.429 22:58 25.07.2019
4629 Clear 25 1012 53 6000 4.82 328.429 22:39 25.07.2019
4630 Clear 25 1012 53 6000 4.82 328.429 22:20 25.07.2019
4631 Clear 26 1012 50 6000 2.6 330 21:44 25.07.2019
4632 Clear 26 1012 50 6000 2.6 330 21:22 25.07.2019
4633 Clear 27 1012 47 6000 1.5 330 20:48 25.07.2019
4634 Clear 27 1012 47 6000 1.5 330 20:29 25.07.2019
4635 Clear 29 1012 45 6000 3.6 310 19:54 25.07.2019
4636 Clear 29 1012 45 6000 3.6 310 19:36 25.07.2019
4637 Clear 29 1012 45 6000 3.6 310 19:18 25.07.2019
4638 Clear 31 1012 40 6000 5.7 320 18:39 25.07.2019
4639 Clear 31 1012 40 6000 5.7 320 18:21 25.07.2019
4640 Clear 33 1011 29 6000 5.1 310 17:45 25.07.2019
4641 Clear 33 1011 29 6000 5.1 310 17:25 25.07.2019
4642 Clear 34 1011 22 6000 6.2 320 16:47 25.07.2019
4643 Clear 34 1011 22 6000 6.2 320 16:29 25.07.2019
4644 Clear 35 1012 17 6000 6.2 310 15:58 25.07.2019
4645 Clear 35 1012 17 6000 6.2 310 15:38 25.07.2019
4646 Clear 35 1012 17 6000 6.2 310 15:19 25.07.2019
4647 Clear 34 1012 14 6000 4.6 260 14:41 25.07.2019
4648 Clear 34 1012 14 6000 4.6 260 14:22 25.07.2019
4649 Clear 33 1012 17 7000 4.6 250 13:44 25.07.2019
4650 Clear 33 1012 17 7000 4.6 250 13:26 25.07.2019
4651 Clear 33 1012 17 7000 4.6 250 13:26 25.07.2019
4652 Clear 32 1013 14 7000 5.1 260 12:57 25.07.2019
4653 Clear 33 1012 29 7000 4.6 250 12:28 25.07.2019
4654 Clear 31 1013 25 7000 2.1 320 11:46 25.07.2019
4655 Clear 31 1013 25 7000 2.1 320 11:25 25.07.2019
4656 Clear 30 1013 19 6000 2.6 330 10:55 25.07.2019
4657 Clear 30 1013 19 6000 2.6 330 10:36 25.07.2019
4658 Clear 30 1013 19 6000 2.6 330 10:18 25.07.2019
4659 Clear 28 1013 20 6000 2.6 10 09:42 25.07.2019
4660 Clear 28 1013 20 6000 2.6 10 09:23 25.07.2019
4661 Clear 25 1013 24 6000 2.6 340 08:42 25.07.2019
4662 Haze 23 1013 27 5000 1.5 340 07:56 25.07.2019
4663 Haze 23 1013 27 5000 1.5 340 07:34 25.07.2019
4664 Haze 21 1012 31 5000 1.5 340 06:43 25.07.2019
4665 Clear 16 1012 59 6000 5.65 317.89 05:39 25.07.2019
4666 Haze 19 1012 59 6000 5.65 317.89 05:20 25.07.2019
4667 Haze 19 1011 32 5000 5.65 317.89 04:37 25.07.2019
4668 Clear 22 1011 31 6000 2.1 340 01:46 25.07.2019
4669 Clear 22 1011 31 6000 2.1 340 01:18 25.07.2019
4670 Clear 22 1011 33 6000 1.5 340 00:20 25.07.2019
4671 Clear 23 1011 38 6000 2.1 330 23:47 24.07.2019
4672 Clear 23 1011 38 6000 2.1 330 23:29 24.07.2019
4673 Clear 24 1012 41 6000 2.1 320 22:56 24.07.2019
4674 -273 0 0 0 0 0 22:56 24.07.2019
4675 Clear 24 1012 41 6000 2.1 320 22:36 24.07.2019
4676 Clear 24 1012 41 6000 2.1 320 22:18 24.07.2019
4677 Clear 27 1012 38 6000 2.1 330 21:43 24.07.2019
4678 Clear 27 1012 38 6000 2.1 330 21:22 24.07.2019
4679 Clear 26 1011 39 6000 4.1 330 20:57 24.07.2019
4680 Clear 26 1011 39 6000 4.1 330 20:38 24.07.2019
4681 Clear 26 1011 39 6000 4.1 330 20:19 24.07.2019
4682 Clear 28 1011 34 6000 5.7 330 19:54 24.07.2019
4683 Clear 28 1011 34 6000 5.7 330 19:36 24.07.2019
4684 Clear 28 1011 34 6000 5.7 330 19:18 24.07.2019
4685 Clear 30 1010 32 6000 5.7 320 18:37 24.07.2019
4686 Clear 30 1010 32 6000 5.7 320 18:19 24.07.2019
4687 Clear 32 1010 29 6000 5.7 330 17:42 24.07.2019
4688 Clear 32 1010 29 6000 5.7 330 17:20 24.07.2019
4689 Clear 33 1010 22 6000 5.1 330 16:41 24.07.2019
4690 Clear 33 1010 22 6000 5.1 330 16:22 24.07.2019
4691 Haze 33 1010 21 5000 4.1 270 15:40 24.07.2019
4692 Haze 33 1010 21 5000 4.1 270 15:21 24.07.2019
4693 Haze 33 1010 18 5000 4.6 270 14:57 24.07.2019
4694 Haze 33 1010 18 5000 4.6 270 14:38 24.07.2019
4695 Haze 33 1010 18 5000 4.6 270 14:18 24.07.2019
4696 Haze 33 1010 18 5000 1.5 300 13:37 24.07.2019
4697 Haze 33 1010 18 5000 1.5 300 13:18 24.07.2019
4698 Haze 32 1010 19 5000 4.1 310 12:50 24.07.2019
4699 Haze 32 1010 19 5000 4.1 310 12:30 24.07.2019
4700 Clear 32 1011 18 6000 3.6 310 11:40 24.07.2019
4701 Clear 32 1011 18 6000 3.6 310 11:20 24.07.2019
4702 Clear 30 1011 21 6000 3.6 290 10:45 24.07.2019
4703 Clear 30 1011 21 6000 3.6 290 10:25 24.07.2019
4704 Haze 29 1010 21 5000 5.1 320 09:49 24.07.2019
4705 Haze 29 1010 21 5000 5.1 320 09:25 24.07.2019
4706 Haze 27 1010 22 5000 3.6 290 08:58 24.07.2019
4707 Haze 27 1010 22 5000 3.6 290 08:58 24.07.2019
4708 Haze 27 1010 22 5000 3.6 290 08:32 24.07.2019
4709 Haze 24 1010 29 5000 1.5 30 07:52 24.07.2019
4710 Haze 24 1010 29 5000 1.5 30 07:30 24.07.2019
4711 Haze 21 1010 37 4000 4.15 315.606 06:36 24.07.2019
4712 Haze 21 1010 37 4000 4.15 315.606 06:36 24.07.2019
4713 Haze 20 1010 35 4000 1.5 40 05:56 24.07.2019
4714 Haze 22 1009 53 5000 2.6 290 02:54 24.07.2019
4715 Clear 22 1009 38 6000 1.5 300 01:44 24.07.2019
4716 Clear 22 1010 35 7000 1.5 270 00:57 24.07.2019
4717 Clear 22 1010 35 7000 1.5 270 00:24 24.07.2019
4718 Clear 22 1010 43 6000 1.5 330 23:46 23.07.2019
4719 Clear 22 1010 43 6000 1.5 330 23:25 23.07.2019
4720 Clear 22 1010 43 6000 1.5 330 23:25 23.07.2019
4721 Clear 24 1010 41 6000 4.1 320 22:56 23.07.2019
4722 Clear 24 1010 41 6000 4.1 320 22:36 23.07.2019
4723 Clear 24 1010 41 6000 4.1 320 22:18 23.07.2019
4724 Clear 25 1010 38 6000 5.1 310 21:44 23.07.2019
4725 Clear 25 1010 38 6000 5.1 310 21:25 23.07.2019
4726 Clear 26 1010 34 7000 6.2 320 20:49 23.07.2019
4727 Clear 26 1010 34 7000 6.2 320 20:29 23.07.2019
4728 Clear 28 1009 32 7000 6.2 310 19:43 23.07.2019
4729 Clear 28 1009 32 7000 6.2 310 19:24 23.07.2019
4730 Haze 30 1010 30 5000 6.7 390 18:57 23.07.2019
4731 Haze 30 1010 30 5000 6.7 390 18:39 23.07.2019
4732 Haze 30 1010 30 5000 6.7 390 18:19 23.07.2019
4733 Haze 32 1009 24 5000 5.1 300 17:42 23.07.2019
4734 Haze 32 1009 24 5000 5.1 300 17:21 23.07.2019
4735 Haze 33 1009 24 5000 6.7 320 16:44 23.07.2019
4736 Haze 33 1009 24 5000 6.7 320 16:25 23.07.2019
4737 Haze 33 1009 26 5000 5.1 390 15:51 23.07.2019
4738 Haze 34 1009 26 5000 5.1 390 15:32 23.07.2019
4739 Clear 37 1003 15 0 7.31 312.233 14:55 23.07.2019
4740 Clear 37 1003 15 0 7.31 312.233 14:36 23.07.2019
4741 Haze 33 1009 21 5000 5.7 320 14:18 23.07.2019
4742 Haze 33 1009 21 5000 5.7 320 13:55 23.07.2019
4743 Haze 33 1009 21 5000 5.7 320 13:36 23.07.2019
4744 Haze 33 1009 21 5000 5.7 320 13:18 23.07.2019
4745 Clear 32 1010 22 6000 5.7 330 12:42 23.07.2019
4746 Clear 32 1010 22 6000 5.7 330 12:22 23.07.2019
4747 Clear 31 1010 22 6000 4.6 300 11:41 23.07.2019
4748 Clear 31 1010 22 6000 4.6 300 11:21 23.07.2019
4749 Clear 31 1010 22 6000 4.1 330 10:49 23.07.2019
4750 Clear 31 1010 22 6000 4.1 330 10:23 23.07.2019
4751 Haze 29 1009 26 5000 4.1 330 09:43 23.07.2019
4752 Haze 29 1009 26 5000 4.1 330 09:43 23.07.2019
4753 Haze 29 1009 26 5000 4.1 330 09:22 23.07.2019
4754 Haze 26 1009 32 5000 1 330 08:54 23.07.2019
4755 Haze 26 1009 32 5000 1 330 08:36 23.07.2019
4756 Haze 26 1009 32 5000 1 330 08:36 23.07.2019
4757 Haze 26 1009 32 5000 1 330 08:18 23.07.2019
4758 Clear 25 1010 36 6000 1 330 07:39 23.07.2019
4759 Haze 22 1010 38 5000 1 330 06:58 23.07.2019
4760 Haze 22 1010 38 5000 1 330 06:36 23.07.2019
4761 Clear 20 1009 49 6000 2.41 326.317 04:45 23.07.2019
4762 Clear 22 1010 47 6000 2.6 340 01:46 23.07.2019
4763 Clear 22 1010 60 10000 3.1 280 00:54 23.07.2019
4764 Clear 22 1010 44 6000 1 20 00:26 23.07.2019
4765 Clear 23 1010 47 6000 2.1 350 23:40 22.07.2019
4766 Clear 23 1010 47 6000 2.1 350 23:21 22.07.2019
4767 Clear 23 1010 57 6000 0.5 340 22:46 22.07.2019
4768 Clear 23 1010 57 6000 0.5 340 22:27 22.07.2019
4769 Clear 24 1010 53 7000 1 310 21:59 22.07.2019
4770 Clear 24 1010 53 7000 1 310 21:41 22.07.2019
4771 Clear 24 1010 53 7000 1 310 21:20 22.07.2019
4772 Clear 27 1010 54 6000 4.1 300 20:47 22.07.2019
4773 Clear 27 1010 54 6000 4.1 300 20:29 22.07.2019
4774 Haze 28 1010 47 5000 5.1 300 19:44 22.07.2019
4775 Haze 28 1010 47 5000 5.1 300 19:26 22.07.2019
4776 Clear 29 1010 42 6000 5.1 290 18:58 22.07.2019
4777 Clear 30 1010 42 6000 5.1 320 18:39 22.07.2019
4778 Clear 30 1010 42 6000 5.1 320 18:21 22.07.2019
4779 Clear 32 1010 35 6000 6.2 340 17:41 22.07.2019
4780 Clear 32 1010 35 6000 6.2 340 17:23 22.07.2019
4781 Haze 33 1010 33 5000 6.2 320 16:41 22.07.2019
4782 Haze 33 1010 33 5000 6.2 320 16:21 22.07.2019
4783 Haze 33 1010 29 5000 6.7 320 15:58 22.07.2019
4784 Haze 33 1010 29 5000 6.7 320 15:37 22.07.2019
4785 Haze 33 1010 29 5000 6.7 320 15:18 22.07.2019
4786 Haze 33 1010 27 5000 6.2 340 14:43 22.07.2019
4787 Haze 33 1010 27 5000 6.2 340 14:20 22.07.2019
4788 Clear 31 1011 29 6000 5.1 340 13:47 22.07.2019
4789 Clear 31 1011 29 6000 5.1 340 13:28 22.07.2019
4790 Clear 31 1011 31 6000 4.6 330 12:47 22.07.2019
4791 Clear 31 1011 31 6000 4.6 330 12:28 22.07.2019
4792 Clear 31 1011 33 7000 5.7 300 11:45 22.07.2019
4793 Clear 31 1011 33 7000 5.7 300 11:25 22.07.2019
4794 Clear 29 1011 35 7000 4.6 320 10:58 22.07.2019
4795 Clear 29 1011 35 7000 4.6 320 10:33 22.07.2019
4796 Clear 27 1011 32 7000 5.7 280 09:45 22.07.2019
4797 Clear 27 1011 32 7000 5.7 280 09:26 22.07.2019
4798 Mist 25 1011 34 6000 5.1 320 08:57 22.07.2019
4799 Mist 25 1011 34 6000 5.1 320 08:36 22.07.2019
4800 Mist 25 1011 34 6000 5.1 320 08:18 22.07.2019
4801 Mist 22 1012 44 6000 5.7 320 07:46 22.07.2019
4802 Mist 22 1012 44 6000 5.7 320 07:27 22.07.2019
4803 Clear 19 1011 68 8000 2.1 350 04:56 22.07.2019
4804 Clear 20 1011 60 7000 1.5 320 02:58 22.07.2019
4805 Haze 20 1012 53 5000 1.5 320 00:58 22.07.2019
4806 Haze 20 1012 53 5000 1.5 320 00:38 22.07.2019
4807 Haze 20 1012 53 5000 1.5 320 00:20 22.07.2019
4808 Haze 21 1012 53 5000 2.1 360 23:45 21.07.2019
4809 Haze 23 1012 50 5000 1.5 330 22:58 21.07.2019
4810 Haze 23 1012 50 5000 1.5 330 22:39 21.07.2019
4811 Haze 23 1012 50 5000 1.5 330 22:20 21.07.2019
4812 Haze 24 1012 57 5000 2.1 300 21:49 21.07.2019
4813 Haze 24 1012 57 5000 2.1 300 21:26 21.07.2019
4814 Haze 25 1011 60 5000 3.6 260 20:59 21.07.2019
4815 Haze 25 1011 60 5000 3.6 260 20:41 21.07.2019
4816 Haze 25 1011 60 5000 3.6 260 20:22 21.07.2019
4817 Haze 26 1011 61 5000 6.2 290 19:49 21.07.2019
4818 Haze 26 1011 61 5000 6.2 290 19:29 21.07.2019
4819 Haze 28 1011 54 5000 5.1 290 18:53 21.07.2019
4820 Haze 28 1011 54 5000 5.1 290 18:34 21.07.2019
4821 Haze 30 1011 45 5000 7.2 310 17:58 21.07.2019
4822 Haze 29 1011 45 5000 7.2 310 17:40 21.07.2019
4823 Haze 30 1011 45 5000 7.2 310 17:19 21.07.2019
4824 Haze 31 1011 40 5000 7.2 300 16:41 21.07.2019
4825 Haze 31 1011 40 5000 7.2 300 16:22 21.07.2019
4826 Haze 30 1011 40 5000 7.2 270 15:42 21.07.2019
4827 Haze 30 1011 40 5000 7.2 270 15:21 21.07.2019
4828 Haze 31 1012 40 5000 6.2 320 14:53 21.07.2019
4829 Haze 31 1012 40 5000 6.2 320 14:25 21.07.2019
4830 Clear 31 1012 42 6000 5.7 340 13:57 21.07.2019
4831 Clear 31 1012 42 6000 5.7 340 13:39 21.07.2019
4832 Clear 31 1012 42 6000 5.7 340 13:19 21.07.2019
4833 Clear 29 1012 42 6000 5.7 340 12:40 21.07.2019
4834 Clear 29 1012 42 6000 5.7 340 12:40 21.07.2019
4835 Clear 29 1012 42 6000 5.7 340 12:21 21.07.2019
4836 Clear 28 1012 42 6000 4.6 310 11:45 21.07.2019
4837 Clear 28 1012 42 6000 4.6 310 11:26 21.07.2019
4838 Clear 26 1012 42 6000 5.1 340 10:47 21.07.2019
4839 Clear 26 1012 42 6000 5.1 340 10:25 21.07.2019
4840 Clouds 25 1013 47 6000 4.6 290 09:55 21.07.2019
4841 Clouds 25 1013 47 6000 4.6 290 09:35 21.07.2019
4842 Haze 23 1013 57 4800 3.1 260 08:49 21.07.2019
4843 Haze 23 1013 57 4800 3.1 260 08:30 21.07.2019
4844 Haze 21 1013 64 5000 3.1 280 07:56 21.07.2019
4845 Haze 21 1013 64 5000 3.1 280 07:19 21.07.2019
4846 Haze 20 1013 73 4000 2.1 320 06:34 21.07.2019
4847 Clear 18 1013 72 6000 2.1 340 04:19 21.07.2019
4848 Clear 20 1013 73 6000 1.5 340 01:53 21.07.2019
4849 Clear 20 1013 73 6000 1.5 340 00:47 21.07.2019
4850 Clear 20 1013 73 6000 1.5 340 00:21 21.07.2019
4851 Clear 21 1013 68 6000 2.6 340 23:48 20.07.2019
4852 Clear 21 1013 68 6000 2.6 340 23:27 20.07.2019
4853 Clear 22 1013 68 6000 2.1 320 22:58 20.07.2019
4854 Clear 22 1013 68 6000 2.1 320 22:40 20.07.2019
4855 Clear 22 1013 68 6000 2.1 320 22:19 20.07.2019
4856 Clear 23 1013 69 6000 4.1 280 21:43 20.07.2019
4857 Clear 23 1013 69 6000 4.1 280 21:24 20.07.2019
4858 Clear 24 1013 64 6000 5.1 310 20:43 20.07.2019
4859 Clear 24 1013 64 6000 5.1 310 20:23 20.07.2019
4860 Clear 26 1013 61 7000 6.2 310 19:51 20.07.2019
4861 Clear 26 1013 61 7000 6.2 310 19:29 20.07.2019
4862 Haze 28 1012 54 5000 6.2 310 18:57 20.07.2019
4863 Haze 28 1012 54 5000 6.2 310 18:38 20.07.2019
4864 Haze 28 1012 54 5000 6.2 310 18:19 20.07.2019
4865 Haze 29 1012 54 5000 7.2 310 17:46 20.07.2019
4866 Haze 29 1012 54 5000 7.2 310 17:20 20.07.2019
4867 Clear 30 1012 37 6000 7.2 310 16:42 20.07.2019
4868 Clear 30 1012 37 6000 7.2 310 16:23 20.07.2019
4869 Clear 30 1012 37 6000 7.2 310 15:55 20.07.2019
4870 Clear 30 1013 35 6000 5.1 310 15:37 20.07.2019
4871 Clear 30 1013 35 6000 5.1 310 15:18 20.07.2019
4872 Clear 30 1013 37 7000 6.2 290 14:42 20.07.2019
4873 Clear 31 1013 35 7000 6.2 340 14:20 20.07.2019
4874 Haze 30 1013 35 5000 6.2 300 13:38 20.07.2019
4875 Haze 30 1013 35 5000 6.2 300 13:19 20.07.2019
4876 Clouds 29 1013 30 6000 6.2 330 12:51 20.07.2019
4877 Clouds 29 1013 30 6000 6.2 330 12:20 20.07.2019
4878 Clear 28 1014 32 6000 5.1 330 11:52 20.07.2019
4879 Clear 28 1014 32 6000 5.1 330 11:23 20.07.2019
4880 Clear 26 1014 39 6000 5.1 330 10:52 20.07.2019
4881 Clear 26 1014 39 6000 5.1 330 10:26 20.07.2019
4882 Haze 25 1014 47 6000 5.7 290 09:55 20.07.2019
4883 Haze 25 1014 47 6000 5.7 290 09:37 20.07.2019
4884 Haze 25 1014 47 6000 5.7 290 09:18 20.07.2019
4885 Haze 24 1014 60 5000 3.6 340 08:38 20.07.2019
4886 Haze 24 1014 60 5000 3.6 340 08:19 20.07.2019
4887 Haze 21 1015 64 5000 3.1 360 07:18 20.07.2019
4888 Haze 19 1014 72 5000 1.5 350 06:35 20.07.2019
4889 Haze 18 1014 60 5000 1.5 60 04:31 20.07.2019
4890 Clear 20 1013 52 6000 5.22 322.537 02:38 20.07.2019
4891 Clear 20 1014 56 6000 1.5 350 01:21 20.07.2019
4892 Clear 21 1014 56 6000 1.5 350 00:46 20.07.2019
4893 Clear 21 1014 56 6000 1.5 350 00:18 20.07.2019
4894 Clear 21 1014 56 6000 1.5 350 00:18 20.07.2019
4895 Clear 21 1014 49 6000 2.6 330 23:43 19.07.2019
4896 Clear 21 1014 49 6000 2.6 330 23:24 19.07.2019
4897 Clear 22 1014 49 6000 4.6 260 22:45 19.07.2019
4898 Clear 22 1014 49 6000 4.6 260 22:26 19.07.2019
4899 Clear 24 1014 64 6000 3.6 310 21:49 19.07.2019
4900 Clear 24 1014 64 6000 3.6 310 21:31 19.07.2019
4901 Haze 25 1014 60 5000 4.1 320 20:58 19.07.2019
4902 Haze 25 1014 60 5000 4.1 320 20:37 19.07.2019
4903 Haze 25 1014 60 5000 4.1 320 20:18 19.07.2019
4904 Haze 26 1014 53 5000 4.1 320 19:35 19.07.2019
4905 Haze 28 1014 47 5000 4.6 320 18:43 19.07.2019
4906 Haze 28 1014 47 5000 4.6 320 18:25 19.07.2019
4907 Haze 29 1013 45 4000 6.2 340 17:55 19.07.2019
4908 Haze 29 1013 45 4000 6.2 340 17:29 19.07.2019
4909 Haze 30 1013 37 5000 6.2 340 16:57 19.07.2019
4910 Haze 30 1013 37 5000 6.2 340 16:39 19.07.2019
4911 Haze 30 1013 37 5000 6.2 340 16:18 19.07.2019
4912 Haze 30 1013 35 5000 5.1 300 15:44 19.07.2019
4913 Haze 30 1013 35 5000 5.1 300 15:25 19.07.2019
4914 Haze 31 1013 37 5000 4.6 310 14:45 19.07.2019
4915 Haze 31 1013 37 5000 4.6 310 14:45 19.07.2019
4916 Haze 31 1013 37 5000 4.6 310 14:25 19.07.2019
4917 Clouds 30 1015 35 6000 4.1 320 13:58 19.07.2019
4918 Clouds 30 1015 35 6000 4.1 320 13:39 19.07.2019
4919 Clouds 30 1015 35 6000 4.1 320 13:20 19.07.2019
4920 Clouds 29 1015 39 6000 5.1 320 12:45 19.07.2019
4921 Clear 28 1014 37 8000 5.1 290 12:26 19.07.2019
4922 Clouds 28 1015 42 6000 6.2 330 11:46 19.07.2019
4923 Clouds 28 1015 42 6000 6.2 330 11:19 19.07.2019
4924 Clouds 26 1015 44 6000 5.1 310 10:56 19.07.2019
4925 Clouds 26 1015 44 6000 5.1 310 10:37 19.07.2019
4926 Clouds 25 1015 44 6000 5.1 310 10:18 19.07.2019
4927 Haze 24 1014 53 5000 6.2 310 09:43 19.07.2019
4928 Haze 24 1014 53 5000 6.2 310 09:22 19.07.2019
4929 Haze 24 1014 53 5000 6.2 310 09:22 19.07.2019
4930 Haze 23 1014 53 5000 6.2 310 08:50 19.07.2019
4931 Haze 23 1013 68 5000 5.7 290 08:27 19.07.2019
4932 Haze 22 1014 68 5000 5.1 280 07:33 19.07.2019
4933 Haze 20 1014 72 4000 4.1 290 06:33 19.07.2019
4934 Clear 19 1014 82 10000 3.6 290 03:53 19.07.2019
4935 Clear 19 1013 72 7000 2.6 330 01:42 19.07.2019
4936 Clear 20 1013 68 7000 2.1 340 00:54 19.07.2019
4937 Clear 21 1013 68 7000 3.6 330 23:59 18.07.2019
4938 Clear 21 1013 68 7000 3.6 330 23:40 18.07.2019
4939 Clear 21 1013 68 7000 3.6 330 23:22 18.07.2019
4940 Clear 23 1013 49 6000 5.1 270 22:44 18.07.2019
4941 Clear 23 1013 49 6000 5.1 270 22:20 18.07.2019
4942 Clear 24 1013 57 6000 3.1 320 21:57 18.07.2019
4943 Clear 24 1013 57 6000 3.1 320 21:38 18.07.2019
4944 Clear 24 1013 57 6000 3.1 320 21:18 18.07.2019
4945 Clear 25 1012 57 6000 4.1 320 20:45 18.07.2019
4946 Clear 25 1012 57 6000 4.1 320 20:23 18.07.2019
4947 Dust 26 1012 53 6000 3.6 300 19:49 18.07.2019
4948 Dust 26 1012 53 6000 3.6 300 19:27 18.07.2019
4949 Dust 28 1012 47 6000 6.2 300 18:51 18.07.2019
4950 Dust 28 1012 47 6000 6.2 300 18:23 18.07.2019
4951 Haze 29 1011 42 5000 6.2 270 17:57 18.07.2019
4952 Haze 29 1011 42 5000 6.2 270 17:37 18.07.2019
4953 Haze 29 1011 42 5000 6.2 270 17:19 18.07.2019
4954 Dust 30 1011 42 5000 8.2 300 16:49 18.07.2019
4955 Dust 30 1011 42 5000 8.2 300 16:25 18.07.2019
4956 Haze 31 1011 40 5000 6.7 270 15:57 18.07.2019
4957 Haze 31 1011 40 5000 6.7 270 15:36 18.07.2019
4958 Haze 31 1011 38 4000 8.7 300 14:56 18.07.2019
4959 Haze 32 1011 38 5000 6.7 270 14:38 18.07.2019
4960 Haze 32 1011 38 5000 6.7 270 14:19 18.07.2019
4961 Dust 31 1011 40 5000 8.2 300 13:38 18.07.2019
4962 Dust 31 1011 40 5000 8.2 300 13:19 18.07.2019
4963 Dust 30 1012 42 5000 7.7 250 12:45 18.07.2019
4964 Dust 30 1012 37 5000 7.7 300 12:21 18.07.2019
4965 Dust 30 1012 37 5000 7.7 300 11:51 18.07.2019
4966 Dust 30 1012 37 5000 7.7 300 11:33 18.07.2019
4967 Clear 29 1012 37 6000 5.1 270 10:52 18.07.2019
4968 Clear 29 1012 37 6000 5.1 270 10:30 18.07.2019
4969 Clear 29 1011 34 6000 5.1 270 09:45 18.07.2019
4970 Clear 29 1011 34 6000 5.1 270 09:23 18.07.2019
4971 Clear 28 1011 36 6000 6.2 270 08:49 18.07.2019
4972 Clear 28 1011 36 6000 6.2 270 08:20 18.07.2019
4973 Clear 26 1010 41 6000 4.1 270 07:43 18.07.2019
4974 Haze 25 1010 41 6000 4.1 270 07:24 18.07.2019
4975 Haze 24 1010 41 6000 3.1 270 06:38 18.07.2019
4976 Haze 23 1010 47 8000 2.6 270 05:35 18.07.2019
4977 Dust 24 1010 44 6000 3.1 260 03:23 18.07.2019
4978 Haze 25 1010 39 5000 4.1 250 01:52 18.07.2019
4979 Haze 25 1010 39 5000 4.1 250 01:18 18.07.2019
4980 Dust 26 1011 36 6000 6.2 260 23:54 17.07.2019
4981 Dust 26 1011 36 6000 6.2 260 23:20 17.07.2019
4982 Dust 27 1010 34 6000 5.1 250 22:56 17.07.2019
4983 Dust 27 1010 34 6000 5.1 250 22:38 17.07.2019
4984 Dust 27 1010 34 6000 5.1 250 22:19 17.07.2019
4985 Dust 28 1009 32 4000 4.1 260 21:45 17.07.2019
4986 Dust 28 1009 32 4000 4.1 260 21:26 17.07.2019
4987 Dust 29 1009 32 4000 4.1 260 20:58 17.07.2019
4988 Dust 29 1009 33 4000 5.7 250 20:40 17.07.2019
4989 Dust 29 1009 33 4000 5.7 250 20:21 17.07.2019
4990 Dust 31 1009 31 3000 6.2 260 19:56 17.07.2019
4991 Dust 31 1009 31 3000 6.2 260 19:37 17.07.2019
4992 Dust 32 1009 33 3000 4.1 260 19:18 17.07.2019
4993 Dust 32 1009 27 2500 6.2 260 18:41 17.07.2019
4994 Dust 33 1009 21 2500 8.2 260 18:20 17.07.2019
4995 Dust 33 1009 21 2500 8.2 260 17:50 17.07.2019
4996 Dust 33 1009 21 2500 8.2 260 17:27 17.07.2019
4997 Dust 36 1009 23 4000 9.3 260 16:56 17.07.2019
4998 Dust 36 1009 23 4000 9.3 260 16:38 17.07.2019
4999 Dust 37 1009 18 4000 9.3 270 16:18 17.07.2019
5000 Dust 37 1009 18 4000 9.3 270 15:50 17.07.2019
5001 Dust 37 1009 18 4000 9.3 270 15:25 17.07.2019
5002 Dust 37 1008 18 4000 11.3 290 14:55 17.07.2019
5003 Dust 37 1009 18 4000 8.7 250 14:37 17.07.2019
5004 Dust 37 1009 12 4000 10.3 250 14:18 17.07.2019
5005 Dust 38 1009 18 4000 8.2 260 13:42 17.07.2019
5006 Dust 38 1009 18 4000 8.2 260 13:24 17.07.2019
5007 Dust 37 1009 18 4000 9.3 250 12:41 17.07.2019
5008 Dust 37 1009 18 4000 9.3 250 12:21 17.07.2019
5009 Dust 36 1010 17 5000 5.7 240 11:45 17.07.2019
5010 Dust 36 1010 17 5000 5.7 240 11:22 17.07.2019
5011 Dust 35 1010 18 4000 8.2 230 10:55 17.07.2019
5012 Dust 35 1010 18 4000 8.2 230 10:37 17.07.2019
5013 Dust 35 1009 18 5000 5.1 250 10:18 17.07.2019
5014 Dust 31 1010 27 5000 4.6 250 09:44 17.07.2019
5015 Dust 31 1010 27 5000 4.6 250 09:24 17.07.2019
5016 Haze 29 1010 28 5000 3.1 240 08:43 17.07.2019
5017 Haze 29 1010 28 5000 3.1 240 08:22 17.07.2019
5018 Haze 26 1010 32 4000 3.1 250 07:51 17.07.2019
5019 Haze 26 1010 32 4000 3.1 250 07:25 17.07.2019
5020 Haze 23 1010 32 4000 3.1 250 06:57 17.07.2019
5021 Haze 23 1010 39 4000 4.1 250 06:30 17.07.2019
5022 Haze 23 1010 39 4000 4.1 250 05:57 17.07.2019
5023 Haze 23 1010 44 4000 2.6 240 05:30 17.07.2019
5024 Clear 22 1010 50 6000 3.1 260 04:46 17.07.2019
5025 Clear 22 1010 53 6000 2.6 250 03:39 17.07.2019
5026 Clear 22 1010 60 6000 1.5 320 02:25 17.07.2019
5027 Clear 23 1011 57 6000 1.5 320 01:28 17.07.2019
5028 Clear 23 1011 57 6000 2.1 320 00:59 17.07.2019
5029 Clear 23 1011 57 6000 2.1 320 00:59 17.07.2019
5030 Clear 23 1011 57 6000 2.1 320 00:38 17.07.2019
5031 Clear 24 1011 34 6000 3.6 314.346 00:19 17.07.2019
5032 Clear 24 1011 34 6000 3.6 314.346 23:41 16.07.2019
5033 Clear 24 1011 34 6000 3.6 314.346 23:21 16.07.2019
5034 Haze 25 1011 47 5000 2.1 330 22:43 16.07.2019
5035 Haze 25 1011 47 5000 2.1 330 22:24 16.07.2019
5036 Haze 25 1011 50 5000 2.1 330 21:56 16.07.2019
5037 Haze 25 1011 50 5000 2.1 330 21:36 16.07.2019
5038 Haze 26 1011 50 5000 1.5 330 21:18 16.07.2019
5039 Haze 26 1011 50 5000 1.5 330 20:41 16.07.2019
5040 Haze 26 1011 50 5000 1.5 330 20:22 16.07.2019
5041 Haze 27 1011 50 5000 1.5 330 19:54 16.07.2019
5042 Haze 28 1011 42 5000 4.6 310 19:30 16.07.2019
5043 Haze 28 1011 42 5000 4.6 310 18:59 16.07.2019
5044 Haze 29 1011 37 5000 5.1 300 18:40 16.07.2019
5045 Haze 29 1011 37 5000 5.1 300 18:20 16.07.2019
5046 Haze 30 1011 33 5000 6.2 290 17:49 16.07.2019
5047 Haze 30 1011 33 5000 6.2 290 17:49 16.07.2019
5048 Haze 30 1011 33 5000 6.2 290 17:28 16.07.2019
5049 Haze 31 1011 33 5000 5.7 240 16:50 16.07.2019
5050 Haze 31 1011 33 5000 5.7 240 16:27 16.07.2019
5051 Haze 31 1011 35 6000 5.7 280 15:57 16.07.2019
5052 Haze 30 1011 33 5000 5.1 300 15:38 16.07.2019
5053 Haze 30 1011 33 5000 5.1 300 15:19 16.07.2019
5054 Haze 30 1011 33 5000 5.1 300 14:55 16.07.2019
5055 Haze 32 1012 31 5000 5.7 320 14:36 16.07.2019
5056 Haze 30 1012 37 5000 3.1 350 14:18 16.07.2019
5057 Haze 30 1012 37 5000 3.1 350 13:38 16.07.2019
5058 Haze 29 1011 37 6000 6.2 270 13:18 16.07.2019
5059 Haze 29 1012 39 5000 6.7 300 12:43 16.07.2019
5060 Haze 29 1012 39 5000 6.7 300 12:20 16.07.2019
5061 Haze 29 1012 39 5000 6.7 300 11:55 16.07.2019
5062 Haze 28 1012 34 5000 6.2 300 11:36 16.07.2019
5063 Haze 26 1013 47 6000 4.1 320 11:18 16.07.2019
5064 Haze 26 1013 47 6000 4.1 320 11:18 16.07.2019
5065 Haze 26 1013 47 6000 4.1 320 10:44 16.07.2019
5066 Haze 26 1013 47 6000 4.1 320 10:20 16.07.2019
5067 Haze 25 1012 57 5000 3.1 330 09:44 16.07.2019
5068 Haze 25 1012 57 5000 3.1 330 09:21 16.07.2019
5069 Haze 24 1013 53 6000 4.1 280 08:58 16.07.2019
5070 Haze 22 1013 64 5000 4.1 340 08:40 16.07.2019
5071 Haze 22 1013 73 6000 4.1 270 08:18 16.07.2019
5072 Haze 21 1013 68 5000 3.1 330 07:40 16.07.2019
5073 Haze 19 1012 77 5000 4.6 280 07:18 16.07.2019
5074 Haze 19 1012 77 5000 4.6 280 06:43 16.07.2019
5075 Haze 18 1012 77 5000 4.6 280 05:57 16.07.2019
5076 Haze 18 1012 77 4000 4.1 310 05:31 16.07.2019
5077 Haze 18 1011 72 5000 4.6 300 04:54 16.07.2019
5078 Clear 18 1011 72 6000 5.1 310 03:44 16.07.2019
5079 Clear 19 1011 72 6000 5.1 310 02:53 16.07.2019
5080 Clear 19 1011 72 6000 5.1 300 02:28 16.07.2019
5081 Clear 19 1012 77 6000 5.1 320 01:41 16.07.2019
5082 Clear 19 1012 77 6000 3.6 320 00:41 16.07.2019
5083 Clear 20 1012 82 8000 4.1 300 00:19 16.07.2019
5084 Clear 20 1011 73 6000 2.6 340 23:44 15.07.2019
5085 Clear 20 1011 73 6000 2.6 340 23:25 15.07.2019
5086 Clouds 22 1011 73 6000 2.6 320 22:47 15.07.2019
5087 Clouds 22 1011 73 6000 2.6 320 22:22 15.07.2019
5088 Clear 22 1012 64 8000 4.1 300 21:58 15.07.2019
5089 Clear 23 1011 68 6000 4.1 320 21:40 15.07.2019
5090 Clear 23 1011 68 6000 4.1 320 21:20 15.07.2019
5091 Clear 23 1012 60 8000 4.1 290 20:55 15.07.2019
5092 Clouds 24 1011 64 6000 7.2 320 20:36 15.07.2019
5093 Clouds 24 1011 64 6000 7.2 320 20:18 15.07.2019
5094 Clouds 25 1011 50 6000 7.2 320 19:39 15.07.2019
5095 Clouds 25 1011 50 6000 7.2 320 19:20 15.07.2019
5096 Clouds 27 1011 50 6000 7.2 320 18:54 15.07.2019
5097 Clouds 28 1011 44 6000 6.7 310 18:36 15.07.2019
5098 Clear 29 1011 42 8000 7.2 280 18:18 15.07.2019
5099 Clouds 30 1010 39 6000 5.1 310 17:42 15.07.2019
5100 Clouds 30 1010 39 6000 5.1 310 17:22 15.07.2019
5101 Haze 30 1010 35 8000 7.2 290 16:58 15.07.2019
5102 Haze 30 1010 37 5000 6.2 300 16:38 15.07.2019
5103 Haze 30 1010 37 5000 6.2 300 16:20 15.07.2019
5104 Haze 30 1010 33 8000 6.2 290 15:54 15.07.2019
5105 Haze 30 1010 33 5000 6.2 320 15:36 15.07.2019
5106 Haze 30 1011 35 5000 7.2 320 15:18 15.07.2019
5107 Haze 30 1011 35 5000 7.2 320 14:41 15.07.2019
5108 Haze 30 1011 35 5000 7.2 320 14:22 15.07.2019
5109 Clouds 28 1011 37 6000 5.7 260 13:49 15.07.2019
5110 Clouds 28 1011 37 6000 5.7 260 13:21 15.07.2019
5111 Haze 28 1011 42 7000 5.1 270 12:58 15.07.2019
5112 Haze 28 1011 39 5000 5.1 260 12:39 15.07.2019
5113 Haze 27 1011 39 5000 5.1 260 12:20 15.07.2019
5114 Clouds 27 1011 34 6000 5.1 320 11:41 15.07.2019
5115 Clouds 27 1011 34 6000 5.1 320 11:41 15.07.2019
5116 Clouds 27 1011 34 6000 5.1 320 11:22 15.07.2019
5117 Clouds 26 1011 42 6000 3.6 350 10:45 15.07.2019
5118 Clouds 26 1011 42 6000 3.6 350 10:25 15.07.2019
5119 Clouds 25 1011 41 7000 4.1 250 09:47 15.07.2019
5120 Clouds 25 1011 41 7000 4.1 250 09:25 15.07.2019
5121 Clouds 23 1011 53 7000 3.1 290 08:58 15.07.2019
5122 Clouds 24 1011 56 7000 5.1 320 08:40 15.07.2019
5123 Clouds 24 1011 56 7000 5.1 320 08:22 15.07.2019
5124 Smoke 21 1011 72 5000 3.1 320 07:37 15.07.2019
5125 Smoke 19 1011 72 5000 3.1 320 06:55 15.07.2019
5126 Smoke 19 1010 68 5000 3.1 320 06:33 15.07.2019
5127 Smoke 17 1010 82 5000 2.6 320 05:44 15.07.2019
5128 Smoke 17 1010 82 5000 2.6 320 05:22 15.07.2019
5129 Haze 18 1010 72 5000 2.6 320 04:41 15.07.2019
5130 Haze 18 1010 55 5000 1 320 03:35 15.07.2019
5131 Clear 18 1010 52 6000 4.58 320.049 02:32 15.07.2019
5132 Clear 19 1010 52 6000 4.58 320.049 01:41 15.07.2019
5133 Clear 19 1010 52 6000 4.39 319.417 01:23 15.07.2019
5134 Clear 20 1011 49 6000 1.5 330 00:48 15.07.2019
5135 Clear 21 1011 56 6000 3.1 330 00:19 15.07.2019
5136 Clear 21 1011 56 6000 3.1 330 23:54 14.07.2019
5137 Clear 21 1011 56 6000 3.1 330 23:36 14.07.2019
5138 Clear 22 1011 60 6000 3.6 350 23:18 14.07.2019
5139 Clear 22 1011 60 6000 3.6 350 22:40 14.07.2019
5140 Clear 22 1011 60 6000 3.6 350 22:22 14.07.2019
5141 Clear 22 1011 60 6000 3.6 350 21:58 14.07.2019
5142 Clear 23 1011 56 6000 2.1 340 21:39 14.07.2019
5143 Clear 25 1010 47 6000 5.1 320 21:18 14.07.2019
5144 Clear 25 1010 47 6000 5.1 320 21:18 14.07.2019
5145 Clear 25 1010 47 6000 5.1 320 20:54 14.07.2019
5146 Clear 25 1010 47 6000 5.1 320 20:36 14.07.2019
5147 Clear 26 1010 47 6000 5.1 320 20:18 14.07.2019
5148 Clear 27 1010 41 6000 4.1 320 19:42 14.07.2019
5149 Clear 27 1010 41 6000 4.1 320 19:24 14.07.2019
5150 Clear 29 1010 39 10000 5.1 290 18:50 14.07.2019
5151 Clear 30 1010 39 10000 5.1 290 18:29 14.07.2019
5152 Clear 30 1010 37 10000 4.6 310 17:59 14.07.2019
5153 Clear 30 1010 37 10000 4.6 310 17:39 14.07.2019
5154 Clear 32 1010 25 10000 3.6 280 17:18 14.07.2019
5155 Clear 32 1010 25 10000 3.6 280 16:46 14.07.2019
5156 Clear 32 1010 25 10000 3.6 280 16:23 14.07.2019
5157 Clear 31 1010 24 10000 5.7 250 15:50 14.07.2019
5158 Clear 31 1010 24 10000 5.7 250 15:27 14.07.2019
5159 Clear 32 1010 25 10000 3.1 260 14:48 14.07.2019
5160 Clear 32 1010 25 10000 3.1 260 14:21 14.07.2019
5161 Clear 31 1010 20 6000 3.6 300 13:49 14.07.2019
5162 Clear 31 1010 20 6000 3.6 300 13:25 14.07.2019
5163 Clear 30 1011 27 8000 5.1 260 12:59 14.07.2019
5164 Clear 31 1011 28 6000 5.1 280 12:40 14.07.2019
5165 Clear 31 1011 28 6000 5.1 280 12:21 14.07.2019
5166 Clear 29 1011 28 6000 5.1 240 11:52 14.07.2019
5167 Clear 29 1011 28 6000 5.1 240 11:22 14.07.2019
5168 Clear 29 1011 21 6000 1.5 340 10:50 14.07.2019
5169 Clear 27 1011 21 6000 1.5 340 10:25 14.07.2019
5170 Clear 26 1011 34 6000 2.1 60 09:56 14.07.2019
5171 Clear 31 1007 17 0 3.3 295.912 09:37 14.07.2019
5172 Haze 24 1011 29 5000 1 270 09:19 14.07.2019
5173 Haze 24 1011 29 5000 1 270 08:41 14.07.2019
5174 Haze 22 1011 35 5000 4.6 250 07:56 14.07.2019
5175 Haze 22 1011 35 5000 4.6 250 07:35 14.07.2019
5176 Haze 20 1011 35 5000 4.1 270 06:40 14.07.2019
5177 Haze 18 1011 42 5000 3.6 260 05:44 14.07.2019
5178 Clear 21 1012 46 6000 3.6 240 03:46 14.07.2019
5179 Clear 19 1012 46 6000 3.6 240 03:28 14.07.2019
5180 Clear 19 1012 46 6000 3.6 240 02:39 14.07.2019
5181 Clear 19 1012 46 6000 3.6 240 02:20 14.07.2019
5182 Clear 21 1012 33 7000 3.1 250 01:31 14.07.2019
5183 -273 0 0 0 0 0 00:56 14.07.2019
5184 Clear 21 1012 35 7000 3.1 250 00:37 14.07.2019
5185 Clear 22 1012 33 7000 4.1 250 00:19 14.07.2019
5186 Clear 22 1012 33 7000 4.1 250 23:43 13.07.2019
5187 Clear 22 1012 33 7000 4.1 250 23:23 13.07.2019
5188 Clear 23 1012 44 7000 4.6 250 22:47 13.07.2019
5189 Clear 23 1012 44 7000 4.6 250 22:23 13.07.2019
5190 Clear 23 1012 47 7000 2.6 310 21:55 13.07.2019
5191 Clear 23 1012 47 7000 2.6 310 21:23 13.07.2019
5192 Clear 23 1012 47 7000 2.6 310 21:23 13.07.2019
5193 Clear 24 1012 47 7000 2.6 310 20:59 13.07.2019
5194 Clear 24 1012 47 7000 2.1 320 20:40 13.07.2019
5195 Clear 24 1012 47 7000 2.1 320 20:21 13.07.2019
5196 Clear 26 1011 44 8000 5.1 320 19:43 13.07.2019
5197 Clear 26 1011 44 8000 5.1 320 19:23 13.07.2019
5198 Clear 28 1011 39 7000 5.1 320 18:41 13.07.2019
5199 Clouds 29 1011 37 7000 6.2 300 18:20 13.07.2019
5200 Clouds 29 1011 37 7000 6.2 300 17:38 13.07.2019
5201 Clouds 29 1011 37 7000 6.2 300 17:19 13.07.2019
5202 Clouds 30 1011 33 6000 6.7 290 16:46 13.07.2019
5203 Clouds 30 1011 33 6000 6.7 290 16:26 13.07.2019
5204 Clouds 30 1011 33 6000 6.7 290 15:59 13.07.2019
5205 Clouds 30 1011 33 6000 6.7 290 15:40 13.07.2019
5206 Clouds 30 1011 33 6000 6.7 290 15:20 13.07.2019
5207 Haze 30 1011 33 5000 7.2 250 14:41 13.07.2019
5208 Haze 30 1011 33 5000 7.2 250 14:21 13.07.2019
5209 Haze 29 1012 35 5000 6.2 280 13:45 13.07.2019
5210 Haze 29 1012 35 5000 6.2 280 13:24 13.07.2019
5211 Clouds 28 1012 42 6000 7.2 260 12:42 13.07.2019
5212 Clouds 28 1012 42 6000 7.2 260 12:23 13.07.2019
5213 Clouds 27 1012 44 6000 5.1 290 11:59 13.07.2019
5214 Clouds 27 1012 44 6000 5.1 290 11:39 13.07.2019
5215 Clouds 27 1012 44 6000 5.1 270 11:19 13.07.2019
5216 Clouds 27 1012 44 6000 5.1 270 10:42 13.07.2019
5217 Clouds 27 1012 44 6000 5.1 270 10:23 13.07.2019
5218 Clouds 25 1012 44 6000 5.1 270 09:52 13.07.2019
5219 Clouds 25 1012 53 6000 5.1 250 09:30 13.07.2019
5220 Clear 24 1013 53 6000 6.2 260 08:58 13.07.2019
5221 Clouds 24 1012 56 6000 6.7 250 08:32 13.07.2019
5222 Clouds 24 1012 56 6000 6.7 250 07:56 13.07.2019
5223 Clouds 21 1013 64 6000 5.7 270 07:29 13.07.2019
5224 Haze 20 1013 73 5000 4.1 250 06:37 13.07.2019
5225 Haze 19 1012 72 5000 4.1 270 05:51 13.07.2019
5226 Haze 20 1012 72 5000 4.1 270 04:42 13.07.2019
5227 Haze 20 1012 72 5000 4.1 270 04:22 13.07.2019
5228 Haze 21 1013 82 6000 4.1 260 03:55 13.07.2019
5229 Haze 21 1012 73 5000 5.1 280 03:37 13.07.2019
5230 Haze 22 1012 64 5000 5.1 270 01:55 13.07.2019
5231 Haze 22 1012 64 5000 5.1 270 01:36 13.07.2019
5232 Haze 23 1012 64 5000 5.1 270 01:18 13.07.2019
5233 Haze 23 1013 53 5000 3.6 300 00:50 13.07.2019
5234 Haze 23 1013 53 5000 3.6 300 00:18 13.07.2019
5235 Haze 24 1013 44 5000 3.1 270 23:44 12.07.2019
5236 Haze 24 1013 44 5000 3.1 270 23:25 12.07.2019
5237 Haze 25 1012 41 5000 7.2 270 22:46 12.07.2019
5238 Haze 25 1012 41 5000 7.2 270 22:24 12.07.2019
5239 Haze 26 1012 41 5000 4.6 260 21:43 12.07.2019
5240 Haze 26 1012 41 5000 4.6 260 21:22 12.07.2019
5241 Haze 27 1012 41 5000 4.6 260 20:56 12.07.2019
5242 Smoke 27 1012 39 5000 6.2 260 20:37 12.07.2019
5243 Smoke 27 1012 39 5000 6.2 260 20:19 12.07.2019
5244 Smoke 29 1012 32 5000 3.6 280 19:41 12.07.2019
5245 Smoke 29 1012 32 5000 3.6 280 19:23 12.07.2019
5246 Smoke 31 1012 30 5000 7.2 270 18:44 12.07.2019
5247 Smoke 31 1012 30 5000 7.2 270 18:21 12.07.2019
5248 Dust 33 1011 21 4000 10.3 250 17:51 12.07.2019
5249 Dust 33 1011 21 4000 10.3 250 17:28 12.07.2019
5250 Dust 34 1011 24 5000 10.3 250 16:48 12.07.2019
5251 Dust 34 1011 24 5000 10.3 250 16:22 12.07.2019
5252 Dust 34 1011 24 5000 8.7 280 15:54 12.07.2019
5253 Dust 34 1011 24 5000 8.7 280 15:36 12.07.2019
5254 Dust 35 1011 23 5000 7.7 270 15:18 12.07.2019
5255 Dust 35 1011 23 5000 7.7 270 14:43 12.07.2019
5256 Dust 35 1011 23 5000 7.7 270 14:20 12.07.2019
5257 Dust 35 1011 21 5000 7.7 270 13:43 12.07.2019
5258 Dust 35 1011 21 5000 7.7 270 13:20 12.07.2019
5259 Dust 34 1012 21 5000 7.7 270 12:41 12.07.2019
5260 Dust 34 1012 21 5000 7.7 270 12:21 12.07.2019
5261 Dust 34 1012 21 5000 8.7 270 11:45 12.07.2019
5262 Dust 34 1012 21 5000 8.7 270 11:24 12.07.2019
5263 Dust 34 1012 21 5000 8.7 270 10:55 12.07.2019
5264 Dust 33 1012 22 5000 9.3 250 10:37 12.07.2019
5265 Dust 33 1012 22 5000 9.3 250 10:19 12.07.2019
5266 Dust 33 1012 22 5000 9.3 250 09:51 12.07.2019
5267 Haze 32 1012 25 5000 2.6 250 09:24 12.07.2019
5268 Haze 28 1012 32 5000 2.6 240 08:42 12.07.2019
5269 Haze 28 1012 32 5000 2.6 240 08:22 12.07.2019
5270 Haze 27 1011 34 5000 3.1 220 07:47 12.07.2019
5271 Haze 23 1011 34 5000 3.1 220 07:29 12.07.2019
5272 Haze 23 1011 31 5000 4.6 240 06:29 12.07.2019
5273 Haze 22 1010 34 5000 3.1 240 05:50 12.07.2019
5274 Clear 23 1010 31 6000 4.96 301.989 03:46 12.07.2019
5275 Clear 24 1010 29 6000 3.1 260 01:51 12.07.2019
5276 Clear 24 1010 29 6000 3.1 260 01:32 12.07.2019
5277 Clear 24 1010 29 6000 3.1 280 00:35 12.07.2019
5278 Clear 25 1011 43 7000 3.1 260 23:57 11.07.2019
5279 Clear 25 1010 28 6000 2.6 270 23:38 11.07.2019
5280 Clear 26 1011 41 7000 3.1 260 23:19 11.07.2019
5281 Haze 26 1010 32 6000 3.1 320 22:43 11.07.2019
5282 Haze 26 1010 32 6000 3.1 320 22:24 11.07.2019
5283 Haze 27 1010 36 6000 3.6 280 21:44 11.07.2019
5284 Haze 27 1010 36 6000 3.6 280 21:20 11.07.2019
5285 Haze 29 1010 34 5000 4.1 320 20:59 11.07.2019
5286 Haze 29 1010 34 5000 4.1 320 20:41 11.07.2019
5287 Haze 29 1010 34 5000 4.1 320 20:22 11.07.2019
5288 Haze 31 1009 27 5000 6.2 330 19:55 11.07.2019
5289 Haze 31 1009 27 5000 6.2 330 19:37 11.07.2019
5290 Haze 31 1009 27 5000 6.2 330 19:19 11.07.2019
5291 Haze 32 1009 23 5000 5.7 310 18:40 11.07.2019
5292 Haze 33 1008 25 5000 7.2 290 18:21 11.07.2019
5293 Haze 33 1008 25 5000 7.2 290 17:47 11.07.2019
5294 Haze 33 1008 25 5000 7.2 290 17:28 11.07.2019
5295 Haze 33 1008 27 5000 6.2 320 16:53 11.07.2019
5296 Haze 33 1008 27 5000 6.2 320 16:25 11.07.2019
5297 Haze 34 1009 24 5000 7.7 340 15:58 11.07.2019
5298 Haze 34 1009 24 5000 7.7 340 15:39 11.07.2019
5299 Haze 34 1009 24 5000 7.7 340 15:20 11.07.2019
5300 Haze 34 1009 17 5000 6.7 280 14:44 11.07.2019
5301 Haze 34 1009 17 5000 6.7 280 14:24 11.07.2019
5302 Haze 35 1009 17 5000 6.7 280 13:52 11.07.2019
5303 Haze 35 1009 18 5000 4.1 300 13:33 11.07.2019
5304 Haze 35 1009 18 5000 4.1 300 12:58 11.07.2019
5305 Haze 34 1009 22 5000 5.1 300 12:37 11.07.2019
5306 Clear 33 1009 18 6000 5.1 300 12:19 11.07.2019
5307 Clear 33 1009 18 6000 5.1 300 11:43 11.07.2019
5308 Clear 33 1009 18 6000 5.1 300 11:24 11.07.2019
5309 Clear 32 1009 18 6000 5.1 300 10:51 11.07.2019
5310 Clear 31 1009 19 6000 4.6 260 10:19 11.07.2019
5311 Clear 31 1009 19 6000 4.6 260 09:50 11.07.2019
5312 Haze 31 1009 19 5000 5.1 260 09:31 11.07.2019
5313 Haze 29 1009 23 5000 4.6 250 08:57 11.07.2019
5314 Haze 29 1009 23 5000 4.6 250 08:37 11.07.2019
5315 Clear 26 1008 24 6000 5.7 290 08:19 11.07.2019
5316 Clear 26 1008 24 6000 5.7 290 07:42 11.07.2019
5317 Clear 24 1008 11 6000 7.2 290 06:49 11.07.2019
5318 Clear 26 1008 14 6000 7.2 290 06:18 11.07.2019
5319 Clear 22 1008 14 6000 7.2 290 05:31 11.07.2019
5320 Clear 23 1007 26 6000 6.2 280 04:56 11.07.2019
5321 Haze 23 1008 24 5000 4.6 270 03:19 11.07.2019
5322 Haze 23 1008 27 5000 1.5 250 02:18 11.07.2019
5323 Haze 24 1008 34 5000 3.1 250 00:32 11.07.2019
5324 Haze 24 1009 36 5000 2.1 310 23:50 10.07.2019
5325 Haze 24 1009 36 5000 2.1 310 23:24 10.07.2019
5326 Haze 25 1009 36 5000 2.1 310 22:57 10.07.2019
5327 Haze 25 1009 30 5000 2.6 270 22:25 10.07.2019
5328 Haze 26 1009 53 6000 3.1 260 21:56 10.07.2019
5329 Haze 26 1009 39 5000 3.1 260 21:38 10.07.2019
5330 Haze 26 1008 50 6000 6.2 300 21:19 10.07.2019
5331 Haze 28 1009 47 5000 4.6 270 20:44 10.07.2019
5332 Haze 28 1009 47 5000 4.6 270 20:26 10.07.2019
5333 Haze 28 1008 48 4000 3.6 310 19:57 10.07.2019
5334 Haze 28 1008 48 4000 3.6 310 19:38 10.07.2019
5335 Haze 31 1008 42 5000 6.2 300 19:20 10.07.2019
5336 Haze 31 1008 42 5000 6.2 300 18:46 10.07.2019
5337 Haze 31 1008 42 5000 6.2 300 18:23 10.07.2019
5338 Haze 33 1008 33 5000 7.2 280 17:47 10.07.2019
5339 Haze 33 1008 33 5000 7.2 280 17:29 10.07.2019
5340 Haze 33 1008 29 5000 6.7 300 16:47 10.07.2019
5341 Haze 33 1008 29 5000 6.7 300 16:47 10.07.2019
5342 Haze 33 1008 29 5000 6.7 300 16:21 10.07.2019
5343 Haze 34 1008 26 5000 6.2 280 15:47 10.07.2019
5344 Haze 34 1008 26 5000 6.2 280 15:26 10.07.2019
5345 Haze 34 1008 26 5000 6.2 280 14:55 10.07.2019
5346 Haze 34 1009 22 5000 5.1 310 14:37 10.07.2019
5347 Haze 33 1009 22 5000 5.1 310 14:18 10.07.2019
5348 Haze 33 1009 22 5000 6.2 240 13:36 10.07.2019
5349 Haze 33 1009 22 5000 6.2 240 13:36 10.07.2019
5350 Haze 33 1009 22 5000 6.2 240 13:18 10.07.2019
5351 Clear 33 1009 21 6000 4.1 240 12:41 10.07.2019
5352 Clear 33 1009 21 6000 4.1 240 12:21 10.07.2019
5353 Clear 32 1010 22 6000 3.6 320 11:49 10.07.2019
5354 Clear 32 1010 22 6000 3.6 320 11:22 10.07.2019
5355 Clear 30 1010 25 6000 3.1 240 10:58 10.07.2019
5356 Clear 30 1010 25 6000 3.1 240 10:24 10.07.2019
5357 Clear 29 1010 23 7000 5.1 270 09:59 10.07.2019
5358 Clear 29 1010 26 6000 4.1 240 09:41 10.07.2019
5359 Clear 29 1010 26 6000 4.1 240 09:19 10.07.2019
5360 Clear 26 1010 28 6000 4.1 230 08:49 10.07.2019
5361 Clear 26 1010 28 6000 4.1 230 08:26 10.07.2019
5362 Haze 24 1010 29 5000 3.6 240 07:51 10.07.2019
5363 Haze 24 1010 29 5000 3.6 240 07:24 10.07.2019
5364 Haze 22 1010 33 5000 1.5 250 06:40 10.07.2019
5365 Haze 20 1010 35 4000 4.48 318.191 05:42 10.07.2019
5366 Haze 20 1010 29 5000 3.1 250 04:33 10.07.2019
5367 Clear 25 1011 29 6000 2.6 210 02:38 10.07.2019
5368 Clear 25 1011 29 8000 3.6 240 00:44 10.07.2019
5369 Clear 23 1011 29 8000 3.6 240 23:57 09.07.2019
5370 Clear 24 1011 26 8000 4.1 250 23:37 09.07.2019
5371 Clear 25 1011 46 6000 5.1 270 23:19 09.07.2019
5372 Clear 25 1011 29 6000 3.6 260 22:40 09.07.2019
5373 Clear 25 1011 29 6000 3.6 260 22:21 09.07.2019
5374 Clear 26 1011 28 7000 3.6 260 21:47 09.07.2019
5375 Clear 26 1011 28 7000 3.6 260 21:26 09.07.2019
5376 Haze 27 1011 36 5000 3.1 310 20:57 09.07.2019
5377 Haze 27 1011 36 5000 3.1 310 20:39 09.07.2019
5378 Haze 27 1011 36 5000 3.1 310 20:21 09.07.2019
5379 Haze 29 1011 37 5000 3.6 300 19:39 09.07.2019
5380 Haze 29 1011 37 5000 3.6 300 19:19 09.07.2019
5381 Haze 30 1011 35 5000 6.2 310 18:40 09.07.2019
5382 Haze 30 1011 35 5000 6.2 310 18:22 09.07.2019
5383 Haze 31 1011 29 5000 4.6 300 17:54 09.07.2019
5384 Haze 31 1011 29 5000 4.6 300 17:36 09.07.2019
5385 Haze 31 1011 29 5000 4.6 300 17:18 09.07.2019
5386 Haze 31 1011 33 5000 6.2 340 16:41 09.07.2019
5387 Haze 31 1011 33 5000 6.2 340 16:23 09.07.2019
5388 Haze 32 1012 27 5000 6.7 310 15:44 09.07.2019
5389 Haze 32 1012 27 5000 6.7 310 15:26 09.07.2019
5390 Haze 33 1012 24 5000 7.2 300 14:47 09.07.2019
5391 Haze 33 1012 24 5000 7.2 300 14:24 09.07.2019
5392 Haze 31 1012 24 5000 7.2 300 13:59 09.07.2019
5393 Haze 31 1012 24 5000 6.7 300 13:39 09.07.2019
5394 Haze 31 1012 24 5000 6.7 300 13:20 09.07.2019
5395 Haze 31 1012 23 5000 5.1 320 12:40 09.07.2019
5396 Clear 31 1013 29 6000 6.2 310 12:19 09.07.2019
5397 Clear 31 1013 29 6000 6.2 310 11:57 09.07.2019
5398 Clear 30 1013 23 6000 5.1 320 11:38 09.07.2019
5399 Clear 30 1013 23 6000 5.1 320 11:20 09.07.2019
5400 Clear 34 1008 18 0 8.71 317.698 10:49 09.07.2019
5401 Clear 27 1013 32 6000 5.7 260 10:27 09.07.2019
5402 Clear 27 1013 32 6000 5.7 260 09:40 09.07.2019
5403 Clear 27 1013 32 6000 5.7 260 09:21 09.07.2019
5404 Clear 27 1013 32 6000 5.7 260 09:21 09.07.2019
5405 Haze 26 1013 31 5000 3.6 250 08:45 09.07.2019
5406 Haze 26 1013 31 5000 3.6 250 08:22 09.07.2019
5407 Clear 20 1012 35 6000 2.1 310 03:57 05.07.2019
5408 Clear 20 1012 35 6000 2.1 310 03:37 05.07.2019
5409 Clear 22 1012 43 6000 3.6 320 03:18 05.07.2019
5410 Clear 22 1012 43 6000 3.6 320 02:37 05.07.2019
5411 Clear 20 1012 37 6000 5.94 327.204 01:38 05.07.2019
5412 Clear 21 1012 37 6000 4.74 323.377 01:19 05.07.2019
5413 Clear 22 1012 35 6000 4.74 323.377 00:46 05.07.2019
5414 Clear 22 1012 35 6000 6.1 325.586 23:53 04.07.2019
5415 Clear 23 1012 35 6000 1.5 300 23:21 04.07.2019
5416 Clear 24 1012 44 6000 3.1 290 22:45 04.07.2019
5417 Clear 24 1012 44 6000 3.1 290 22:25 04.07.2019
5418 Clear 24 1012 53 7000 4.1 280 21:57 04.07.2019
5419 Clear 25 1012 47 6000 3.6 320 21:39 04.07.2019
5420 Clear 25 1012 47 6000 3.6 320 21:21 04.07.2019
5421 Haze 26 1013 50 5000 2.1 310 20:54 04.07.2019
5422 Haze 26 1013 50 5000 2.1 310 20:36 04.07.2019
5423 Haze 26 1013 50 5000 2.1 310 20:18 04.07.2019
5424 Haze 28 1012 44 5000 5.1 330 19:41 04.07.2019
5425 Haze 28 1012 44 5000 5.1 330 19:20 04.07.2019
5426 Haze 30 1012 39 5000 5.1 320 18:44 04.07.2019
5427 Haze 30 1012 39 5000 5.1 320 18:25 04.07.2019
5428 Haze 33 1012 29 5000 5.1 320 17:47 04.07.2019
5429 Haze 33 1012 29 5000 5.1 320 17:19 04.07.2019
5430 Haze 34 1013 17 5000 3.1 280 15:59 04.07.2019
5431 Haze 34 1013 17 5000 3.1 280 15:41 04.07.2019
5432 Haze 34 1013 17 5000 3.1 280 15:23 04.07.2019
5433 Haze 33 1012 13 7000 5.1 280 14:56 04.07.2019
5434 Haze 33 1013 24 5000 3.6 260 14:37 04.07.2019
5435 Clear 32 1014 24 6000 4.1 250 14:18 04.07.2019
5436 Clear 32 1014 24 6000 4.1 250 13:55 04.07.2019
5437 Clear 32 1014 24 6000 4.1 250 13:37 04.07.2019
5438 Clear 32 1014 24 6000 4.1 250 13:18 04.07.2019
5439 Clear 32 1014 20 6000 2.6 40 12:38 04.07.2019
5440 Clear 30 1014 25 6000 1 10 12:19 04.07.2019
5441 Clear 30 1014 25 6000 1 10 11:42 04.07.2019
5442 Clear 30 1014 25 6000 1 10 11:20 04.07.2019
5443 Clear 29 1014 28 6000 1 40 10:45 04.07.2019
5444 Clear 29 1014 28 6000 1 40 10:27 04.07.2019
5445 Clear 29 1014 28 6000 1 40 09:56 04.07.2019
5446 Clear 27 1014 28 6000 3.1 350 09:38 04.07.2019
5447 Clear 25 1014 28 6000 3.1 350 09:18 04.07.2019
5448 Clear 24 1014 29 6000 2.6 340 08:42 04.07.2019
5449 Haze 23 1014 36 6000 3.1 360 08:18 04.07.2019
5450 Haze 23 1014 36 6000 3.1 360 07:38 04.07.2019
5451 Haze 21 1014 36 6000 3.1 360 07:18 04.07.2019
5452 Haze 20 1014 46 5000 1.5 80 06:30 04.07.2019
5453 Haze 17 1014 49 5000 1.5 340 05:41 04.07.2019
5454 Clear 19 1013 46 7000 2.6 320 04:18 04.07.2019
5455 Haze 19 1013 43 7000 2.1 340 01:52 04.07.2019
5456 Haze 19 1013 43 7000 2.1 340 01:26 04.07.2019
5457 Haze 20 1014 40 7000 3.1 330 00:41 04.07.2019
5458 Clear 22 1014 43 7000 3.1 330 23:52 03.07.2019
5459 Haze 23 1014 43 7000 3.1 330 23:21 03.07.2019
5460 Haze 24 1014 43 7000 4.1 330 22:56 03.07.2019
5461 Haze 24 1014 43 7000 4.1 330 22:38 03.07.2019
5462 Haze 24 1014 43 7000 4.1 330 22:20 03.07.2019
5463 Haze 24 1014 43 7000 4.1 330 22:20 03.07.2019
5464 Haze 24 1014 46 7000 3.6 320 21:54 03.07.2019
5465 Haze 24 1014 46 7000 3.6 320 21:36 03.07.2019
5466 Haze 24 1014 46 7000 3.6 320 20:55 03.07.2019
5467 Haze 25 1014 50 7000 3.1 320 20:36 03.07.2019
5468 Haze 26 1014 47 5000 6.2 330 20:18 03.07.2019
5469 Haze 26 1014 47 5000 6.2 330 19:44 03.07.2019
5470 Haze 26 1014 47 5000 6.2 330 19:25 03.07.2019
5471 Haze 28 1013 39 6000 6.2 330 18:45 03.07.2019
5472 Haze 28 1013 39 6000 6.2 330 18:22 03.07.2019
5473 Haze 30 1013 32 6000 5.7 320 17:49 03.07.2019
5474 Haze 30 1013 32 6000 5.7 320 17:19 03.07.2019
5475 Haze 30 1013 28 6000 5.7 300 16:58 03.07.2019
5476 Haze 30 1013 28 6000 5.7 300 16:39 03.07.2019
5477 Haze 31 1013 33 5000 5.1 310 16:18 03.07.2019
5478 Haze 31 1013 33 5000 5.1 310 15:46 03.07.2019
5479 Haze 31 1013 33 5000 5.1 310 15:27 03.07.2019
5480 Haze 31 1013 30 5000 5.7 320 14:49 03.07.2019
5481 Haze 31 1013 30 5000 5.7 320 14:22 03.07.2019
5482 Haze 30 1013 35 5000 5.1 300 13:50 03.07.2019
5483 Haze 30 1013 35 5000 5.1 300 13:31 03.07.2019
5484 Haze 30 1013 35 5000 5.1 300 12:52 03.07.2019
5485 Haze 29 1014 35 7000 6.2 310 12:20 03.07.2019
5486 Haze 29 1014 35 7000 6.2 310 11:57 03.07.2019
5487 Haze 29 1013 32 5000 7.2 320 11:39 03.07.2019
5488 Haze 29 1013 32 5000 7.2 320 11:19 03.07.2019
5489 Haze 28 1013 36 5000 5.1 320 10:40 03.07.2019
5490 Haze 28 1013 36 5000 5.1 320 10:21 03.07.2019
5491 Haze 26 1013 50 5000 6.7 280 09:42 03.07.2019
5492 Haze 26 1013 50 5000 6.7 280 09:21 03.07.2019
5493 Haze 22 1013 56 5000 3.1 330 08:53 03.07.2019
5494 Haze 22 1013 56 5000 3.1 330 08:32 03.07.2019
5495 Haze 22 1013 56 5000 3.1 330 07:53 03.07.2019
5496 Haze 21 1013 64 5000 2.6 360 07:33 03.07.2019
5497 Haze 18 1012 72 5000 6.63 313.894 06:48 03.07.2019
5498 Haze 16 1012 82 4000 4.3 313.33 05:44 03.07.2019
5499 Haze 17 1012 82 4000 4.3 313.33 05:19 03.07.2019
5500 Haze 18 1012 72 5000 2.1 350 03:36 03.07.2019
5501 Clear 18 1013 63 6000 3.6 350 02:38 03.07.2019
5502 Clear 19 1013 56 6000 2.6 50 01:23 03.07.2019
5503 Clear 19 1013 49 6000 3.1 350 00:57 03.07.2019
5504 Clear 19 1013 49 6000 3.1 350 00:36 03.07.2019
5505 Clear 21 1013 40 6000 2.6 330 23:48 02.07.2019
5506 Haze 21 1014 60 10000 5.1 300 23:21 02.07.2019
5507 Haze 21 1014 60 10000 5.1 300 22:59 02.07.2019
5508 Haze 21 1013 60 5000 3.1 340 22:41 02.07.2019
5509 Haze 21 1013 60 5000 3.1 340 22:22 02.07.2019
5510 Haze 22 1013 56 5000 4.1 310 21:57 02.07.2019
5511 Haze 22 1013 56 5000 4.1 310 21:38 02.07.2019
5512 Haze 22 1013 56 5000 4.1 310 21:18 02.07.2019
5513 Haze 24 1013 53 5000 5.1 320 20:41 02.07.2019
5514 Haze 24 1013 53 5000 5.1 320 20:23 02.07.2019
5515 Haze 26 1012 44 5000 6.7 290 19:57 02.07.2019
5516 Haze 26 1012 44 5000 6.7 290 19:38 02.07.2019
5517 Haze 26 1012 44 5000 6.7 290 19:20 02.07.2019
5518 Haze 28 1012 34 5000 6.7 310 18:45 02.07.2019
5519 Haze 28 1012 34 5000 6.7 310 18:18 02.07.2019
5520 Haze 29 1012 34 5000 6.7 330 17:40 02.07.2019
5521 Haze 29 1012 34 5000 6.7 330 17:20 02.07.2019
5522 Haze 30 1012 30 5000 6.7 330 16:46 02.07.2019
5523 Haze 30 1012 30 5000 6.7 330 16:46 02.07.2019
5524 Haze 30 1012 30 5000 6.7 330 16:28 02.07.2019
5525 Haze 31 1012 28 5000 7.2 340 15:44 02.07.2019
5526 Haze 31 1012 28 5000 7.2 340 15:24 02.07.2019
5527 Clouds 31 1012 30 6000 4.6 300 14:51 02.07.2019
5528 Clouds 31 1012 30 6000 4.6 300 14:33 02.07.2019
5529 Clouds 30 1012 28 6000 5.7 300 13:47 02.07.2019
5530 Clouds 30 1012 28 6000 5.7 300 13:23 02.07.2019
5531 Clouds 30 1013 28 6000 5.7 320 12:59 02.07.2019
5532 Clouds 30 1013 28 6000 5.7 320 12:41 02.07.2019
5533 Clouds 30 1013 28 6000 5.7 320 12:18 02.07.2019
5534 Clear 29 1013 26 6000 6.7 310 11:42 02.07.2019
5535 Clear 29 1013 20 7000 7.2 280 11:21 02.07.2019
5536 Clear 29 1013 26 6000 5.7 300 10:46 02.07.2019
5537 Clear 29 1013 26 6000 5.7 300 10:25 02.07.2019
5538 Clear 28 1013 28 6000 5.1 330 09:46 02.07.2019
5539 Clear 28 1013 28 6000 5.1 330 09:22 02.07.2019
5540 Clear 25 1013 25 6000 4.1 320 08:43 02.07.2019
5541 Clear 25 1013 25 6000 4.1 320 08:23 02.07.2019
5542 Haze 24 1012 29 5000 2.1 70 07:54 02.07.2019
5543 Haze 24 1012 29 5000 2.1 70 07:21 02.07.2019
5544 Haze 21 1013 33 5000 2.1 320 06:51 02.07.2019
5545 Haze 21 1013 33 5000 2.1 320 06:30 02.07.2019
5546 Haze 19 1012 32 5000 3.6 310 04:58 02.07.2019
5547 Haze 21 1012 40 5000 3.1 320 02:26 02.07.2019
5548 Haze 22 1013 56 5000 7.2 319.402 00:23 02.07.2019
5549 Haze 22 1012 56 5000 1.5 350 23:24 01.07.2019
5550 Haze 23 1011 56 5000 3.1 320 22:48 01.07.2019
5551 Haze 24 1011 56 5000 3.1 320 22:28 01.07.2019
5552 Clear 24 1013 44 10000 4.1 280 21:49 01.07.2019
5553 Haze 25 1013 44 10000 4.1 280 21:28 01.07.2019
5554 Haze 26 1011 50 5000 5.1 310 20:57 01.07.2019
5555 Haze 26 1011 50 5000 5.1 310 20:39 01.07.2019
5556 Haze 26 1011 50 5000 5.1 310 20:19 01.07.2019
5557 Haze 27 1011 50 5000 6.2 320 19:42 01.07.2019
5558 Haze 28 1011 47 5000 7.2 310 19:24 01.07.2019
5559 Haze 28 1011 47 5000 7.2 310 18:55 01.07.2019
5560 Haze 28 1011 47 5000 7.2 310 18:37 01.07.2019
5561 Haze 30 1010 45 5000 5.1 310 18:18 01.07.2019
5562 Haze 30 1010 45 5000 5.1 310 17:42 01.07.2019
5563 Haze 30 1010 45 5000 5.1 310 17:22 01.07.2019
5564 Haze 32 1011 40 5000 6.2 310 16:47 01.07.2019
5565 Haze 32 1011 40 5000 6.2 310 16:26 01.07.2019
5566 Haze 32 1011 26 5000 3.6 280 15:55 01.07.2019
5567 Haze 32 1011 26 5000 3.6 280 15:36 01.07.2019
5568 Haze 32 1011 26 5000 3.6 280 15:18 01.07.2019
5569 Haze 33 1011 31 5000 4.1 320 14:42 01.07.2019
5570 Haze 33 1011 31 5000 4.1 320 14:19 01.07.2019
5571 Haze 32 1011 31 5000 1.5 320 13:42 01.07.2019
5572 Haze 32 1011 31 5000 1.5 320 13:22 01.07.2019
5573 Haze 32 1011 27 5000 3.6 270 12:49 01.07.2019
5574 Haze 32 1011 27 5000 3.6 270 12:30 01.07.2019
5575 Haze 31 1011 23 5000 3.1 30 11:59 01.07.2019
5576 Haze 31 1011 23 5000 3.1 30 11:39 01.07.2019
5577 Haze 31 1011 23 5000 3.1 30 11:19 01.07.2019
5578 Haze 30 1011 28 5000 1.5 310 10:47 01.07.2019
5579 Haze 30 1011 28 5000 1.5 310 10:23 01.07.2019
5580 Haze 28 1012 37 5000 1.5 30 09:45 01.07.2019
5581 Haze 28 1012 37 5000 1.5 30 09:27 01.07.2019
5582 Haze 26 1012 47 5000 1.5 50 08:59 01.07.2019
5583 Haze 26 1012 47 5000 1.5 50 08:37 01.07.2019
5584 Smoke 25 1011 47 5000 2.1 60 07:40 01.07.2019
5585 Smoke 20 1010 64 4000 0.27 160.274 06:52 01.07.2019
5586 Smoke 18 1010 68 4000 2.15 316.544 05:43 01.07.2019
5587 Haze 22 1011 56 5000 3.1 250 01:29 01.07.2019
5588 Haze 22 1011 47 5000 3.6 260 00:46 01.07.2019
5589 Haze 22 1011 47 5000 3.6 260 00:24 01.07.2019
5590 Haze 23 1011 57 5000 2.6 320 23:40 30.06.2019
5591 Haze 23 1011 57 5000 2.6 320 23:20 30.06.2019
5592 Haze 23 1011 60 5000 4.6 320 22:44 30.06.2019
5593 Haze 23 1011 60 5000 4.6 320 22:20 30.06.2019
5594 Haze 23 1011 60 5000 4.6 320 22:20 30.06.2019
5595 Haze 23 1011 60 5000 4.6 320 22:20 30.06.2019
5596 Haze 25 1011 65 5000 3.6 320 21:42 30.06.2019
5597 Haze 25 1011 65 5000 3.6 320 21:20 30.06.2019
5598 Haze 27 1011 65 5000 4.6 320 20:56 30.06.2019
5599 Haze 27 1011 65 5000 4.6 320 20:38 30.06.2019
5600 Haze 27 1011 65 5000 4.6 320 20:18 30.06.2019
5601 Haze 27 1010 61 5000 2.1 320 19:44 30.06.2019
5602 Haze 27 1010 61 5000 2.1 320 19:24 30.06.2019
5603 Haze 27 1010 61 5000 2.1 320 19:24 30.06.2019
5604 Haze 30 1010 51 5000 6.7 320 18:26 30.06.2019
5605 Haze 31 1010 35 5000 3.6 280 17:59 30.06.2019
5606 Haze 31 1010 35 5000 3.6 280 17:39 30.06.2019
5607 Haze 31 1010 35 5000 3.6 280 17:18 30.06.2019
5608 Haze 31 1010 35 5000 4.6 310 16:49 30.06.2019
5609 Haze 31 1010 35 5000 4.6 310 16:27 30.06.2019
5610 Haze 31 1010 35 5000 4.6 310 16:27 30.06.2019
5611 Haze 32 1010 33 5000 5.1 260 15:38 30.06.2019
5612 Haze 32 1010 33 5000 5.1 260 15:19 30.06.2019
5613 Haze 31 1010 31 8000 5.1 270 14:54 30.06.2019
5614 Haze 32 1010 35 5000 5.1 240 14:35 30.06.2019
5615 Haze 31 1010 31 5000 1.5 230 13:57 30.06.2019
5616 Haze 31 1010 31 5000 1.5 230 13:37 30.06.2019
5617 Haze 31 1010 31 5000 1.5 230 13:18 30.06.2019
5618 Haze 31 1010 40 5000 2.1 230 12:42 30.06.2019
5619 Haze 31 1010 40 5000 2.1 230 12:20 30.06.2019
5620 Haze 30 1010 45 5000 3.1 280 11:45 30.06.2019
5621 Haze 30 1010 45 5000 3.1 280 11:22 30.06.2019
5622 Smoke 28 1010 45 5000 4.6 260 10:56 30.06.2019
5623 Smoke 28 1010 45 5000 4.6 260 10:36 30.06.2019
5624 Smoke 28 1010 45 5000 4.6 260 10:18 30.06.2019
5625 Haze 26 1010 50 5000 2.6 250 09:43 30.06.2019
5626 Haze 26 1010 50 5000 2.6 250 09:22 30.06.2019
5627 Haze 25 1010 61 3000 2.1 50 08:42 30.06.2019
5628 Haze 25 1010 61 3000 2.1 50 08:23 30.06.2019
5629 Haze 23 1010 64 2000 2.1 60 07:54 30.06.2019
5630 Haze 23 1010 64 2000 2.1 60 07:27 30.06.2019
5631 Haze 21 1009 68 2000 4.63 313.066 06:40 30.06.2019
5632 Haze 18 1009 68 4000 3.1 60 04:56 30.06.2019
5633 Haze 21 1009 56 5000 4.6 250 02:50 30.06.2019
5634 Haze 23 1009 44 5000 5.7 260 01:27 30.06.2019
5635 Haze 23 1009 41 5000 3.6 260 00:26 30.06.2019
5636 Haze 24 1009 38 5000 4.6 280 23:53 29.06.2019
5637 Haze 24 1009 38 5000 4.6 280 23:24 29.06.2019
5638 Haze 24 1009 53 5000 3.1 310 22:56 29.06.2019
5639 Haze 25 1009 53 5000 3.1 310 22:37 29.06.2019
5640 Haze 25 1009 53 5000 3.1 310 22:18 29.06.2019
5641 Haze 25 1009 53 5000 1 310 21:41 29.06.2019
5642 Haze 26 1009 53 5000 1 310 21:22 29.06.2019
5643 Haze 26 1009 53 5000 1.5 340 20:41 29.06.2019
5644 Haze 26 1009 53 5000 1.5 340 20:22 29.06.2019
5645 Haze 26 1008 61 5000 5.1 320 19:48 29.06.2019
5646 Haze 26 1008 61 5000 5.1 320 19:23 29.06.2019
5647 Haze 28 1007 51 5000 7.2 300 18:51 29.06.2019
5648 Haze 28 1007 51 5000 7.2 300 18:26 29.06.2019
5649 Haze 30 1007 45 5000 7.2 280 17:42 29.06.2019
5650 Haze 30 1007 45 5000 7.2 280 17:23 29.06.2019
5651 Haze 30 1008 42 5000 5.7 280 16:58 29.06.2019
5652 Haze 30 1008 42 5000 5.7 280 16:36 29.06.2019
5653 Haze 30 1008 43 5000 8.2 330 15:53 29.06.2019
5654 Haze 30 1008 43 5000 8.2 330 15:30 29.06.2019
5655 Haze 29 1008 40 5000 6.7 280 14:44 29.06.2019
5656 Haze 29 1008 40 5000 6.7 280 14:26 29.06.2019
5657 Haze 29 1008 45 7000 7.2 290 13:47 29.06.2019
5658 Haze 29 1009 45 5000 5.7 270 13:27 29.06.2019
5659 Haze 29 1009 51 5000 6.7 230 12:57 29.06.2019
5660 Haze 29 1009 51 5000 6.7 230 12:37 29.06.2019
5661 Haze 29 1009 51 5000 6.7 230 12:18 29.06.2019
5662 Haze 28 1009 51 5000 4.6 250 11:40 29.06.2019
5663 Haze 28 1009 51 5000 4.6 250 11:21 29.06.2019
5664 Haze 26 1008 61 5000 5.1 220 10:41 29.06.2019
5665 Haze 26 1008 61 5000 5.1 220 10:20 29.06.2019
5666 Haze 24 1008 57 5000 6.7 240 09:48 29.06.2019
5667 Haze 23 1009 60 6000 6.7 260 08:54 29.06.2019
5668 Haze 23 1008 73 4500 6.7 260 08:28 29.06.2019
5669 Haze 22 1009 73 4000 5.1 280 07:45 29.06.2019
5670 Haze 20 1009 77 4000 3.6 220 06:48 29.06.2019
5671 Haze 20 1009 77 4000 3.6 220 06:25 29.06.2019
5672 Haze 19 1008 77 5000 4.1 310 03:25 29.06.2019
5673 Haze 21 1008 73 5000 6.2 240 01:41 29.06.2019
5674 Clear 21 1009 60 6000 5.1 260 00:32 29.06.2019
5675 Clear 21 1009 64 6000 1.5 320 23:39 28.06.2019
5676 Clear 21 1009 64 6000 1.5 320 23:20 28.06.2019
5677 Clear 22 1009 77 6000 8.2 290 22:47 28.06.2019
5678 Clear 23 1009 64 6000 4.1 330 21:59 28.06.2019
5679 Clear 23 1009 68 6000 1.5 40 21:37 28.06.2019
5680 Clear 23 1009 68 6000 1.5 40 21:18 28.06.2019
5681 Clear 24 1008 50 6000 2.1 320 20:40 28.06.2019
5682 Clear 24 1008 50 6000 2.1 320 20:19 28.06.2019
5683 Haze 27 1008 34 5000 5.1 270 19:38 28.06.2019
5684 Haze 27 1008 34 5000 5.1 270 19:20 28.06.2019
5685 Haze 29 1008 32 5000 6.2 280 18:41 28.06.2019
5686 Haze 29 1008 32 5000 6.2 280 18:21 28.06.2019
5687 Dust 30 1008 30 5000 7.7 280 17:44 28.06.2019
5688 Dust 30 1008 30 5000 7.7 280 17:25 28.06.2019
5689 Dust 31 1008 30 5000 7.7 280 16:46 28.06.2019
5690 Dust 31 1008 27 5000 7.7 270 16:19 28.06.2019
5691 Dust 32 1008 29 5000 9.3 260 15:44 28.06.2019
5692 Dust 32 1008 29 5000 9.3 260 15:18 28.06.2019
5693 Dust 31 1008 29 5000 9.8 250 14:40 28.06.2019
5694 Dust 31 1008 29 5000 9.8 250 14:21 28.06.2019
5695 Dust 31 1008 29 5000 9.8 250 13:47 28.06.2019
5696 Clear 31 1008 29 6000 7.7 250 13:28 28.06.2019
5697 Clear 31 1009 22 7000 6.2 250 12:52 28.06.2019
5698 Clear 31 1009 22 7000 6.2 250 12:33 28.06.2019
5699 Clear 29 1009 22 7000 4.1 270 11:44 28.06.2019
5700 Clear 29 1009 22 7000 4.1 270 11:19 28.06.2019
5701 Clear 28 1009 21 7000 6.7 270 10:42 28.06.2019
5702 Clear 28 1009 21 7000 6.7 270 10:19 28.06.2019
5703 Clear 27 1009 27 7000 6.2 250 09:46 28.06.2019
5704 Clear 27 1009 27 7000 6.2 250 09:28 28.06.2019
5705 Clear 25 1010 36 7000 6.7 250 08:43 28.06.2019
5706 Clear 25 1010 36 7000 6.7 250 08:24 28.06.2019
5707 Clear 23 1010 38 7000 4.1 270 07:43 28.06.2019
5708 Haze 21 1010 37 4000 4.1 250 06:54 28.06.2019
5709 Haze 22 1010 35 5000 3.1 250 04:35 28.06.2019
5710 Haze 21 1010 43 5000 3.1 240 00:48 28.06.2019
5711 Haze 21 1010 43 5000 3.1 240 00:22 28.06.2019
5712 Haze 23 1011 41 5000 5.7 260 23:46 27.06.2019
5713 Haze 23 1011 41 5000 5.7 260 23:25 27.06.2019
5714 Haze 23 1011 36 5000 3.1 260 22:44 27.06.2019
5715 Haze 23 1011 36 5000 3.1 260 22:25 27.06.2019
5716 Haze 25 1011 50 5000 3.1 320 21:59 27.06.2019
5717 Haze 25 1011 50 5000 3.1 320 21:41 27.06.2019
5718 Haze 25 1011 50 5000 3.1 320 21:20 27.06.2019
5719 Haze 26 1011 50 7000 5.1 280 20:49 27.06.2019
5720 Haze 27 1011 44 5000 5.1 320 20:31 27.06.2019
5721 Haze 28 1011 34 5000 3.6 310 19:57 27.06.2019
5722 Haze 28 1011 34 5000 3.6 310 19:39 27.06.2019
5723 Haze 28 1011 34 5000 3.6 310 19:21 27.06.2019
5724 Haze 30 1011 25 5000 5.1 280 18:41 27.06.2019
5725 Haze 30 1011 25 5000 5.1 280 18:19 27.06.2019
5726 Haze 32 1011 19 5000 6.2 270 17:39 27.06.2019
5727 Haze 32 1011 19 5000 6.2 270 17:21 27.06.2019
5728 Haze 33 1011 21 5000 6.2 270 16:39 27.06.2019
5729 Haze 33 1011 21 5000 6.2 270 16:19 27.06.2019
5730 Haze 33 1012 19 7000 10.3 280 15:50 27.06.2019
5731 Haze 33 1011 19 5000 5.7 270 15:30 27.06.2019
5732 Haze 33 1012 19 5000 4.1 320 14:52 27.06.2019
5733 Haze 33 1012 19 5000 4.1 320 14:31 27.06.2019
5734 Haze 33 1012 16 7000 7.2 290 13:57 27.06.2019
5735 Haze 33 1012 19 5000 4.6 270 13:38 27.06.2019
5736 Haze 33 1012 19 5000 4.6 270 13:20 27.06.2019
5737 Clear 33 1012 15 6000 7.7 330 12:41 27.06.2019
5738 Clear 33 1012 15 6000 7.7 330 12:23 27.06.2019
5739 Clear 32 1013 17 6000 8.2 270 11:44 27.06.2019
5740 Clear 32 1013 17 6000 8.2 270 11:21 27.06.2019
5741 Clear 32 1013 17 6000 8.2 270 10:56 27.06.2019
5742 Haze 31 1013 15 5000 8.2 290 10:36 27.06.2019
5743 Haze 31 1013 15 5000 8.2 290 10:18 27.06.2019
5744 Haze 31 1013 15 5000 8.2 290 10:18 27.06.2019
5745 Haze 30 1013 20 5000 6.2 280 09:38 27.06.2019
5746 Haze 30 1013 20 5000 6.2 280 09:20 27.06.2019
5747 Haze 27 1013 20 5000 5.7 280 08:46 27.06.2019
5748 Haze 27 1013 20 5000 5.7 280 08:46 27.06.2019
5749 Haze 27 1013 20 5000 5.7 280 08:26 27.06.2019
5750 Haze 26 1013 18 6000 6.2 280 07:44 27.06.2019
5751 Smoke 21 1013 25 5000 5.1 270 06:57 27.06.2019
5752 Smoke 21 1013 25 5000 5.1 270 06:30 27.06.2019
5753 Clear 22 1010 45 0 4.42 313.965 03:51 27.06.2019
5754 Clear 21 1013 27 6000 3.6 320 02:42 27.06.2019
5755 Haze 22 1014 29 5000 2.6 320 01:26 27.06.2019
5756 Haze 23 1014 31 5000 2.1 310 00:49 27.06.2019
5757 Haze 23 1014 31 5000 2.1 310 00:26 27.06.2019
5758 Haze 25 1014 34 5000 4.71 311.74 23:50 26.06.2019
5759 Haze 25 1014 34 5000 4.71 311.74 23:23 26.06.2019
5760 Haze 25 1014 36 5000 3.1 330 22:58 26.06.2019
5761 Clear 24 1014 53 6000 3.6 310 22:39 26.06.2019
5762 Haze 25 1014 53 6000 3.6 310 22:19 26.06.2019
5763 Haze 25 1014 36 5000 3.1 320 21:42 26.06.2019
5764 Haze 25 1014 36 5000 3.1 320 21:21 26.06.2019
5765 Haze 28 1014 39 5000 2.1 330 20:57 26.06.2019
5766 Haze 28 1014 39 5000 2.1 330 20:37 26.06.2019
5767 Haze 28 1014 39 5000 2.1 330 20:19 26.06.2019
5768 Haze 29 1014 39 5000 4.6 320 19:42 26.06.2019
5769 Haze 29 1014 39 5000 4.6 320 19:23 26.06.2019
5770 Clear 32 1013 33 6000 5.1 310 18:46 26.06.2019
5771 Clear 32 1013 33 6000 5.1 310 18:23 26.06.2019
5772 Clear 34 1013 26 6000 5.1 340 17:57 26.06.2019
5773 Clear 34 1013 26 6000 5.1 340 17:38 26.06.2019
5774 Clear 34 1013 26 6000 5.1 340 17:19 26.06.2019
5775 Haze 35 1013 28 5000 7.2 300 16:46 26.06.2019
5776 Haze 35 1013 28 5000 7.2 300 16:22 26.06.2019
5777 Haze 36 1013 24 5000 5.1 320 15:40 26.06.2019
5778 Haze 36 1013 24 5000 5.1 320 15:22 26.06.2019
5779 Haze 36 1014 19 5000 6.2 300 14:38 26.06.2019
5780 Haze 36 1014 19 5000 6.2 300 14:19 26.06.2019
5781 Haze 36 1013 20 5000 8.2 240 13:43 26.06.2019
5782 Haze 36 1013 20 5000 8.2 240 13:20 26.06.2019
5783 Haze 36 1014 19 5000 3.6 280 12:42 26.06.2019
5784 Haze 36 1014 19 5000 3.6 280 12:23 26.06.2019
5785 Haze 35 1014 19 7000 7.2 270 11:48 26.06.2019
5786 Haze 34 1013 23 5000 4.1 307 11:21 26.06.2019
5787 Haze 33 1014 23 7000 5.1 270 10:46 26.06.2019
5788 Haze 33 1014 24 5000 2.6 290 10:27 26.06.2019
5789 Haze 31 1014 27 5000 2.1 340 09:49 26.06.2019
5790 Haze 31 1014 27 5000 2.1 340 09:20 26.06.2019
5791 Haze 28 1013 35 5000 1.5 70 08:49 26.06.2019
5792 Haze 28 1013 35 5000 1.5 70 08:20 26.06.2019
5793 Haze 25 1013 37 5000 1.5 250 07:46 26.06.2019
5794 Haze 25 1013 37 5000 1.5 250 07:46 26.06.2019
5795 Haze 25 1013 37 5000 1.5 250 07:25 26.06.2019
5796 Haze 23 1013 50 5000 1.5 240 06:32 26.06.2019
5797 Haze 25 1012 34 5000 3.6 250 01:28 26.06.2019
5798 Haze 26 1012 30 5000 6.23 319.218 00:25 26.06.2019
5799 Haze 27 1013 28 5000 2.6 250 23:47 25.06.2019
5800 Haze 27 1013 28 5000 2.6 250 23:28 25.06.2019
5801 Haze 27 1013 35 5000 3.1 250 22:58 25.06.2019
5802 Haze 27 1013 35 5000 3.1 250 22:39 25.06.2019
5803 Haze 27 1013 35 5000 3.1 250 22:20 25.06.2019
5804 Haze 29 1012 33 5000 2.6 250 21:44 25.06.2019
5805 Haze 29 1012 33 5000 2.6 250 21:22 25.06.2019
5806 Haze 30 1013 51 7000 5.7 290 20:47 25.06.2019
5807 Haze 30 1013 51 7000 5.7 290 20:47 25.06.2019
5808 Haze 30 1013 51 7000 5.7 290 20:47 25.06.2019
5809 Haze 30 1013 51 7000 5.7 290 20:47 25.06.2019
5810 Haze 30 1013 51 7000 5.7 290 20:47 25.06.2019
5811 Haze 30 1012 23 5000 3.1 260 20:23 25.06.2019
5812 Haze 32 1011 29 5000 4.6 290 19:54 25.06.2019
5813 Haze 32 1011 29 5000 4.6 290 19:36 25.06.2019
5814 Haze 32 1011 29 5000 4.6 290 19:18 25.06.2019
5815 Haze 36 1011 31 5000 4.6 290 18:40 25.06.2019
5816 Haze 36 1011 31 5000 4.6 290 18:21 25.06.2019
5817 -273 0 0 0 0 0 17:38 25.06.2019
5818 -273 0 0 0 0 0 17:20 25.06.2019
5819 Haze 37 1011 25 5000 4.1 320 17:20 25.06.2019
5820 -273 0 0 0 0 0 17:19 25.06.2019
5821 -273 0 0 0 0 0 17:19 25.06.2019
5822 Haze 39 1011 15 5000 5.1 330 16:42 25.06.2019
5823 Haze 39 1011 15 5000 5.1 330 16:24 25.06.2019
5824 Clear 40 1011 13 6000 4.6 320 15:43 25.06.2019
5825 Clear 40 1011 13 6000 4.6 320 15:24 25.06.2019
5826 Clear 40 1011 11 6000 3.1 330 14:57 25.06.2019
5827 Clear 40 1011 11 6000 3.1 330 14:37 25.06.2019
5828 Haze 40 1012 9 5000 1 30 13:59 25.06.2019
5829 Haze 40 1012 9 5000 1 30 13:39 25.06.2019
5830 Haze 40 1012 9 5000 1 30 13:19 25.06.2019
5831 Haze 39 1012 11 5000 2.6 350 12:39 25.06.2019
5832 Haze 39 1012 11 5000 2.6 350 12:21 25.06.2019
5833 Haze 37 1013 8 5000 3.1 40 11:44 25.06.2019
5834 Haze 37 1013 8 5000 3.1 40 11:22 25.06.2019
5835 Haze 35 1013 14 5000 1.5 10 10:46 25.06.2019
5836 Haze 35 1013 14 5000 1.5 10 10:24 25.06.2019
5837 Haze 35 1013 14 5000 1.5 10 10:24 25.06.2019
5838 Smoke 31 1013 19 4000 1.5 50 09:59 25.06.2019
5839 Smoke 31 1013 19 4000 1.5 50 09:38 25.06.2019
5840 Smoke 31 1013 19 4000 1.5 50 09:20 25.06.2019
5841 Smoke 30 1013 33 7000 2.1 330 08:50 25.06.2019
5842 Smoke 28 1013 22 4000 3.1 50 08:29 25.06.2019
5843 Haze 27 1013 27 4000 0.5 30 07:43 25.06.2019
5844 Haze 27 1013 27 4000 0.5 30 07:23 25.06.2019
5845 Haze 22 1013 38 3000 1 30 06:42 25.06.2019
5846 Haze 20 1012 33 5000 1.5 30 04:30 25.06.2019
5847 Haze 22 1012 50 5000 5.1 303.528 02:35 25.06.2019
5848 Haze 25 1012 31 5000 5.16 309.602 00:38 25.06.2019
5849 Haze 25 1012 31 5000 5.98 312.172 00:18 25.06.2019
5850 Haze 26 1013 30 5000 5.98 312.172 23:48 24.06.2019
5851 Haze 26 1013 30 5000 5.98 312.172 23:30 24.06.2019
5852 Haze 27 1012 34 5000 5.98 312.172 22:45 24.06.2019
5853 Haze 27 1012 34 5000 5.98 312.172 22:19 24.06.2019
5854 Haze 27 1012 39 5000 5.98 312.172 21:54 24.06.2019
5855 Haze 27 1012 39 5000 5.98 312.172 21:36 24.06.2019
5856 Haze 27 1012 39 5000 8.16 348.647 21:18 24.06.2019
5857 Haze 29 1012 39 5000 8.54 346.603 20:42 24.06.2019
5858 Haze 29 1012 39 5000 8.54 346.603 20:22 24.06.2019
5859 Haze 30 1012 32 10000 4.1 310 19:48 24.06.2019
5860 Haze 32 1011 38 4000 2.1 340 19:26 24.06.2019
5861 Haze 34 1011 31 4000 3.1 310 18:54 24.06.2019
5862 Haze 34 1011 31 4000 3.1 310 18:31 24.06.2019
5863 Haze 36 1011 23 5000 5.1 320 17:59 24.06.2019
5864 Haze 36 1011 23 5000 5.1 320 17:37 24.06.2019
5865 Haze 35 1011 22 7000 6.2 290 16:57 24.06.2019
5866 Haze 35 1011 22 7000 6.2 290 16:39 24.06.2019
5867 Haze 35 1011 22 7000 6.2 290 16:19 24.06.2019
5868 Haze 37 1012 20 5000 3.1 340 15:40 24.06.2019
5869 Haze 37 1012 20 5000 3.1 340 15:22 24.06.2019
5870 Haze 37 1012 22 5000 3.1 330 14:35 24.06.2019
5871 Haze 36 1012 15 5000 2.6 30 13:59 24.06.2019
5872 Haze 36 1012 15 5000 2.6 30 13:32 24.06.2019
5873 Haze 36 1012 11 5000 2.6 50 12:57 24.06.2019
5874 Haze 36 1012 11 5000 2.6 50 12:38 24.06.2019
5875 Haze 36 1012 11 5000 2.6 50 12:20 24.06.2019
5876 Haze 34 1013 16 5000 1.5 30 11:43 24.06.2019
5877 Haze 34 1013 16 5000 1.5 30 11:24 24.06.2019
5878 Haze 33 1013 22 5000 2.1 60 10:51 24.06.2019
5879 Haze 33 1013 22 5000 2.1 60 10:31 24.06.2019
5880 Haze 28 1013 30 5000 2.1 50 09:51 24.06.2019
5881 Haze 28 1013 30 5000 2.1 50 09:23 24.06.2019
5882 Haze 26 1013 36 5000 1.5 70 08:55 24.06.2019
5883 Haze 26 1013 36 5000 1.5 70 08:34 24.06.2019
5884 Haze 23 1014 38 5000 1.5 70 07:49 24.06.2019
5885 Haze 23 1014 38 5000 1.5 70 07:27 24.06.2019
5886 Clear 17 1013 63 7000 1.5 190 06:57 24.06.2019
5887 Haze 20 1013 63 7000 1.5 190 06:23 24.06.2019
5888 Haze 18 1013 43 5000 2.1 210 05:31 24.06.2019
5889 Haze 20 1013 40 5000 2.1 210 04:34 24.06.2019
5890 Clear 19 1013 56 6000 1 50 03:44 24.06.2019
5891 Clear 20 1012 49 6000 1.5 30 02:35 24.06.2019
5892 Clear 18 1012 68 10000 2.1 330 01:54 24.06.2019
5893 Clear 21 1012 68 10000 2.1 330 01:28 24.06.2019
5894 Clear 21 1013 49 6000 4.91 318.056 00:46 24.06.2019
5895 Clear 21 1013 49 6000 6.23 336.652 00:20 24.06.2019
5896 Clear 22 1012 63 10000 2.1 330 23:47 23.06.2019
5897 Clear 22 1013 47 6000 6.23 336.652 23:28 23.06.2019
5898 Clear 24 1013 44 6000 6.23 336.652 22:57 23.06.2019
5899 Clear 24 1013 44 6000 6.23 336.652 22:39 23.06.2019
5900 Clear 24 1013 44 6000 6.23 336.652 22:19 23.06.2019
5901 Clear 24 1012 47 6000 1.5 30 21:41 23.06.2019
5902 Clear 24 1012 47 6000 1.5 30 21:41 23.06.2019
5903 Clear 24 1012 47 6000 1.5 30 21:22 23.06.2019
5904 Clear 26 1012 42 6000 1 340 20:49 23.06.2019
5905 Clear 26 1012 42 6000 1 340 20:29 23.06.2019
5906 Clear 29 1012 42 6000 3.6 340 19:54 23.06.2019
5907 Clear 29 1012 42 6000 3.6 340 19:36 23.06.2019
5908 Clear 29 1012 42 6000 3.6 340 19:18 23.06.2019
5909 Clear 31 1012 37 6000 3.6 340 18:41 23.06.2019
5910 Clear 31 1012 37 6000 3.6 340 18:19 23.06.2019
5911 Clear 32 1012 25 6000 5.1 300 17:41 23.06.2019
5912 Clear 32 1012 25 6000 5.1 300 17:21 23.06.2019
5913 Clear 32 1012 21 6000 5.7 280 16:44 23.06.2019
5914 Clear 32 1012 21 6000 5.7 280 16:24 23.06.2019
5915 Clear 33 1012 17 6000 4.6 270 15:43 23.06.2019
5916 Clear 33 1012 17 6000 4.6 270 15:24 23.06.2019
5917 Clear 34 1013 26 6000 3.1 240 14:59 23.06.2019
5918 Clear 34 1013 26 6000 3.1 240 14:37 23.06.2019
5919 Clear 34 1013 26 6000 3.1 240 14:19 23.06.2019
5920 Clear 33 1012 27 6000 4.1 320 13:42 23.06.2019
5921 Clear 33 1012 27 6000 4.1 320 13:42 23.06.2019
5922 Clear 33 1012 27 6000 4.1 320 13:21 23.06.2019
5923 Clear 31 1012 31 6000 3.6 340 12:56 23.06.2019
5924 Clear 31 1012 31 6000 3.6 340 12:37 23.06.2019
5925 Clear 31 1012 31 6000 3.6 340 12:18 23.06.2019
5926 Clear 30 1013 33 6000 3.1 360 11:45 23.06.2019
5927 Clear 30 1013 33 6000 3.1 360 11:25 23.06.2019
5928 Haze 29 1013 37 5000 3.1 80 10:48 23.06.2019
5929 Haze 29 1013 37 5000 3.1 80 10:21 23.06.2019
5930 Haze 27 1013 36 5000 2.1 30 09:57 23.06.2019
5931 Haze 27 1013 36 5000 2.1 30 09:22 23.06.2019
5932 Haze 24 1013 38 5000 4.1 260 08:46 23.06.2019
5933 Haze 24 1013 38 5000 4.1 260 08:27 23.06.2019
5934 Haze 19 1013 40 3500 2.1 180 07:56 23.06.2019
5935 Haze 19 1013 40 3500 2.1 180 07:38 23.06.2019
5936 Haze 19 1013 40 3500 2.1 180 07:18 23.06.2019
5937 Haze 18 1013 67 8000 2.1 10 06:43 23.06.2019
5938 Haze 17 1012 48 5000 4.01 318.587 04:53 23.06.2019
5939 Haze 19 1012 64 5000 2.97 313.323 02:32 23.06.2019
5940 Haze 20 1013 64 5000 2.97 313.323 01:39 23.06.2019
5941 Haze 20 1013 64 5000 2.87 312.936 00:58 23.06.2019
5942 Haze 20 1013 64 5000 2.87 312.936 00:27 23.06.2019
5943 Haze 21 1013 68 5000 5.97 328.406 23:43 22.06.2019
5944 Haze 21 1013 68 5000 5.97 328.406 23:25 22.06.2019
5945 Haze 22 1012 60 5000 3.6 320 22:46 22.06.2019
5946 Haze 22 1012 60 5000 3.6 320 22:25 22.06.2019
5947 Haze 23 1012 64 5000 1.5 320 21:43 22.06.2019
5948 Haze 23 1012 64 5000 1.5 320 21:20 22.06.2019
5949 Haze 24 1012 60 8000 5.1 280 20:57 22.06.2019
5950 Haze 24 1012 60 5000 3.6 320 20:38 22.06.2019
5951 Haze 24 1012 60 5000 3.6 320 20:20 22.06.2019
5952 Haze 26 1012 57 5000 5.1 310 19:40 22.06.2019
5953 Haze 26 1012 57 5000 5.1 310 19:20 22.06.2019
5954 Haze 28 1012 51 4000 6.2 330 18:42 22.06.2019
5955 Haze 28 1012 51 4000 6.2 330 18:22 22.06.2019
5956 Haze 30 1012 35 5000 5.7 290 17:44 22.06.2019
5957 Haze 30 1012 35 5000 5.7 290 17:25 22.06.2019
5958 Clouds 30 1012 30 6000 5.1 270 16:43 22.06.2019
5959 Clouds 30 1012 30 6000 5.1 270 16:24 22.06.2019
5960 Clear 30 1012 33 7000 6.2 290 15:45 22.06.2019
5961 Clouds 29 1012 30 6000 3.6 270 15:27 22.06.2019
5962 Clear 29 1012 32 6000 6.2 260 14:52 22.06.2019
5963 Clear 29 1012 32 6000 6.2 260 14:32 22.06.2019
5964 Haze 29 1013 28 5000 3.6 260 13:58 22.06.2019
5965 Haze 29 1013 28 5000 3.6 260 13:39 22.06.2019
5966 Haze 29 1013 28 5000 3.6 260 13:19 22.06.2019
5967 Haze 29 1013 30 5000 4.1 280 12:43 22.06.2019
5968 Haze 29 1013 30 5000 4.1 280 12:20 22.06.2019
5969 Clear 28 1013 28 6000 5.1 270 11:45 22.06.2019
5970 Clear 28 1013 34 6000 4.6 310 11:27 22.06.2019
5971 Clear 26 1013 41 6000 3.1 250 10:23 22.06.2019
5972 Haze 24 1013 41 5000 4.1 240 09:58 22.06.2019
5973 Haze 24 1013 41 5000 4.1 240 09:36 22.06.2019
5974 Haze 22 1013 53 5000 2.6 320 08:50 22.06.2019
5975 Haze 22 1013 53 5000 2.6 320 08:31 22.06.2019
5976 Haze 21 1013 53 5000 1.5 320 07:52 22.06.2019
5977 Haze 21 1013 53 5000 1.5 320 07:24 22.06.2019
5978 Haze 18 1013 64 5000 1.5 320 06:44 22.06.2019
5979 Haze 17 1013 72 5000 1.5 280 04:37 22.06.2019
5980 Clear 19 1012 60 6000 3.6 250 02:27 22.06.2019
5981 Clear 20 1013 60 6000 2.1 310 00:57 22.06.2019
5982 Clear 20 1013 60 6000 2.1 310 00:31 22.06.2019
5983 Clear 20 1013 60 6000 2.1 310 23:50 21.06.2019
5984 Clear 21 1013 53 6000 4.98 314.537 23:24 21.06.2019
5985 Clear 22 1013 53 6000 4.98 314.537 22:58 21.06.2019
5986 Haze 22 1013 56 5000 2.1 310 22:40 21.06.2019
5987 Haze 22 1013 56 5000 2.1 310 22:20 21.06.2019
5988 Haze 23 1012 56 5000 2.1 320 21:40 21.06.2019
5989 Haze 23 1012 56 5000 2.1 320 21:21 21.06.2019
5990 Haze 24 1012 56 5000 3.1 300 20:49 21.06.2019
5991 Haze 24 1012 56 5000 3.1 300 20:27 21.06.2019
5992 Haze 26 1012 47 5000 5.1 300 19:54 21.06.2019
5993 Haze 26 1012 47 5000 5.1 300 19:23 21.06.2019
5994 Clear 28 1012 39 6000 5.1 310 18:43 21.06.2019
5995 Clear 28 1012 39 6000 5.1 310 18:43 21.06.2019
5996 Clear 28 1012 39 6000 5.1 310 18:25 21.06.2019
5997 Haze 30 1011 35 5000 4.1 330 17:41 21.06.2019
5998 Haze 30 1011 35 5000 4.1 330 17:23 21.06.2019
5999 Haze 30 1012 28 5000 4.6 280 16:38 21.06.2019
6000 Haze 30 1012 28 5000 4.6 280 16:19 21.06.2019
6001 Dust 31 1012 28 5000 8.2 290 15:39 21.06.2019
6002 Dust 31 1012 28 5000 8.2 290 15:19 21.06.2019
6003 Haze 31 1012 25 5000 4.6 260 14:45 21.06.2019
6004 Haze 31 1012 25 5000 4.6 260 14:25 21.06.2019
6005 Clear 30 1012 22 6000 6.7 300 13:44 21.06.2019
6006 Clear 30 1012 22 6000 6.7 300 13:25 21.06.2019
6007 Haze 30 1012 23 5000 1.5 310 12:54 21.06.2019
6008 Haze 29 1012 23 5000 1.5 310 12:24 21.06.2019
6009 Haze 29 1013 23 5000 1.5 310 11:59 21.06.2019
6010 Haze 29 1013 23 5000 1.5 310 11:40 21.06.2019
6011 Haze 29 1013 23 5000 1.5 310 11:22 21.06.2019
6012 Haze 29 1013 21 5000 5.1 260 10:47 21.06.2019
6013 Haze 29 1013 21 5000 5.1 260 10:21 21.06.2019
6014 Haze 29 1013 21 5000 5.1 260 10:21 21.06.2019
6015 Haze 28 1013 22 5000 5.1 260 09:55 21.06.2019
6016 Haze 28 1013 22 5000 5.1 260 09:37 21.06.2019
6017 Haze 28 1013 22 5000 5.1 260 09:18 21.06.2019
6018 Haze 26 1013 33 5000 1.5 100 08:41 21.06.2019
6019 Haze 26 1013 33 5000 1.5 100 08:21 21.06.2019
6020 Haze 23 1013 41 4000 1.5 260 07:46 21.06.2019
6021 Haze 23 1013 41 4000 1.5 260 07:23 21.06.2019
6022 Haze 20 1013 43 4000 2.1 260 06:42 21.06.2019
6023 Haze 20 1013 43 4000 2.1 260 06:18 21.06.2019
6024 Clear 18 1013 49 6000 3.6 260 04:57 21.06.2019
6025 Clear 20 1013 45 6000 3.1 260 03:53 21.06.2019
6026 Clear 18 1013 45 6000 3.1 260 03:32 21.06.2019
6027 Clear 19 1012 40 6000 3.1 260 02:44 21.06.2019
6028 Clear 20 1013 35 6000 3.1 270 01:38 21.06.2019
6029 Clear 21 1013 35 6000 3.1 270 00:52 21.06.2019
6030 Clear 21 1013 35 6000 3.1 270 00:18 21.06.2019
6031 Clear 23 1013 33 6000 3.6 270 23:42 20.06.2019
6032 Clear 22 1013 33 6000 3.6 270 23:21 20.06.2019
6033 Haze 22 1013 35 5000 3.1 310 22:46 20.06.2019
6034 Haze 22 1013 35 5000 3.1 310 22:26 20.06.2019
6035 Haze 24 1013 35 5000 3.6 310 21:57 20.06.2019
6036 Haze 24 1013 35 5000 3.6 310 21:39 20.06.2019
6037 Haze 24 1013 35 5000 3.6 310 21:19 20.06.2019
6038 Haze 25 1013 38 5000 5.1 310 20:46 20.06.2019
6039 Haze 25 1013 38 5000 5.1 310 20:26 20.06.2019
6040 Haze 27 1013 34 5000 6.7 280 19:55 20.06.2019
6041 Haze 27 1013 34 5000 6.7 280 19:37 20.06.2019
6042 Haze 27 1013 34 5000 6.7 280 19:18 20.06.2019
6043 Clear 28 1013 30 6000 7.2 280 18:42 20.06.2019
6044 Clear 28 1013 30 6000 7.2 280 18:23 20.06.2019
6045 -273 0 0 0 0 0 17:51 20.06.2019
6046 Clear 29 1012 28 6000 5.1 280 17:51 20.06.2019
6047 Clear 29 1012 28 6000 5.1 280 17:32 20.06.2019
6048 Clear 30 1012 30 6000 7.2 300 16:55 20.06.2019
6049 Clear 30 1012 30 6000 7.2 300 16:36 20.06.2019
6050 Clear 30 1012 30 6000 7.2 300 16:18 20.06.2019
6051 Clear 30 1013 28 6000 6.2 260 15:41 20.06.2019
6052 Clear 30 1013 28 6000 6.2 260 15:22 20.06.2019
6053 Haze 30 1013 28 7000 8.7 300 14:46 20.06.2019
6054 Haze 30 1013 27 5000 4.1 270 14:23 20.06.2019
6055 Haze 30 1013 26 5000 10.3 300 13:42 20.06.2019
6056 Haze 30 1013 26 5000 10.3 300 13:21 20.06.2019
6057 Haze 29 1013 30 5000 5.1 300 12:50 20.06.2019
6058 Haze 29 1013 30 5000 5.1 300 12:25 20.06.2019
6059 Haze 28 1013 28 7000 7.2 280 11:58 20.06.2019
6060 Haze 28 1014 32 5000 4.6 300 11:39 20.06.2019
6061 Haze 28 1014 32 5000 4.6 300 11:20 20.06.2019
6062 Haze 27 1014 31 5000 3.1 280 10:42 20.06.2019
6063 Haze 27 1014 31 5000 3.1 280 10:23 20.06.2019
6064 Haze 25 1014 33 5000 5.1 250 09:41 20.06.2019
6065 Haze 25 1014 33 5000 5.1 250 09:23 20.06.2019
6066 Haze 23 1014 41 7000 4.1 250 08:47 20.06.2019
6067 Haze 23 1014 49 5000 3.1 250 08:28 20.06.2019
6068 Haze 20 1014 49 5000 4.1 250 07:55 20.06.2019
6069 Haze 20 1014 49 5000 4.1 250 07:31 20.06.2019
6070 Haze 19 1014 60 5000 2.6 250 06:46 20.06.2019
6071 Haze 19 1014 60 5000 2.6 250 06:18 20.06.2019
6072 Clear 18 1013 52 6000 2.6 250 03:39 20.06.2019
6073 Clear 20 1014 46 6000 3.1 250 00:44 20.06.2019
6074 Clear 20 1014 46 6000 3.1 250 00:25 20.06.2019
6075 Clear 20 1013 52 6000 3.1 320 23:42 19.06.2019
6076 Clear 20 1013 52 6000 3.1 320 23:24 19.06.2019
6077 Clear 21 1014 56 6000 1.5 330 22:48 19.06.2019
6078 Clear 21 1014 56 6000 1.5 330 22:24 19.06.2019
6079 Clear 23 1014 53 6000 4.6 320 21:57 19.06.2019
6080 Clear 23 1014 53 6000 4.6 320 21:37 19.06.2019
6081 Clear 23 1014 53 6000 4.6 320 21:18 19.06.2019
6082 Clear 23 1014 49 6000 4.6 320 20:40 19.06.2019
6083 Clear 23 1014 49 6000 4.6 320 20:21 19.06.2019
6084 Haze 25 1013 47 5000 5.7 320 19:45 19.06.2019
6085 Haze 25 1013 47 5000 5.7 320 19:26 19.06.2019
6086 Haze 27 1013 39 5000 7.2 290 18:56 19.06.2019
6087 Haze 27 1013 39 5000 7.2 290 18:24 19.06.2019
6088 Dust 29 1013 32 5000 6.2 270 17:44 19.06.2019
6089 Dust 29 1013 32 5000 6.2 270 17:25 19.06.2019
6090 Dust 29 1013 34 5000 9.3 270 16:56 19.06.2019
6091 Dust 29 1013 34 5000 9.3 270 16:36 19.06.2019
6092 Dust 29 1013 34 5000 9.3 270 16:18 19.06.2019
6093 Haze 30 1013 32 5000 7.2 270 15:42 19.06.2019
6094 Haze 30 1013 32 5000 7.2 270 15:22 19.06.2019
6095 Dust 30 1014 32 5000 7.2 260 14:43 19.06.2019
6096 Dust 30 1014 32 5000 7.2 260 14:24 19.06.2019
6097 Dust 29 1014 30 5000 7.7 260 13:47 19.06.2019
6098 Dust 29 1014 30 5000 7.7 260 13:28 19.06.2019
6099 Clear 29 1014 32 6000 7.2 290 12:57 19.06.2019
6100 Clear 29 1014 32 6000 7.2 290 12:39 19.06.2019
6101 Clear 29 1014 32 6000 7.2 290 12:18 19.06.2019
6102 Clear 28 1014 36 6000 6.7 240 11:40 19.06.2019
6103 Clear 28 1014 36 6000 6.7 240 11:21 19.06.2019
6104 Clear 27 1014 36 6000 6.7 240 10:49 19.06.2019
6105 Haze 26 1014 36 5000 4.6 240 10:28 19.06.2019
6106 Haze 26 1014 41 5000 4.6 250 09:56 19.06.2019
6107 Haze 26 1014 41 5000 4.6 250 09:38 19.06.2019
6108 Haze 26 1014 41 5000 4.6 250 09:18 19.06.2019
6109 Haze 24 1014 44 5000 4.6 250 08:43 19.06.2019
6110 Haze 24 1014 44 5000 4.6 250 08:25 19.06.2019
6111 Haze 21 1014 53 5000 3.1 260 07:44 19.06.2019
6112 Haze 21 1014 53 5000 3.1 260 07:23 19.06.2019
6113 Haze 20 1014 56 4000 2.1 310 06:42 19.06.2019
6114 Haze 20 1014 56 4000 2.1 310 06:20 19.06.2019
6115 Haze 17 1014 63 4000 2.1 310 05:41 19.06.2019
6116 Clear 18 1015 56 6000 2.6 320 03:58 19.06.2019
6117 Clear 18 1015 56 6000 2.6 330 02:59 19.06.2019
6118 Clouds 18 1016 68 6000 3.1 240 01:47 19.06.2019
6119 Clouds 19 1016 68 6000 3.1 240 00:57 19.06.2019
6120 Clear 19 1015 64 6000 1.5 330 00:39 19.06.2019
6121 Clear 19 1015 64 6000 1.5 330 00:19 19.06.2019
6122 Clear 20 1015 64 6000 2.1 330 23:46 18.06.2019
6123 Clear 20 1015 64 6000 2.1 330 23:25 18.06.2019
6124 Haze 21 1016 60 5000 2.6 330 22:43 18.06.2019
6125 Haze 21 1016 60 5000 2.6 330 22:24 18.06.2019
6126 Haze 22 1015 53 5000 2.6 330 21:56 18.06.2019
6127 Haze 22 1015 53 5000 2.6 330 21:38 18.06.2019
6128 Haze 22 1015 53 5000 2.6 330 21:19 18.06.2019
6129 Haze 24 1015 56 5000 5.1 310 20:42 18.06.2019
6130 Haze 24 1015 56 5000 5.1 310 20:24 18.06.2019
6131 Haze 24 1015 53 5000 6.7 320 19:41 18.06.2019
6132 Haze 24 1015 53 5000 6.7 320 19:23 18.06.2019
6133 Dust 27 1015 39 6000 6.7 260 18:56 18.06.2019
6134 Dust 27 1015 39 6000 6.7 260 18:28 18.06.2019
6135 Dust 28 1015 42 6000 7.2 280 17:59 18.06.2019
6136 Dust 28 1015 42 6000 7.2 280 17:38 18.06.2019
6137 Dust 28 1015 42 6000 7.2 280 17:19 18.06.2019
6138 Dust 29 1015 39 6000 7.2 260 16:43 18.06.2019
6139 Dust 29 1015 39 6000 7.2 260 16:24 18.06.2019
6140 Haze 29 1015 39 5000 6.2 280 15:43 18.06.2019
6141 Haze 29 1015 39 5000 6.2 280 15:24 18.06.2019
6142 Dust 29 1015 37 5000 8.2 270 14:59 18.06.2019
6143 Dust 29 1015 37 5000 8.2 270 14:41 18.06.2019
6144 Dust 29 1015 37 5000 8.2 270 14:20 18.06.2019
6145 Dust 29 1015 34 5000 8.2 270 13:52 18.06.2019
6146 Dust 29 1015 34 5000 8.2 270 13:31 18.06.2019
6147 Haze 29 1015 34 5000 6.7 260 12:48 18.06.2019
6148 Haze 29 1015 34 5000 6.7 260 12:30 18.06.2019
6149 Haze 28 1015 39 5000 5.7 250 11:59 18.06.2019
6150 Haze 28 1015 39 5000 5.7 250 11:40 18.06.2019
6151 Haze 28 1015 39 5000 5.7 250 11:20 18.06.2019
6152 Haze 27 1015 39 5000 5.7 250 10:56 18.06.2019
6153 Haze 27 1016 36 5000 5.7 250 10:36 18.06.2019
6154 Haze 27 1016 36 5000 5.7 250 10:18 18.06.2019
6155 Haze 27 1016 39 5000 4.6 250 09:37 18.06.2019
6156 Haze 27 1016 39 5000 4.6 250 09:18 18.06.2019
6157 Haze 24 1015 44 5000 4.1 250 08:43 18.06.2019
6158 Haze 24 1015 44 5000 4.1 250 08:21 18.06.2019
6159 Haze 22 1015 49 5000 3.1 250 07:40 18.06.2019
6160 Haze 22 1015 49 5000 3.1 250 07:19 18.06.2019
6161 Haze 18 1014 49 6000 4.6 250 05:39 18.06.2019
6162 Clear 18 1014 56 6000 2.1 240 04:24 18.06.2019
6163 Clear 19 1014 60 6000 3.6 250 02:52 18.06.2019
6164 Clear 19 1014 56 6000 3.6 250 01:54 18.06.2019
6165 Clear 19 1014 56 6000 3.6 250 01:24 18.06.2019
6166 Clear 19 1014 56 6000 3.6 250 01:24 18.06.2019
6167 Clear 20 1014 56 6000 3.6 250 00:54 18.06.2019
6168 Clear 20 1014 53 6000 2.6 250 00:26 18.06.2019
6169 Clear 21 1015 56 6000 3.6 260 23:41 17.06.2019
6170 Clear 21 1015 56 6000 3.6 260 23:20 17.06.2019
6171 Clear 21 1015 56 6000 3.6 250 22:55 17.06.2019
6172 Clear 21 1015 56 6000 3.6 250 22:37 17.06.2019
6173 Clear 21 1015 56 6000 3.6 250 22:18 17.06.2019
6174 Clear 22 1014 49 6000 3.1 280 21:42 17.06.2019
6175 Clear 22 1014 49 6000 3.1 280 21:21 17.06.2019
6176 Haze 24 1014 50 5000 2.1 260 20:37 17.06.2019
6177 Haze 24 1014 50 5000 2.1 260 20:19 17.06.2019
6178 Haze 25 1014 47 5000 4.6 270 19:42 17.06.2019
6179 Haze 25 1014 47 5000 4.6 270 19:24 17.06.2019
6180 Clouds 27 1014 39 6000 4.6 260 18:58 17.06.2019
6181 Clouds 27 1014 39 6000 4.6 260 18:38 17.06.2019
6182 Clouds 27 1013 32 6000 7.7 250 18:18 17.06.2019
6183 Clouds 27 1013 32 6000 7.7 250 17:47 17.06.2019
6184 Clouds 27 1013 32 6000 7.7 250 17:29 17.06.2019
6185 Clouds 27 1013 32 6000 7.7 250 16:55 17.06.2019
6186 Haze 28 1013 32 5000 9.3 260 16:37 17.06.2019
6187 Haze 29 1013 32 5000 9.3 260 16:19 17.06.2019
6188 Haze 29 1013 39 5000 7.2 280 15:43 17.06.2019
6189 Dust 30 1013 35 5000 9.3 270 15:20 17.06.2019
6190 Dust 30 1013 35 5000 9.3 270 15:20 17.06.2019
6191 Dust 30 1013 35 5000 9.3 270 14:55 17.06.2019
6192 Dust 30 1013 35 5000 9.3 270 14:34 17.06.2019
6193 Dust 30 1013 35 5000 9.3 270 14:34 17.06.2019
6194 Dust 30 1013 35 5000 9.3 270 13:58 17.06.2019
6195 Dust 29 1013 37 5000 9.3 270 13:40 17.06.2019
6196 Dust 29 1013 37 5000 9.3 270 13:20 17.06.2019
6197 Haze 28 1013 26 5000 4.6 230 12:39 17.06.2019
6198 Haze 28 1013 26 5000 4.6 230 12:19 17.06.2019
6199 Haze 28 1013 41 5000 5.7 250 11:43 17.06.2019
6200 Haze 28 1013 41 5000 5.7 250 11:24 17.06.2019
6201 Haze 26 1013 50 5000 4.1 260 10:47 17.06.2019
6202 Haze 26 1013 50 5000 4.1 260 10:29 17.06.2019
6203 Haze 25 1013 57 5000 6.2 300 09:56 17.06.2019
6204 Haze 25 1013 57 5000 6.2 300 09:33 17.06.2019
6205 Haze 24 1013 60 4000 4.6 250 08:55 17.06.2019
6206 Haze 24 1013 60 4000 4.6 250 08:36 17.06.2019
6207 Haze 23 1012 64 4000 3.1 250 08:18 17.06.2019
6208 Haze 23 1012 64 4000 3.1 250 07:38 17.06.2019
6209 Smoke 22 1013 56 6000 5.48 251.71 07:18 17.06.2019
6210 Smoke 20 1012 68 4000 3.1 270 06:23 17.06.2019
6211 Smoke 19 1012 68 4000 2.6 240 05:31 17.06.2019
6212 Haze 19 1012 64 5000 3.1 250 04:32 17.06.2019
6213 Haze 20 1012 60 5000 2.1 250 03:33 17.06.2019
6214 Haze 21 1012 53 5000 2.1 240 02:49 17.06.2019
6215 Haze 21 1012 53 5000 2.1 240 02:31 17.06.2019
6216 Haze 22 1012 53 5000 1.5 250 01:38 17.06.2019
6217 Haze 22 1012 53 5000 1.5 250 00:59 17.06.2019
6218 Haze 22 1013 56 5000 3.1 260 00:40 17.06.2019
6219 Haze 22 1013 56 5000 3.1 260 00:20 17.06.2019
6220 Haze 22 1013 64 5000 2.6 320 23:40 16.06.2019
6221 Haze 23 1013 60 5000 2.1 310 23:20 16.06.2019
6222 Haze 23 1013 60 5000 2.1 310 22:47 16.06.2019
6223 Haze 24 1013 60 5000 2.1 310 22:21 16.06.2019
6224 Haze 24 1013 60 5000 2.1 310 21:59 16.06.2019
6225 Haze 24 1013 60 5000 3.6 320 21:40 16.06.2019
6226 Haze 25 1012 57 5000 4.6 300 21:21 16.06.2019
6227 Haze 25 1012 57 5000 4.6 300 20:56 16.06.2019
6228 Haze 25 1012 57 5000 4.6 300 20:37 16.06.2019
6229 Haze 26 1011 50 5000 5.7 300 20:18 16.06.2019
6230 Haze 26 1011 50 5000 5.7 300 19:41 16.06.2019
6231 Haze 28 1011 44 5000 6.2 310 19:22 16.06.2019
6232 Haze 28 1011 44 5000 6.2 310 18:58 16.06.2019
6233 Haze 28 1011 44 5000 6.2 310 18:39 16.06.2019
6234 Clouds 29 1011 35 6000 3.6 330 18:20 16.06.2019
6235 Clouds 29 1011 35 6000 3.6 330 17:47 16.06.2019
6236 Clouds 29 1011 35 6000 3.6 330 17:22 16.06.2019
6237 Clouds 30 1011 30 6000 7.2 270 16:57 16.06.2019
6238 Clouds 30 1011 30 6000 7.2 270 16:57 16.06.2019
6239 Clouds 30 1011 30 6000 7.2 270 16:57 16.06.2019
6240 Clouds 30 1011 30 6000 7.2 270 16:39 16.06.2019
6241 Clouds 30 1011 30 8000 5.1 250 16:20 16.06.2019
6242 Clouds 30 1011 30 6000 5.1 290 15:42 16.06.2019
6243 Clouds 30 1011 30 6000 5.1 290 15:24 16.06.2019
6244 Clouds 30 1012 28 6000 7.2 270 14:44 16.06.2019
6245 Clouds 30 1012 28 6000 7.2 270 14:23 16.06.2019
6246 Clouds 30 1012 28 6000 7.2 270 13:52 16.06.2019
6247 Clouds 30 1012 28 6000 6.2 240 13:28 16.06.2019
6248 Clouds 30 1012 28 6000 6.2 240 12:58 16.06.2019
6249 Clear 30 1012 26 6000 5.7 300 12:40 16.06.2019
6250 Clear 29 1012 26 6000 5.7 300 12:20 16.06.2019
6251 Clear 29 1012 24 6000 5.7 270 11:46 16.06.2019
6252 Clear 29 1012 24 6000 5.7 270 11:46 16.06.2019
6253 Clear 28 1012 30 6000 5.1 290 11:20 16.06.2019
6254 Clear 28 1012 30 6000 5.1 290 10:56 16.06.2019
6255 Clear 28 1012 30 6000 5.1 290 10:38 16.06.2019
6256 Clear 27 1012 32 7000 4.1 280 10:18 16.06.2019
6257 Clear 27 1012 39 6000 3.6 250 09:39 16.06.2019
6258 Clear 25 1012 44 6000 4.1 250 09:21 16.06.2019
6259 Clear 25 1012 44 6000 4.1 250 08:42 16.06.2019
6260 Clear 23 1012 44 6000 4.1 250 08:19 16.06.2019
6261 Haze 23 1011 50 5000 4.1 250 07:44 16.06.2019
6262 Haze 18 1011 63 5000 2.6 310 07:20 16.06.2019
6263 Haze 18 1011 63 5000 2.6 310 06:49 16.06.2019
6264 Haze 17 1015 77 5000 1.73 289.379 05:52 16.06.2019
6265 Clear 16 1010 77 8000 2.1 300 05:18 16.06.2019
6266 Haze 19 1010 64 5000 1.73 289.379 03:58 16.06.2019
6267 Haze 19 1010 64 5000 1.73 289.379 03:33 16.06.2019
6268 Haze 19 1010 64 5000 4.03 318.987 02:48 16.06.2019
6269 Haze 21 1011 60 5000 4.03 318.987 01:47 16.06.2019
6270 Haze 20 1011 60 5000 4.03 318.987 01:28 16.06.2019
6271 Haze 20 1011 60 5000 3.31 319.188 00:43 16.06.2019
6272 Haze 20 1011 60 5000 4.56 322.896 00:23 16.06.2019
6273 Haze 21 1011 72 8000 2.1 270 23:55 15.06.2019
6274 Haze 22 1011 56 5000 4.56 322.896 23:37 15.06.2019
6275 Haze 22 1011 56 5000 4.56 322.896 23:18 15.06.2019
6276 Clear 22 1011 60 6000 1.5 320 22:43 15.06.2019
6277 Clear 23 1011 60 6000 1.5 320 22:24 15.06.2019
6278 Haze 23 1010 64 5000 3.6 330 21:43 15.06.2019
6279 Haze 24 1010 64 5000 3.6 330 21:20 15.06.2019
6280 Haze 24 1010 64 5000 3.6 330 20:45 15.06.2019
6281 Haze 24 1010 64 5000 3.6 330 20:22 15.06.2019
6282 Clear 26 1010 57 6000 6.2 330 19:47 15.06.2019
6283 Clear 26 1010 57 6000 6.2 330 19:26 15.06.2019
6284 Haze 27 1010 54 5000 6.2 340 18:44 15.06.2019
6285 Haze 27 1010 54 5000 6.2 340 18:25 15.06.2019
6286 Haze 28 1010 47 5000 6.2 320 17:45 15.06.2019
6287 Haze 28 1010 47 5000 6.2 320 17:27 15.06.2019
6288 Clouds 29 1010 35 6000 2.6 310 16:49 15.06.2019
6289 Clouds 29 1010 35 6000 2.6 310 16:22 15.06.2019
6290 Clouds 29 1010 32 6000 6.2 240 15:58 15.06.2019
6291 Clouds 29 1010 32 6000 6.2 240 15:40 15.06.2019
6292 Clouds 29 1010 30 6000 5.1 250 15:19 15.06.2019
6293 Clouds 29 1010 30 6000 5.1 250 14:38 15.06.2019
6294 Clouds 29 1010 30 6000 5.1 250 14:18 15.06.2019
6295 Clouds 29 1010 30 6000 5.1 250 14:18 15.06.2019
6296 Haze 29 1011 32 5000 6.7 250 13:43 15.06.2019
6297 Haze 28 1011 34 5000 5.7 240 13:20 15.06.2019
6298 Haze 28 1011 34 5000 5.7 240 12:58 15.06.2019
6299 Haze 28 1011 34 5000 5.7 240 12:40 15.06.2019
6300 Clear 27 1011 32 6000 5.1 270 12:20 15.06.2019
6301 Clear 27 1011 39 6000 3.6 250 11:41 15.06.2019
6302 Clear 27 1011 39 6000 3.6 250 11:23 15.06.2019
6303 Clear 26 1011 39 6000 1.5 250 10:42 15.06.2019
6304 Clear 26 1011 39 6000 1.5 250 10:24 15.06.2019
6305 Clear 25 1011 41 6000 4.1 320 09:48 15.06.2019
6306 Clear 25 1011 41 6000 4.1 320 09:26 15.06.2019
6307 Haze 23 1011 49 5000 3.6 330 08:54 15.06.2019
6308 Haze 23 1011 49 5000 3.6 330 08:54 15.06.2019
6309 Haze 23 1011 49 5000 3.6 330 08:34 15.06.2019
6310 Haze 23 1011 49 5000 3.6 330 08:33 15.06.2019
6311 Haze 21 1011 53 5000 3.1 320 07:54 15.06.2019
6312 Haze 21 1011 53 5000 3.1 320 07:25 15.06.2019
6313 Haze 19 1011 60 5000 2.6 300 06:47 15.06.2019
6314 Haze 17 1011 59 5000 3.55 286.486 06:20 15.06.2019
6315 Haze 17 1011 59 5000 3.55 286.486 05:29 15.06.2019
6316 Haze 18 1011 59 5000 3.55 286.486 04:49 15.06.2019
6317 Haze 18 1011 59 5000 3.55 286.486 04:49 15.06.2019
6318 Haze 18 1010 55 5000 1.5 290 03:50 15.06.2019
6319 Haze 19 1010 55 5000 1.5 290 03:19 15.06.2019
6320 Haze 19 1010 49 5000 3.6 310 02:23 15.06.2019
6321 Haze 20 1010 55 5000 2.6 330 01:50 15.06.2019
6322 Haze 21 1011 68 5000 2.97 342.731 01:18 15.06.2019
6323 Haze 21 1011 68 5000 2.97 342.731 00:40 15.06.2019
6324 Haze 21 1011 68 5000 5.2 329.456 23:55 14.06.2019
6325 Haze 21 1011 72 5000 1.5 330 23:37 14.06.2019
6326 Haze 22 1011 68 5000 1.5 330 23:18 14.06.2019
6327 Haze 22 1011 68 5000 1.5 330 22:41 14.06.2019
6328 Haze 22 1011 68 5000 1.5 330 22:21 14.06.2019
6329 Haze 22 1011 68 5000 3.6 320 21:48 14.06.2019
6330 Haze 22 1011 68 5000 3.6 320 21:27 14.06.2019
6331 Haze 23 1011 60 5000 4.6 310 20:44 14.06.2019
6332 Haze 24 1011 60 5000 4.6 310 20:19 14.06.2019
6333 Haze 24 1011 60 5000 4.6 310 19:58 14.06.2019
6334 Haze 24 1011 27 5000 4.6 310 19:39 14.06.2019
6335 Haze 24 1011 27 5000 4.6 310 19:19 14.06.2019
6336 Clouds 26 1011 53 6000 4.1 310 18:45 14.06.2019
6337 Clouds 26 1011 53 6000 4.1 310 18:26 14.06.2019
6338 Clouds 28 1011 39 6000 5.1 250 17:58 14.06.2019
6339 Clouds 28 1011 39 6000 5.1 250 17:40 14.06.2019
6340 Haze 28 1011 36 5000 6.2 250 17:21 14.06.2019
6341 Haze 28 1011 36 5000 6.2 250 16:48 14.06.2019
6342 Haze 28 1011 36 5000 6.2 250 16:23 14.06.2019
6343 Haze 29 1011 30 5000 4.1 250 15:59 14.06.2019
6344 Haze 29 1011 30 5000 4.1 250 15:39 14.06.2019
6345 Haze 28 1011 30 7000 5.1 250 15:19 14.06.2019
6346 Haze 28 1011 34 5000 5.1 260 14:43 14.06.2019
6347 Haze 28 1011 34 5000 5.1 260 14:25 14.06.2019
6348 Haze 28 1012 36 5000 3.6 250 13:46 14.06.2019
6349 Haze 28 1012 36 5000 3.6 250 13:28 14.06.2019
6350 Haze 26 1012 47 5000 2.1 320 12:57 14.06.2019
6351 Haze 26 1012 47 5000 2.1 320 12:39 14.06.2019
6352 Haze 26 1012 39 7000 2.6 240 12:20 14.06.2019
6353 Haze 25 1012 47 5000 4.1 350 11:42 14.06.2019
6354 Haze 25 1012 47 5000 4.1 350 11:42 14.06.2019
6355 Haze 25 1012 47 5000 4.1 350 11:42 14.06.2019
6356 Haze 25 1012 47 5000 4.1 350 11:23 14.06.2019
6357 Haze 24 1012 53 5000 4.1 340 10:47 14.06.2019
6358 Haze 23 1012 53 5000 2.6 340 10:21 14.06.2019
6359 Haze 23 1012 53 5000 2.6 340 09:55 14.06.2019
6360 Haze 23 1012 53 5000 2.6 340 09:33 14.06.2019
6361 Haze 22 1012 60 5000 3.6 350 08:49 14.06.2019
6362 Haze 20 1012 60 5000 3.6 350 08:21 14.06.2019
6363 Haze 20 1012 60 5000 3.6 350 07:55 14.06.2019
6364 Haze 21 1012 64 4000 3.1 340 07:24 14.06.2019
6365 Haze 21 1012 64 4000 3.1 340 06:55 14.06.2019
6366 Haze 16 1011 72 4000 2.1 320 06:20 14.06.2019
6367 Haze 16 1011 72 4000 2.1 320 05:47 14.06.2019
6368 Smoke 17 1012 77 5000 2.1 290 04:54 14.06.2019
6369 -273 0 0 0 0 0 04:27 14.06.2019
6370 Haze 17 1012 77 5000 3.1 260 03:41 14.06.2019
6371 Haze 17 1012 77 5000 3.1 260 03:21 14.06.2019
6372 Haze 17 1012 77 5000 1 40 02:36 14.06.2019
6373 Haze 17 1013 77 5000 1.5 100 01:51 14.06.2019
6374 Haze 18 1013 68 5000 2.1 10 00:40 14.06.2019
6375 Clear 18 1013 82 7000 3.6 290 00:21 14.06.2019
6376 Clear 19 1013 77 7000 3.6 290 23:50 13.06.2019
6377 Clear 19 1013 77 7000 3.6 290 23:50 13.06.2019
6378 Haze 19 1013 77 7000 3.6 290 23:26 13.06.2019
6379 Haze 19 1013 72 5000 2.1 280 22:57 13.06.2019
6380 Haze 19 1013 72 5000 2.1 280 22:37 13.06.2019
6381 Haze 21 1014 72 5000 3.1 320 22:18 13.06.2019
6382 Haze 21 1014 72 5000 3.1 320 21:38 13.06.2019
6383 Haze 22 1013 64 5000 4.1 300 21:19 13.06.2019
6384 Haze 22 1013 64 5000 4.1 300 20:45 13.06.2019
6385 Haze 23 1013 56 5000 5.1 300 20:21 13.06.2019
6386 Haze 23 1013 56 5000 5.1 300 19:55 13.06.2019
6387 Haze 23 1013 56 5000 5.1 300 19:36 13.06.2019
6388 Clouds 24 1013 53 6000 4.1 280 19:18 13.06.2019
6389 Clouds 24 1013 53 6000 4.1 280 18:43 13.06.2019
6390 Clouds 24 1013 53 6000 4.1 280 18:25 13.06.2019
6391 Clouds 26 1013 47 6000 7.2 270 17:57 13.06.2019
6392 Clouds 26 1013 47 6000 7.2 270 17:38 13.06.2019
6393 Clouds 26 1013 47 6000 7.2 270 17:19 13.06.2019
6394 Clouds 27 1013 39 6000 6.2 260 16:44 13.06.2019
6395 Clouds 26 1013 39 7000 5.1 280 16:21 13.06.2019
6396 Clouds 27 1013 44 6000 6.7 280 15:43 13.06.2019
6397 Clouds 27 1013 44 6000 6.7 280 15:24 13.06.2019
6398 Clouds 27 1013 44 6000 6.7 280 14:56 13.06.2019
6399 Haze 28 1013 42 5000 5.1 260 14:31 13.06.2019
6400 Haze 28 1013 42 5000 5.1 260 14:31 13.06.2019
6401 Haze 28 1013 42 5000 5.1 260 14:31 13.06.2019
6402 Haze 27 1013 42 5000 5.1 260 13:59 13.06.2019
6403 Haze 27 1014 42 5000 4.1 250 13:40 13.06.2019
6404 Clouds 27 1014 39 7000 6.2 280 13:21 13.06.2019
6405 Haze 26 1014 44 5000 6.2 310 12:42 13.06.2019
6406 Haze 26 1014 44 5000 6.2 310 12:22 13.06.2019
6407 Haze 25 1014 44 5000 6.2 310 11:56 13.06.2019
6408 Haze 26 1014 34 5000 3.6 270 11:37 13.06.2019
6409 Haze 24 1015 47 7000 5.1 280 11:18 13.06.2019
6410 Haze 24 1014 47 5000 3.6 310 10:43 13.06.2019
6411 Haze 24 1014 47 5000 3.6 310 10:23 13.06.2019
6412 Haze 23 1014 53 5000 3.6 310 09:43 13.06.2019
6413 Haze 23 1014 53 5000 3.6 310 09:23 13.06.2019
6414 Haze 23 1014 53 5000 3.6 310 09:23 13.06.2019
6415 Haze 22 1014 60 5000 2.6 340 08:44 13.06.2019
6416 Haze 22 1014 60 5000 2.6 340 08:25 13.06.2019
6417 Haze 19 1014 68 5000 5.1 250 07:53 13.06.2019
6418 Haze 19 1014 68 5000 5.1 250 07:25 13.06.2019
6419 Haze 17 1014 72 5000 4.1 260 06:51 13.06.2019
6420 Haze 17 1014 72 5000 4.1 260 06:24 13.06.2019
6421 Haze 17 1014 77 5000 4.1 290 05:56 13.06.2019
6422 Haze 17 1014 77 5000 4.1 290 05:37 13.06.2019
6423 Haze 18 1014 77 5000 4.1 290 04:58 13.06.2019
6424 Haze 18 1014 72 5000 2.6 330 02:42 13.06.2019
6425 Haze 19 1014 77 5000 2.6 340 01:25 13.06.2019
6426 Haze 19 1015 72 5000 2.1 330 00:29 13.06.2019
6427 Haze 20 1015 68 5000 4.1 340 23:24 12.06.2019
6428 Haze 21 1015 68 5000 6.48 310.559 22:47 12.06.2019
6429 Haze 21 1015 68 5000 6.48 310.559 22:28 12.06.2019
6430 Haze 22 1015 60 5000 4.1 310 21:58 12.06.2019
6431 Haze 23 1015 64 5000 4.6 360 21:40 12.06.2019
6432 Haze 24 1008 64 5000 4.1 340 21:21 12.06.2019
6433 Haze 24 1008 64 5000 4.1 340 20:42 12.06.2019
6434 Haze 24 1008 64 5000 4.1 340 20:22 12.06.2019
6435 Clear 26 1011 46 0 7.97 311.161 19:56 12.06.2019
6436 Clear 26 1011 46 0 7.97 311.161 19:37 12.06.2019
6437 Clear 26 1011 46 0 7.97 311.161 19:18 12.06.2019
6438 Clear 26 1011 46 0 7.97 311.161 18:40 12.06.2019
6439 Clear 31 1010 25 0 7.55 289.498 18:22 12.06.2019
6440 Clear 31 1010 25 0 7.55 289.498 17:45 12.06.2019
6441 Clear 31 1010 25 0 7.55 289.498 17:21 12.06.2019
6442 Clear 31 1010 25 0 7.55 289.498 16:43 12.06.2019
6443 Haze 31 1014 28 5000 4.1 280 16:24 12.06.2019
6444 Haze 31 1014 28 5000 4.1 280 15:57 12.06.2019
6445 Haze 31 1014 28 5000 4.1 280 15:32 12.06.2019
6446 Haze 31 1014 28 5000 4.6 230 14:55 12.06.2019
6447 Haze 31 1014 28 5000 4.6 230 14:31 12.06.2019
6448 Haze 31 1014 28 5000 4.6 230 13:56 12.06.2019
6449 Haze 31 1014 27 5000 5.7 250 13:37 12.06.2019
6450 Haze 31 1014 27 5000 5.7 250 13:18 12.06.2019
6451 Haze 30 1015 30 5000 3.6 260 12:40 12.06.2019
6452 Haze 30 1015 30 5000 4.6 250 12:20 12.06.2019
6453 Haze 30 1015 30 5000 4.6 250 11:48 12.06.2019
6454 Haze 30 1015 30 5000 4.6 250 11:29 12.06.2019
6455 Haze 29 1015 30 5000 4.6 250 10:57 12.06.2019
6456 Haze 29 1015 30 5000 4.6 250 10:39 12.06.2019
6457 Haze 29 1015 30 5000 4.6 250 10:39 12.06.2019
6458 Haze 29 1015 30 5000 4.6 250 10:18 12.06.2019
6459 Haze 28 1015 30 5000 3.6 290 09:41 12.06.2019
6460 Haze 27 1015 30 5000 3.6 290 09:21 12.06.2019
6461 Haze 26 1015 30 5000 3.1 250 08:29 12.06.2019
6462 Haze 27 1015 34 7000 3.1 200 07:58 12.06.2019
6463 Haze 25 1014 30 5000 3.1 250 07:18 12.06.2019
6464 Haze 23 1014 31 4000 2.1 310 06:39 12.06.2019
6465 Haze 21 1013 36 4000 1.5 360 05:25 12.06.2019
6466 Haze 22 1013 40 5000 2.73 337.118 02:22 12.06.2019
6467 Haze 24 1014 33 5000 2.1 20 00:47 12.06.2019
6468 Haze 24 1014 38 7000 2.6 330 00:20 12.06.2019
6469 Haze 24 1014 33 5000 2.1 20 23:43 11.06.2019
6470 Haze 24 1014 33 5000 2.1 20 23:24 11.06.2019
6471 Haze 24 1014 29 5000 1.5 320 22:43 11.06.2019
6472 Haze 26 1014 28 5000 4.6 310 22:18 11.06.2019
6473 Haze 26 1014 28 5000 4.6 310 21:56 11.06.2019
6474 Haze 26 1014 28 5000 4.6 310 21:37 11.06.2019
6475 Haze 27 1014 28 5000 4.6 310 21:19 11.06.2019
6476 Haze 27 1014 32 5000 2.1 320 20:46 11.06.2019
6477 Haze 29 1014 32 5000 2.1 320 20:23 11.06.2019
6478 Haze 29 1014 30 5000 6.2 310 19:52 11.06.2019
6479 Haze 29 1014 30 5000 6.2 310 19:29 11.06.2019
6480 Haze 31 1013 23 5000 5.1 310 18:54 11.06.2019
6481 Haze 31 1013 23 5000 5.1 310 18:21 11.06.2019
6482 Haze 32 1013 20 5000 5.1 260 17:42 11.06.2019
6483 Haze 33 1013 19 5000 7.2 290 17:22 11.06.2019
6484 Haze 33 1013 19 5000 7.2 290 16:56 11.06.2019
6485 Haze 33 1013 19 5000 7.2 290 16:37 11.06.2019
6486 Clear 32 1012 19 7000 5.1 250 16:19 11.06.2019
6487 Clouds 33 1013 19 6000 4.1 280 15:41 11.06.2019
6488 Haze 32 1013 17 7000 5.1 250 15:21 11.06.2019
6489 Haze 33 1014 18 5000 5.1 300 14:44 11.06.2019
6490 Clear 32 1014 19 6000 5.1 280 14:21 11.06.2019
6491 Clear 32 1014 19 6000 5.1 280 13:50 11.06.2019
6492 Clear 32 1014 19 6000 5.1 280 13:24 11.06.2019
6493 Clear 31 1014 18 7000 6.2 280 12:55 11.06.2019
6494 Clear 31 1014 18 7000 6.2 280 12:55 11.06.2019
6495 Clear 31 1014 22 6000 5.1 310 12:37 11.06.2019
6496 Clear 31 1014 20 6000 6.2 270 12:18 11.06.2019
6497 Clear 31 1014 20 6000 6.2 270 11:39 11.06.2019
6498 Clear 31 1014 20 6000 6.2 270 11:19 11.06.2019
6499 Clear 30 1015 23 6000 8.2 270 10:46 11.06.2019
6500 Clear 30 1015 23 6000 8.2 270 10:25 11.06.2019
6501 Clear 28 1015 26 6000 2.1 230 09:49 11.06.2019
6502 Clear 28 1015 26 6000 2.1 230 09:24 11.06.2019
6503 Haze 25 1014 27 5000 2.6 280 08:45 11.06.2019
6504 Haze 25 1014 27 5000 2.6 280 08:26 11.06.2019
6505 Haze 23 1015 31 4000 2.1 320 07:46 11.06.2019
6506 Haze 23 1015 31 4000 2.1 320 07:27 11.06.2019
6507 Haze 19 1014 38 4000 1.5 340 06:50 11.06.2019
6508 Clear 19 1013 43 7000 1.99 333.009 04:55 11.06.2019
6509 Clear 19 1013 33 7000 1.99 333.009 03:42 11.06.2019
6510 Clear 21 1013 33 7000 3.1 280 01:41 11.06.2019
6511 Clear 21 1013 43 7000 2.1 310 00:48 11.06.2019
6512 Clear 22 1012 43 7000 4.77 351.765 23:50 10.06.2019
6513 Clear 22 1012 43 7000 4.77 351.765 23:32 10.06.2019
6514 Clear 24 1012 41 7000 4.78 0.527 22:56 10.06.2019
6515 Clear 24 1012 41 7000 4.78 0.527 22:38 10.06.2019
6516 Clear 25 1013 38 10000 4.1 310 22:19 10.06.2019
6517 Clear 24 1013 36 7000 2.6 310 21:41 10.06.2019
6518 Clear 24 1013 36 7000 2.6 310 21:22 10.06.2019
6519 Clear 25 1013 34 7000 2.6 340 20:47 10.06.2019
6520 Clear 25 1013 34 7000 2.6 340 20:25 10.06.2019
6521 Haze 27 1012 30 5000 3.6 350 19:57 10.06.2019
6522 Haze 27 1012 30 5000 3.6 350 19:39 10.06.2019
6523 Haze 27 1012 30 5000 3.6 350 19:21 10.06.2019
6524 Haze 27 1012 30 5000 3.6 350 18:55 10.06.2019
6525 Clear 29 1012 28 6000 4.1 270 18:37 10.06.2019
6526 Clear 31 1012 23 6000 3.6 270 18:18 10.06.2019
6527 Clear 31 1012 23 6000 3.6 270 17:40 10.06.2019
6528 Clear 31 1012 23 6000 3.6 270 17:22 10.06.2019
6529 Clear 31 1012 20 6000 5.1 270 16:46 10.06.2019
6530 Clear 31 1012 20 6000 5.1 270 16:28 10.06.2019
6531 Clear 31 1012 23 6000 6.2 270 15:46 10.06.2019
6532 Clear 31 1012 23 6000 6.2 270 15:46 10.06.2019
6533 Clear 31 1012 23 6000 6.2 270 15:24 10.06.2019
6534 Haze 31 1011 21 7000 5.1 260 14:59 10.06.2019
6535 Haze 31 1012 23 5000 5.1 270 14:40 10.06.2019
6536 Haze 31 1012 23 5000 5.1 270 14:21 10.06.2019
6537 Dust 30 1012 25 5000 6.2 320 13:43 10.06.2019
6538 Dust 30 1012 25 5000 6.2 320 13:23 10.06.2019
6539 Haze 29 1012 23 5000 3.1 260 12:45 10.06.2019
6540 Haze 29 1012 23 5000 3.1 260 12:27 10.06.2019
6541 Clear 29 1012 20 6000 5.7 280 11:49 10.06.2019
6542 Clear 29 1012 20 6000 5.7 280 11:30 10.06.2019
6543 Clear 29 1012 20 6000 5.7 280 10:58 10.06.2019
6544 Clear 28 1012 21 6000 5.7 280 10:38 10.06.2019
6545 Clear 27 1012 21 6000 5.7 280 10:18 10.06.2019
6546 Clear 27 1012 22 6000 5.7 270 09:48 10.06.2019
6547 Clear 27 1012 22 6000 5.7 270 09:29 10.06.2019
6548 Clear 24 1012 20 6000 4.1 280 08:48 10.06.2019
6549 Clear 24 1012 20 6000 4.1 280 08:26 10.06.2019
6550 Haze 22 1012 28 5000 4.6 240 07:27 10.06.2019
6551 Clear 18 1011 52 6000 3.1 250 04:42 10.06.2019
6552 Clear 20 1011 37 6000 2.6 240 02:29 10.06.2019
6553 Clear 19 1011 72 10000 3.1 320 01:49 10.06.2019
6554 Clear 19 1011 72 10000 3.1 320 00:59 10.06.2019
6555 Clear 22 1011 68 10000 3.1 320 00:36 10.06.2019
6556 Clear 22 1012 60 7000 4.1 250 23:46 09.06.2019
6557 Clear 22 1011 53 7000 3.1 250 23:21 09.06.2019
6558 Clear 22 1011 53 7000 3.1 250 22:47 09.06.2019
6559 Clear 22 1011 53 7000 3.1 250 22:26 09.06.2019
6560 Clear 23 1011 50 6000 3.6 310 21:48 09.06.2019
6561 Clear 23 1011 50 6000 3.6 310 21:29 09.06.2019
6562 Clouds 23 1011 50 6000 3.6 310 20:59 09.06.2019
6563 Clouds 24 1011 57 6000 3.1 350 20:41 09.06.2019
6564 Clouds 24 1011 57 6000 3.1 350 20:21 09.06.2019
6565 Haze 26 1011 47 5000 3.6 320 19:43 09.06.2019
6566 Haze 26 1011 47 5000 3.6 320 19:43 09.06.2019
6567 Haze 28 1011 34 5000 3.6 300 19:18 09.06.2019
6568 Haze 28 1011 34 5000 3.6 300 18:43 09.06.2019
6569 Haze 28 1011 34 5000 3.6 300 18:25 09.06.2019
6570 Haze 28 1011 34 5000 3.6 300 17:56 09.06.2019
6571 Haze 30 1012 30 5000 6.2 270 17:30 09.06.2019
6572 Haze 30 1012 28 5000 7.2 290 16:59 09.06.2019
6573 Haze 30 1012 28 5000 7.2 290 16:59 09.06.2019
6574 Haze 30 1012 28 5000 7.2 290 16:40 09.06.2019
6575 Haze 30 1012 30 7000 6.2 300 16:20 09.06.2019
6576 Haze 30 1012 28 5000 7.2 290 15:50 09.06.2019
6577 Haze 30 1012 28 5000 7.2 290 15:29 09.06.2019
6578 Haze 30 1012 30 5000 7.2 270 14:56 09.06.2019
6579 Haze 30 1012 30 5000 7.2 270 14:38 09.06.2019
6580 Haze 29 1012 28 7000 5.1 290 14:19 09.06.2019
6581 Haze 29 1012 32 5000 5.1 270 13:48 09.06.2019
6582 Haze 28 1012 32 5000 5.1 270 12:57 09.06.2019
6583 Haze 28 1012 37 5000 4.1 260 12:38 09.06.2019
6584 Haze 28 1013 36 5000 4.1 250 12:19 09.06.2019
6585 Haze 28 1013 36 5000 4.1 250 11:38 09.06.2019
6586 Haze 26 1013 36 5000 4.1 250 11:19 09.06.2019
6587 Haze 26 1013 41 5000 4.1 250 10:43 09.06.2019
6588 Haze 26 1013 41 5000 4.1 250 10:22 09.06.2019
6589 Haze 24 1013 53 5000 4.1 250 09:40 09.06.2019
6590 Haze 22 1013 53 5000 4.1 250 09:21 09.06.2019
6591 Haze 22 1012 56 5000 2.6 250 08:45 09.06.2019
6592 Haze 22 1012 56 5000 2.6 250 08:27 09.06.2019
6593 Haze 19 1012 77 4000 3.6 240 06:55 09.06.2019
6594 Haze 19 1012 77 4000 3.6 240 06:30 09.06.2019
6595 Haze 20 1012 64 5000 3.6 250 03:26 09.06.2019
6596 Haze 20 1013 60 5000 2.1 250 01:38 09.06.2019
6597 Clouds 20 1013 68 6000 5.1 260 01:19 09.06.2019
6598 Clouds 20 1013 68 6000 5.1 260 00:58 09.06.2019
6599 Haze 21 1013 64 5000 8.08 318.773 23:43 08.06.2019
6600 Haze 21 1013 64 5000 8.08 318.773 23:24 08.06.2019
6601 Dust 23 1012 57 5000 1.5 250 22:57 08.06.2019
6602 Dust 23 1012 57 5000 1.5 250 22:39 08.06.2019
6603 Dust 23 1012 57 5000 5.7 250 22:19 08.06.2019
6604 Dust 23 1012 57 5000 5.7 250 21:51 08.06.2019
6605 Dust 23 1012 57 5000 5.7 250 21:26 08.06.2019
6606 Dust 23 1012 57 5000 5.1 240 20:49 08.06.2019
6607 Dust 23 1012 57 5000 5.1 240 20:26 08.06.2019
6608 Dust 24 1012 61 4500 5.1 260 19:59 08.06.2019
6609 Dust 24 1012 61 4500 5.1 260 19:39 08.06.2019
6610 Dust 24 1012 61 4500 5.1 260 19:20 08.06.2019
6611 Dust 24 1012 61 4500 5.1 260 18:56 08.06.2019
6612 Dust 26 1011 57 4000 6.2 250 18:35 08.06.2019
6613 Dust 27 1011 57 5000 10.3 290 17:57 08.06.2019
6614 Dust 27 1011 54 4000 8.2 250 17:38 08.06.2019
6615 Dust 27 1011 54 4000 8.2 250 17:18 08.06.2019
6616 Dust 28 1011 51 4000 8.2 300 16:38 08.06.2019
6617 Dust 29 1011 51 5000 10.3 290 16:18 08.06.2019
6618 Dust 31 1011 40 4000 7.2 300 15:38 08.06.2019
6619 Dust 32 1012 35 4000 6.7 330 14:54 08.06.2019
6620 Dust 32 1012 35 4000 6.7 330 14:32 08.06.2019
6621 Dust 31 1012 35 4000 3.6 280 13:59 08.06.2019
6622 Dust 31 1012 35 4000 3.6 280 13:25 08.06.2019
6623 Dust 31 1012 35 4500 6.2 250 12:46 08.06.2019
6624 Dust 32 1013 26 4500 3.1 150 12:21 08.06.2019
6625 Dust 32 1013 26 4500 3.1 150 11:44 08.06.2019
6626 Dust 32 1013 26 4500 3.1 150 11:22 08.06.2019
6627 Dust 30 1013 29 4500 1.79 49.225 10:44 08.06.2019
6628 Dust 30 1013 29 4500 1.79 49.225 10:22 08.06.2019
6629 Dust 28 1013 35 4500 2.6 60 09:48 08.06.2019
6630 Dust 28 1013 35 4500 2.6 60 09:24 08.06.2019
6631 Dust 26 1013 41 4500 1.5 80 08:31 08.06.2019
6632 Dust 24 1014 41 4000 1.5 50 07:49 08.06.2019
6633 Haze 22 1014 46 4000 3.9 6.257 06:50 08.06.2019
6634 Haze 21 1014 53 4000 3.97 325.133 05:48 08.06.2019
6635 Haze 22 1014 46 5000 3.97 325.133 03:31 08.06.2019
6636 Haze 23 1014 41 5000 2.1 30 01:31 08.06.2019
6637 Haze 23 1014 41 5000 1.5 20 00:26 08.06.2019
6638 Haze 24 1014 41 5000 1.5 10 23:47 07.06.2019
6639 Haze 24 1014 41 5000 1.5 10 23:20 07.06.2019
6640 Haze 24 1014 38 5000 1.5 350 22:47 07.06.2019
6641 Haze 24 1014 38 5000 1.5 350 22:25 07.06.2019
6642 Haze 25 1014 38 5000 1.5 350 21:54 07.06.2019
6643 Haze 25 1014 38 5000 1.5 350 21:54 07.06.2019
6644 Haze 25 1014 36 5000 3.1 350 21:31 07.06.2019
6645 Haze 25 1014 36 5000 3.1 350 20:57 07.06.2019
6646 Haze 26 1013 41 5000 1.5 340 20:37 07.06.2019
6647 Clouds 29 1013 35 6000 7.2 290 19:51 07.06.2019
6648 Haze 30 1013 35 6000 7.2 290 19:24 07.06.2019
6649 Haze 30 1013 35 6000 7.2 290 18:59 07.06.2019
6650 Clouds 31 1012 31 6000 7.2 310 18:37 07.06.2019
6651 Haze 32 1013 27 4000 4.6 330 18:18 07.06.2019
6652 Haze 32 1013 27 4000 4.6 330 17:38 07.06.2019
6653 Haze 33 1013 27 4000 4.6 330 17:19 07.06.2019
6654 Haze 33 1013 27 5000 4.6 330 16:40 07.06.2019
6655 Haze 33 1013 27 5000 4.6 330 15:54 07.06.2019
6656 Haze 34 1014 27 5000 4.6 320 15:23 07.06.2019
6657 Haze 34 1014 29 5000 2.1 290 14:49 07.06.2019
6658 Haze 34 1014 29 5000 2.1 290 14:27 07.06.2019
6659 Haze 34 1014 29 5000 2.1 290 13:53 07.06.2019
6660 Haze 34 1015 29 5000 1.5 60 13:27 07.06.2019
6661 Haze 33 1015 29 5000 2.1 310 12:51 07.06.2019
6662 Haze 33 1015 29 5000 2.1 310 12:25 07.06.2019
6663 Haze 32 1015 29 5000 3.1 360 11:55 07.06.2019
6664 Haze 32 1015 29 5000 3.1 360 11:32 07.06.2019
6665 Haze 31 1015 29 5000 3.1 360 10:59 07.06.2019
6666 Haze 30 1015 35 5000 2.1 20 10:41 07.06.2019
6667 Haze 28 1015 32 5000 2.6 300 10:19 07.06.2019
6668 Haze 28 1015 32 5000 2.6 300 09:46 07.06.2019
6669 Haze 28 1016 39 6000 3.09 347.186 09:21 07.06.2019
6670 Haze 27 1016 39 5000 1.5 130 08:45 07.06.2019
6671 Haze 27 1016 39 5000 1.5 130 08:26 07.06.2019
6672 Haze 28 1015 39 4000 2.35 345.964 07:48 07.06.2019
6673 Haze 24 1015 47 4000 2.35 345.964 07:22 07.06.2019
6674 Haze 24 1015 47 4000 2.35 345.964 06:48 07.06.2019
6675 Haze 24 1015 47 4000 1.33 319.253 06:23 07.06.2019
6676 Haze 23 1015 56 4000 1.33 319.253 05:43 07.06.2019
6677 Haze 24 1015 44 5000 2.1 130 02:41 07.06.2019
6678 Clouds 24 1015 47 6000 3.74 90.23 01:37 07.06.2019
6679 Clouds 25 1016 47 6000 3.16 78.317 00:48 07.06.2019
6680 Clouds 26 1016 47 6000 3.6 60 23:46 06.06.2019
6681 Clouds 26 1016 47 6000 3.6 60 23:46 06.06.2019
6682 Clouds 26 1016 47 6000 3.6 60 23:25 06.06.2019
6683 Clouds 27 1016 39 6000 3.6 60 22:59 06.06.2019
6684 Clouds 27 1016 39 6000 3.6 60 22:37 06.06.2019
6685 Rain 27 1016 39 6000 6.2 80 22:19 06.06.2019
6686 Clouds 28 1016 34 6000 4.6 40 21:45 06.06.2019
6687 Clouds 28 1016 34 6000 4.6 40 21:22 06.06.2019
6688 Dust 29 1015 37 6000 5.1 30 20:57 06.06.2019
6689 Dust 28 1016 28 4000 2.1 360 20:38 06.06.2019
6690 Dust 28 1016 28 4000 2.1 360 20:38 06.06.2019
6691 Dust 30 1016 28 4000 2.1 360 20:20 06.06.2019
6692 Rain 30 1015 28 4000 2.6 320 19:37 06.06.2019
6693 Rain 30 1015 28 4000 2.6 320 19:19 06.06.2019
6694 Thunderstorm 31 1015 23 5000 6.7 300 18:44 06.06.2019
6695 Thunderstorm 31 1015 23 5000 6.7 300 18:25 06.06.2019
6696 Haze 33 1014 21 7000 6.2 320 17:56 06.06.2019
6697 Haze 34 1014 21 5000 6.2 320 17:38 06.06.2019
6698 Haze 36 1014 18 5000 5.1 320 17:20 06.06.2019
6699 Haze 36 1014 18 5000 5.1 320 16:42 06.06.2019
6700 Haze 37 1014 16 5000 3.1 330 16:21 06.06.2019
6701 Haze 37 1014 16 5000 3.1 330 15:46 06.06.2019
6702 Haze 37 1014 16 5000 3.1 330 15:26 06.06.2019
6703 Haze 36 1015 19 5000 4.6 320 14:46 06.06.2019
6704 Haze 36 1015 19 5000 4.6 320 14:20 06.06.2019
6705 Haze 36 1015 19 5000 4.6 320 13:54 06.06.2019
6706 Haze 37 1015 18 5000 3.1 10 13:31 06.06.2019
6707 Haze 37 1015 18 5000 3.1 10 12:58 06.06.2019
6708 Haze 36 1015 16 5000 2.6 100 12:39 06.06.2019
6709 Haze 36 1015 16 5000 2.6 100 12:21 06.06.2019
6710 Haze 36 1016 19 5000 2.6 310 11:46 06.06.2019
6711 Haze 36 1016 19 5000 2.6 310 11:27 06.06.2019
6712 Haze 34 1016 20 5000 3.6 320 10:50 06.06.2019
6713 Haze 34 1016 20 5000 3.6 320 10:29 06.06.2019
6714 Haze 33 1016 19 5000 3.1 340 09:49 06.06.2019
6715 Haze 33 1016 19 5000 3.1 340 09:26 06.06.2019
6716 Haze 32 1016 19 5000 3.1 340 08:54 06.06.2019
6717 Haze 31 1016 22 5000 2.1 320 08:28 06.06.2019
6718 Haze 29 1016 22 5000 2.1 320 07:55 06.06.2019
6719 Haze 28 1016 28 5000 1 240 07:35 06.06.2019
6720 Haze 26 1016 36 5000 2.1 250 06:50 06.06.2019
6721 Haze 23 1016 36 5000 2.1 250 06:25 06.06.2019
6722 Haze 24 1015 38 5000 1 110 04:39 06.06.2019
6723 Haze 25 1015 38 5000 3.35 332.296 03:38 06.06.2019
6724 Haze 25 1017 34 5000 3.13 314.689 02:19 06.06.2019
6725 Haze 25 1017 34 5000 3.13 314.689 01:21 06.06.2019
6726 Dust 25 1016 34 4000 2.6 50 00:33 06.06.2019
6727 Dust 26 1017 41 10000 2.1 20 23:54 05.06.2019
6728 Dust 26 1016 36 4000 2.6 50 23:31 05.06.2019
6729 Haze 26 1017 38 10000 2.1 10 22:56 05.